<?xml version='1.0' encoding='UTF-8'?><gpx version="1.1" creator="JPX - https://github.com/jenetics/jpx" xmlns="http://www.topografix.com/GPX/1/1"><trk><trkseg><trkpt lat="42.3537412" lon="13.4025258"><ele>735.0</ele><time>2026-05-03T07:24:10.389Z</time></trkpt><trkpt lat="42.3537663" lon="13.4024073"><ele>735.0</ele><time>2026-05-03T07:24:30.369Z</time></trkpt><trkpt lat="42.3537462" lon="13.4022955"><ele>735.0</ele><time>2026-05-03T07:24:34.359Z</time></trkpt><trkpt lat="42.3537378" lon="13.4022092"><ele>735.0</ele><time>2026-05-03T07:24:38.359Z</time></trkpt><trkpt lat="42.3537356" lon="13.4020517"><ele>735.0</ele><time>2026-05-03T07:24:58.364Z</time></trkpt><trkpt lat="42.3537378" lon="13.4019552"><ele>735.0</ele><time>2026-05-03T07:25:00.367Z</time></trkpt><trkpt lat="42.3537459" lon="13.4018639"><ele>734.8</ele><time>2026-05-03T07:25:02.363Z</time></trkpt><trkpt lat="42.3537702" lon="13.4017551"><ele>734.6</ele><time>2026-05-03T07:25:04.361Z</time></trkpt><trkpt lat="42.3538205" lon="13.4016492"><ele>734.4000000000001</ele><time>2026-05-03T07:25:06.364Z</time></trkpt><trkpt lat="42.3539309" lon="13.4016035"><ele>734.2</ele><time>2026-05-03T07:25:08.349Z</time></trkpt><trkpt lat="42.3540618" lon="13.4016942"><ele>734.0</ele><time>2026-05-03T07:25:10.336Z</time></trkpt><trkpt lat="42.3541758" lon="13.4018793"><ele>733.0</ele><time>2026-05-03T07:25:12.353Z</time></trkpt><trkpt lat="42.3543176" lon="13.4020871"><ele>732.0</ele><time>2026-05-03T07:25:14.367Z</time></trkpt><trkpt lat="42.3544839" lon="13.4022901"><ele>731.0</ele><time>2026-05-03T07:25:16.363Z</time></trkpt><trkpt lat="42.3546338" lon="13.4024722"><ele>726.0</ele><time>2026-05-03T07:25:18.364Z</time></trkpt><trkpt lat="42.3547902" lon="13.4026451"><ele>721.0</ele><time>2026-05-03T07:25:20.362Z</time></trkpt><trkpt lat="42.3549052" lon="13.4027772"><ele>716.0</ele><time>2026-05-03T07:25:22.355Z</time></trkpt><trkpt lat="42.3549708" lon="13.4028765"><ele>716.0</ele><time>2026-05-03T07:25:24.362Z</time></trkpt><trkpt lat="42.3550453" lon="13.4029657"><ele>716.0</ele><time>2026-05-03T07:25:26.359Z</time></trkpt><trkpt lat="42.3551141" lon="13.4030689"><ele>716.0</ele><time>2026-05-03T07:25:30.368Z</time></trkpt><trkpt lat="42.3552039" lon="13.4032471"><ele>716.0</ele><time>2026-05-03T07:25:34.369Z</time></trkpt><trkpt lat="42.3552517" lon="13.4034028"><ele>718.3333333333333</ele><time>2026-05-03T07:25:36.362Z</time></trkpt><trkpt lat="42.3552938" lon="13.4035789"><ele>720.6666666666666</ele><time>2026-05-03T07:25:38.362Z</time></trkpt><trkpt lat="42.3553425" lon="13.4037987"><ele>723.0</ele><time>2026-05-03T07:25:40.365Z</time></trkpt><trkpt lat="42.3554025" lon="13.4040418"><ele>725.3333333333334</ele><time>2026-05-03T07:25:42.44Z</time></trkpt><trkpt lat="42.355458" lon="13.4042634"><ele>727.6666666666667</ele><time>2026-05-03T07:25:44.459Z</time></trkpt><trkpt lat="42.3555069" lon="13.4044809"><ele>730.0</ele><time>2026-05-03T07:25:46.44Z</time></trkpt><trkpt lat="42.3555471" lon="13.4047004"><ele>726.2</ele><time>2026-05-03T07:25:48.439Z</time></trkpt><trkpt lat="42.355568" lon="13.4048514"><ele>722.4</ele><time>2026-05-03T07:25:50.454Z</time></trkpt><trkpt lat="42.3555679" lon="13.4049695"><ele>718.5999999999999</ele><time>2026-05-03T07:25:52.435Z</time></trkpt><trkpt lat="42.3555857" lon="13.405073"><ele>714.8</ele><time>2026-05-03T07:26:42.351Z</time></trkpt><trkpt lat="42.3556245" lon="13.405194"><ele>711.0</ele><time>2026-05-03T07:26:44.36Z</time></trkpt><trkpt lat="42.3556948" lon="13.4054145"><ele>711.25</ele><time>2026-05-03T07:26:46.345Z</time></trkpt><trkpt lat="42.3557441" lon="13.4056077"><ele>711.5</ele><time>2026-05-03T07:26:48.347Z</time></trkpt><trkpt lat="42.3557625" lon="13.4057458"><ele>711.75</ele><time>2026-05-03T07:26:50.354Z</time></trkpt><trkpt lat="42.3557404" lon="13.4058921"><ele>712.0</ele><time>2026-05-03T07:26:52.372Z</time></trkpt><trkpt lat="42.3557651" lon="13.4060136"><ele>712.0</ele><time>2026-05-03T07:26:54.353Z</time></trkpt><trkpt lat="42.3558612" lon="13.406093"><ele>712.0</ele><time>2026-05-03T07:26:56.352Z</time></trkpt><trkpt lat="42.3560183" lon="13.4061551"><ele>712.0</ele><time>2026-05-03T07:26:58.363Z</time></trkpt><trkpt lat="42.3561962" lon="13.4062906"><ele>712.0</ele><time>2026-05-03T07:27:00.348Z</time></trkpt><trkpt lat="42.35634" lon="13.4064508"><ele>712.0</ele><time>2026-05-03T07:27:02.362Z</time></trkpt><trkpt lat="42.3564495" lon="13.4065777"><ele>712.0</ele><time>2026-05-03T07:27:04.354Z</time></trkpt><trkpt lat="42.3565316" lon="13.4066889"><ele>712.0</ele><time>2026-05-03T07:27:06.357Z</time></trkpt><trkpt lat="42.3566408" lon="13.4068223"><ele>712.3333333333334</ele><time>2026-05-03T07:27:08.346Z</time></trkpt><trkpt lat="42.3567813" lon="13.4070315"><ele>712.6666666666666</ele><time>2026-05-03T07:27:10.355Z</time></trkpt><trkpt lat="42.3569178" lon="13.4072125"><ele>713.0</ele><time>2026-05-03T07:27:12.359Z</time></trkpt><trkpt lat="42.357046" lon="13.4073798"><ele>713.0</ele><time>2026-05-03T07:27:14.368Z</time></trkpt><trkpt lat="42.3571786" lon="13.407542"><ele>713.0</ele><time>2026-05-03T07:27:16.356Z</time></trkpt><trkpt lat="42.3573223" lon="13.4077255"><ele>713.0</ele><time>2026-05-03T07:27:18.345Z</time></trkpt><trkpt lat="42.3574212" lon="13.407884"><ele>713.6666666666666</ele><time>2026-05-03T07:27:20.342Z</time></trkpt><trkpt lat="42.3574901" lon="13.4079762"><ele>714.3333333333333</ele><time>2026-05-03T07:27:22.343Z</time></trkpt><trkpt lat="42.3575253" lon="13.4080592"><ele>715.0</ele><time>2026-05-03T07:27:24.342Z</time></trkpt><trkpt lat="42.357596" lon="13.4081312"><ele>715.6666666666666</ele><time>2026-05-03T07:27:40.357Z</time></trkpt><trkpt lat="42.3576835" lon="13.4082161"><ele>716.3333333333334</ele><time>2026-05-03T07:27:42.346Z</time></trkpt><trkpt lat="42.3577403" lon="13.4081765"><ele>717.0</ele><time>2026-05-03T07:27:44.355Z</time></trkpt><trkpt lat="42.3577167" lon="13.4080973"><ele>717.0</ele><time>2026-05-03T07:27:46.339Z</time></trkpt><trkpt lat="42.3576419" lon="13.4079979"><ele>717.0</ele><time>2026-05-03T07:27:48.342Z</time></trkpt><trkpt lat="42.3575307" lon="13.4078321"><ele>717.0</ele><time>2026-05-03T07:27:50.348Z</time></trkpt><trkpt lat="42.3573664" lon="13.4076125"><ele>717.0</ele><time>2026-05-03T07:27:52.345Z</time></trkpt><trkpt lat="42.3572126" lon="13.407403"><ele>717.0</ele><time>2026-05-03T07:27:54.371Z</time></trkpt><trkpt lat="42.3570591" lon="13.4072009"><ele>717.0</ele><time>2026-05-03T07:27:56.35Z</time></trkpt><trkpt lat="42.3569052" lon="13.4069931"><ele>716.3333333333334</ele><time>2026-05-03T07:27:58.345Z</time></trkpt><trkpt lat="42.35674" lon="13.4068083"><ele>715.6666666666667</ele><time>2026-05-03T07:28:00.359Z</time></trkpt><trkpt lat="42.3565725" lon="13.4066371"><ele>715.0</ele><time>2026-05-03T07:28:02.358Z</time></trkpt><trkpt lat="42.3564161" lon="13.4064454"><ele>714.0</ele><time>2026-05-03T07:28:04.354Z</time></trkpt><trkpt lat="42.3562681" lon="13.4062436"><ele>713.0</ele><time>2026-05-03T07:28:06.359Z</time></trkpt><trkpt lat="42.3561366" lon="13.4060732"><ele>712.0</ele><time>2026-05-03T07:28:08.355Z</time></trkpt><trkpt lat="42.3560378" lon="13.4058864"><ele>712.0</ele><time>2026-05-03T07:28:10.359Z</time></trkpt><trkpt lat="42.3559277" lon="13.4057306"><ele>712.0</ele><time>2026-05-03T07:28:12.365Z</time></trkpt><trkpt lat="42.355799" lon="13.4057323"><ele>712.0</ele><time>2026-05-03T07:28:14.361Z</time></trkpt><trkpt lat="42.3557326" lon="13.4058911"><ele>712.0</ele><time>2026-05-03T07:28:16.363Z</time></trkpt><trkpt lat="42.3557776" lon="13.4061459"><ele>712.0</ele><time>2026-05-03T07:28:18.357Z</time></trkpt><trkpt lat="42.3557767" lon="13.4063855"><ele>712.0</ele><time>2026-05-03T07:28:20.347Z</time></trkpt><trkpt lat="42.3556962" lon="13.4066298"><ele>712.0</ele><time>2026-05-03T07:28:22.352Z</time></trkpt><trkpt lat="42.3555587" lon="13.4068157"><ele>712.0</ele><time>2026-05-03T07:28:24.353Z</time></trkpt><trkpt lat="42.3553898" lon="13.4069199"><ele>712.0</ele><time>2026-05-03T07:28:26.352Z</time></trkpt><trkpt lat="42.3552716" lon="13.4070476"><ele>712.0</ele><time>2026-05-03T07:28:28.338Z</time></trkpt><trkpt lat="42.3551745" lon="13.4072364"><ele>712.0</ele><time>2026-05-03T07:28:30.35Z</time></trkpt><trkpt lat="42.355068" lon="13.4074029"><ele>712.0</ele><time>2026-05-03T07:28:32.348Z</time></trkpt><trkpt lat="42.3549849" lon="13.4075744"><ele>712.0</ele><time>2026-05-03T07:28:34.348Z</time></trkpt><trkpt lat="42.3549238" lon="13.4077194"><ele>712.0</ele><time>2026-05-03T07:28:36.345Z</time></trkpt><trkpt lat="42.3548806" lon="13.4078505"><ele>712.0</ele><time>2026-05-03T07:28:38.354Z</time></trkpt><trkpt lat="42.3548297" lon="13.4079615"><ele>712.0</ele><time>2026-05-03T07:28:40.349Z</time></trkpt><trkpt lat="42.3547749" lon="13.4080625"><ele>712.0</ele><time>2026-05-03T07:28:42.353Z</time></trkpt><trkpt lat="42.3547269" lon="13.4081637"><ele>712.0</ele><time>2026-05-03T07:28:44.383Z</time></trkpt><trkpt lat="42.3546631" lon="13.4082949"><ele>712.0</ele><time>2026-05-03T07:28:46.353Z</time></trkpt><trkpt lat="42.3545871" lon="13.4084556"><ele>712.6666666666667</ele><time>2026-05-03T07:28:48.357Z</time></trkpt><trkpt lat="42.3544982" lon="13.4086291"><ele>713.3333333333334</ele><time>2026-05-03T07:28:50.351Z</time></trkpt><trkpt lat="42.3543849" lon="13.4088103"><ele>714.0</ele><time>2026-05-03T07:28:52.377Z</time></trkpt><trkpt lat="42.3542643" lon="13.4089896"><ele>714.0</ele><time>2026-05-03T07:28:54.369Z</time></trkpt><trkpt lat="42.3541514" lon="13.4091605"><ele>714.0</ele><time>2026-05-03T07:28:56.388Z</time></trkpt><trkpt lat="42.354047" lon="13.4093237"><ele>714.0</ele><time>2026-05-03T07:28:58.372Z</time></trkpt><trkpt lat="42.3539203" lon="13.4095028"><ele>713.6666666666666</ele><time>2026-05-03T07:29:00.374Z</time></trkpt><trkpt lat="42.3537782" lon="13.4097035"><ele>713.3333333333333</ele><time>2026-05-03T07:29:02.448Z</time></trkpt><trkpt lat="42.3536258" lon="13.4099224"><ele>713.0</ele><time>2026-05-03T07:29:04.445Z</time></trkpt><trkpt lat="42.3534607" lon="13.4101533"><ele>713.0</ele><time>2026-05-03T07:29:06.442Z</time></trkpt><trkpt lat="42.3532906" lon="13.4103953"><ele>713.0</ele><time>2026-05-03T07:29:08.441Z</time></trkpt><trkpt lat="42.3531169" lon="13.410648"><ele>713.5</ele><time>2026-05-03T07:29:10.445Z</time></trkpt><trkpt lat="42.3529361" lon="13.4109092"><ele>714.0</ele><time>2026-05-03T07:29:12.447Z</time></trkpt><trkpt lat="42.352777" lon="13.4111493"><ele>715.0</ele><time>2026-05-03T07:29:14.457Z</time></trkpt><trkpt lat="42.3526175" lon="13.4113847"><ele>716.0</ele><time>2026-05-03T07:29:16.449Z</time></trkpt><trkpt lat="42.3524636" lon="13.4116086"><ele>716.0</ele><time>2026-05-03T07:29:18.45Z</time></trkpt><trkpt lat="42.3523095" lon="13.4118272"><ele>716.0</ele><time>2026-05-03T07:29:20.445Z</time></trkpt><trkpt lat="42.3521489" lon="13.4120666"><ele>715.6666666666666</ele><time>2026-05-03T07:29:22.447Z</time></trkpt><trkpt lat="42.3520205" lon="13.412298"><ele>715.3333333333334</ele><time>2026-05-03T07:29:24.439Z</time></trkpt><trkpt lat="42.3519483" lon="13.4125552"><ele>715.0</ele><time>2026-05-03T07:29:26.439Z</time></trkpt><trkpt lat="42.3519615" lon="13.412852"><ele>716.0</ele><time>2026-05-03T07:29:28.421Z</time></trkpt><trkpt lat="42.3520571" lon="13.4131642"><ele>717.0</ele><time>2026-05-03T07:29:30.423Z</time></trkpt><trkpt lat="42.3522063" lon="13.4134772"><ele>718.5</ele><time>2026-05-03T07:29:32.444Z</time></trkpt><trkpt lat="42.3523405" lon="13.4137789"><ele>720.0</ele><time>2026-05-03T07:29:34.439Z</time></trkpt><trkpt lat="42.3524342" lon="13.4140867"><ele>720.0</ele><time>2026-05-03T07:29:36.44Z</time></trkpt><trkpt lat="42.3524639" lon="13.414387"><ele>720.0</ele><time>2026-05-03T07:29:38.422Z</time></trkpt><trkpt lat="42.3524464" lon="13.4146536"><ele>720.0</ele><time>2026-05-03T07:29:40.416Z</time></trkpt><trkpt lat="42.3523947" lon="13.4149033"><ele>720.3333333333334</ele><time>2026-05-03T07:29:42.439Z</time></trkpt><trkpt lat="42.3523086" lon="13.4151561"><ele>720.6666666666667</ele><time>2026-05-03T07:29:44.432Z</time></trkpt><trkpt lat="42.3521863" lon="13.4154129"><ele>721.0</ele><time>2026-05-03T07:29:46.418Z</time></trkpt><trkpt lat="42.3520417" lon="13.4156665"><ele>722.0</ele><time>2026-05-03T07:29:48.44Z</time></trkpt><trkpt lat="42.3519034" lon="13.4159077"><ele>723.0</ele><time>2026-05-03T07:29:50.435Z</time></trkpt><trkpt lat="42.3517881" lon="13.4161598"><ele>724.0</ele><time>2026-05-03T07:29:52.441Z</time></trkpt><trkpt lat="42.3517131" lon="13.4164388"><ele>725.0</ele><time>2026-05-03T07:29:54.424Z</time></trkpt><trkpt lat="42.3516632" lon="13.4167329"><ele>726.0</ele><time>2026-05-03T07:29:56.426Z</time></trkpt><trkpt lat="42.3516417" lon="13.4170288"><ele>727.0</ele><time>2026-05-03T07:29:58.465Z</time></trkpt><trkpt lat="42.3516322" lon="13.4173217"><ele>728.5</ele><time>2026-05-03T07:30:00.432Z</time></trkpt><trkpt lat="42.3516253" lon="13.4176265"><ele>730.0</ele><time>2026-05-03T07:30:02.43Z</time></trkpt><trkpt lat="42.3516293" lon="13.4179373"><ele>730.0</ele><time>2026-05-03T07:30:04.449Z</time></trkpt><trkpt lat="42.3516706" lon="13.4182427"><ele>730.0</ele><time>2026-05-03T07:30:06.438Z</time></trkpt><trkpt lat="42.3517687" lon="13.418484"><ele>730.0</ele><time>2026-05-03T07:30:08.417Z</time></trkpt><trkpt lat="42.3518795" lon="13.4186545"><ele>730.0</ele><time>2026-05-03T07:30:10.419Z</time></trkpt><trkpt lat="42.3519467" lon="13.4187624"><ele>730.0</ele><time>2026-05-03T07:30:12.443Z</time></trkpt><trkpt lat="42.3519682" lon="13.418858"><ele>730.0</ele><time>2026-05-03T07:30:14.456Z</time></trkpt><trkpt lat="42.3519984" lon="13.4190136"><ele>730.0</ele><time>2026-05-03T07:30:16.423Z</time></trkpt><trkpt lat="42.3520754" lon="13.419155"><ele>730.0</ele><time>2026-05-03T07:30:18.419Z</time></trkpt><trkpt lat="42.3521757" lon="13.4192927"><ele>732.0</ele><time>2026-05-03T07:30:20.446Z</time></trkpt><trkpt lat="42.3522413" lon="13.4194343"><ele>734.0</ele><time>2026-05-03T07:30:22.446Z</time></trkpt><trkpt lat="42.3522766" lon="13.4195417"><ele>736.0</ele><time>2026-05-03T07:30:24.427Z</time></trkpt><trkpt lat="42.3523386" lon="13.4196878"><ele>738.0</ele><time>2026-05-03T07:30:28.447Z</time></trkpt><trkpt lat="42.3524074" lon="13.4197764"><ele>740.0</ele><time>2026-05-03T07:30:32.465Z</time></trkpt><trkpt lat="42.3523724" lon="13.419664"><ele>740.0</ele><time>2026-05-03T07:30:40.464Z</time></trkpt><trkpt lat="42.3524747" lon="13.4197494"><ele>740.0</ele><time>2026-05-03T07:30:42.359Z</time></trkpt><trkpt lat="42.3524273" lon="13.4196421"><ele>740.0</ele><time>2026-05-03T07:30:44.371Z</time></trkpt><trkpt lat="42.3523322" lon="13.4194814"><ele>740.0</ele><time>2026-05-03T07:30:46.371Z</time></trkpt><trkpt lat="42.3522764" lon="13.4192725"><ele>740.25</ele><time>2026-05-03T07:30:48.354Z</time></trkpt><trkpt lat="42.3522776" lon="13.4190568"><ele>740.5</ele><time>2026-05-03T07:30:50.358Z</time></trkpt><trkpt lat="42.3522516" lon="13.4188636"><ele>740.75</ele><time>2026-05-03T07:30:52.352Z</time></trkpt><trkpt lat="42.352146" lon="13.4187819"><ele>741.0</ele><time>2026-05-03T07:30:54.365Z</time></trkpt><trkpt lat="42.3520252" lon="13.4188519"><ele>741.0</ele><time>2026-05-03T07:30:56.359Z</time></trkpt><trkpt lat="42.3519792" lon="13.4189927"><ele>741.0</ele><time>2026-05-03T07:30:58.348Z</time></trkpt><trkpt lat="42.3520659" lon="13.419115"><ele>741.0</ele><time>2026-05-03T07:31:00.371Z</time></trkpt><trkpt lat="42.3522014" lon="13.419102"><ele>741.0</ele><time>2026-05-03T07:31:02.348Z</time></trkpt><trkpt lat="42.352276" lon="13.4189685"><ele>740.75</ele><time>2026-05-03T07:31:04.363Z</time></trkpt><trkpt lat="42.3522073" lon="13.4188126"><ele>740.5</ele><time>2026-05-03T07:31:06.367Z</time></trkpt><trkpt lat="42.3520656" lon="13.4187951"><ele>740.25</ele><time>2026-05-03T07:31:08.356Z</time></trkpt><trkpt lat="42.3519407" lon="13.4189302"><ele>740.0</ele><time>2026-05-03T07:31:10.355Z</time></trkpt><trkpt lat="42.3518784" lon="13.4190771"><ele>738.6</ele><time>2026-05-03T07:31:12.368Z</time></trkpt><trkpt lat="42.3518567" lon="13.4191937"><ele>737.2</ele><time>2026-05-03T07:31:14.373Z</time></trkpt><trkpt lat="42.3518771" lon="13.4193115"><ele>735.8</ele><time>2026-05-03T07:31:16.365Z</time></trkpt><trkpt lat="42.3519392" lon="13.4194292"><ele>734.4</ele><time>2026-05-03T07:31:18.37Z</time></trkpt><trkpt lat="42.3520075" lon="13.4195591"><ele>733.0</ele><time>2026-05-03T07:31:20.365Z</time></trkpt><trkpt lat="42.3520702" lon="13.4196707"><ele>733.0</ele><time>2026-05-03T07:31:22.362Z</time></trkpt><trkpt lat="42.3521265" lon="13.4197747"><ele>733.0</ele><time>2026-05-03T07:31:24.358Z</time></trkpt><trkpt lat="42.3521703" lon="13.4198795"><ele>733.0</ele><time>2026-05-03T07:31:26.354Z</time></trkpt><trkpt lat="42.3521773" lon="13.4200176"><ele>733.0</ele><time>2026-05-03T07:31:28.353Z</time></trkpt><trkpt lat="42.35218" lon="13.4201305"><ele>733.0</ele><time>2026-05-03T07:31:30.354Z</time></trkpt><trkpt lat="42.352172" lon="13.4202491"><ele>733.0</ele><time>2026-05-03T07:31:32.361Z</time></trkpt><trkpt lat="42.3521754" lon="13.4203808"><ele>733.0</ele><time>2026-05-03T07:31:34.356Z</time></trkpt><trkpt lat="42.3521954" lon="13.420546"><ele>733.0</ele><time>2026-05-03T07:31:36.364Z</time></trkpt><trkpt lat="42.3522157" lon="13.4207078"><ele>733.0</ele><time>2026-05-03T07:31:38.359Z</time></trkpt><trkpt lat="42.3522569" lon="13.4208635"><ele>735.0</ele><time>2026-05-03T07:31:40.365Z</time></trkpt><trkpt lat="42.3522996" lon="13.4210169"><ele>737.0</ele><time>2026-05-03T07:31:42.362Z</time></trkpt><trkpt lat="42.3523467" lon="13.4212075"><ele>739.0</ele><time>2026-05-03T07:31:44.379Z</time></trkpt><trkpt lat="42.352383" lon="13.4213991"><ele>741.0</ele><time>2026-05-03T07:31:46.359Z</time></trkpt><trkpt lat="42.3524147" lon="13.4216209"><ele>742.0</ele><time>2026-05-03T07:31:48.367Z</time></trkpt><trkpt lat="42.3523846" lon="13.421855"><ele>743.0</ele><time>2026-05-03T07:31:50.362Z</time></trkpt><trkpt lat="42.3523434" lon="13.4220966"><ele>744.0</ele><time>2026-05-03T07:31:52.357Z</time></trkpt><trkpt lat="42.3523428" lon="13.4223752"><ele>740.5</ele><time>2026-05-03T07:31:54.349Z</time></trkpt><trkpt lat="42.3523647" lon="13.422681"><ele>737.0</ele><time>2026-05-03T07:31:56.353Z</time></trkpt><trkpt lat="42.3524019" lon="13.4230058"><ele>732.0</ele><time>2026-05-03T07:31:58.347Z</time></trkpt><trkpt lat="42.3524392" lon="13.4233237"><ele>727.0</ele><time>2026-05-03T07:32:00.343Z</time></trkpt><trkpt lat="42.3524363" lon="13.4236574"><ele>724.0</ele><time>2026-05-03T07:32:02.36Z</time></trkpt><trkpt lat="42.3523819" lon="13.423986"><ele>721.0</ele><time>2026-05-03T07:32:04.336Z</time></trkpt><trkpt lat="42.3523154" lon="13.4242736"><ele>721.0</ele><time>2026-05-03T07:32:06.339Z</time></trkpt><trkpt lat="42.352256" lon="13.4245305"><ele>721.0</ele><time>2026-05-03T07:32:08.341Z</time></trkpt><trkpt lat="42.3521923" lon="13.4248038"><ele>721.0</ele><time>2026-05-03T07:32:10.338Z</time></trkpt><trkpt lat="42.3520993" lon="13.4251066"><ele>719.5</ele><time>2026-05-03T07:32:12.339Z</time></trkpt><trkpt lat="42.3519588" lon="13.4253559"><ele>718.0</ele><time>2026-05-03T07:32:14.356Z</time></trkpt><trkpt lat="42.3518131" lon="13.4255995"><ele>718.0</ele><time>2026-05-03T07:32:16.348Z</time></trkpt><trkpt lat="42.3517097" lon="13.4258247"><ele>718.0</ele><time>2026-05-03T07:32:18.354Z</time></trkpt><trkpt lat="42.3516052" lon="13.4260685"><ele>718.0</ele><time>2026-05-03T07:32:20.351Z</time></trkpt><trkpt lat="42.3515146" lon="13.4262913"><ele>721.6666666666667</ele><time>2026-05-03T07:32:22.352Z</time></trkpt><trkpt lat="42.3514504" lon="13.4265309"><ele>725.3333333333334</ele><time>2026-05-03T07:32:24.346Z</time></trkpt><trkpt lat="42.3514024" lon="13.426791"><ele>729.0</ele><time>2026-05-03T07:32:26.345Z</time></trkpt><trkpt lat="42.3513529" lon="13.4270248"><ele>731.0</ele><time>2026-05-03T07:32:28.342Z</time></trkpt><trkpt lat="42.3513289" lon="13.4272563"><ele>733.0</ele><time>2026-05-03T07:32:30.355Z</time></trkpt><trkpt lat="42.3513171" lon="13.4274667"><ele>735.0</ele><time>2026-05-03T07:32:32.352Z</time></trkpt><trkpt lat="42.351261" lon="13.4276315"><ele>735.0</ele><time>2026-05-03T07:32:34.356Z</time></trkpt><trkpt lat="42.3511751" lon="13.4277771"><ele>735.0</ele><time>2026-05-03T07:32:36.355Z</time></trkpt><trkpt lat="42.3510981" lon="13.427884"><ele>735.0</ele><time>2026-05-03T07:32:38.355Z</time></trkpt><trkpt lat="42.3510382" lon="13.4279509"><ele>735.0</ele><time>2026-05-03T07:32:40.351Z</time></trkpt><trkpt lat="42.3510104" lon="13.4281052"><ele>735.0</ele><time>2026-05-03T07:32:44.358Z</time></trkpt><trkpt lat="42.3510746" lon="13.4281959"><ele>734.0</ele><time>2026-05-03T07:32:46.351Z</time></trkpt><trkpt lat="42.3511891" lon="13.4282708"><ele>733.0</ele><time>2026-05-03T07:32:48.355Z</time></trkpt><trkpt lat="42.3513256" lon="13.4283559"><ele>732.0</ele><time>2026-05-03T07:32:50.357Z</time></trkpt><trkpt lat="42.3514888" lon="13.42841"><ele>731.0</ele><time>2026-05-03T07:32:52.365Z</time></trkpt><trkpt lat="42.3516411" lon="13.4284887"><ele>733.5</ele><time>2026-05-03T07:32:54.352Z</time></trkpt><trkpt lat="42.3517415" lon="13.4286852"><ele>736.0</ele><time>2026-05-03T07:32:56.358Z</time></trkpt><trkpt lat="42.3518279" lon="13.428836"><ele>738.5</ele><time>2026-05-03T07:32:58.358Z</time></trkpt><trkpt lat="42.3518628" lon="13.4289392"><ele>741.0</ele><time>2026-05-03T07:33:00.362Z</time></trkpt><trkpt lat="42.3518803" lon="13.4291541"><ele>741.3333333333334</ele><time>2026-05-03T07:33:04.362Z</time></trkpt><trkpt lat="42.3518054" lon="13.4293645"><ele>741.6666666666667</ele><time>2026-05-03T07:33:06.35Z</time></trkpt><trkpt lat="42.3517054" lon="13.4295832"><ele>742.0</ele><time>2026-05-03T07:33:08.429Z</time></trkpt><trkpt lat="42.3516049" lon="13.4297942"><ele>742.5</ele><time>2026-05-03T07:33:10.436Z</time></trkpt><trkpt lat="42.3515105" lon="13.4299634"><ele>743.0</ele><time>2026-05-03T07:33:12.417Z</time></trkpt><trkpt lat="42.3513922" lon="13.4300597"><ele>743.5</ele><time>2026-05-03T07:33:14.433Z</time></trkpt><trkpt lat="42.351283" lon="13.4300516"><ele>744.0</ele><time>2026-05-03T07:33:16.436Z</time></trkpt><trkpt lat="42.3510778" lon="13.4300216"><ele>741.0</ele><time>2026-05-03T07:33:18.341Z</time></trkpt><trkpt lat="42.3508862" lon="13.4299516"><ele>738.0</ele><time>2026-05-03T07:33:20.341Z</time></trkpt><trkpt lat="42.3507356" lon="13.4299443"><ele>735.0</ele><time>2026-05-03T07:33:22.356Z</time></trkpt><trkpt lat="42.3506523" lon="13.4300177"><ele>732.0</ele><time>2026-05-03T07:33:24.355Z</time></trkpt><trkpt lat="42.3505813" lon="13.4300838"><ele>730.6666666666666</ele><time>2026-05-03T07:33:26.365Z</time></trkpt><trkpt lat="42.3504903" lon="13.4301501"><ele>729.3333333333333</ele><time>2026-05-03T07:33:28.364Z</time></trkpt><trkpt lat="42.3503765" lon="13.4303061"><ele>728.0</ele><time>2026-05-03T07:33:30.36Z</time></trkpt><trkpt lat="42.3502505" lon="13.4305352"><ele>728.0</ele><time>2026-05-03T07:33:32.355Z</time></trkpt><trkpt lat="42.3501106" lon="13.4307534"><ele>728.0</ele><time>2026-05-03T07:33:34.367Z</time></trkpt><trkpt lat="42.3499734" lon="13.4309485"><ele>728.0</ele><time>2026-05-03T07:33:36.355Z</time></trkpt><trkpt lat="42.3498152" lon="13.431066"><ele>725.6666666666666</ele><time>2026-05-03T07:33:38.35Z</time></trkpt><trkpt lat="42.3496324" lon="13.4310935"><ele>723.3333333333334</ele><time>2026-05-03T07:33:40.355Z</time></trkpt><trkpt lat="42.3494514" lon="13.4310536"><ele>721.0</ele><time>2026-05-03T07:33:42.355Z</time></trkpt><trkpt lat="42.3492709" lon="13.4309884"><ele>721.0</ele><time>2026-05-03T07:33:44.368Z</time></trkpt><trkpt lat="42.3490923" lon="13.431028"><ele>721.0</ele><time>2026-05-03T07:33:46.349Z</time></trkpt><trkpt lat="42.3489246" lon="13.4311378"><ele>721.0</ele><time>2026-05-03T07:33:48.356Z</time></trkpt><trkpt lat="42.3487585" lon="13.4312431"><ele>721.0</ele><time>2026-05-03T07:33:50.356Z</time></trkpt><trkpt lat="42.3485977" lon="13.4313934"><ele>721.0</ele><time>2026-05-03T07:33:52.354Z</time></trkpt><trkpt lat="42.3483962" lon="13.4315398"><ele>721.0</ele><time>2026-05-03T07:33:54.355Z</time></trkpt><trkpt lat="42.3482089" lon="13.4316133"><ele>717.6666666666667</ele><time>2026-05-03T07:33:56.359Z</time></trkpt><trkpt lat="42.3480225" lon="13.4316622"><ele>714.3333333333334</ele><time>2026-05-03T07:33:58.362Z</time></trkpt><trkpt lat="42.3478456" lon="13.431735"><ele>711.0</ele><time>2026-05-03T07:34:00.364Z</time></trkpt><trkpt lat="42.3476684" lon="13.431843"><ele>711.0</ele><time>2026-05-03T07:34:02.362Z</time></trkpt><trkpt lat="42.3475014" lon="13.4319721"><ele>711.0</ele><time>2026-05-03T07:34:04.356Z</time></trkpt><trkpt lat="42.3473134" lon="13.4320873"><ele>711.0</ele><time>2026-05-03T07:34:06.359Z</time></trkpt><trkpt lat="42.3471323" lon="13.43219"><ele>711.6666666666666</ele><time>2026-05-03T07:34:08.362Z</time></trkpt><trkpt lat="42.3469259" lon="13.4322831"><ele>712.3333333333333</ele><time>2026-05-03T07:34:10.361Z</time></trkpt><trkpt lat="42.3467328" lon="13.4324279"><ele>713.0</ele><time>2026-05-03T07:34:12.364Z</time></trkpt><trkpt lat="42.346569" lon="13.4325969"><ele>713.0</ele><time>2026-05-03T07:34:14.367Z</time></trkpt><trkpt lat="42.3464268" lon="13.4327372"><ele>713.0</ele><time>2026-05-03T07:34:16.36Z</time></trkpt><trkpt lat="42.3463037" lon="13.4328601"><ele>713.0</ele><time>2026-05-03T07:34:18.359Z</time></trkpt><trkpt lat="42.3461556" lon="13.4329633"><ele>713.25</ele><time>2026-05-03T07:34:20.357Z</time></trkpt><trkpt lat="42.3459941" lon="13.4330586"><ele>713.5</ele><time>2026-05-03T07:34:22.358Z</time></trkpt><trkpt lat="42.345862" lon="13.4331554"><ele>713.75</ele><time>2026-05-03T07:34:24.346Z</time></trkpt><trkpt lat="42.345778" lon="13.4332212"><ele>714.0</ele><time>2026-05-03T07:34:26.355Z</time></trkpt><trkpt lat="42.3456978" lon="13.4332796"><ele>714.0</ele><time>2026-05-03T07:34:28.352Z</time></trkpt><trkpt lat="42.3455713" lon="13.4333631"><ele>714.0</ele><time>2026-05-03T07:34:30.353Z</time></trkpt><trkpt lat="42.3454539" lon="13.433448"><ele>714.0</ele><time>2026-05-03T07:34:32.357Z</time></trkpt><trkpt lat="42.3453637" lon="13.4335489"><ele>714.0</ele><time>2026-05-03T07:34:34.354Z</time></trkpt><trkpt lat="42.3452741" lon="13.4336809"><ele>711.6666666666666</ele><time>2026-05-03T07:34:36.372Z</time></trkpt><trkpt lat="42.3451669" lon="13.4338289"><ele>709.3333333333333</ele><time>2026-05-03T07:34:38.355Z</time></trkpt><trkpt lat="42.3450726" lon="13.4339935"><ele>707.0</ele><time>2026-05-03T07:34:40.354Z</time></trkpt><trkpt lat="42.3449817" lon="13.4341817"><ele>707.0</ele><time>2026-05-03T07:34:42.356Z</time></trkpt><trkpt lat="42.3448829" lon="13.4343731"><ele>707.0</ele><time>2026-05-03T07:34:44.377Z</time></trkpt><trkpt lat="42.344796" lon="13.4345606"><ele>707.0</ele><time>2026-05-03T07:34:46.362Z</time></trkpt><trkpt lat="42.3447224" lon="13.4347489"><ele>702.6666666666666</ele><time>2026-05-03T07:34:48.359Z</time></trkpt><trkpt lat="42.3446426" lon="13.4349537"><ele>698.3333333333334</ele><time>2026-05-03T07:34:50.359Z</time></trkpt><trkpt lat="42.3445722" lon="13.4351531"><ele>694.0</ele><time>2026-05-03T07:34:52.363Z</time></trkpt><trkpt lat="42.3444946" lon="13.435343"><ele>695.0</ele><time>2026-05-03T07:34:54.358Z</time></trkpt><trkpt lat="42.3444165" lon="13.4355215"><ele>696.0</ele><time>2026-05-03T07:34:56.365Z</time></trkpt><trkpt lat="42.3443341" lon="13.435717"><ele>697.0</ele><time>2026-05-03T07:34:58.354Z</time></trkpt><trkpt lat="42.3442577" lon="13.4358855"><ele>697.0</ele><time>2026-05-03T07:35:00.349Z</time></trkpt><trkpt lat="42.3442421" lon="13.4361085"><ele>697.0</ele><time>2026-05-03T07:35:02.356Z</time></trkpt><trkpt lat="42.3442395" lon="13.4363197"><ele>697.0</ele><time>2026-05-03T07:35:04.351Z</time></trkpt><trkpt lat="42.344219" lon="13.4364897"><ele>697.0</ele><time>2026-05-03T07:35:06.352Z</time></trkpt><trkpt lat="42.3442109" lon="13.4366153"><ele>696.75</ele><time>2026-05-03T07:35:08.348Z</time></trkpt><trkpt lat="42.3442096" lon="13.4367344"><ele>696.5</ele><time>2026-05-03T07:35:10.348Z</time></trkpt><trkpt lat="42.3441941" lon="13.4368832"><ele>696.25</ele><time>2026-05-03T07:35:12.346Z</time></trkpt><trkpt lat="42.3441581" lon="13.4370399"><ele>696.0</ele><time>2026-05-03T07:35:14.358Z</time></trkpt><trkpt lat="42.3440817" lon="13.4372152"><ele>697.75</ele><time>2026-05-03T07:35:16.35Z</time></trkpt><trkpt lat="42.3440439" lon="13.4373952"><ele>699.5</ele><time>2026-05-03T07:35:18.348Z</time></trkpt><trkpt lat="42.3440493" lon="13.4375764"><ele>701.25</ele><time>2026-05-03T07:35:20.35Z</time></trkpt><trkpt lat="42.344026" lon="13.4377483"><ele>703.0</ele><time>2026-05-03T07:35:22.35Z</time></trkpt><trkpt lat="42.3439943" lon="13.4378712"><ele>705.0</ele><time>2026-05-03T07:35:24.352Z</time></trkpt><trkpt lat="42.3439881" lon="13.4380147"><ele>707.0</ele><time>2026-05-03T07:35:26.343Z</time></trkpt><trkpt lat="42.3439484" lon="13.4382077"><ele>709.0</ele><time>2026-05-03T07:35:28.343Z</time></trkpt><trkpt lat="42.3439073" lon="13.4383769"><ele>711.0</ele><time>2026-05-03T07:35:30.338Z</time></trkpt><trkpt lat="42.3438895" lon="13.438494"><ele>708.0</ele><time>2026-05-03T07:35:32.344Z</time></trkpt><trkpt lat="42.3438782" lon="13.4385943"><ele>705.0</ele><time>2026-05-03T07:35:34.347Z</time></trkpt><trkpt lat="42.343831" lon="13.4387026"><ele>702.0</ele><time>2026-05-03T07:35:36.35Z</time></trkpt><trkpt lat="42.3437783" lon="13.4388297"><ele>699.0</ele><time>2026-05-03T07:35:38.373Z</time></trkpt><trkpt lat="42.3437173" lon="13.4389522"><ele>696.0</ele><time>2026-05-03T07:35:40.346Z</time></trkpt><trkpt lat="42.3436437" lon="13.4390222"><ele>696.0</ele><time>2026-05-03T07:35:42.341Z</time></trkpt><trkpt lat="42.3435152" lon="13.4391045"><ele>696.0</ele><time>2026-05-03T07:35:44.38Z</time></trkpt><trkpt lat="42.3433817" lon="13.43927"><ele>696.0</ele><time>2026-05-03T07:35:46.363Z</time></trkpt><trkpt lat="42.3432663" lon="13.4394151"><ele>696.0</ele><time>2026-05-03T07:35:48.363Z</time></trkpt><trkpt lat="42.3431713" lon="13.4395349"><ele>696.0</ele><time>2026-05-03T07:35:50.362Z</time></trkpt><trkpt lat="42.3430817" lon="13.4396773"><ele>696.0</ele><time>2026-05-03T07:35:52.361Z</time></trkpt><trkpt lat="42.3429819" lon="13.4397865"><ele>696.0</ele><time>2026-05-03T07:35:54.368Z</time></trkpt><trkpt lat="42.3428768" lon="13.4398604"><ele>695.5</ele><time>2026-05-03T07:35:56.364Z</time></trkpt><trkpt lat="42.3427746" lon="13.4398944"><ele>695.0</ele><time>2026-05-03T07:35:58.367Z</time></trkpt><trkpt lat="42.3426593" lon="13.4398876"><ele>694.5</ele><time>2026-05-03T07:36:00.364Z</time></trkpt><trkpt lat="42.3425044" lon="13.4398768"><ele>694.0</ele><time>2026-05-03T07:36:02.368Z</time></trkpt><trkpt lat="42.3423655" lon="13.4398907"><ele>694.0</ele><time>2026-05-03T07:36:04.365Z</time></trkpt><trkpt lat="42.3422436" lon="13.4399402"><ele>694.0</ele><time>2026-05-03T07:36:06.369Z</time></trkpt><trkpt lat="42.3421355" lon="13.4400341"><ele>694.0</ele><time>2026-05-03T07:36:08.365Z</time></trkpt><trkpt lat="42.3420052" lon="13.4400981"><ele>694.0</ele><time>2026-05-03T07:36:10.361Z</time></trkpt><trkpt lat="42.3418625" lon="13.4401278"><ele>691.5</ele><time>2026-05-03T07:36:12.363Z</time></trkpt><trkpt lat="42.3417285" lon="13.4401813"><ele>689.0</ele><time>2026-05-03T07:36:14.374Z</time></trkpt><trkpt lat="42.3415801" lon="13.4402176"><ele>686.5</ele><time>2026-05-03T07:36:16.353Z</time></trkpt><trkpt lat="42.3414385" lon="13.4402234"><ele>684.0</ele><time>2026-05-03T07:36:18.36Z</time></trkpt><trkpt lat="42.3413014" lon="13.4401927"><ele>681.8000000000001</ele><time>2026-05-03T07:36:20.36Z</time></trkpt><trkpt lat="42.3411927" lon="13.4401801"><ele>679.6</ele><time>2026-05-03T07:36:22.353Z</time></trkpt><trkpt lat="42.3410853" lon="13.4402122"><ele>677.4</ele><time>2026-05-03T07:36:24.354Z</time></trkpt><trkpt lat="42.3409972" lon="13.4402441"><ele>675.2</ele><time>2026-05-03T07:36:26.349Z</time></trkpt><trkpt lat="42.3409012" lon="13.4402999"><ele>673.0</ele><time>2026-05-03T07:36:28.363Z</time></trkpt><trkpt lat="42.3408078" lon="13.440368"><ele>673.0</ele><time>2026-05-03T07:36:30.357Z</time></trkpt><trkpt lat="42.3406981" lon="13.4404209"><ele>673.0</ele><time>2026-05-03T07:36:32.351Z</time></trkpt><trkpt lat="42.3405956" lon="13.4404739"><ele>673.0</ele><time>2026-05-03T07:36:34.351Z</time></trkpt><trkpt lat="42.3404857" lon="13.4405136"><ele>673.0</ele><time>2026-05-03T07:36:36.346Z</time></trkpt><trkpt lat="42.3404005" lon="13.4406129"><ele>670.0</ele><time>2026-05-03T07:36:38.344Z</time></trkpt><trkpt lat="42.3403281" lon="13.4407576"><ele>667.0</ele><time>2026-05-03T07:36:40.36Z</time></trkpt><trkpt lat="42.3402919" lon="13.4409489"><ele>664.0</ele><time>2026-05-03T07:36:42.34Z</time></trkpt><trkpt lat="42.3402404" lon="13.4411641"><ele>661.0</ele><time>2026-05-03T07:36:44.348Z</time></trkpt><trkpt lat="42.3402178" lon="13.4413901"><ele>659.3333333333334</ele><time>2026-05-03T07:36:46.338Z</time></trkpt><trkpt lat="42.3401654" lon="13.4415891"><ele>657.6666666666666</ele><time>2026-05-03T07:36:48.338Z</time></trkpt><trkpt lat="42.3401209" lon="13.4418165"><ele>656.0</ele><time>2026-05-03T07:36:50.325Z</time></trkpt><trkpt lat="42.34004" lon="13.4420909"><ele>654.0</ele><time>2026-05-03T07:36:52.334Z</time></trkpt><trkpt lat="42.339954" lon="13.4423653"><ele>652.0</ele><time>2026-05-03T07:36:54.342Z</time></trkpt><trkpt lat="42.3398808" lon="13.4426351"><ele>650.0</ele><time>2026-05-03T07:36:56.339Z</time></trkpt><trkpt lat="42.3398324" lon="13.4428911"><ele>651.0</ele><time>2026-05-03T07:36:58.339Z</time></trkpt><trkpt lat="42.3397914" lon="13.4431226"><ele>652.0</ele><time>2026-05-03T07:37:00.342Z</time></trkpt><trkpt lat="42.3397131" lon="13.4433315"><ele>653.0</ele><time>2026-05-03T07:37:02.34Z</time></trkpt><trkpt lat="42.3395974" lon="13.4434881"><ele>653.0</ele><time>2026-05-03T07:37:04.337Z</time></trkpt><trkpt lat="42.3394522" lon="13.4436506"><ele>653.0</ele><time>2026-05-03T07:37:06.339Z</time></trkpt><trkpt lat="42.3392979" lon="13.4437922"><ele>653.0</ele><time>2026-05-03T07:37:08.337Z</time></trkpt><trkpt lat="42.339125" lon="13.4439638"><ele>653.0</ele><time>2026-05-03T07:37:10.34Z</time></trkpt><trkpt lat="42.3390048" lon="13.4441496"><ele>653.0</ele><time>2026-05-03T07:37:12.339Z</time></trkpt><trkpt lat="42.3389719" lon="13.4443297"><ele>653.0</ele><time>2026-05-03T07:37:14.353Z</time></trkpt><trkpt lat="42.3389723" lon="13.4445751"><ele>652.5</ele><time>2026-05-03T07:37:16.34Z</time></trkpt><trkpt lat="42.3389956" lon="13.4448704"><ele>652.0</ele><time>2026-05-03T07:37:18.347Z</time></trkpt><trkpt lat="42.3389616" lon="13.4451857"><ele>654.5</ele><time>2026-05-03T07:37:20.351Z</time></trkpt><trkpt lat="42.3389044" lon="13.4455272"><ele>657.0</ele><time>2026-05-03T07:37:22.346Z</time></trkpt><trkpt lat="42.3388311" lon="13.4458472"><ele>648.5</ele><time>2026-05-03T07:37:24.341Z</time></trkpt><trkpt lat="42.3387079" lon="13.4461619"><ele>640.0</ele><time>2026-05-03T07:37:26.343Z</time></trkpt><trkpt lat="42.3385652" lon="13.4465338"><ele>640.0</ele><time>2026-05-03T07:37:28.351Z</time></trkpt><trkpt lat="42.3384395" lon="13.4469292"><ele>640.0</ele><time>2026-05-03T07:37:30.342Z</time></trkpt><trkpt lat="42.3383173" lon="13.4473324"><ele>640.5</ele><time>2026-05-03T07:37:32.346Z</time></trkpt><trkpt lat="42.3381961" lon="13.4477341"><ele>641.0</ele><time>2026-05-03T07:37:34.346Z</time></trkpt><trkpt lat="42.3381007" lon="13.4481015"><ele>633.0</ele><time>2026-05-03T07:37:36.346Z</time></trkpt><trkpt lat="42.337999" lon="13.4484963"><ele>625.0</ele><time>2026-05-03T07:37:38.345Z</time></trkpt><trkpt lat="42.3378867" lon="13.4489049"><ele>625.0</ele><time>2026-05-03T07:37:40.344Z</time></trkpt><trkpt lat="42.3377912" lon="13.4492805"><ele>625.0</ele><time>2026-05-03T07:37:42.346Z</time></trkpt><trkpt lat="42.3377499" lon="13.4496048"><ele>624.5</ele><time>2026-05-03T07:37:44.359Z</time></trkpt><trkpt lat="42.3377976" lon="13.4499879"><ele>624.0</ele><time>2026-05-03T07:37:46.344Z</time></trkpt><trkpt lat="42.337853" lon="13.4504137"><ele>623.0</ele><time>2026-05-03T07:37:48.338Z</time></trkpt><trkpt lat="42.3378656" lon="13.450864"><ele>622.0</ele><time>2026-05-03T07:37:50.342Z</time></trkpt><trkpt lat="42.337862" lon="13.4512418"><ele>621.0</ele><time>2026-05-03T07:37:52.341Z</time></trkpt><trkpt lat="42.3378685" lon="13.4516236"><ele>620.0</ele><time>2026-05-03T07:37:54.34Z</time></trkpt><trkpt lat="42.3379028" lon="13.4519505"><ele>618.0</ele><time>2026-05-03T07:37:56.34Z</time></trkpt><trkpt lat="42.3379125" lon="13.4522783"><ele>616.0</ele><time>2026-05-03T07:37:58.344Z</time></trkpt><trkpt lat="42.3379401" lon="13.4525585"><ele>616.0</ele><time>2026-05-03T07:38:00.344Z</time></trkpt><trkpt lat="42.3379585" lon="13.4527343"><ele>616.0</ele><time>2026-05-03T07:38:02.337Z</time></trkpt><trkpt lat="42.3379662" lon="13.4528404"><ele>616.0</ele><time>2026-05-03T07:38:06.35Z</time></trkpt><trkpt lat="42.3380085" lon="13.4529147"><ele>616.0</ele><time>2026-05-03T07:38:14.35Z</time></trkpt><trkpt lat="42.3380651" lon="13.4530523"><ele>616.0</ele><time>2026-05-03T07:38:16.338Z</time></trkpt><trkpt lat="42.3381316" lon="13.4532041"><ele>619.6666666666667</ele><time>2026-05-03T07:38:18.332Z</time></trkpt><trkpt lat="42.338171" lon="13.4534534"><ele>623.3333333333334</ele><time>2026-05-03T07:38:20.332Z</time></trkpt><trkpt lat="42.3382116" lon="13.4536791"><ele>627.0</ele><time>2026-05-03T07:38:22.335Z</time></trkpt><trkpt lat="42.3382265" lon="13.4539187"><ele>627.0</ele><time>2026-05-03T07:38:24.337Z</time></trkpt><trkpt lat="42.3381677" lon="13.4541713"><ele>627.0</ele><time>2026-05-03T07:38:26.339Z</time></trkpt><trkpt lat="42.338115" lon="13.4544169"><ele>627.0</ele><time>2026-05-03T07:38:28.337Z</time></trkpt><trkpt lat="42.3380835" lon="13.4546845"><ele>625.0</ele><time>2026-05-03T07:38:30.33Z</time></trkpt><trkpt lat="42.3381167" lon="13.4549373"><ele>623.0</ele><time>2026-05-03T07:38:32.334Z</time></trkpt><trkpt lat="42.3381775" lon="13.4551887"><ele>621.0</ele><time>2026-05-03T07:38:34.333Z</time></trkpt><trkpt lat="42.338221" lon="13.4553749"><ele>617.8</ele><time>2026-05-03T07:38:36.352Z</time></trkpt><trkpt lat="42.3382336" lon="13.4554832"><ele>614.6</ele><time>2026-05-03T07:38:38.34Z</time></trkpt><trkpt lat="42.338141" lon="13.455542"><ele>611.4</ele><time>2026-05-03T07:38:40.336Z</time></trkpt><trkpt lat="42.3380675" lon="13.4555266"><ele>608.2</ele><time>2026-05-03T07:38:42.351Z</time></trkpt><trkpt lat="42.3381284" lon="13.4556087"><ele>605.0</ele><time>2026-05-03T07:38:48.342Z</time></trkpt><trkpt lat="42.3382986" lon="13.455667"><ele>605.0</ele><time>2026-05-03T07:38:50.338Z</time></trkpt><trkpt lat="42.3385303" lon="13.455764"><ele>605.0</ele><time>2026-05-03T07:38:52.421Z</time></trkpt><trkpt lat="42.338797" lon="13.4558671"><ele>607.5</ele><time>2026-05-03T07:38:54.423Z</time></trkpt><trkpt lat="42.3390902" lon="13.4559778"><ele>610.0</ele><time>2026-05-03T07:38:56.418Z</time></trkpt><trkpt lat="42.3393593" lon="13.456017"><ele>610.0</ele><time>2026-05-03T07:38:58.409Z</time></trkpt><trkpt lat="42.3395856" lon="13.4560066"><ele>610.0</ele><time>2026-05-03T07:39:00.316Z</time></trkpt><trkpt lat="42.3397181" lon="13.4561266"><ele>610.0</ele><time>2026-05-03T07:39:02.315Z</time></trkpt><trkpt lat="42.3397407" lon="13.4563352"><ele>607.75</ele><time>2026-05-03T07:39:04.333Z</time></trkpt><trkpt lat="42.3397505" lon="13.4564665"><ele>605.5</ele><time>2026-05-03T07:39:06.337Z</time></trkpt><trkpt lat="42.33978" lon="13.4565888"><ele>603.25</ele><time>2026-05-03T07:39:10.35Z</time></trkpt><trkpt lat="42.3399265" lon="13.4567166"><ele>601.0</ele><time>2026-05-03T07:39:14.374Z</time></trkpt><trkpt lat="42.3401559" lon="13.4567754"><ele>601.0</ele><time>2026-05-03T07:39:16.344Z</time></trkpt><trkpt lat="42.3403958" lon="13.4568521"><ele>601.0</ele><time>2026-05-03T07:39:18.342Z</time></trkpt><trkpt lat="42.3406817" lon="13.456936"><ele>600.5</ele><time>2026-05-03T07:39:20.344Z</time></trkpt><trkpt lat="42.3409681" lon="13.4570666"><ele>600.0</ele><time>2026-05-03T07:39:22.347Z</time></trkpt><trkpt lat="42.3412301" lon="13.4572305"><ele>600.5</ele><time>2026-05-03T07:39:24.343Z</time></trkpt><trkpt lat="42.3414712" lon="13.4574819"><ele>601.0</ele><time>2026-05-03T07:39:26.336Z</time></trkpt><trkpt lat="42.3416867" lon="13.4577655"><ele>601.0</ele><time>2026-05-03T07:39:28.344Z</time></trkpt><trkpt lat="42.3418733" lon="13.4580258"><ele>601.0</ele><time>2026-05-03T07:39:30.345Z</time></trkpt><trkpt lat="42.3420726" lon="13.4582809"><ele>601.0</ele><time>2026-05-03T07:39:32.344Z</time></trkpt><trkpt lat="42.3422712" lon="13.4585336"><ele>601.0</ele><time>2026-05-03T07:39:34.343Z</time></trkpt><trkpt lat="42.3424772" lon="13.4588103"><ele>601.0</ele><time>2026-05-03T07:39:36.342Z</time></trkpt><trkpt lat="42.3426965" lon="13.4590939"><ele>601.0</ele><time>2026-05-03T07:39:38.348Z</time></trkpt><trkpt lat="42.3429338" lon="13.459396"><ele>603.5</ele><time>2026-05-03T07:39:40.348Z</time></trkpt><trkpt lat="42.3431587" lon="13.4597196"><ele>606.0</ele><time>2026-05-03T07:39:42.351Z</time></trkpt><trkpt lat="42.3433727" lon="13.4600119"><ele>606.0</ele><time>2026-05-03T07:39:44.359Z</time></trkpt><trkpt lat="42.3435651" lon="13.4602742"><ele>606.0</ele><time>2026-05-03T07:39:46.349Z</time></trkpt><trkpt lat="42.3437759" lon="13.4605412"><ele>608.0</ele><time>2026-05-03T07:39:48.353Z</time></trkpt><trkpt lat="42.3439952" lon="13.4608294"><ele>610.0</ele><time>2026-05-03T07:39:50.35Z</time></trkpt><trkpt lat="42.3442277" lon="13.4611171"><ele>609.5</ele><time>2026-05-03T07:39:52.349Z</time></trkpt><trkpt lat="42.3444618" lon="13.4613802"><ele>609.0</ele><time>2026-05-03T07:39:54.348Z</time></trkpt><trkpt lat="42.3446797" lon="13.4616404"><ele>610.5</ele><time>2026-05-03T07:39:56.351Z</time></trkpt><trkpt lat="42.3449047" lon="13.4618826"><ele>612.0</ele><time>2026-05-03T07:39:58.353Z</time></trkpt><trkpt lat="42.3451211" lon="13.4621124"><ele>612.0</ele><time>2026-05-03T07:40:00.351Z</time></trkpt><trkpt lat="42.3453287" lon="13.4622775"><ele>612.0</ele><time>2026-05-03T07:40:02.345Z</time></trkpt><trkpt lat="42.3454775" lon="13.4624087"><ele>612.0</ele><time>2026-05-03T07:40:04.346Z</time></trkpt><trkpt lat="42.3455951" lon="13.4624878"><ele>612.0</ele><time>2026-05-03T07:40:06.34Z</time></trkpt><trkpt lat="42.3456485" lon="13.4625562"><ele>612.0</ele><time>2026-05-03T07:40:08.343Z</time></trkpt><trkpt lat="42.345608" lon="13.4626459"><ele>612.0</ele><time>2026-05-03T07:40:10.352Z</time></trkpt><trkpt lat="42.3455429" lon="13.4627545"><ele>612.0</ele><time>2026-05-03T07:40:12.351Z</time></trkpt><trkpt lat="42.3454413" lon="13.4628647"><ele>612.0</ele><time>2026-05-03T07:40:14.366Z</time></trkpt><trkpt lat="42.345342" lon="13.4629836"><ele>612.5</ele><time>2026-05-03T07:40:16.355Z</time></trkpt><trkpt lat="42.3452457" lon="13.4631209"><ele>613.0</ele><time>2026-05-03T07:40:18.341Z</time></trkpt><trkpt lat="42.3451642" lon="13.4632778"><ele>613.5</ele><time>2026-05-03T07:40:20.344Z</time></trkpt><trkpt lat="42.3450833" lon="13.4634319"><ele>614.0</ele><time>2026-05-03T07:40:22.339Z</time></trkpt><trkpt lat="42.3450118" lon="13.4636388"><ele>614.3333333333333</ele><time>2026-05-03T07:40:24.336Z</time></trkpt><trkpt lat="42.344949" lon="13.4638717"><ele>614.6666666666666</ele><time>2026-05-03T07:40:26.344Z</time></trkpt><trkpt lat="42.3449034" lon="13.4641214"><ele>615.0</ele><time>2026-05-03T07:40:28.343Z</time></trkpt><trkpt lat="42.3448566" lon="13.4643947"><ele>615.0</ele><time>2026-05-03T07:40:30.344Z</time></trkpt><trkpt lat="42.3447758" lon="13.4646689"><ele>615.0</ele><time>2026-05-03T07:40:32.349Z</time></trkpt><trkpt lat="42.3447094" lon="13.4649549"><ele>615.0</ele><time>2026-05-03T07:40:34.352Z</time></trkpt><trkpt lat="42.3446394" lon="13.465247"><ele>614.6666666666666</ele><time>2026-05-03T07:40:36.347Z</time></trkpt><trkpt lat="42.3445583" lon="13.4655342"><ele>614.3333333333333</ele><time>2026-05-03T07:40:38.347Z</time></trkpt><trkpt lat="42.3444571" lon="13.4657869"><ele>614.0</ele><time>2026-05-03T07:40:40.345Z</time></trkpt><trkpt lat="42.3443792" lon="13.4659637"><ele>614.0</ele><time>2026-05-03T07:40:42.335Z</time></trkpt><trkpt lat="42.3443835" lon="13.4660743"><ele>614.0</ele><time>2026-05-03T07:40:44.372Z</time></trkpt><trkpt lat="42.3444895" lon="13.466174"><ele>614.0</ele><time>2026-05-03T07:40:46.343Z</time></trkpt><trkpt lat="42.3446787" lon="13.4662667"><ele>614.0</ele><time>2026-05-03T07:40:48.345Z</time></trkpt><trkpt lat="42.3449115" lon="13.4663158"><ele>614.5</ele><time>2026-05-03T07:40:50.351Z</time></trkpt><trkpt lat="42.3451803" lon="13.4663204"><ele>615.0</ele><time>2026-05-03T07:40:52.344Z</time></trkpt><trkpt lat="42.3454123" lon="13.4662809"><ele>617.0</ele><time>2026-05-03T07:40:54.345Z</time></trkpt><trkpt lat="42.3456268" lon="13.4663424"><ele>619.0</ele><time>2026-05-03T07:40:56.349Z</time></trkpt><trkpt lat="42.3458687" lon="13.4665028"><ele>619.0</ele><time>2026-05-03T07:40:58.347Z</time></trkpt><trkpt lat="42.3461158" lon="13.4666485"><ele>619.0</ele><time>2026-05-03T07:41:00.346Z</time></trkpt><trkpt lat="42.3463166" lon="13.4667916"><ele>620.0</ele><time>2026-05-03T07:41:02.351Z</time></trkpt><trkpt lat="42.3464767" lon="13.466979"><ele>621.0</ele><time>2026-05-03T07:41:04.342Z</time></trkpt><trkpt lat="42.3466285" lon="13.4672401"><ele>621.0</ele><time>2026-05-03T07:41:06.351Z</time></trkpt><trkpt lat="42.3467691" lon="13.4674932"><ele>621.0</ele><time>2026-05-03T07:41:08.348Z</time></trkpt><trkpt lat="42.3468868" lon="13.4676917"><ele>621.0</ele><time>2026-05-03T07:41:10.376Z</time></trkpt><trkpt lat="42.3470237" lon="13.4678671"><ele>621.0</ele><time>2026-05-03T07:41:12.424Z</time></trkpt><trkpt lat="42.3471784" lon="13.4679098"><ele>621.0</ele><time>2026-05-03T07:41:14.432Z</time></trkpt><trkpt lat="42.3473798" lon="13.4678197"><ele>621.0</ele><time>2026-05-03T07:41:16.332Z</time></trkpt><trkpt lat="42.3475604" lon="13.4678279"><ele>621.6666666666666</ele><time>2026-05-03T07:41:18.37Z</time></trkpt><trkpt lat="42.3477266" lon="13.4678962"><ele>622.3333333333333</ele><time>2026-05-03T07:41:20.353Z</time></trkpt><trkpt lat="42.3479113" lon="13.4679961"><ele>623.0</ele><time>2026-05-03T07:41:22.351Z</time></trkpt><trkpt lat="42.348147" lon="13.4680874"><ele>624.0</ele><time>2026-05-03T07:41:24.35Z</time></trkpt><trkpt lat="42.3484016" lon="13.468172"><ele>625.0</ele><time>2026-05-03T07:41:26.353Z</time></trkpt><trkpt lat="42.3486594" lon="13.4683011"><ele>626.5</ele><time>2026-05-03T07:41:28.347Z</time></trkpt><trkpt lat="42.3489033" lon="13.4684058"><ele>628.0</ele><time>2026-05-03T07:41:30.348Z</time></trkpt><trkpt lat="42.3491208" lon="13.4684646"><ele>628.0</ele><time>2026-05-03T07:41:32.347Z</time></trkpt><trkpt lat="42.349334" lon="13.4684749"><ele>628.0</ele><time>2026-05-03T07:41:34.352Z</time></trkpt><trkpt lat="42.3495581" lon="13.4685002"><ele>628.0</ele><time>2026-05-03T07:41:36.352Z</time></trkpt><trkpt lat="42.349779" lon="13.4685067"><ele>628.3333333333334</ele><time>2026-05-03T07:41:38.349Z</time></trkpt><trkpt lat="42.3499913" lon="13.4685157"><ele>628.6666666666666</ele><time>2026-05-03T07:41:40.351Z</time></trkpt><trkpt lat="42.3502042" lon="13.4685992"><ele>629.0</ele><time>2026-05-03T07:41:42.354Z</time></trkpt><trkpt lat="42.3504134" lon="13.4688208"><ele>630.0</ele><time>2026-05-03T07:41:44.364Z</time></trkpt><trkpt lat="42.3506144" lon="13.4689819"><ele>631.0</ele><time>2026-05-03T07:41:46.347Z</time></trkpt><trkpt lat="42.3508535" lon="13.4690488"><ele>631.0</ele><time>2026-05-03T07:41:48.345Z</time></trkpt><trkpt lat="42.3510742" lon="13.4690421"><ele>631.0</ele><time>2026-05-03T07:41:50.35Z</time></trkpt><trkpt lat="42.3512572" lon="13.4689615"><ele>631.0</ele><time>2026-05-03T07:41:52.35Z</time></trkpt><trkpt lat="42.3513811" lon="13.4688726"><ele>632.0</ele><time>2026-05-03T07:41:54.354Z</time></trkpt><trkpt lat="42.3514471" lon="13.4687974"><ele>633.0</ele><time>2026-05-03T07:41:56.358Z</time></trkpt><trkpt lat="42.3515229" lon="13.4686887"><ele>634.0</ele><time>2026-05-03T07:41:58.357Z</time></trkpt><trkpt lat="42.3516046" lon="13.4686378"><ele>635.0</ele><time>2026-05-03T07:42:00.348Z</time></trkpt><trkpt lat="42.3517183" lon="13.468705"><ele>636.0</ele><time>2026-05-03T07:42:02.349Z</time></trkpt><trkpt lat="42.3517875" lon="13.4687921"><ele>636.0</ele><time>2026-05-03T07:42:04.354Z</time></trkpt><trkpt lat="42.3518403" lon="13.4688637"><ele>636.0</ele><time>2026-05-03T07:42:08.362Z</time></trkpt><trkpt lat="42.3518904" lon="13.4689731"><ele>636.0</ele><time>2026-05-03T07:44:48.364Z</time></trkpt><trkpt lat="42.3519845" lon="13.4690995"><ele>636.0</ele><time>2026-05-03T07:44:52.352Z</time></trkpt><trkpt lat="42.3520612" lon="13.4691835"><ele>636.0</ele><time>2026-05-03T07:44:54.37Z</time></trkpt><trkpt lat="42.3521414" lon="13.4692744"><ele>636.25</ele><time>2026-05-03T07:44:56.351Z</time></trkpt><trkpt lat="42.3522136" lon="13.4693694"><ele>636.5</ele><time>2026-05-03T07:44:58.35Z</time></trkpt><trkpt lat="42.352296" lon="13.469454"><ele>636.75</ele><time>2026-05-03T07:45:00.347Z</time></trkpt><trkpt lat="42.3523872" lon="13.4695622"><ele>637.0</ele><time>2026-05-03T07:45:02.349Z</time></trkpt><trkpt lat="42.3524886" lon="13.4696783"><ele>637.6666666666667</ele><time>2026-05-03T07:45:04.348Z</time></trkpt><trkpt lat="42.3526054" lon="13.4697935"><ele>638.3333333333334</ele><time>2026-05-03T07:45:06.35Z</time></trkpt><trkpt lat="42.3527119" lon="13.4699301"><ele>639.0</ele><time>2026-05-03T07:45:08.347Z</time></trkpt><trkpt lat="42.3528324" lon="13.4700755"><ele>639.0</ele><time>2026-05-03T07:45:10.345Z</time></trkpt><trkpt lat="42.3529442" lon="13.4702291"><ele>639.0</ele><time>2026-05-03T07:45:12.344Z</time></trkpt><trkpt lat="42.3530576" lon="13.4704141"><ele>639.0</ele><time>2026-05-03T07:45:14.354Z</time></trkpt><trkpt lat="42.3531729" lon="13.4706076"><ele>640.0</ele><time>2026-05-03T07:45:16.345Z</time></trkpt><trkpt lat="42.3532912" lon="13.4708207"><ele>641.0</ele><time>2026-05-03T07:45:18.345Z</time></trkpt><trkpt lat="42.3533989" lon="13.4710293"><ele>642.0</ele><time>2026-05-03T07:45:20.343Z</time></trkpt><trkpt lat="42.3535013" lon="13.471231"><ele>642.0</ele><time>2026-05-03T07:45:22.34Z</time></trkpt><trkpt lat="42.353605" lon="13.4713752"><ele>642.0</ele><time>2026-05-03T07:45:24.344Z</time></trkpt><trkpt lat="42.3536794" lon="13.4714833"><ele>642.0</ele><time>2026-05-03T07:45:26.339Z</time></trkpt><trkpt lat="42.353774" lon="13.471546"><ele>642.0</ele><time>2026-05-03T07:45:30.357Z</time></trkpt><trkpt lat="42.3538697" lon="13.471549"><ele>642.3333333333334</ele><time>2026-05-03T07:45:32.36Z</time></trkpt><trkpt lat="42.3539822" lon="13.4715245"><ele>642.6666666666666</ele><time>2026-05-03T07:45:34.352Z</time></trkpt><trkpt lat="42.3540604" lon="13.4715049"><ele>643.0</ele><time>2026-05-03T07:45:36.357Z</time></trkpt><trkpt lat="42.3541459" lon="13.4714946"><ele>643.3333333333333</ele><time>2026-05-03T07:46:02.365Z</time></trkpt><trkpt lat="42.3542074" lon="13.4714738"><ele>643.6666666666666</ele><time>2026-05-03T07:46:04.365Z</time></trkpt><trkpt lat="42.3542709" lon="13.4714586"><ele>644.0</ele><time>2026-05-03T07:46:08.37Z</time></trkpt><trkpt lat="42.3543568" lon="13.4714323"><ele>644.0</ele><time>2026-05-03T07:46:12.365Z</time></trkpt><trkpt lat="42.3544939" lon="13.4714372"><ele>644.0</ele><time>2026-05-03T07:46:14.366Z</time></trkpt><trkpt lat="42.3546375" lon="13.4715577"><ele>644.0</ele><time>2026-05-03T07:46:16.355Z</time></trkpt><trkpt lat="42.3547609" lon="13.4717173"><ele>645.0</ele><time>2026-05-03T07:46:18.355Z</time></trkpt><trkpt lat="42.3548861" lon="13.4718718"><ele>646.0</ele><time>2026-05-03T07:46:20.349Z</time></trkpt><trkpt lat="42.3550058" lon="13.4720422"><ele>647.0</ele><time>2026-05-03T07:46:22.351Z</time></trkpt><trkpt lat="42.3551519" lon="13.4722179"><ele>647.0</ele><time>2026-05-03T07:46:24.417Z</time></trkpt><trkpt lat="42.3553039" lon="13.4724038"><ele>647.0</ele><time>2026-05-03T07:46:26.428Z</time></trkpt><trkpt lat="42.355447" lon="13.4725994"><ele>647.0</ele><time>2026-05-03T07:46:28.433Z</time></trkpt><trkpt lat="42.3555897" lon="13.4727657"><ele>647.6666666666666</ele><time>2026-05-03T07:46:30.434Z</time></trkpt><trkpt lat="42.3557273" lon="13.4729123"><ele>648.3333333333334</ele><time>2026-05-03T07:46:32.429Z</time></trkpt><trkpt lat="42.3558683" lon="13.4730575"><ele>649.0</ele><time>2026-05-03T07:46:34.431Z</time></trkpt><trkpt lat="42.3560158" lon="13.4732021"><ele>649.3333333333334</ele><time>2026-05-03T07:46:36.429Z</time></trkpt><trkpt lat="42.3561639" lon="13.4733427"><ele>649.6666666666666</ele><time>2026-05-03T07:46:38.43Z</time></trkpt><trkpt lat="42.3562983" lon="13.4734644"><ele>650.0</ele><time>2026-05-03T07:46:40.429Z</time></trkpt><trkpt lat="42.3564377" lon="13.473536"><ele>650.75</ele><time>2026-05-03T07:46:42.414Z</time></trkpt><trkpt lat="42.3565646" lon="13.4736231"><ele>651.5</ele><time>2026-05-03T07:46:44.335Z</time></trkpt><trkpt lat="42.3566423" lon="13.4737597"><ele>652.25</ele><time>2026-05-03T07:46:46.337Z</time></trkpt><trkpt lat="42.3567054" lon="13.4739761"><ele>653.0</ele><time>2026-05-03T07:46:48.337Z</time></trkpt><trkpt lat="42.3567775" lon="13.4741983"><ele>654.0</ele><time>2026-05-03T07:46:50.34Z</time></trkpt><trkpt lat="42.3568575" lon="13.4743982"><ele>655.0</ele><time>2026-05-03T07:46:52.341Z</time></trkpt><trkpt lat="42.3569283" lon="13.4746289"><ele>656.0</ele><time>2026-05-03T07:46:54.338Z</time></trkpt><trkpt lat="42.3570172" lon="13.4748752"><ele>659.0</ele><time>2026-05-03T07:46:56.342Z</time></trkpt><trkpt lat="42.3570917" lon="13.4751057"><ele>662.0</ele><time>2026-05-03T07:46:58.343Z</time></trkpt><trkpt lat="42.3571586" lon="13.4753235"><ele>665.0</ele><time>2026-05-03T07:47:00.344Z</time></trkpt><trkpt lat="42.357201" lon="13.4755777"><ele>668.6666666666666</ele><time>2026-05-03T07:47:02.343Z</time></trkpt><trkpt lat="42.3572522" lon="13.4758426"><ele>672.3333333333334</ele><time>2026-05-03T07:47:04.348Z</time></trkpt><trkpt lat="42.3572624" lon="13.4761021"><ele>676.0</ele><time>2026-05-03T07:47:06.346Z</time></trkpt><trkpt lat="42.3572442" lon="13.4763591"><ele>678.3333333333334</ele><time>2026-05-03T07:47:08.347Z</time></trkpt><trkpt lat="42.3572382" lon="13.4766403"><ele>680.6666666666666</ele><time>2026-05-03T07:47:10.347Z</time></trkpt><trkpt lat="42.3572459" lon="13.476918"><ele>683.0</ele><time>2026-05-03T07:47:12.348Z</time></trkpt><trkpt lat="42.3572787" lon="13.4771863"><ele>685.0</ele><time>2026-05-03T07:47:14.358Z</time></trkpt><trkpt lat="42.357312" lon="13.4774287"><ele>687.0</ele><time>2026-05-03T07:47:16.345Z</time></trkpt><trkpt lat="42.3573348" lon="13.4776625"><ele>689.0</ele><time>2026-05-03T07:47:18.346Z</time></trkpt><trkpt lat="42.3573643" lon="13.4779088"><ele>691.0</ele><time>2026-05-03T07:47:20.349Z</time></trkpt><trkpt lat="42.3573895" lon="13.478112"><ele>693.0</ele><time>2026-05-03T07:47:22.347Z</time></trkpt><trkpt lat="42.3574347" lon="13.4782379"><ele>695.0</ele><time>2026-05-03T07:47:24.343Z</time></trkpt><trkpt lat="42.3574746" lon="13.4783525"><ele>697.0</ele><time>2026-05-03T07:47:26.346Z</time></trkpt><trkpt lat="42.3575285" lon="13.4784942"><ele>697.0</ele><time>2026-05-03T07:47:28.363Z</time></trkpt><trkpt lat="42.3575671" lon="13.4786697"><ele>697.0</ele><time>2026-05-03T07:47:30.338Z</time></trkpt><trkpt lat="42.3575859" lon="13.4788596"><ele>697.0</ele><time>2026-05-03T07:47:32.344Z</time></trkpt><trkpt lat="42.3575963" lon="13.4790642"><ele>697.0</ele><time>2026-05-03T07:47:34.347Z</time></trkpt><trkpt lat="42.3576298" lon="13.4793089"><ele>700.0</ele><time>2026-05-03T07:47:36.345Z</time></trkpt><trkpt lat="42.3576636" lon="13.4795315"><ele>703.0</ele><time>2026-05-03T07:47:38.348Z</time></trkpt><trkpt lat="42.3576917" lon="13.4797662"><ele>706.0</ele><time>2026-05-03T07:47:40.351Z</time></trkpt><trkpt lat="42.3577283" lon="13.4799906"><ele>709.0</ele><time>2026-05-03T07:47:42.347Z</time></trkpt><trkpt lat="42.3577612" lon="13.4802096"><ele>712.0</ele><time>2026-05-03T07:47:44.363Z</time></trkpt><trkpt lat="42.357737" lon="13.4804463"><ele>715.0</ele><time>2026-05-03T07:47:46.348Z</time></trkpt><trkpt lat="42.3576738" lon="13.4806746"><ele>716.6</ele><time>2026-05-03T07:47:48.348Z</time></trkpt><trkpt lat="42.3576734" lon="13.4808764"><ele>718.2</ele><time>2026-05-03T07:47:50.342Z</time></trkpt><trkpt lat="42.3577109" lon="13.4809741"><ele>719.8</ele><time>2026-05-03T07:47:52.343Z</time></trkpt><trkpt lat="42.3577337" lon="13.4810814"><ele>721.4</ele><time>2026-05-03T07:47:56.357Z</time></trkpt><trkpt lat="42.3577322" lon="13.4812299"><ele>723.0</ele><time>2026-05-03T07:48:00.35Z</time></trkpt><trkpt lat="42.3577183" lon="13.4814109"><ele>726.3333333333334</ele><time>2026-05-03T07:48:02.356Z</time></trkpt><trkpt lat="42.3576963" lon="13.4816158"><ele>729.6666666666667</ele><time>2026-05-03T07:48:04.349Z</time></trkpt><trkpt lat="42.3576632" lon="13.4818365"><ele>733.0</ele><time>2026-05-03T07:48:06.345Z</time></trkpt><trkpt lat="42.357619" lon="13.4820601"><ele>736.3333333333334</ele><time>2026-05-03T07:48:08.342Z</time></trkpt><trkpt lat="42.3575672" lon="13.4823"><ele>739.6666666666666</ele><time>2026-05-03T07:48:10.342Z</time></trkpt><trkpt lat="42.3575558" lon="13.4825048"><ele>743.0</ele><time>2026-05-03T07:48:12.34Z</time></trkpt><trkpt lat="42.3575655" lon="13.482713"><ele>745.3333333333333</ele><time>2026-05-03T07:48:14.355Z</time></trkpt><trkpt lat="42.357584" lon="13.4829533"><ele>747.6666666666666</ele><time>2026-05-03T07:48:16.343Z</time></trkpt><trkpt lat="42.3576052" lon="13.4832044"><ele>750.0</ele><time>2026-05-03T07:48:18.347Z</time></trkpt><trkpt lat="42.3576279" lon="13.4834761"><ele>750.0</ele><time>2026-05-03T07:48:20.347Z</time></trkpt><trkpt lat="42.3576455" lon="13.4837442"><ele>750.0</ele><time>2026-05-03T07:48:22.337Z</time></trkpt><trkpt lat="42.3576818" lon="13.4839398"><ele>750.0</ele><time>2026-05-03T07:48:24.351Z</time></trkpt><trkpt lat="42.3577264" lon="13.4841609"><ele>751.3333333333334</ele><time>2026-05-03T07:48:26.345Z</time></trkpt><trkpt lat="42.357767" lon="13.4844042"><ele>752.6666666666667</ele><time>2026-05-03T07:48:28.349Z</time></trkpt><trkpt lat="42.3577749" lon="13.4846526"><ele>754.0</ele><time>2026-05-03T07:48:30.367Z</time></trkpt><trkpt lat="42.357762" lon="13.4848912"><ele>755.0</ele><time>2026-05-03T07:48:32.349Z</time></trkpt><trkpt lat="42.3577291" lon="13.4851511"><ele>756.0</ele><time>2026-05-03T07:48:34.342Z</time></trkpt><trkpt lat="42.3577069" lon="13.4854186"><ele>757.0</ele><time>2026-05-03T07:48:36.352Z</time></trkpt><trkpt lat="42.3576916" lon="13.4856564"><ele>757.0</ele><time>2026-05-03T07:48:38.351Z</time></trkpt><trkpt lat="42.3576864" lon="13.4858438"><ele>757.0</ele><time>2026-05-03T07:48:40.345Z</time></trkpt><trkpt lat="42.3577329" lon="13.4860646"><ele>757.0</ele><time>2026-05-03T07:48:42.343Z</time></trkpt><trkpt lat="42.3578295" lon="13.4863107"><ele>755.3333333333334</ele><time>2026-05-03T07:48:44.353Z</time></trkpt><trkpt lat="42.357917" lon="13.486519"><ele>753.6666666666666</ele><time>2026-05-03T07:48:46.34Z</time></trkpt><trkpt lat="42.3580444" lon="13.4866903"><ele>752.0</ele><time>2026-05-03T07:48:48.339Z</time></trkpt><trkpt lat="42.358202" lon="13.4868568"><ele>755.6666666666666</ele><time>2026-05-03T07:48:50.339Z</time></trkpt><trkpt lat="42.3583597" lon="13.4870536"><ele>759.3333333333334</ele><time>2026-05-03T07:48:52.331Z</time></trkpt><trkpt lat="42.3585118" lon="13.4872248"><ele>763.0</ele><time>2026-05-03T07:48:54.326Z</time></trkpt><trkpt lat="42.3586593" lon="13.4874178"><ele>763.0</ele><time>2026-05-03T07:48:56.328Z</time></trkpt><trkpt lat="42.3587794" lon="13.4875966"><ele>763.0</ele><time>2026-05-03T07:48:58.326Z</time></trkpt><trkpt lat="42.3588803" lon="13.4878379"><ele>763.0</ele><time>2026-05-03T07:49:00.328Z</time></trkpt><trkpt lat="42.3590016" lon="13.4880764"><ele>768.6666666666667</ele><time>2026-05-03T07:49:02.325Z</time></trkpt><trkpt lat="42.3591037" lon="13.4882061"><ele>774.3333333333334</ele><time>2026-05-03T07:49:04.331Z</time></trkpt><trkpt lat="42.3592088" lon="13.4883433"><ele>780.0</ele><time>2026-05-03T07:49:06.332Z</time></trkpt><trkpt lat="42.3593181" lon="13.4885098"><ele>780.0</ele><time>2026-05-03T07:49:08.329Z</time></trkpt><trkpt lat="42.3594238" lon="13.488661"><ele>780.0</ele><time>2026-05-03T07:49:10.326Z</time></trkpt><trkpt lat="42.3595049" lon="13.4888276"><ele>780.0</ele><time>2026-05-03T07:49:12.331Z</time></trkpt><trkpt lat="42.3595783" lon="13.4890022"><ele>782.3333333333333</ele><time>2026-05-03T07:49:14.341Z</time></trkpt><trkpt lat="42.359679" lon="13.4891362"><ele>784.6666666666666</ele><time>2026-05-03T07:49:16.328Z</time></trkpt><trkpt lat="42.3598134" lon="13.4893023"><ele>787.0</ele><time>2026-05-03T07:49:18.323Z</time></trkpt><trkpt lat="42.3599737" lon="13.4894069"><ele>788.6666666666666</ele><time>2026-05-03T07:49:20.326Z</time></trkpt><trkpt lat="42.3601457" lon="13.4895001"><ele>790.3333333333333</ele><time>2026-05-03T07:49:22.322Z</time></trkpt><trkpt lat="42.3602837" lon="13.4896371"><ele>792.0</ele><time>2026-05-03T07:49:24.323Z</time></trkpt><trkpt lat="42.3604342" lon="13.4897893"><ele>794.6666666666667</ele><time>2026-05-03T07:49:26.323Z</time></trkpt><trkpt lat="42.3606039" lon="13.489907"><ele>797.3333333333334</ele><time>2026-05-03T07:49:28.322Z</time></trkpt><trkpt lat="42.3607631" lon="13.490057"><ele>800.0</ele><time>2026-05-03T07:49:30.325Z</time></trkpt><trkpt lat="42.360875" lon="13.4902133"><ele>800.0</ele><time>2026-05-03T07:49:32.345Z</time></trkpt><trkpt lat="42.3610121" lon="13.4903042"><ele>800.0</ele><time>2026-05-03T07:49:34.33Z</time></trkpt><trkpt lat="42.36119" lon="13.4904086"><ele>800.0</ele><time>2026-05-03T07:49:36.329Z</time></trkpt><trkpt lat="42.3613616" lon="13.4905472"><ele>804.0</ele><time>2026-05-03T07:49:38.336Z</time></trkpt><trkpt lat="42.3615038" lon="13.4906905"><ele>808.0</ele><time>2026-05-03T07:49:40.336Z</time></trkpt><trkpt lat="42.361665" lon="13.4907881"><ele>812.0</ele><time>2026-05-03T07:49:42.334Z</time></trkpt><trkpt lat="42.3617949" lon="13.4908846"><ele>812.0</ele><time>2026-05-03T07:49:44.343Z</time></trkpt><trkpt lat="42.3619269" lon="13.4909797"><ele>812.0</ele><time>2026-05-03T07:49:46.333Z</time></trkpt><trkpt lat="42.3620145" lon="13.4911202"><ele>812.0</ele><time>2026-05-03T07:49:48.337Z</time></trkpt><trkpt lat="42.3620852" lon="13.4912808"><ele>812.0</ele><time>2026-05-03T07:49:50.336Z</time></trkpt><trkpt lat="42.3622116" lon="13.4914623"><ele>814.3333333333334</ele><time>2026-05-03T07:49:52.336Z</time></trkpt><trkpt lat="42.3623496" lon="13.4916365"><ele>816.6666666666667</ele><time>2026-05-03T07:49:54.335Z</time></trkpt><trkpt lat="42.362482" lon="13.4918017"><ele>819.0</ele><time>2026-05-03T07:49:56.333Z</time></trkpt><trkpt lat="42.3625697" lon="13.4920041"><ele>822.0</ele><time>2026-05-03T07:49:58.335Z</time></trkpt><trkpt lat="42.3626358" lon="13.4922212"><ele>825.0</ele><time>2026-05-03T07:50:00.336Z</time></trkpt><trkpt lat="42.3626945" lon="13.4924273"><ele>828.0</ele><time>2026-05-03T07:50:02.332Z</time></trkpt><trkpt lat="42.3627548" lon="13.4926469"><ele>828.0</ele><time>2026-05-03T07:50:04.334Z</time></trkpt><trkpt lat="42.3628081" lon="13.4928514"><ele>828.0</ele><time>2026-05-03T07:50:06.33Z</time></trkpt><trkpt lat="42.362822" lon="13.4930512"><ele>828.0</ele><time>2026-05-03T07:50:08.332Z</time></trkpt><trkpt lat="42.3627997" lon="13.4932395"><ele>828.0</ele><time>2026-05-03T07:50:10.333Z</time></trkpt><trkpt lat="42.3627932" lon="13.4934229"><ele>832.0</ele><time>2026-05-03T07:50:12.329Z</time></trkpt><trkpt lat="42.3628613" lon="13.4935827"><ele>836.0</ele><time>2026-05-03T07:50:14.341Z</time></trkpt><trkpt lat="42.3629473" lon="13.4937281"><ele>840.0</ele><time>2026-05-03T07:50:16.337Z</time></trkpt><trkpt lat="42.3629592" lon="13.4939037"><ele>844.0</ele><time>2026-05-03T07:50:18.336Z</time></trkpt><trkpt lat="42.3629502" lon="13.4941252"><ele>848.3333333333333</ele><time>2026-05-03T07:50:20.336Z</time></trkpt><trkpt lat="42.3629621" lon="13.4943781"><ele>852.6666666666667</ele><time>2026-05-03T07:50:22.333Z</time></trkpt><trkpt lat="42.3629673" lon="13.4946106"><ele>857.0</ele><time>2026-05-03T07:50:24.332Z</time></trkpt><trkpt lat="42.362947" lon="13.4948143"><ele>859.0</ele><time>2026-05-03T07:50:26.332Z</time></trkpt><trkpt lat="42.3629261" lon="13.4950417"><ele>861.0</ele><time>2026-05-03T07:50:28.336Z</time></trkpt><trkpt lat="42.3628979" lon="13.495267"><ele>863.0</ele><time>2026-05-03T07:50:30.337Z</time></trkpt><trkpt lat="42.3628826" lon="13.4954983"><ele>863.6666666666667</ele><time>2026-05-03T07:50:32.335Z</time></trkpt><trkpt lat="42.3628676" lon="13.4957472"><ele>864.3333333333333</ele><time>2026-05-03T07:50:34.358Z</time></trkpt><trkpt lat="42.362862" lon="13.4960074"><ele>865.0</ele><time>2026-05-03T07:50:36.342Z</time></trkpt><trkpt lat="42.3628359" lon="13.4962586"><ele>867.0</ele><time>2026-05-03T07:50:38.347Z</time></trkpt><trkpt lat="42.3628122" lon="13.4964879"><ele>869.0</ele><time>2026-05-03T07:50:40.347Z</time></trkpt><trkpt lat="42.3628192" lon="13.4966975"><ele>871.0</ele><time>2026-05-03T07:50:42.347Z</time></trkpt><trkpt lat="42.3628512" lon="13.4969153"><ele>872.0</ele><time>2026-05-03T07:50:44.353Z</time></trkpt><trkpt lat="42.3629059" lon="13.4971149"><ele>873.0</ele><time>2026-05-03T07:50:46.341Z</time></trkpt><trkpt lat="42.362886" lon="13.4972779"><ele>874.0</ele><time>2026-05-03T07:50:48.341Z</time></trkpt><trkpt lat="42.362888" lon="13.49742"><ele>875.0</ele><time>2026-05-03T07:50:50.349Z</time></trkpt><trkpt lat="42.3629025" lon="13.4975463"><ele>875.0</ele><time>2026-05-03T07:53:20.355Z</time></trkpt><trkpt lat="42.3629334" lon="13.4976897"><ele>875.0</ele><time>2026-05-03T07:53:22.358Z</time></trkpt><trkpt lat="42.3629934" lon="13.4978188"><ele>875.0</ele><time>2026-05-03T07:53:24.354Z</time></trkpt><trkpt lat="42.3630572" lon="13.4979356"><ele>875.0</ele><time>2026-05-03T07:53:26.354Z</time></trkpt><trkpt lat="42.3631069" lon="13.4980415"><ele>875.0</ele><time>2026-05-03T07:53:28.348Z</time></trkpt><trkpt lat="42.3631847" lon="13.4981135"><ele>881.0</ele><time>2026-05-03T07:53:30.343Z</time></trkpt><trkpt lat="42.3633207" lon="13.4982237"><ele>887.0</ele><time>2026-05-03T07:53:34.352Z</time></trkpt><trkpt lat="42.3634496" lon="13.4983336"><ele>893.0</ele><time>2026-05-03T07:53:36.349Z</time></trkpt><trkpt lat="42.3635779" lon="13.4984505"><ele>893.0</ele><time>2026-05-03T07:53:38.346Z</time></trkpt><trkpt lat="42.3636405" lon="13.4985495"><ele>893.0</ele><time>2026-05-03T07:53:40.342Z</time></trkpt><trkpt lat="42.3636756" lon="13.4986973"><ele>893.0</ele><time>2026-05-03T07:53:42.345Z</time></trkpt><trkpt lat="42.3637139" lon="13.4988274"><ele>893.0</ele><time>2026-05-03T07:53:44.347Z</time></trkpt><trkpt lat="42.3637467" lon="13.498953"><ele>893.0</ele><time>2026-05-03T07:53:46.346Z</time></trkpt><trkpt lat="42.3638023" lon="13.4990317"><ele>895.5999999999999</ele><time>2026-05-03T07:53:48.352Z</time></trkpt><trkpt lat="42.3638871" lon="13.4991189"><ele>898.1999999999999</ele><time>2026-05-03T07:53:50.355Z</time></trkpt><trkpt lat="42.3639573" lon="13.4992295"><ele>900.8</ele><time>2026-05-03T07:53:52.349Z</time></trkpt><trkpt lat="42.3640029" lon="13.4993558"><ele>903.4</ele><time>2026-05-03T07:53:54.35Z</time></trkpt><trkpt lat="42.3640681" lon="13.4994694"><ele>906.0</ele><time>2026-05-03T07:53:56.346Z</time></trkpt><trkpt lat="42.3641746" lon="13.4995982"><ele>906.6666666666667</ele><time>2026-05-03T07:53:58.349Z</time></trkpt><trkpt lat="42.3642665" lon="13.4997508"><ele>907.3333333333334</ele><time>2026-05-03T07:54:00.346Z</time></trkpt><trkpt lat="42.3643524" lon="13.4999266"><ele>908.0</ele><time>2026-05-03T07:54:02.35Z</time></trkpt><trkpt lat="42.3644377" lon="13.5001171"><ele>908.0</ele><time>2026-05-03T07:54:04.343Z</time></trkpt><trkpt lat="42.3645152" lon="13.5002944"><ele>908.0</ele><time>2026-05-03T07:54:06.355Z</time></trkpt><trkpt lat="42.3645967" lon="13.5004556"><ele>908.0</ele><time>2026-05-03T07:54:08.354Z</time></trkpt><trkpt lat="42.3646602" lon="13.5006393"><ele>908.0</ele><time>2026-05-03T07:54:10.37Z</time></trkpt><trkpt lat="42.3647079" lon="13.5007774"><ele>911.0</ele><time>2026-05-03T07:54:12.355Z</time></trkpt><trkpt lat="42.3647758" lon="13.5009156"><ele>914.0</ele><time>2026-05-03T07:54:14.362Z</time></trkpt><trkpt lat="42.3648487" lon="13.5010797"><ele>917.0</ele><time>2026-05-03T07:54:16.355Z</time></trkpt><trkpt lat="42.3648836" lon="13.501224"><ele>920.0</ele><time>2026-05-03T07:54:18.353Z</time></trkpt><trkpt lat="42.3649111" lon="13.5013659"><ele>921.75</ele><time>2026-05-03T07:54:20.355Z</time></trkpt><trkpt lat="42.3649362" lon="13.501518"><ele>923.5</ele><time>2026-05-03T07:54:22.356Z</time></trkpt><trkpt lat="42.3649748" lon="13.5016675"><ele>925.25</ele><time>2026-05-03T07:54:24.352Z</time></trkpt><trkpt lat="42.3650231" lon="13.5018422"><ele>927.0</ele><time>2026-05-03T07:54:26.354Z</time></trkpt><trkpt lat="42.3650874" lon="13.5020523"><ele>928.5</ele><time>2026-05-03T07:54:28.351Z</time></trkpt><trkpt lat="42.3651328" lon="13.5022293"><ele>930.0</ele><time>2026-05-03T07:54:30.346Z</time></trkpt><trkpt lat="42.3651578" lon="13.5023892"><ele>931.5</ele><time>2026-05-03T07:54:32.348Z</time></trkpt><trkpt lat="42.3651792" lon="13.5025696"><ele>933.0</ele><time>2026-05-03T07:54:34.347Z</time></trkpt><trkpt lat="42.3652205" lon="13.5027067"><ele>933.0</ele><time>2026-05-03T07:54:36.349Z</time></trkpt><trkpt lat="42.3652741" lon="13.5028703"><ele>933.0</ele><time>2026-05-03T07:54:38.349Z</time></trkpt><trkpt lat="42.3653279" lon="13.503032"><ele>933.0</ele><time>2026-05-03T07:54:40.353Z</time></trkpt><trkpt lat="42.3654108" lon="13.5031959"><ele>933.0</ele><time>2026-05-03T07:54:42.356Z</time></trkpt><trkpt lat="42.3655126" lon="13.5033696"><ele>935.0</ele><time>2026-05-03T07:54:44.374Z</time></trkpt><trkpt lat="42.3655957" lon="13.5035496"><ele>937.0</ele><time>2026-05-03T07:54:46.364Z</time></trkpt><trkpt lat="42.3656722" lon="13.5037213"><ele>939.0</ele><time>2026-05-03T07:54:48.369Z</time></trkpt><trkpt lat="42.3657326" lon="13.5038664"><ele>941.0</ele><time>2026-05-03T07:54:50.362Z</time></trkpt><trkpt lat="42.3657779" lon="13.5040415"><ele>942.0</ele><time>2026-05-03T07:54:52.371Z</time></trkpt><trkpt lat="42.3658183" lon="13.5042183"><ele>943.0</ele><time>2026-05-03T07:54:54.367Z</time></trkpt><trkpt lat="42.3658393" lon="13.5043783"><ele>944.0</ele><time>2026-05-03T07:54:56.377Z</time></trkpt><trkpt lat="42.3658381" lon="13.504567"><ele>945.0</ele><time>2026-05-03T07:54:58.377Z</time></trkpt><trkpt lat="42.3658122" lon="13.5047537"><ele>945.3333333333333</ele><time>2026-05-03T07:55:00.376Z</time></trkpt><trkpt lat="42.3658265" lon="13.5049708"><ele>945.6666666666666</ele><time>2026-05-03T07:55:02.369Z</time></trkpt><trkpt lat="42.3658773" lon="13.5052017"><ele>946.0</ele><time>2026-05-03T07:55:04.369Z</time></trkpt><trkpt lat="42.3659266" lon="13.5054156"><ele>946.3333333333333</ele><time>2026-05-03T07:55:06.372Z</time></trkpt><trkpt lat="42.3659625" lon="13.5056332"><ele>946.6666666666667</ele><time>2026-05-03T07:55:08.38Z</time></trkpt><trkpt lat="42.3659822" lon="13.505859"><ele>947.0</ele><time>2026-05-03T07:55:10.371Z</time></trkpt><trkpt lat="42.366002" lon="13.5060748"><ele>947.5</ele><time>2026-05-03T07:55:12.385Z</time></trkpt><trkpt lat="42.3660247" lon="13.5062709"><ele>948.0</ele><time>2026-05-03T07:55:14.376Z</time></trkpt><trkpt lat="42.366058" lon="13.506427"><ele>948.5</ele><time>2026-05-03T07:55:16.359Z</time></trkpt><trkpt lat="42.3661188" lon="13.5065675"><ele>949.0</ele><time>2026-05-03T07:55:18.353Z</time></trkpt><trkpt lat="42.3662035" lon="13.506729"><ele>949.0</ele><time>2026-05-03T07:55:20.348Z</time></trkpt><trkpt lat="42.3662753" lon="13.5068995"><ele>949.0</ele><time>2026-05-03T07:55:22.361Z</time></trkpt><trkpt lat="42.3663743" lon="13.507034"><ele>949.0</ele><time>2026-05-03T07:55:24.373Z</time></trkpt><trkpt lat="42.3664814" lon="13.5071677"><ele>949.0</ele><time>2026-05-03T07:55:26.367Z</time></trkpt><trkpt lat="42.3665956" lon="13.5073434"><ele>951.75</ele><time>2026-05-03T07:55:28.368Z</time></trkpt><trkpt lat="42.366703" lon="13.5075155"><ele>954.5</ele><time>2026-05-03T07:55:30.37Z</time></trkpt><trkpt lat="42.366775" lon="13.5076368"><ele>957.25</ele><time>2026-05-03T07:55:32.369Z</time></trkpt><trkpt lat="42.3668273" lon="13.5077486"><ele>960.0</ele><time>2026-05-03T07:55:34.361Z</time></trkpt><trkpt lat="42.3668705" lon="13.5079277"><ele>961.0</ele><time>2026-05-03T07:55:36.366Z</time></trkpt><trkpt lat="42.3669516" lon="13.5081325"><ele>962.0</ele><time>2026-05-03T07:55:38.371Z</time></trkpt><trkpt lat="42.3669925" lon="13.5083288"><ele>963.0</ele><time>2026-05-03T07:55:40.369Z</time></trkpt><trkpt lat="42.36699" lon="13.5085465"><ele>963.0</ele><time>2026-05-03T07:55:42.361Z</time></trkpt><trkpt lat="42.3670099" lon="13.5086802"><ele>963.0</ele><time>2026-05-03T07:55:44.369Z</time></trkpt><trkpt lat="42.3670723" lon="13.508762"><ele>963.0</ele><time>2026-05-03T07:55:46.363Z</time></trkpt><trkpt lat="42.3671422" lon="13.5088417"><ele>963.0</ele><time>2026-05-03T07:55:48.376Z</time></trkpt><trkpt lat="42.3671831" lon="13.5089335"><ele>963.0</ele><time>2026-05-03T07:55:50.375Z</time></trkpt><trkpt lat="42.3672027" lon="13.5090701"><ele>968.0</ele><time>2026-05-03T07:55:52.377Z</time></trkpt><trkpt lat="42.367237" lon="13.5092609"><ele>973.0</ele><time>2026-05-03T07:55:54.373Z</time></trkpt><trkpt lat="42.3672726" lon="13.5094562"><ele>978.0</ele><time>2026-05-03T07:55:56.372Z</time></trkpt><trkpt lat="42.3672812" lon="13.5096534"><ele>983.0</ele><time>2026-05-03T07:55:58.367Z</time></trkpt><trkpt lat="42.3672572" lon="13.5097507"><ele>983.0000000000001</ele><time>2026-05-03T07:56:00.369Z</time></trkpt><trkpt lat="42.3672856" lon="13.509646"><ele>983.0</ele><time>2026-05-03T07:56:18.376Z</time></trkpt><trkpt lat="42.3672886" lon="13.5094759"><ele>983.0</ele><time>2026-05-03T07:56:22.379Z</time></trkpt><trkpt lat="42.3672735" lon="13.5093895"><ele>983.0</ele><time>2026-05-03T07:56:24.366Z</time></trkpt><trkpt lat="42.3672551" lon="13.5092915"><ele>983.0000000000001</ele><time>2026-05-03T07:56:26.376Z</time></trkpt><trkpt lat="42.3672307" lon="13.5091993"><ele>983.0</ele><time>2026-05-03T07:56:28.376Z</time></trkpt><trkpt lat="42.3672063" lon="13.5091001"><ele>980.0</ele><time>2026-05-03T07:56:30.37Z</time></trkpt><trkpt lat="42.3671781" lon="13.5089407"><ele>977.0</ele><time>2026-05-03T07:56:34.37Z</time></trkpt><trkpt lat="42.3671394" lon="13.5087868"><ele>974.0</ele><time>2026-05-03T07:56:38.373Z</time></trkpt><trkpt lat="42.3670675" lon="13.5087222"><ele>971.0</ele><time>2026-05-03T07:56:42.373Z</time></trkpt><trkpt lat="42.3670168" lon="13.5086517"><ele>968.0</ele><time>2026-05-03T07:56:46.369Z</time></trkpt><trkpt lat="42.366991" lon="13.5085079"><ele>967.0</ele><time>2026-05-03T07:56:50.375Z</time></trkpt><trkpt lat="42.3669907" lon="13.5084075"><ele>966.0</ele><time>2026-05-03T07:56:52.367Z</time></trkpt><trkpt lat="42.3669979" lon="13.5082869"><ele>965.0</ele><time>2026-05-03T07:56:54.368Z</time></trkpt><trkpt lat="42.3669755" lon="13.5081702"><ele>964.0</ele><time>2026-05-03T07:56:56.381Z</time></trkpt><trkpt lat="42.3669322" lon="13.5080502"><ele>963.0</ele><time>2026-05-03T07:56:58.378Z</time></trkpt><trkpt lat="42.3668875" lon="13.5079296"><ele>962.5</ele><time>2026-05-03T07:57:00.381Z</time></trkpt><trkpt lat="42.3668306" lon="13.5078115"><ele>962.0</ele><time>2026-05-03T07:57:02.38Z</time></trkpt><trkpt lat="42.3668111" lon="13.5077199"><ele>961.5</ele><time>2026-05-03T07:57:04.367Z</time></trkpt><trkpt lat="42.3667973" lon="13.5076211"><ele>961.0</ele><time>2026-05-03T07:57:06.366Z</time></trkpt><trkpt lat="42.3667276" lon="13.507617"><ele>960.5</ele><time>2026-05-03T07:57:10.372Z</time></trkpt><trkpt lat="42.3666302" lon="13.5076858"><ele>960.0</ele><time>2026-05-03T07:57:12.378Z</time></trkpt><trkpt lat="42.3665136" lon="13.5077742"><ele>960.0</ele><time>2026-05-03T07:57:14.377Z</time></trkpt><trkpt lat="42.3664101" lon="13.5078586"><ele>960.0</ele><time>2026-05-03T07:57:16.374Z</time></trkpt><trkpt lat="42.3663054" lon="13.5079525"><ele>960.0</ele><time>2026-05-03T07:57:18.374Z</time></trkpt><trkpt lat="42.3661729" lon="13.5080275"><ele>960.0</ele><time>2026-05-03T07:57:20.371Z</time></trkpt><trkpt lat="42.3660759" lon="13.5080995"><ele>958.6</ele><time>2026-05-03T07:57:22.373Z</time></trkpt><trkpt lat="42.3660107" lon="13.508238"><ele>957.2</ele><time>2026-05-03T07:57:24.381Z</time></trkpt><trkpt lat="42.3659553" lon="13.508364"><ele>955.8</ele><time>2026-05-03T07:57:26.369Z</time></trkpt><trkpt lat="42.3659099" lon="13.5084489"><ele>954.4</ele><time>2026-05-03T07:57:28.379Z</time></trkpt><trkpt lat="42.3658292" lon="13.508362"><ele>953.0</ele><time>2026-05-03T08:06:31.661Z</time></trkpt><trkpt lat="42.3658924" lon="13.5084073"><ele>953.0000000000001</ele><time>2026-05-03T08:06:32.725Z</time></trkpt><trkpt lat="42.3658368" lon="13.5085298"><ele>953.0</ele><time>2026-05-03T08:07:59.38Z</time></trkpt><trkpt lat="42.3657864" lon="13.5085823"><ele>953.0</ele><time>2026-05-03T08:08:01.39Z</time></trkpt><trkpt lat="42.3657645" lon="13.508685"><ele>953.0</ele><time>2026-05-03T08:08:03.396Z</time></trkpt><trkpt lat="42.3657572" lon="13.5087868"><ele>953.0000000000001</ele><time>2026-05-03T08:08:04.377Z</time></trkpt><trkpt lat="42.3657434" lon="13.5088944"><ele>953.0</ele><time>2026-05-03T08:08:05.357Z</time></trkpt><trkpt lat="42.36571" lon="13.5089933"><ele>953.6666666666667</ele><time>2026-05-03T08:08:06.364Z</time></trkpt><trkpt lat="42.3656686" lon="13.5090787"><ele>954.3333333333334</ele><time>2026-05-03T08:08:07.359Z</time></trkpt><trkpt lat="42.3656253" lon="13.5091517"><ele>955.0</ele><time>2026-05-03T08:08:08.359Z</time></trkpt><trkpt lat="42.3655873" lon="13.5092785"><ele>955.6666666666667</ele><time>2026-05-03T08:08:10.353Z</time></trkpt><trkpt lat="42.36558" lon="13.5093633"><ele>956.3333333333334</ele><time>2026-05-03T08:08:11.354Z</time></trkpt><trkpt lat="42.3655868" lon="13.5094528"><ele>957.0</ele><time>2026-05-03T08:08:12.361Z</time></trkpt><trkpt lat="42.3656082" lon="13.5095967"><ele>957.0</ele><time>2026-05-03T08:08:14.36Z</time></trkpt><trkpt lat="42.365668" lon="13.5097032"><ele>957.0</ele><time>2026-05-03T08:08:16.355Z</time></trkpt><trkpt lat="42.3657724" lon="13.509799"><ele>957.0</ele><time>2026-05-03T08:08:18.355Z</time></trkpt><trkpt lat="42.3658408" lon="13.5098341"><ele>957.0</ele><time>2026-05-03T08:08:19.359Z</time></trkpt><trkpt lat="42.3659564" lon="13.5099006"><ele>957.0</ele><time>2026-05-03T08:08:21.352Z</time></trkpt><trkpt lat="42.3660714" lon="13.5099421"><ele>957.0</ele><time>2026-05-03T08:08:23.351Z</time></trkpt><trkpt lat="42.3661091" lon="13.5100537"><ele>957.0</ele><time>2026-05-03T08:08:25.352Z</time></trkpt><trkpt lat="42.3660446" lon="13.5102168"><ele>957.0</ele><time>2026-05-03T08:08:27.35Z</time></trkpt><trkpt lat="42.3660032" lon="13.5103183"><ele>957.0</ele><time>2026-05-03T08:08:28.362Z</time></trkpt><trkpt lat="42.3659774" lon="13.5104238"><ele>957.0</ele><time>2026-05-03T08:08:29.363Z</time></trkpt><trkpt lat="42.365947" lon="13.5105064"><ele>956.8571428571429</ele><time>2026-05-03T08:08:30.358Z</time></trkpt><trkpt lat="42.3659027" lon="13.5105721"><ele>956.7142857142858</ele><time>2026-05-03T08:08:31.379Z</time></trkpt><trkpt lat="42.3658423" lon="13.5106258"><ele>956.5714285714287</ele><time>2026-05-03T08:08:32.359Z</time></trkpt><trkpt lat="42.3657737" lon="13.510678"><ele>956.4285714285716</ele><time>2026-05-03T08:08:33.366Z</time></trkpt><trkpt lat="42.3657098" lon="13.5107275"><ele>956.2857142857143</ele><time>2026-05-03T08:08:34.375Z</time></trkpt><trkpt lat="42.3656626" lon="13.5107979"><ele>956.1428571428573</ele><time>2026-05-03T08:08:35.359Z</time></trkpt><trkpt lat="42.3656327" lon="13.5108847"><ele>956.0000000000001</ele><time>2026-05-03T08:08:36.365Z</time></trkpt><trkpt lat="42.3656003" lon="13.5109801"><ele>956.0000000000001</ele><time>2026-05-03T08:08:37.365Z</time></trkpt><trkpt lat="42.3655781" lon="13.5110755"><ele>956.0</ele><time>2026-05-03T08:08:38.364Z</time></trkpt><trkpt lat="42.3655609" lon="13.5111779"><ele>956.0</ele><time>2026-05-03T08:08:39.361Z</time></trkpt><trkpt lat="42.3655574" lon="13.5112745"><ele>956.0</ele><time>2026-05-03T08:08:40.362Z</time></trkpt><trkpt lat="42.3655525" lon="13.5113693"><ele>956.0000000000001</ele><time>2026-05-03T08:08:41.359Z</time></trkpt><trkpt lat="42.3654973" lon="13.5115335"><ele>956.0</ele><time>2026-05-03T08:08:43.365Z</time></trkpt><trkpt lat="42.3654652" lon="13.5116325"><ele>956.1666666666667</ele><time>2026-05-03T08:08:44.366Z</time></trkpt><trkpt lat="42.365432" lon="13.5117271"><ele>956.3333333333334</ele><time>2026-05-03T08:08:45.364Z</time></trkpt><trkpt lat="42.3654075" lon="13.5118226"><ele>956.5</ele><time>2026-05-03T08:08:46.365Z</time></trkpt><trkpt lat="42.3653763" lon="13.511931"><ele>956.6666666666667</ele><time>2026-05-03T08:08:47.369Z</time></trkpt><trkpt lat="42.3653568" lon="13.5120232"><ele>956.8333333333334</ele><time>2026-05-03T08:08:48.363Z</time></trkpt><trkpt lat="42.3653655" lon="13.5121647"><ele>957.0</ele><time>2026-05-03T08:08:50.37Z</time></trkpt><trkpt lat="42.3653829" lon="13.5122992"><ele>957.0</ele><time>2026-05-03T08:08:52.36Z</time></trkpt><trkpt lat="42.3654142" lon="13.5124634"><ele>957.0</ele><time>2026-05-03T08:08:54.342Z</time></trkpt><trkpt lat="42.3654526" lon="13.5125676"><ele>957.0</ele><time>2026-05-03T08:08:55.344Z</time></trkpt><trkpt lat="42.3654849" lon="13.5126982"><ele>957.0</ele><time>2026-05-03T08:08:56.34Z</time></trkpt><trkpt lat="42.3655072" lon="13.5128462"><ele>957.0</ele><time>2026-05-03T08:08:57.347Z</time></trkpt><trkpt lat="42.3655211" lon="13.5129933"><ele>959.6</ele><time>2026-05-03T08:08:58.347Z</time></trkpt><trkpt lat="42.365539" lon="13.5131031"><ele>962.2</ele><time>2026-05-03T08:08:59.339Z</time></trkpt><trkpt lat="42.3655286" lon="13.5132225"><ele>964.8</ele><time>2026-05-03T08:09:01.35Z</time></trkpt><trkpt lat="42.3654272" lon="13.5132227"><ele>967.4</ele><time>2026-05-03T08:09:04.366Z</time></trkpt><trkpt lat="42.3653248" lon="13.513107"><ele>970.0</ele><time>2026-05-03T08:09:06.354Z</time></trkpt><trkpt lat="42.3652702" lon="13.5130059"><ele>967.4</ele><time>2026-05-03T08:09:07.361Z</time></trkpt><trkpt lat="42.3652126" lon="13.5128832"><ele>964.8</ele><time>2026-05-03T08:09:08.355Z</time></trkpt><trkpt lat="42.3651591" lon="13.512778"><ele>962.2</ele><time>2026-05-03T08:09:09.359Z</time></trkpt><trkpt lat="42.3650964" lon="13.5126942"><ele>959.6</ele><time>2026-05-03T08:09:10.362Z</time></trkpt><trkpt lat="42.3650342" lon="13.5126055"><ele>957.0</ele><time>2026-05-03T08:09:11.36Z</time></trkpt><trkpt lat="42.3649725" lon="13.5125046"><ele>957.0</ele><time>2026-05-03T08:09:12.361Z</time></trkpt><trkpt lat="42.3649175" lon="13.5124071"><ele>957.0</ele><time>2026-05-03T08:09:13.362Z</time></trkpt><trkpt lat="42.3648678" lon="13.5123158"><ele>957.0</ele><time>2026-05-03T08:09:14.36Z</time></trkpt><trkpt lat="42.3648129" lon="13.5122184"><ele>957.0</ele><time>2026-05-03T08:09:15.359Z</time></trkpt><trkpt lat="42.364756" lon="13.5121313"><ele>957.0</ele><time>2026-05-03T08:09:16.363Z</time></trkpt><trkpt lat="42.3646875" lon="13.5120539"><ele>957.0</ele><time>2026-05-03T08:09:17.358Z</time></trkpt><trkpt lat="42.3646129" lon="13.5119886"><ele>955.1666666666666</ele><time>2026-05-03T08:09:18.353Z</time></trkpt><trkpt lat="42.3645304" lon="13.5119167"><ele>953.3333333333333</ele><time>2026-05-03T08:09:19.36Z</time></trkpt><trkpt lat="42.3644517" lon="13.5118259"><ele>951.5</ele><time>2026-05-03T08:09:20.361Z</time></trkpt><trkpt lat="42.3643868" lon="13.5117443"><ele>949.6666666666666</ele><time>2026-05-03T08:09:21.363Z</time></trkpt><trkpt lat="42.3643264" lon="13.5116733"><ele>947.8333333333333</ele><time>2026-05-03T08:09:22.364Z</time></trkpt><trkpt lat="42.3642661" lon="13.5116126"><ele>946.0</ele><time>2026-05-03T08:09:23.367Z</time></trkpt><trkpt lat="42.3642105" lon="13.5115516"><ele>945.9999999999999</ele><time>2026-05-03T08:09:24.368Z</time></trkpt><trkpt lat="42.3641544" lon="13.5114901"><ele>946.0</ele><time>2026-05-03T08:09:25.369Z</time></trkpt><trkpt lat="42.3640878" lon="13.511448"><ele>946.0</ele><time>2026-05-03T08:09:26.369Z</time></trkpt><trkpt lat="42.3640163" lon="13.511417"><ele>946.0</ele><time>2026-05-03T08:09:27.371Z</time></trkpt><trkpt lat="42.3639405" lon="13.5113922"><ele>945.9999999999999</ele><time>2026-05-03T08:09:28.366Z</time></trkpt><trkpt lat="42.3638583" lon="13.5113648"><ele>946.0</ele><time>2026-05-03T08:09:29.365Z</time></trkpt><trkpt lat="42.3637744" lon="13.5113415"><ele>946.1666666666666</ele><time>2026-05-03T08:09:30.366Z</time></trkpt><trkpt lat="42.3636891" lon="13.5113285"><ele>946.3333333333333</ele><time>2026-05-03T08:09:31.38Z</time></trkpt><trkpt lat="42.3636122" lon="13.5113016"><ele>946.5</ele><time>2026-05-03T08:09:32.366Z</time></trkpt><trkpt lat="42.3635438" lon="13.5112819"><ele>946.6666666666667</ele><time>2026-05-03T08:09:33.364Z</time></trkpt><trkpt lat="42.3634739" lon="13.5112572"><ele>946.8333333333334</ele><time>2026-05-03T08:09:34.359Z</time></trkpt><trkpt lat="42.3633908" lon="13.5112394"><ele>947.0</ele><time>2026-05-03T08:09:35.358Z</time></trkpt><trkpt lat="42.3633088" lon="13.5112301"><ele>946.0000000000001</ele><time>2026-05-03T08:09:36.389Z</time></trkpt><trkpt lat="42.3632359" lon="13.5112146"><ele>945.0</ele><time>2026-05-03T08:09:37.358Z</time></trkpt><trkpt lat="42.3631704" lon="13.511175"><ele>944.0</ele><time>2026-05-03T08:09:38.356Z</time></trkpt><trkpt lat="42.3631156" lon="13.5111069"><ele>943.0</ele><time>2026-05-03T08:09:39.348Z</time></trkpt><trkpt lat="42.3630592" lon="13.5110223"><ele>942.0000000000001</ele><time>2026-05-03T08:09:40.355Z</time></trkpt><trkpt lat="42.3629991" lon="13.510934"><ele>941.0</ele><time>2026-05-03T08:09:41.353Z</time></trkpt><trkpt lat="42.3629412" lon="13.5108637"><ele>939.1999999999999</ele><time>2026-05-03T08:09:42.354Z</time></trkpt><trkpt lat="42.362879" lon="13.5107859"><ele>937.3999999999999</ele><time>2026-05-03T08:09:43.347Z</time></trkpt><trkpt lat="42.3628206" lon="13.5106877"><ele>935.6</ele><time>2026-05-03T08:09:44.355Z</time></trkpt><trkpt lat="42.3627664" lon="13.51061"><ele>933.8</ele><time>2026-05-03T08:09:45.359Z</time></trkpt><trkpt lat="42.3627074" lon="13.5105517"><ele>932.0</ele><time>2026-05-03T08:09:46.359Z</time></trkpt><trkpt lat="42.3625932" lon="13.5104816"><ele>932.0000000000001</ele><time>2026-05-03T08:09:48.356Z</time></trkpt><trkpt lat="42.3625259" lon="13.5104782"><ele>932.0</ele><time>2026-05-03T08:09:49.354Z</time></trkpt><trkpt lat="42.3624427" lon="13.5104957"><ele>932.0</ele><time>2026-05-03T08:09:50.361Z</time></trkpt><trkpt lat="42.3623622" lon="13.5105154"><ele>932.0</ele><time>2026-05-03T08:09:51.368Z</time></trkpt><trkpt lat="42.3622795" lon="13.5105318"><ele>932.0000000000001</ele><time>2026-05-03T08:09:52.363Z</time></trkpt><trkpt lat="42.3621983" lon="13.5105618"><ele>932.0</ele><time>2026-05-03T08:09:53.367Z</time></trkpt><trkpt lat="42.3621167" lon="13.5106007"><ele>930.6666666666667</ele><time>2026-05-03T08:09:54.368Z</time></trkpt><trkpt lat="42.3620305" lon="13.5106314"><ele>929.3333333333334</ele><time>2026-05-03T08:09:55.364Z</time></trkpt><trkpt lat="42.3619536" lon="13.5106333"><ele>928.0</ele><time>2026-05-03T08:09:56.364Z</time></trkpt><trkpt lat="42.3618678" lon="13.5106389"><ele>926.6666666666667</ele><time>2026-05-03T08:09:57.356Z</time></trkpt><trkpt lat="42.3617833" lon="13.5106536"><ele>925.3333333333334</ele><time>2026-05-03T08:09:58.357Z</time></trkpt><trkpt lat="42.3617013" lon="13.5106827"><ele>924.0</ele><time>2026-05-03T08:09:59.35Z</time></trkpt><trkpt lat="42.3616336" lon="13.5107199"><ele>924.0</ele><time>2026-05-03T08:10:00.35Z</time></trkpt><trkpt lat="42.3615547" lon="13.5107277"><ele>924.0</ele><time>2026-05-03T08:10:01.368Z</time></trkpt><trkpt lat="42.3614772" lon="13.5107119"><ele>924.0</ele><time>2026-05-03T08:10:02.359Z</time></trkpt><trkpt lat="42.3614019" lon="13.5107038"><ele>924.0</ele><time>2026-05-03T08:10:03.358Z</time></trkpt><trkpt lat="42.3613317" lon="13.510694"><ele>924.0</ele><time>2026-05-03T08:10:04.358Z</time></trkpt><trkpt lat="42.3612568" lon="13.5106503"><ele>924.0</ele><time>2026-05-03T08:10:05.353Z</time></trkpt><trkpt lat="42.3611846" lon="13.5106136"><ele>923.1666666666666</ele><time>2026-05-03T08:10:06.375Z</time></trkpt><trkpt lat="42.3611002" lon="13.5105724"><ele>922.3333333333333</ele><time>2026-05-03T08:10:07.357Z</time></trkpt><trkpt lat="42.3610071" lon="13.5105614"><ele>921.5</ele><time>2026-05-03T08:10:08.356Z</time></trkpt><trkpt lat="42.3609271" lon="13.5105549"><ele>920.6666666666666</ele><time>2026-05-03T08:10:09.358Z</time></trkpt><trkpt lat="42.3608506" lon="13.5105311"><ele>919.8333333333333</ele><time>2026-05-03T08:10:10.356Z</time></trkpt><trkpt lat="42.3607901" lon="13.5104889"><ele>919.0</ele><time>2026-05-03T08:10:11.358Z</time></trkpt><trkpt lat="42.3606782" lon="13.5104114"><ele>918.75</ele><time>2026-05-03T08:10:13.357Z</time></trkpt><trkpt lat="42.3605686" lon="13.5102996"><ele>918.5</ele><time>2026-05-03T08:10:15.358Z</time></trkpt><trkpt lat="42.3605105" lon="13.5102481"><ele>918.25</ele><time>2026-05-03T08:10:16.362Z</time></trkpt><trkpt lat="42.3604045" lon="13.5101604"><ele>918.0</ele><time>2026-05-03T08:10:18.357Z</time></trkpt><trkpt lat="42.3602971" lon="13.5100642"><ele>916.0</ele><time>2026-05-03T08:10:20.356Z</time></trkpt><trkpt lat="42.3602471" lon="13.5100063"><ele>914.0</ele><time>2026-05-03T08:10:21.358Z</time></trkpt><trkpt lat="42.3601587" lon="13.5099"><ele>912.0</ele><time>2026-05-03T08:10:23.362Z</time></trkpt><trkpt lat="42.3601083" lon="13.5098355"><ele>910.0</ele><time>2026-05-03T08:10:24.367Z</time></trkpt><trkpt lat="42.3600607" lon="13.5097767"><ele>908.0</ele><time>2026-05-03T08:10:25.366Z</time></trkpt><trkpt lat="42.3600128" lon="13.5097149"><ele>906.0</ele><time>2026-05-03T08:10:26.368Z</time></trkpt><trkpt lat="42.3599397" lon="13.5095727"><ele>905.8333333333334</ele><time>2026-05-03T08:10:28.365Z</time></trkpt><trkpt lat="42.3599167" lon="13.5094871"><ele>905.6666666666667</ele><time>2026-05-03T08:10:29.365Z</time></trkpt><trkpt lat="42.3599033" lon="13.5093945"><ele>905.5</ele><time>2026-05-03T08:10:30.363Z</time></trkpt><trkpt lat="42.3598937" lon="13.5093024"><ele>905.3333333333334</ele><time>2026-05-03T08:10:31.378Z</time></trkpt><trkpt lat="42.3598704" lon="13.5092054"><ele>905.1666666666667</ele><time>2026-05-03T08:10:32.362Z</time></trkpt><trkpt lat="42.3598418" lon="13.5091039"><ele>905.0</ele><time>2026-05-03T08:10:33.365Z</time></trkpt><trkpt lat="42.3598152" lon="13.5089879"><ele>905.0000000000001</ele><time>2026-05-03T08:10:34.366Z</time></trkpt><trkpt lat="42.3597986" lon="13.5088623"><ele>905.0</ele><time>2026-05-03T08:10:35.366Z</time></trkpt><trkpt lat="42.3597828" lon="13.5087432"><ele>905.0</ele><time>2026-05-03T08:10:36.362Z</time></trkpt><trkpt lat="42.3597564" lon="13.5086464"><ele>905.0</ele><time>2026-05-03T08:10:37.38Z</time></trkpt><trkpt lat="42.359736" lon="13.5085502"><ele>905.0000000000001</ele><time>2026-05-03T08:10:38.365Z</time></trkpt><trkpt lat="42.3597202" lon="13.5084515"><ele>905.0</ele><time>2026-05-03T08:10:39.366Z</time></trkpt><trkpt lat="42.3597004" lon="13.508331"><ele>902.8</ele><time>2026-05-03T08:10:40.366Z</time></trkpt><trkpt lat="42.3596783" lon="13.5082096"><ele>900.6</ele><time>2026-05-03T08:10:41.366Z</time></trkpt><trkpt lat="42.3596655" lon="13.5080712"><ele>898.4000000000001</ele><time>2026-05-03T08:10:42.366Z</time></trkpt><trkpt lat="42.3596404" lon="13.5079268"><ele>896.2</ele><time>2026-05-03T08:10:43.367Z</time></trkpt><trkpt lat="42.3596128" lon="13.5078061"><ele>894.0</ele><time>2026-05-03T08:10:44.365Z</time></trkpt><trkpt lat="42.3595917" lon="13.507696"><ele>892.8333333333334</ele><time>2026-05-03T08:10:45.365Z</time></trkpt><trkpt lat="42.3595723" lon="13.507588"><ele>891.6666666666667</ele><time>2026-05-03T08:10:46.366Z</time></trkpt><trkpt lat="42.3595731" lon="13.507482"><ele>890.5</ele><time>2026-05-03T08:10:47.365Z</time></trkpt><trkpt lat="42.3595809" lon="13.5073841"><ele>889.3333333333334</ele><time>2026-05-03T08:10:48.367Z</time></trkpt><trkpt lat="42.3595756" lon="13.5072757"><ele>888.1666666666667</ele><time>2026-05-03T08:10:49.364Z</time></trkpt><trkpt lat="42.3595471" lon="13.5071752"><ele>887.0</ele><time>2026-05-03T08:10:50.362Z</time></trkpt><trkpt lat="42.359518" lon="13.5070959"><ele>885.8</ele><time>2026-05-03T08:10:51.362Z</time></trkpt><trkpt lat="42.3594897" lon="13.5069541"><ele>884.6</ele><time>2026-05-03T08:10:53.359Z</time></trkpt><trkpt lat="42.3595118" lon="13.5067741"><ele>883.3999999999999</ele><time>2026-05-03T08:10:55.371Z</time></trkpt><trkpt lat="42.3594987" lon="13.5066714"><ele>882.1999999999999</ele><time>2026-05-03T08:10:56.366Z</time></trkpt><trkpt lat="42.3594757" lon="13.5065714"><ele>881.0</ele><time>2026-05-03T08:10:57.366Z</time></trkpt><trkpt lat="42.3594386" lon="13.5064795"><ele>881.0000000000001</ele><time>2026-05-03T08:10:58.365Z</time></trkpt><trkpt lat="42.3594177" lon="13.5063953"><ele>881.0</ele><time>2026-05-03T08:10:59.359Z</time></trkpt><trkpt lat="42.3593936" lon="13.5062908"><ele>881.0</ele><time>2026-05-03T08:11:01.378Z</time></trkpt><trkpt lat="42.3593237" lon="13.5062284"><ele>881.0</ele><time>2026-05-03T08:11:04.371Z</time></trkpt><trkpt lat="42.3592519" lon="13.5062962"><ele>881.0000000000001</ele><time>2026-05-03T08:11:06.375Z</time></trkpt><trkpt lat="42.3591446" lon="13.506342"><ele>881.0</ele><time>2026-05-03T08:11:08.374Z</time></trkpt><trkpt lat="42.359075" lon="13.5063141"><ele>881.0</ele><time>2026-05-03T08:11:09.354Z</time></trkpt><trkpt lat="42.3589993" lon="13.5062637"><ele>880.9999999999999</ele><time>2026-05-03T08:11:10.355Z</time></trkpt><trkpt lat="42.3589219" lon="13.5061946"><ele>880.9999999999999</ele><time>2026-05-03T08:11:11.359Z</time></trkpt><trkpt lat="42.3588423" lon="13.5060948"><ele>881.0</ele><time>2026-05-03T08:11:12.361Z</time></trkpt><trkpt lat="42.3587736" lon="13.5059629"><ele>881.0</ele><time>2026-05-03T08:11:13.357Z</time></trkpt><trkpt lat="42.3587095" lon="13.5058192"><ele>879.75</ele><time>2026-05-03T08:11:14.361Z</time></trkpt><trkpt lat="42.3586385" lon="13.5056827"><ele>878.5</ele><time>2026-05-03T08:11:15.362Z</time></trkpt><trkpt lat="42.3585633" lon="13.5055377"><ele>877.25</ele><time>2026-05-03T08:11:16.357Z</time></trkpt><trkpt lat="42.3584836" lon="13.505394"><ele>876.0</ele><time>2026-05-03T08:11:17.353Z</time></trkpt><trkpt lat="42.3584013" lon="13.5052561"><ele>876.0</ele><time>2026-05-03T08:11:18.359Z</time></trkpt><trkpt lat="42.3583074" lon="13.5051161"><ele>876.0</ele><time>2026-05-03T08:11:19.357Z</time></trkpt><trkpt lat="42.3582036" lon="13.5049881"><ele>876.0</ele><time>2026-05-03T08:11:20.351Z</time></trkpt><trkpt lat="42.35809" lon="13.5048643"><ele>876.0</ele><time>2026-05-03T08:11:21.353Z</time></trkpt><trkpt lat="42.3579675" lon="13.5047624"><ele>876.0</ele><time>2026-05-03T08:11:22.352Z</time></trkpt><trkpt lat="42.357826" lon="13.5046788"><ele>876.0</ele><time>2026-05-03T08:11:23.354Z</time></trkpt><trkpt lat="42.3576997" lon="13.5046031"><ele>876.0</ele><time>2026-05-03T08:11:24.354Z</time></trkpt><trkpt lat="42.3575819" lon="13.5045235"><ele>876.0</ele><time>2026-05-03T08:11:25.356Z</time></trkpt><trkpt lat="42.3574637" lon="13.5044715"><ele>876.0</ele><time>2026-05-03T08:11:26.361Z</time></trkpt><trkpt lat="42.3573435" lon="13.5044569"><ele>876.0</ele><time>2026-05-03T08:11:27.358Z</time></trkpt><trkpt lat="42.3572084" lon="13.5044531"><ele>876.0</ele><time>2026-05-03T08:11:28.357Z</time></trkpt><trkpt lat="42.3570707" lon="13.5044844"><ele>876.0</ele><time>2026-05-03T08:11:29.354Z</time></trkpt><trkpt lat="42.356942" lon="13.5045304"><ele>881.5</ele><time>2026-05-03T08:11:30.352Z</time></trkpt><trkpt lat="42.3568216" lon="13.5045928"><ele>887.0</ele><time>2026-05-03T08:11:31.386Z</time></trkpt><trkpt lat="42.3567253" lon="13.5046718"><ele>892.5</ele><time>2026-05-03T08:11:32.355Z</time></trkpt><trkpt lat="42.3566448" lon="13.5047703"><ele>898.0</ele><time>2026-05-03T08:11:33.347Z</time></trkpt><trkpt lat="42.3565783" lon="13.5048967"><ele>898.0</ele><time>2026-05-03T08:11:34.354Z</time></trkpt><trkpt lat="42.3565267" lon="13.5050257"><ele>898.0</ele><time>2026-05-03T08:11:35.357Z</time></trkpt><trkpt lat="42.3564855" lon="13.5051491"><ele>898.0</ele><time>2026-05-03T08:11:36.362Z</time></trkpt><trkpt lat="42.3564532" lon="13.5052608"><ele>898.0</ele><time>2026-05-03T08:11:37.364Z</time></trkpt><trkpt lat="42.3564274" lon="13.5053554"><ele>898.0</ele><time>2026-05-03T08:11:38.359Z</time></trkpt><trkpt lat="42.3564203" lon="13.5054661"><ele>900.4</ele><time>2026-05-03T08:11:40.358Z</time></trkpt><trkpt lat="42.3564631" lon="13.5055845"><ele>902.8</ele><time>2026-05-03T08:11:42.368Z</time></trkpt><trkpt lat="42.3565355" lon="13.5056896"><ele>905.2</ele><time>2026-05-03T08:11:44.36Z</time></trkpt><trkpt lat="42.3566121" lon="13.5058083"><ele>907.6</ele><time>2026-05-03T08:11:46.362Z</time></trkpt><trkpt lat="42.3567007" lon="13.5058984"><ele>910.0</ele><time>2026-05-03T08:11:48.358Z</time></trkpt><trkpt lat="42.3567822" lon="13.5059307"><ele>909.9999999999999</ele><time>2026-05-03T08:11:50.361Z</time></trkpt><trkpt lat="42.3568655" lon="13.5059787"><ele>910.0</ele><time>2026-05-03T08:11:52.354Z</time></trkpt><trkpt lat="42.3569419" lon="13.5060988"><ele>910.0</ele><time>2026-05-03T08:11:54.364Z</time></trkpt><trkpt lat="42.3569732" lon="13.5061957"><ele>910.0</ele><time>2026-05-03T08:11:55.366Z</time></trkpt><trkpt lat="42.3570103" lon="13.5062851"><ele>909.9999999999999</ele><time>2026-05-03T08:11:56.366Z</time></trkpt><trkpt lat="42.3570185" lon="13.5063764"><ele>910.0</ele><time>2026-05-03T08:11:57.363Z</time></trkpt><trkpt lat="42.3570064" lon="13.5065286"><ele>911.6666666666666</ele><time>2026-05-03T08:11:59.367Z</time></trkpt><trkpt lat="42.3569981" lon="13.5066439"><ele>913.3333333333333</ele><time>2026-05-03T08:12:01.378Z</time></trkpt><trkpt lat="42.3570144" lon="13.5067364"><ele>915.0</ele><time>2026-05-03T08:12:03.368Z</time></trkpt><trkpt lat="42.3570811" lon="13.5067613"><ele>916.6666666666667</ele><time>2026-05-03T08:12:05.371Z</time></trkpt><trkpt lat="42.3571829" lon="13.5067612"><ele>918.3333333333334</ele><time>2026-05-03T08:12:07.364Z</time></trkpt><trkpt lat="42.3572462" lon="13.506727"><ele>920.0</ele><time>2026-05-03T08:12:08.36Z</time></trkpt><trkpt lat="42.3573061" lon="13.5066761"><ele>920.8333333333334</ele><time>2026-05-03T08:12:09.363Z</time></trkpt><trkpt lat="42.3573632" lon="13.5066333"><ele>921.6666666666667</ele><time>2026-05-03T08:12:10.376Z</time></trkpt><trkpt lat="42.3574289" lon="13.5066394"><ele>922.5</ele><time>2026-05-03T08:12:12.369Z</time></trkpt><trkpt lat="42.3574789" lon="13.5067431"><ele>923.3333333333333</ele><time>2026-05-03T08:12:14.371Z</time></trkpt><trkpt lat="42.3575056" lon="13.5068302"><ele>924.1666666666666</ele><time>2026-05-03T08:12:15.358Z</time></trkpt><trkpt lat="42.3575288" lon="13.5069349"><ele>925.0</ele><time>2026-05-03T08:12:16.36Z</time></trkpt><trkpt lat="42.3575402" lon="13.5070762"><ele>926.0</ele><time>2026-05-03T08:12:17.354Z</time></trkpt><trkpt lat="42.3575479" lon="13.5072352"><ele>927.0</ele><time>2026-05-03T08:12:18.362Z</time></trkpt><trkpt lat="42.3575534" lon="13.5073957"><ele>928.0</ele><time>2026-05-03T08:12:19.359Z</time></trkpt><trkpt lat="42.3575535" lon="13.5075297"><ele>929.0</ele><time>2026-05-03T08:12:20.36Z</time></trkpt><trkpt lat="42.3575329" lon="13.5076668"><ele>930.0</ele><time>2026-05-03T08:12:21.366Z</time></trkpt><trkpt lat="42.357515" lon="13.5077996"><ele>931.6</ele><time>2026-05-03T08:12:22.364Z</time></trkpt><trkpt lat="42.3575173" lon="13.5079312"><ele>933.2</ele><time>2026-05-03T08:12:23.363Z</time></trkpt><trkpt lat="42.3575308" lon="13.5080742"><ele>934.8</ele><time>2026-05-03T08:12:24.368Z</time></trkpt><trkpt lat="42.3575431" lon="13.5082086"><ele>936.4</ele><time>2026-05-03T08:12:25.362Z</time></trkpt><trkpt lat="42.3575495" lon="13.5083247"><ele>938.0</ele><time>2026-05-03T08:12:26.36Z</time></trkpt><trkpt lat="42.3575484" lon="13.508426"><ele>938.0000000000001</ele><time>2026-05-03T08:12:27.368Z</time></trkpt><trkpt lat="42.3575303" lon="13.5085414"><ele>938.0</ele><time>2026-05-03T08:12:28.366Z</time></trkpt><trkpt lat="42.3575069" lon="13.5086495"><ele>938.0</ele><time>2026-05-03T08:12:29.367Z</time></trkpt><trkpt lat="42.3574892" lon="13.5087636"><ele>938.0</ele><time>2026-05-03T08:12:30.364Z</time></trkpt><trkpt lat="42.3574734" lon="13.5088723"><ele>938.0000000000001</ele><time>2026-05-03T08:12:31.371Z</time></trkpt><trkpt lat="42.3574636" lon="13.5089829"><ele>938.0</ele><time>2026-05-03T08:12:33.355Z</time></trkpt><trkpt lat="42.3575542" lon="13.5090488"><ele>940.5000000000001</ele><time>2026-05-03T08:12:37.375Z</time></trkpt><trkpt lat="42.3576221" lon="13.5091189"><ele>943.0</ele><time>2026-05-03T08:12:39.373Z</time></trkpt><trkpt lat="42.3576745" lon="13.5092395"><ele>945.5</ele><time>2026-05-03T08:12:41.385Z</time></trkpt><trkpt lat="42.3577094" lon="13.5093266"><ele>948.0</ele><time>2026-05-03T08:12:42.359Z</time></trkpt><trkpt lat="42.3577541" lon="13.5094251"><ele>950.5000000000001</ele><time>2026-05-03T08:12:43.358Z</time></trkpt><trkpt lat="42.3578183" lon="13.5095262"><ele>953.0</ele><time>2026-05-03T08:12:44.361Z</time></trkpt><trkpt lat="42.3578773" lon="13.5096401"><ele>955.75</ele><time>2026-05-03T08:12:45.36Z</time></trkpt><trkpt lat="42.3579227" lon="13.5097691"><ele>958.5</ele><time>2026-05-03T08:12:46.362Z</time></trkpt><trkpt lat="42.3579575" lon="13.509912"><ele>961.25</ele><time>2026-05-03T08:12:47.357Z</time></trkpt><trkpt lat="42.3579803" lon="13.510077"><ele>964.0</ele><time>2026-05-03T08:12:48.358Z</time></trkpt><trkpt lat="42.3579839" lon="13.5102325"><ele>963.9999999999999</ele><time>2026-05-03T08:12:49.363Z</time></trkpt><trkpt lat="42.3579766" lon="13.5103588"><ele>964.0</ele><time>2026-05-03T08:12:50.352Z</time></trkpt><trkpt lat="42.3579517" lon="13.5104673"><ele>964.0</ele><time>2026-05-03T08:12:51.35Z</time></trkpt><trkpt lat="42.3579111" lon="13.5105432"><ele>964.0</ele><time>2026-05-03T08:12:52.348Z</time></trkpt><trkpt lat="42.35785" lon="13.5105893"><ele>963.9999999999999</ele><time>2026-05-03T08:12:53.346Z</time></trkpt><trkpt lat="42.3577764" lon="13.5106126"><ele>964.0</ele><time>2026-05-03T08:12:54.351Z</time></trkpt><trkpt lat="42.3576964" lon="13.5106131"><ele>964.3333333333333</ele><time>2026-05-03T08:12:55.36Z</time></trkpt><trkpt lat="42.3576171" lon="13.5105886"><ele>964.6666666666666</ele><time>2026-05-03T08:12:56.349Z</time></trkpt><trkpt lat="42.3575283" lon="13.5106142"><ele>965.0</ele><time>2026-05-03T08:12:58.363Z</time></trkpt><trkpt lat="42.3575436" lon="13.5107314"><ele>965.3333333333333</ele><time>2026-05-03T08:13:00.363Z</time></trkpt><trkpt lat="42.3575897" lon="13.5108199"><ele>965.6666666666666</ele><time>2026-05-03T08:13:01.372Z</time></trkpt><trkpt lat="42.357653" lon="13.5109178"><ele>966.0</ele><time>2026-05-03T08:13:02.364Z</time></trkpt><trkpt lat="42.3577161" lon="13.5110223"><ele>966.0</ele><time>2026-05-03T08:13:03.356Z</time></trkpt><trkpt lat="42.3577647" lon="13.5111448"><ele>965.9999999999999</ele><time>2026-05-03T08:13:04.362Z</time></trkpt><trkpt lat="42.3578119" lon="13.5112701"><ele>965.9999999999999</ele><time>2026-05-03T08:13:05.361Z</time></trkpt><trkpt lat="42.3578593" lon="13.5114072"><ele>966.0</ele><time>2026-05-03T08:13:06.382Z</time></trkpt><trkpt lat="42.3579066" lon="13.5115472"><ele>966.0</ele><time>2026-05-03T08:13:07.374Z</time></trkpt><trkpt lat="42.3579507" lon="13.5116949"><ele>966.0</ele><time>2026-05-03T08:13:08.379Z</time></trkpt><trkpt lat="42.3580014" lon="13.5118508"><ele>966.0</ele><time>2026-05-03T08:13:09.378Z</time></trkpt><trkpt lat="42.3580602" lon="13.5120051"><ele>966.0</ele><time>2026-05-03T08:13:10.382Z</time></trkpt><trkpt lat="42.3581149" lon="13.5121576"><ele>966.0</ele><time>2026-05-03T08:13:11.386Z</time></trkpt><trkpt lat="42.358173" lon="13.5123069"><ele>966.75</ele><time>2026-05-03T08:13:12.402Z</time></trkpt><trkpt lat="42.3582313" lon="13.5124502"><ele>967.5</ele><time>2026-05-03T08:13:13.385Z</time></trkpt><trkpt lat="42.3582819" lon="13.5125881"><ele>968.25</ele><time>2026-05-03T08:13:14.381Z</time></trkpt><trkpt lat="42.3583351" lon="13.51272"><ele>969.0</ele><time>2026-05-03T08:13:15.382Z</time></trkpt><trkpt lat="42.358384" lon="13.5128547"><ele>969.3333333333334</ele><time>2026-05-03T08:13:16.383Z</time></trkpt><trkpt lat="42.3584253" lon="13.5129788"><ele>969.6666666666667</ele><time>2026-05-03T08:13:17.381Z</time></trkpt><trkpt lat="42.3584621" lon="13.513089"><ele>970.0</ele><time>2026-05-03T08:13:18.383Z</time></trkpt><trkpt lat="42.3585008" lon="13.5131921"><ele>970.3333333333334</ele><time>2026-05-03T08:13:19.382Z</time></trkpt><trkpt lat="42.3585365" lon="13.5132893"><ele>970.6666666666667</ele><time>2026-05-03T08:13:20.381Z</time></trkpt><trkpt lat="42.3585761" lon="13.5133846"><ele>971.0</ele><time>2026-05-03T08:13:21.381Z</time></trkpt><trkpt lat="42.358618" lon="13.513493"><ele>971.0</ele><time>2026-05-03T08:13:22.386Z</time></trkpt><trkpt lat="42.3586614" lon="13.5136009"><ele>970.9999999999999</ele><time>2026-05-03T08:13:23.461Z</time></trkpt><trkpt lat="42.3587081" lon="13.5137186"><ele>970.9999999999999</ele><time>2026-05-03T08:13:24.457Z</time></trkpt><trkpt lat="42.3587573" lon="13.5138402"><ele>971.0</ele><time>2026-05-03T08:13:25.453Z</time></trkpt><trkpt lat="42.3588068" lon="13.5139672"><ele>971.0</ele><time>2026-05-03T08:13:26.461Z</time></trkpt><trkpt lat="42.3588463" lon="13.5140781"><ele>971.1666666666667</ele><time>2026-05-03T08:13:27.445Z</time></trkpt><trkpt lat="42.3588808" lon="13.5141761"><ele>971.3333333333334</ele><time>2026-05-03T08:13:28.441Z</time></trkpt><trkpt lat="42.3589202" lon="13.5142451"><ele>971.5</ele><time>2026-05-03T08:13:31.475Z</time></trkpt><trkpt lat="42.3589303" lon="13.5141591"><ele>971.6666666666667</ele><time>2026-05-03T08:13:35.37Z</time></trkpt><trkpt lat="42.3588848" lon="13.5140435"><ele>971.8333333333334</ele><time>2026-05-03T08:13:37.366Z</time></trkpt><trkpt lat="42.3588417" lon="13.5139288"><ele>972.0</ele><time>2026-05-03T08:13:38.37Z</time></trkpt><trkpt lat="42.358797" lon="13.5138363"><ele>972.0</ele><time>2026-05-03T08:13:39.371Z</time></trkpt><trkpt lat="42.358766" lon="13.5137591"><ele>972.0</ele><time>2026-05-03T08:13:40.37Z</time></trkpt><trkpt lat="42.3587047" lon="13.5136745"><ele>972.0</ele><time>2026-05-03T08:13:42.368Z</time></trkpt><trkpt lat="42.3586505" lon="13.5137481"><ele>972.0</ele><time>2026-05-03T08:13:47.374Z</time></trkpt><trkpt lat="42.3586566" lon="13.5138483"><ele>972.0</ele><time>2026-05-03T08:13:58.382Z</time></trkpt><trkpt lat="42.3586854" lon="13.5139505"><ele>972.0</ele><time>2026-05-03T08:14:02.382Z</time></trkpt><trkpt lat="42.3587175" lon="13.5140401"><ele>972.0</ele><time>2026-05-03T08:14:06.377Z</time></trkpt><trkpt lat="42.3587769" lon="13.5141815"><ele>972.0</ele><time>2026-05-03T08:14:09.364Z</time></trkpt><trkpt lat="42.3588325" lon="13.5142893"><ele>972.0</ele><time>2026-05-03T08:14:10.363Z</time></trkpt><trkpt lat="42.3588861" lon="13.514401"><ele>972.0</ele><time>2026-05-03T08:14:11.367Z</time></trkpt><trkpt lat="42.3589345" lon="13.5145234"><ele>972.0</ele><time>2026-05-03T08:14:12.368Z</time></trkpt><trkpt lat="42.3589903" lon="13.5146641"><ele>974.6</ele><time>2026-05-03T08:14:13.365Z</time></trkpt><trkpt lat="42.3590496" lon="13.5148038"><ele>977.2</ele><time>2026-05-03T08:14:14.399Z</time></trkpt><trkpt lat="42.3591074" lon="13.5149265"><ele>979.8</ele><time>2026-05-03T08:14:15.363Z</time></trkpt><trkpt lat="42.3591557" lon="13.5150431"><ele>982.4</ele><time>2026-05-03T08:14:16.368Z</time></trkpt><trkpt lat="42.3591924" lon="13.5151608"><ele>985.0</ele><time>2026-05-03T08:14:17.367Z</time></trkpt><trkpt lat="42.3592165" lon="13.5152691"><ele>984.9999999999999</ele><time>2026-05-03T08:14:18.363Z</time></trkpt><trkpt lat="42.3592298" lon="13.5153753"><ele>985.0</ele><time>2026-05-03T08:14:19.365Z</time></trkpt><trkpt lat="42.3592292" lon="13.5154822"><ele>985.0</ele><time>2026-05-03T08:14:20.365Z</time></trkpt><trkpt lat="42.3592158" lon="13.5155798"><ele>985.0</ele><time>2026-05-03T08:14:21.354Z</time></trkpt><trkpt lat="42.3591794" lon="13.5156656"><ele>984.9999999999999</ele><time>2026-05-03T08:14:22.358Z</time></trkpt><trkpt lat="42.3591316" lon="13.5157662"><ele>985.0</ele><time>2026-05-03T08:14:23.367Z</time></trkpt><trkpt lat="42.3590873" lon="13.5158748"><ele>985.8333333333333</ele><time>2026-05-03T08:14:24.366Z</time></trkpt><trkpt lat="42.3590557" lon="13.5159893"><ele>986.6666666666666</ele><time>2026-05-03T08:14:25.359Z</time></trkpt><trkpt lat="42.3590356" lon="13.5160969"><ele>987.5</ele><time>2026-05-03T08:14:26.361Z</time></trkpt><trkpt lat="42.359032" lon="13.5161994"><ele>988.3333333333333</ele><time>2026-05-03T08:14:27.36Z</time></trkpt><trkpt lat="42.3590395" lon="13.516309"><ele>989.1666666666666</ele><time>2026-05-03T08:14:28.363Z</time></trkpt><trkpt lat="42.3590464" lon="13.5164165"><ele>990.0</ele><time>2026-05-03T08:14:29.362Z</time></trkpt><trkpt lat="42.3590476" lon="13.5165278"><ele>991.8</ele><time>2026-05-03T08:14:30.362Z</time></trkpt><trkpt lat="42.3590266" lon="13.5166417"><ele>993.6</ele><time>2026-05-03T08:14:31.382Z</time></trkpt><trkpt lat="42.3589903" lon="13.5167514"><ele>995.4000000000001</ele><time>2026-05-03T08:14:32.361Z</time></trkpt><trkpt lat="42.3589435" lon="13.5168602"><ele>997.2</ele><time>2026-05-03T08:14:33.365Z</time></trkpt><trkpt lat="42.3588999" lon="13.5169825"><ele>999.0</ele><time>2026-05-03T08:14:34.361Z</time></trkpt><trkpt lat="42.3588479" lon="13.5171082"><ele>999.0</ele><time>2026-05-03T08:14:35.362Z</time></trkpt><trkpt lat="42.3587891" lon="13.5172318"><ele>999.0000000000001</ele><time>2026-05-03T08:14:36.359Z</time></trkpt><trkpt lat="42.3587227" lon="13.5173506"><ele>999.0000000000001</ele><time>2026-05-03T08:14:37.36Z</time></trkpt><trkpt lat="42.358665" lon="13.5174544"><ele>999.0</ele><time>2026-05-03T08:14:38.353Z</time></trkpt><trkpt lat="42.3586145" lon="13.5175395"><ele>999.0</ele><time>2026-05-03T08:14:39.361Z</time></trkpt><trkpt lat="42.3585729" lon="13.517612"><ele>999.0</ele><time>2026-05-03T08:14:40.356Z</time></trkpt><trkpt lat="42.3585506" lon="13.5176964"><ele>999.0</ele><time>2026-05-03T08:14:42.359Z</time></trkpt><trkpt lat="42.35859" lon="13.5177728"><ele>999.0</ele><time>2026-05-03T08:14:44.388Z</time></trkpt><trkpt lat="42.358664" lon="13.5177707"><ele>999.0</ele><time>2026-05-03T08:14:46.365Z</time></trkpt><trkpt lat="42.3587481" lon="13.5176844"><ele>999.0</ele><time>2026-05-03T08:14:48.366Z</time></trkpt><trkpt lat="42.3588184" lon="13.5175578"><ele>999.0</ele><time>2026-05-03T08:14:50.363Z</time></trkpt><trkpt lat="42.3588596" lon="13.5174744"><ele>1000.0</ele><time>2026-05-03T08:14:51.368Z</time></trkpt><trkpt lat="42.3589102" lon="13.5173888"><ele>1001.0</ele><time>2026-05-03T08:14:52.366Z</time></trkpt><trkpt lat="42.3589701" lon="13.5173016"><ele>1002.0</ele><time>2026-05-03T08:14:53.371Z</time></trkpt><trkpt lat="42.359041" lon="13.5172336"><ele>1003.0</ele><time>2026-05-03T08:14:54.37Z</time></trkpt><trkpt lat="42.3591162" lon="13.517159"><ele>1004.0</ele><time>2026-05-03T08:14:55.371Z</time></trkpt><trkpt lat="42.3591823" lon="13.517069"><ele>1005.0</ele><time>2026-05-03T08:14:56.373Z</time></trkpt><trkpt lat="42.3592444" lon="13.516963"><ele>1005.0</ele><time>2026-05-03T08:14:57.38Z</time></trkpt><trkpt lat="42.3592997" lon="13.516859"><ele>1005.0</ele><time>2026-05-03T08:14:58.381Z</time></trkpt><trkpt lat="42.3593499" lon="13.5167804"><ele>1005.0</ele><time>2026-05-03T08:14:59.39Z</time></trkpt><trkpt lat="42.3594068" lon="13.5167045"><ele>1005.0</ele><time>2026-05-03T08:15:00.377Z</time></trkpt><trkpt lat="42.3594809" lon="13.5166505"><ele>1005.0</ele><time>2026-05-03T08:15:01.389Z</time></trkpt><trkpt lat="42.3595625" lon="13.5166112"><ele>1005.0</ele><time>2026-05-03T08:15:02.376Z</time></trkpt><trkpt lat="42.3596427" lon="13.5165802"><ele>1008.4</ele><time>2026-05-03T08:15:03.379Z</time></trkpt><trkpt lat="42.3597239" lon="13.5165539"><ele>1011.8</ele><time>2026-05-03T08:15:04.379Z</time></trkpt><trkpt lat="42.3598134" lon="13.5165398"><ele>1015.2</ele><time>2026-05-03T08:15:05.379Z</time></trkpt><trkpt lat="42.359898" lon="13.516521"><ele>1018.6</ele><time>2026-05-03T08:15:06.383Z</time></trkpt><trkpt lat="42.3599908" lon="13.5164987"><ele>1022.0</ele><time>2026-05-03T08:15:07.375Z</time></trkpt><trkpt lat="42.3600848" lon="13.5164712"><ele>1022.0</ele><time>2026-05-03T08:15:08.378Z</time></trkpt><trkpt lat="42.3601806" lon="13.5164484"><ele>1022.0</ele><time>2026-05-03T08:15:09.376Z</time></trkpt><trkpt lat="42.3602799" lon="13.5164293"><ele>1022.0</ele><time>2026-05-03T08:15:10.371Z</time></trkpt><trkpt lat="42.3603646" lon="13.5164291"><ele>1022.0</ele><time>2026-05-03T08:15:11.373Z</time></trkpt><trkpt lat="42.3604546" lon="13.5164444"><ele>1022.0</ele><time>2026-05-03T08:15:12.366Z</time></trkpt><trkpt lat="42.3605554" lon="13.5164612"><ele>1023.8</ele><time>2026-05-03T08:15:13.376Z</time></trkpt><trkpt lat="42.3606502" lon="13.5164872"><ele>1025.6</ele><time>2026-05-03T08:15:14.373Z</time></trkpt><trkpt lat="42.3607412" lon="13.5165205"><ele>1027.3999999999999</ele><time>2026-05-03T08:15:15.388Z</time></trkpt><trkpt lat="42.3608336" lon="13.5165669"><ele>1029.2</ele><time>2026-05-03T08:15:16.37Z</time></trkpt><trkpt lat="42.3609331" lon="13.5166058"><ele>1031.0</ele><time>2026-05-03T08:15:17.371Z</time></trkpt><trkpt lat="42.3610342" lon="13.51662"><ele>1031.0</ele><time>2026-05-03T08:15:18.367Z</time></trkpt><trkpt lat="42.3611397" lon="13.5166082"><ele>1031.0</ele><time>2026-05-03T08:15:19.366Z</time></trkpt><trkpt lat="42.3612469" lon="13.5165968"><ele>1031.0</ele><time>2026-05-03T08:15:20.364Z</time></trkpt><trkpt lat="42.3613502" lon="13.5165853"><ele>1031.0</ele><time>2026-05-03T08:15:21.367Z</time></trkpt><trkpt lat="42.3614574" lon="13.5165686"><ele>1031.0</ele><time>2026-05-03T08:15:22.356Z</time></trkpt><trkpt lat="42.361558" lon="13.5165454"><ele>1032.2</ele><time>2026-05-03T08:15:23.36Z</time></trkpt><trkpt lat="42.3616625" lon="13.5165348"><ele>1033.3999999999999</ele><time>2026-05-03T08:15:24.359Z</time></trkpt><trkpt lat="42.3617677" lon="13.5165296"><ele>1034.6</ele><time>2026-05-03T08:15:25.36Z</time></trkpt><trkpt lat="42.3618719" lon="13.5165412"><ele>1035.8</ele><time>2026-05-03T08:15:26.359Z</time></trkpt><trkpt lat="42.3619789" lon="13.516543"><ele>1037.0</ele><time>2026-05-03T08:15:27.36Z</time></trkpt><trkpt lat="42.3620817" lon="13.5165383"><ele>1037.0</ele><time>2026-05-03T08:15:28.366Z</time></trkpt><trkpt lat="42.3621831" lon="13.5165267"><ele>1037.0</ele><time>2026-05-03T08:15:29.361Z</time></trkpt><trkpt lat="42.3622847" lon="13.516531"><ele>1037.0</ele><time>2026-05-03T08:15:30.358Z</time></trkpt><trkpt lat="42.3623838" lon="13.5165349"><ele>1037.0</ele><time>2026-05-03T08:15:31.371Z</time></trkpt><trkpt lat="42.3624919" lon="13.516554"><ele>1037.0</ele><time>2026-05-03T08:15:32.36Z</time></trkpt><trkpt lat="42.3626017" lon="13.5165793"><ele>1038.0</ele><time>2026-05-03T08:15:33.356Z</time></trkpt><trkpt lat="42.3627149" lon="13.5165922"><ele>1039.0</ele><time>2026-05-03T08:15:34.358Z</time></trkpt><trkpt lat="42.3628172" lon="13.5166148"><ele>1040.0</ele><time>2026-05-03T08:15:35.359Z</time></trkpt><trkpt lat="42.3629255" lon="13.5166433"><ele>1041.0</ele><time>2026-05-03T08:15:36.362Z</time></trkpt><trkpt lat="42.3630246" lon="13.5166876"><ele>1042.0</ele><time>2026-05-03T08:15:37.363Z</time></trkpt><trkpt lat="42.3631111" lon="13.5167465"><ele>1042.0</ele><time>2026-05-03T08:15:38.357Z</time></trkpt><trkpt lat="42.3631869" lon="13.516822"><ele>1042.0</ele><time>2026-05-03T08:15:39.361Z</time></trkpt><trkpt lat="42.3632724" lon="13.5169089"><ele>1042.0</ele><time>2026-05-03T08:15:40.364Z</time></trkpt><trkpt lat="42.3633647" lon="13.5169909"><ele>1042.0</ele><time>2026-05-03T08:15:41.362Z</time></trkpt><trkpt lat="42.3634571" lon="13.5170603"><ele>1042.0</ele><time>2026-05-03T08:15:42.363Z</time></trkpt><trkpt lat="42.36355" lon="13.5171183"><ele>1044.8</ele><time>2026-05-03T08:15:43.362Z</time></trkpt><trkpt lat="42.3636452" lon="13.5171758"><ele>1047.6</ele><time>2026-05-03T08:15:44.362Z</time></trkpt><trkpt lat="42.3637334" lon="13.5172216"><ele>1050.3999999999999</ele><time>2026-05-03T08:15:45.366Z</time></trkpt><trkpt lat="42.3638252" lon="13.5172642"><ele>1053.2</ele><time>2026-05-03T08:15:46.38Z</time></trkpt><trkpt lat="42.363913" lon="13.5172893"><ele>1056.0</ele><time>2026-05-03T08:15:47.362Z</time></trkpt><trkpt lat="42.3639924" lon="13.5173051"><ele>1056.0</ele><time>2026-05-03T08:15:48.374Z</time></trkpt><trkpt lat="42.3640793" lon="13.5173133"><ele>1056.0</ele><time>2026-05-03T08:15:49.365Z</time></trkpt><trkpt lat="42.3641763" lon="13.5173275"><ele>1056.0</ele><time>2026-05-03T08:15:50.365Z</time></trkpt><trkpt lat="42.3642707" lon="13.51735"><ele>1056.0</ele><time>2026-05-03T08:15:51.366Z</time></trkpt><trkpt lat="42.3643765" lon="13.5173729"><ele>1056.0</ele><time>2026-05-03T08:15:52.373Z</time></trkpt><trkpt lat="42.3644735" lon="13.5173919"><ele>1056.0</ele><time>2026-05-03T08:15:53.366Z</time></trkpt><trkpt lat="42.3645686" lon="13.5174185"><ele>1056.0</ele><time>2026-05-03T08:15:54.375Z</time></trkpt><trkpt lat="42.3646595" lon="13.5174436"><ele>1056.0</ele><time>2026-05-03T08:15:55.373Z</time></trkpt><trkpt lat="42.364754" lon="13.5174783"><ele>1056.0</ele><time>2026-05-03T08:15:56.374Z</time></trkpt><trkpt lat="42.3648519" lon="13.5175239"><ele>1056.0</ele><time>2026-05-03T08:15:57.37Z</time></trkpt><trkpt lat="42.3649466" lon="13.5175696"><ele>1056.8</ele><time>2026-05-03T08:15:58.374Z</time></trkpt><trkpt lat="42.3650474" lon="13.5176109"><ele>1057.6</ele><time>2026-05-03T08:15:59.376Z</time></trkpt><trkpt lat="42.3651442" lon="13.5176381"><ele>1058.4</ele><time>2026-05-03T08:16:00.373Z</time></trkpt><trkpt lat="42.3652284" lon="13.5176835"><ele>1059.2</ele><time>2026-05-03T08:16:01.386Z</time></trkpt><trkpt lat="42.3652999" lon="13.5177397"><ele>1060.0</ele><time>2026-05-03T08:16:02.372Z</time></trkpt><trkpt lat="42.3653804" lon="13.5178001"><ele>1060.0</ele><time>2026-05-03T08:16:03.367Z</time></trkpt><trkpt lat="42.3654674" lon="13.5178652"><ele>1060.0</ele><time>2026-05-03T08:16:04.369Z</time></trkpt><trkpt lat="42.3655557" lon="13.5179244"><ele>1060.0</ele><time>2026-05-03T08:16:05.376Z</time></trkpt><trkpt lat="42.3656356" lon="13.5179807"><ele>1060.0</ele><time>2026-05-03T08:16:06.37Z</time></trkpt><trkpt lat="42.3657173" lon="13.5180174"><ele>1060.0</ele><time>2026-05-03T08:16:07.363Z</time></trkpt><trkpt lat="42.3657845" lon="13.5180503"><ele>1060.0</ele><time>2026-05-03T08:16:08.364Z</time></trkpt><trkpt lat="42.3658589" lon="13.5181557"><ele>1061.8</ele><time>2026-05-03T08:16:10.358Z</time></trkpt><trkpt lat="42.3658056" lon="13.5182671"><ele>1063.6</ele><time>2026-05-03T08:16:12.371Z</time></trkpt><trkpt lat="42.3657056" lon="13.5182585"><ele>1065.4</ele><time>2026-05-03T08:16:14.376Z</time></trkpt><trkpt lat="42.3655862" lon="13.5181994"><ele>1067.2</ele><time>2026-05-03T08:16:16.368Z</time></trkpt><trkpt lat="42.3655091" lon="13.5181665"><ele>1069.0</ele><time>2026-05-03T08:16:17.377Z</time></trkpt><trkpt lat="42.365421" lon="13.5181391"><ele>1070.6000000000001</ele><time>2026-05-03T08:16:18.368Z</time></trkpt><trkpt lat="42.3653231" lon="13.5181271"><ele>1072.2</ele><time>2026-05-03T08:16:19.367Z</time></trkpt><trkpt lat="42.3652308" lon="13.5181137"><ele>1073.8000000000002</ele><time>2026-05-03T08:16:20.373Z</time></trkpt><trkpt lat="42.3651465" lon="13.5181118"><ele>1075.4</ele><time>2026-05-03T08:16:21.368Z</time></trkpt><trkpt lat="42.3650625" lon="13.5181377"><ele>1077.0</ele><time>2026-05-03T08:16:22.377Z</time></trkpt><trkpt lat="42.3649626" lon="13.5181548"><ele>1077.0</ele><time>2026-05-03T08:16:23.372Z</time></trkpt><trkpt lat="42.3648649" lon="13.5181722"><ele>1077.0</ele><time>2026-05-03T08:16:24.368Z</time></trkpt><trkpt lat="42.3647795" lon="13.5181882"><ele>1077.0</ele><time>2026-05-03T08:16:25.372Z</time></trkpt><trkpt lat="42.3647098" lon="13.5182099"><ele>1077.0</ele><time>2026-05-03T08:16:26.372Z</time></trkpt><trkpt lat="42.3646222" lon="13.5182806"><ele>1077.0</ele><time>2026-05-03T08:16:28.356Z</time></trkpt><trkpt lat="42.3646199" lon="13.5183982"><ele>1077.0</ele><time>2026-05-03T08:16:30.373Z</time></trkpt><trkpt lat="42.3646965" lon="13.5184625"><ele>1077.0</ele><time>2026-05-03T08:16:32.372Z</time></trkpt><trkpt lat="42.3647614" lon="13.5184573"><ele>1077.0</ele><time>2026-05-03T08:16:33.369Z</time></trkpt><trkpt lat="42.3648378" lon="13.5184381"><ele>1077.0</ele><time>2026-05-03T08:16:34.368Z</time></trkpt><trkpt lat="42.3649258" lon="13.5184276"><ele>1077.0</ele><time>2026-05-03T08:16:35.373Z</time></trkpt><trkpt lat="42.3650117" lon="13.5184414"><ele>1077.0</ele><time>2026-05-03T08:16:36.364Z</time></trkpt><trkpt lat="42.3650881" lon="13.5184683"><ele>1077.0</ele><time>2026-05-03T08:16:37.358Z</time></trkpt><trkpt lat="42.3651648" lon="13.5185052"><ele>1077.0</ele><time>2026-05-03T08:16:38.366Z</time></trkpt><trkpt lat="42.3652421" lon="13.5185539"><ele>1077.0</ele><time>2026-05-03T08:16:39.362Z</time></trkpt><trkpt lat="42.3653231" lon="13.5186249"><ele>1077.0</ele><time>2026-05-03T08:16:40.354Z</time></trkpt><trkpt lat="42.3653967" lon="13.5187121"><ele>1077.0</ele><time>2026-05-03T08:16:41.367Z</time></trkpt><trkpt lat="42.3654702" lon="13.5188144"><ele>1077.0</ele><time>2026-05-03T08:16:42.375Z</time></trkpt><trkpt lat="42.3655377" lon="13.5188962"><ele>1078.6</ele><time>2026-05-03T08:16:43.374Z</time></trkpt><trkpt lat="42.3656016" lon="13.5189613"><ele>1080.2</ele><time>2026-05-03T08:16:44.37Z</time></trkpt><trkpt lat="42.3656776" lon="13.5190196"><ele>1081.8</ele><time>2026-05-03T08:16:45.371Z</time></trkpt><trkpt lat="42.365739" lon="13.5190931"><ele>1083.4</ele><time>2026-05-03T08:16:46.369Z</time></trkpt><trkpt lat="42.3658034" lon="13.5192305"><ele>1085.0</ele><time>2026-05-03T08:16:48.389Z</time></trkpt><trkpt lat="42.3658171" lon="13.5194027"><ele>1085.0</ele><time>2026-05-03T08:16:50.365Z</time></trkpt><trkpt lat="42.3658163" lon="13.5195093"><ele>1085.0</ele><time>2026-05-03T08:16:51.369Z</time></trkpt><trkpt lat="42.3658102" lon="13.5196155"><ele>1085.0</ele><time>2026-05-03T08:16:52.362Z</time></trkpt><trkpt lat="42.3658126" lon="13.5197275"><ele>1085.0</ele><time>2026-05-03T08:16:53.369Z</time></trkpt><trkpt lat="42.3658097" lon="13.5198367"><ele>1085.0</ele><time>2026-05-03T08:16:54.364Z</time></trkpt><trkpt lat="42.3658088" lon="13.5199592"><ele>1085.0</ele><time>2026-05-03T08:16:55.369Z</time></trkpt><trkpt lat="42.3658014" lon="13.5200823"><ele>1087.2</ele><time>2026-05-03T08:16:56.37Z</time></trkpt><trkpt lat="42.3658055" lon="13.520211"><ele>1089.4</ele><time>2026-05-03T08:16:57.37Z</time></trkpt><trkpt lat="42.3658078" lon="13.5203331"><ele>1091.6</ele><time>2026-05-03T08:16:58.37Z</time></trkpt><trkpt lat="42.365814" lon="13.5204469"><ele>1093.8</ele><time>2026-05-03T08:16:59.371Z</time></trkpt><trkpt lat="42.3658309" lon="13.5205644"><ele>1096.0</ele><time>2026-05-03T08:17:00.371Z</time></trkpt><trkpt lat="42.3658536" lon="13.5206947"><ele>1096.6</ele><time>2026-05-03T08:17:01.39Z</time></trkpt><trkpt lat="42.3658805" lon="13.5208206"><ele>1097.1999999999998</ele><time>2026-05-03T08:17:02.378Z</time></trkpt><trkpt lat="42.3658887" lon="13.5209495"><ele>1097.8000000000002</ele><time>2026-05-03T08:17:03.376Z</time></trkpt><trkpt lat="42.3658831" lon="13.521077"><ele>1098.4</ele><time>2026-05-03T08:17:04.372Z</time></trkpt><trkpt lat="42.3658677" lon="13.5212176"><ele>1099.0</ele><time>2026-05-03T08:17:05.375Z</time></trkpt><trkpt lat="42.3658634" lon="13.5213587"><ele>1099.3333333333333</ele><time>2026-05-03T08:17:06.372Z</time></trkpt><trkpt lat="42.3658506" lon="13.5214799"><ele>1099.6666666666665</ele><time>2026-05-03T08:17:07.366Z</time></trkpt><trkpt lat="42.3658298" lon="13.5215896"><ele>1100.0</ele><time>2026-05-03T08:17:08.369Z</time></trkpt><trkpt lat="42.3658083" lon="13.5217014"><ele>1100.3333333333333</ele><time>2026-05-03T08:17:09.368Z</time></trkpt><trkpt lat="42.3657768" lon="13.5218064"><ele>1100.6666666666667</ele><time>2026-05-03T08:17:10.371Z</time></trkpt><trkpt lat="42.3657438" lon="13.5218925"><ele>1101.0</ele><time>2026-05-03T08:17:11.366Z</time></trkpt><trkpt lat="42.3657328" lon="13.5219891"><ele>1102.1666666666667</ele><time>2026-05-03T08:17:12.364Z</time></trkpt><trkpt lat="42.365742" lon="13.5220927"><ele>1103.3333333333333</ele><time>2026-05-03T08:17:13.368Z</time></trkpt><trkpt lat="42.3657653" lon="13.5222217"><ele>1104.5</ele><time>2026-05-03T08:17:14.36Z</time></trkpt><trkpt lat="42.3657642" lon="13.5223416"><ele>1105.6666666666665</ele><time>2026-05-03T08:17:15.373Z</time></trkpt><trkpt lat="42.3657348" lon="13.5224306"><ele>1106.8333333333333</ele><time>2026-05-03T08:17:16.362Z</time></trkpt><trkpt lat="42.3656933" lon="13.5224983"><ele>1108.0</ele><time>2026-05-03T08:17:17.364Z</time></trkpt><trkpt lat="42.3656399" lon="13.5225796"><ele>1108.0</ele><time>2026-05-03T08:17:18.37Z</time></trkpt><trkpt lat="42.3655787" lon="13.5226611"><ele>1108.0</ele><time>2026-05-03T08:17:19.381Z</time></trkpt><trkpt lat="42.3655224" lon="13.5227366"><ele>1108.0</ele><time>2026-05-03T08:17:20.368Z</time></trkpt><trkpt lat="42.3654647" lon="13.5228177"><ele>1108.0</ele><time>2026-05-03T08:17:21.37Z</time></trkpt><trkpt lat="42.3654002" lon="13.5229131"><ele>1108.0</ele><time>2026-05-03T08:17:22.37Z</time></trkpt><trkpt lat="42.3653432" lon="13.5230065"><ele>1108.0</ele><time>2026-05-03T08:17:23.369Z</time></trkpt><trkpt lat="42.3652835" lon="13.5231003"><ele>1109.2</ele><time>2026-05-03T08:17:24.368Z</time></trkpt><trkpt lat="42.3652227" lon="13.523198"><ele>1110.4</ele><time>2026-05-03T08:17:25.364Z</time></trkpt><trkpt lat="42.3651601" lon="13.5232865"><ele>1111.6000000000001</ele><time>2026-05-03T08:17:26.367Z</time></trkpt><trkpt lat="42.3650903" lon="13.523374"><ele>1112.8</ele><time>2026-05-03T08:17:27.365Z</time></trkpt><trkpt lat="42.3650187" lon="13.5234671"><ele>1114.0</ele><time>2026-05-03T08:17:28.365Z</time></trkpt><trkpt lat="42.3649482" lon="13.5235658"><ele>1114.0</ele><time>2026-05-03T08:17:29.366Z</time></trkpt><trkpt lat="42.3648807" lon="13.5236646"><ele>1114.0</ele><time>2026-05-03T08:17:30.364Z</time></trkpt><trkpt lat="42.3648059" lon="13.5237663"><ele>1114.0</ele><time>2026-05-03T08:17:31.376Z</time></trkpt><trkpt lat="42.3647372" lon="13.5238683"><ele>1114.0</ele><time>2026-05-03T08:17:32.365Z</time></trkpt><trkpt lat="42.3646797" lon="13.5239772"><ele>1114.0</ele><time>2026-05-03T08:17:33.359Z</time></trkpt><trkpt lat="42.3646482" lon="13.5240952"><ele>1115.6000000000001</ele><time>2026-05-03T08:17:34.363Z</time></trkpt><trkpt lat="42.3646085" lon="13.5242212"><ele>1117.2</ele><time>2026-05-03T08:17:35.368Z</time></trkpt><trkpt lat="42.3645715" lon="13.5243622"><ele>1118.8000000000002</ele><time>2026-05-03T08:17:36.369Z</time></trkpt><trkpt lat="42.3645348" lon="13.5245038"><ele>1120.4</ele><time>2026-05-03T08:17:37.367Z</time></trkpt><trkpt lat="42.3645046" lon="13.5246542"><ele>1122.0</ele><time>2026-05-03T08:17:38.366Z</time></trkpt><trkpt lat="42.3644913" lon="13.5247956"><ele>1122.2</ele><time>2026-05-03T08:17:39.368Z</time></trkpt><trkpt lat="42.3644824" lon="13.5249178"><ele>1122.4</ele><time>2026-05-03T08:17:40.366Z</time></trkpt><trkpt lat="42.3644813" lon="13.5250471"><ele>1122.6</ele><time>2026-05-03T08:17:41.362Z</time></trkpt><trkpt lat="42.3645055" lon="13.5251801"><ele>1122.8</ele><time>2026-05-03T08:17:42.362Z</time></trkpt><trkpt lat="42.3645423" lon="13.5253209"><ele>1123.0</ele><time>2026-05-03T08:17:43.364Z</time></trkpt><trkpt lat="42.364571" lon="13.525468"><ele>1123.25</ele><time>2026-05-03T08:17:44.365Z</time></trkpt><trkpt lat="42.3645939" lon="13.5256114"><ele>1123.5</ele><time>2026-05-03T08:17:45.369Z</time></trkpt><trkpt lat="42.3646068" lon="13.5257675"><ele>1123.75</ele><time>2026-05-03T08:17:46.373Z</time></trkpt><trkpt lat="42.3646056" lon="13.5259188"><ele>1124.0</ele><time>2026-05-03T08:17:47.378Z</time></trkpt><trkpt lat="42.3645969" lon="13.5260747"><ele>1124.0</ele><time>2026-05-03T08:17:48.38Z</time></trkpt><trkpt lat="42.364581" lon="13.5262216"><ele>1124.0</ele><time>2026-05-03T08:17:49.369Z</time></trkpt><trkpt lat="42.3645634" lon="13.526346"><ele>1124.0</ele><time>2026-05-03T08:17:50.393Z</time></trkpt><trkpt lat="42.3645449" lon="13.5264714"><ele>1124.0</ele><time>2026-05-03T08:17:51.379Z</time></trkpt><trkpt lat="42.3645289" lon="13.5266049"><ele>1124.0</ele><time>2026-05-03T08:17:52.38Z</time></trkpt><trkpt lat="42.3645218" lon="13.5267448"><ele>1124.4</ele><time>2026-05-03T08:17:53.375Z</time></trkpt><trkpt lat="42.3645306" lon="13.5268804"><ele>1124.8000000000002</ele><time>2026-05-03T08:17:54.377Z</time></trkpt><trkpt lat="42.3645436" lon="13.5270088"><ele>1125.1999999999998</ele><time>2026-05-03T08:17:55.378Z</time></trkpt><trkpt lat="42.3645594" lon="13.5271459"><ele>1125.6</ele><time>2026-05-03T08:17:56.378Z</time></trkpt><trkpt lat="42.3645766" lon="13.5272874"><ele>1126.0</ele><time>2026-05-03T08:17:57.38Z</time></trkpt><trkpt lat="42.3646022" lon="13.5274221"><ele>1127.2</ele><time>2026-05-03T08:17:58.379Z</time></trkpt><trkpt lat="42.3646282" lon="13.5275579"><ele>1128.3999999999999</ele><time>2026-05-03T08:17:59.379Z</time></trkpt><trkpt lat="42.3646366" lon="13.5276791"><ele>1129.6</ele><time>2026-05-03T08:18:00.371Z</time></trkpt><trkpt lat="42.3646321" lon="13.5278086"><ele>1130.8</ele><time>2026-05-03T08:18:01.389Z</time></trkpt><trkpt lat="42.3646187" lon="13.5279401"><ele>1132.0</ele><time>2026-05-03T08:18:02.377Z</time></trkpt><trkpt lat="42.364601" lon="13.528082"><ele>1133.2</ele><time>2026-05-03T08:18:03.374Z</time></trkpt><trkpt lat="42.3645776" lon="13.5282121"><ele>1134.4</ele><time>2026-05-03T08:18:04.375Z</time></trkpt><trkpt lat="42.3645517" lon="13.5283554"><ele>1135.6</ele><time>2026-05-03T08:18:05.375Z</time></trkpt><trkpt lat="42.3645325" lon="13.5284949"><ele>1136.8</ele><time>2026-05-03T08:18:06.375Z</time></trkpt><trkpt lat="42.364515" lon="13.5286372"><ele>1138.0</ele><time>2026-05-03T08:18:07.373Z</time></trkpt><trkpt lat="42.3645094" lon="13.5287866"><ele>1140.0</ele><time>2026-05-03T08:18:08.371Z</time></trkpt><trkpt lat="42.3645191" lon="13.5289392"><ele>1142.0</ele><time>2026-05-03T08:18:09.371Z</time></trkpt><trkpt lat="42.364533" lon="13.5290829"><ele>1144.0</ele><time>2026-05-03T08:18:10.371Z</time></trkpt><trkpt lat="42.3645413" lon="13.5292179"><ele>1146.0</ele><time>2026-05-03T08:18:11.368Z</time></trkpt><trkpt lat="42.3645515" lon="13.5293252"><ele>1148.0</ele><time>2026-05-03T08:18:12.367Z</time></trkpt><trkpt lat="42.3645662" lon="13.5294146"><ele>1148.0</ele><time>2026-05-03T08:18:13.361Z</time></trkpt><trkpt lat="42.3646174" lon="13.5294834"><ele>1148.0</ele><time>2026-05-03T08:18:15.367Z</time></trkpt><trkpt lat="42.3647205" lon="13.5294371"><ele>1148.0</ele><time>2026-05-03T08:18:17.367Z</time></trkpt><trkpt lat="42.3648002" lon="13.5293059"><ele>1148.0</ele><time>2026-05-03T08:18:19.365Z</time></trkpt><trkpt lat="42.3648277" lon="13.5292184"><ele>1148.0</ele><time>2026-05-03T08:18:20.37Z</time></trkpt><trkpt lat="42.3648586" lon="13.5291271"><ele>1147.6666666666667</ele><time>2026-05-03T08:18:21.387Z</time></trkpt><trkpt lat="42.3649008" lon="13.5290441"><ele>1147.3333333333335</ele><time>2026-05-03T08:18:22.37Z</time></trkpt><trkpt lat="42.3649572" lon="13.5289672"><ele>1147.0</ele><time>2026-05-03T08:18:23.37Z</time></trkpt><trkpt lat="42.36503" lon="13.5288975"><ele>1146.6666666666667</ele><time>2026-05-03T08:18:24.373Z</time></trkpt><trkpt lat="42.3651184" lon="13.528833"><ele>1146.3333333333333</ele><time>2026-05-03T08:18:25.372Z</time></trkpt><trkpt lat="42.3652075" lon="13.5287723"><ele>1146.0</ele><time>2026-05-03T08:18:26.374Z</time></trkpt><trkpt lat="42.3652981" lon="13.5287187"><ele>1146.0</ele><time>2026-05-03T08:18:27.371Z</time></trkpt><trkpt lat="42.3653821" lon="13.5286613"><ele>1146.0</ele><time>2026-05-03T08:18:28.37Z</time></trkpt><trkpt lat="42.365451" lon="13.5286169"><ele>1146.0</ele><time>2026-05-03T08:18:29.358Z</time></trkpt><trkpt lat="42.3655185" lon="13.5286032"><ele>1146.0</ele><time>2026-05-03T08:18:31.366Z</time></trkpt><trkpt lat="42.3655593" lon="13.5286846"><ele>1146.0</ele><time>2026-05-03T08:18:34.377Z</time></trkpt><trkpt lat="42.3655539" lon="13.5287708"><ele>1146.0</ele><time>2026-05-03T08:18:36.371Z</time></trkpt><trkpt lat="42.3654621" lon="13.5288398"><ele>1148.0</ele><time>2026-05-03T08:18:39.374Z</time></trkpt><trkpt lat="42.3653675" lon="13.528898"><ele>1150.0</ele><time>2026-05-03T08:18:41.368Z</time></trkpt><trkpt lat="42.3652785" lon="13.528949"><ele>1152.0</ele><time>2026-05-03T08:18:43.369Z</time></trkpt><trkpt lat="42.3652239" lon="13.5290132"><ele>1154.0</ele><time>2026-05-03T08:18:45.379Z</time></trkpt><trkpt lat="42.3651635" lon="13.5291099"><ele>1156.0</ele><time>2026-05-03T08:18:47.376Z</time></trkpt><trkpt lat="42.3651064" lon="13.5292436"><ele>1156.0</ele><time>2026-05-03T08:18:49.366Z</time></trkpt><trkpt lat="42.3650808" lon="13.5293365"><ele>1156.0</ele><time>2026-05-03T08:18:50.374Z</time></trkpt><trkpt lat="42.3650676" lon="13.5294388"><ele>1156.0</ele><time>2026-05-03T08:18:51.374Z</time></trkpt><trkpt lat="42.3650567" lon="13.5295421"><ele>1156.0</ele><time>2026-05-03T08:18:52.405Z</time></trkpt><trkpt lat="42.365063" lon="13.5296445"><ele>1156.0</ele><time>2026-05-03T08:18:53.374Z</time></trkpt><trkpt lat="42.3650835" lon="13.5297456"><ele>1156.0</ele><time>2026-05-03T08:18:54.374Z</time></trkpt><trkpt lat="42.3651171" lon="13.529831"><ele>1156.8333333333333</ele><time>2026-05-03T08:18:55.375Z</time></trkpt><trkpt lat="42.3651658" lon="13.5299029"><ele>1157.6666666666665</ele><time>2026-05-03T08:18:56.372Z</time></trkpt><trkpt lat="42.3652251" lon="13.5299778"><ele>1158.5</ele><time>2026-05-03T08:18:57.378Z</time></trkpt><trkpt lat="42.3652941" lon="13.5300485"><ele>1159.3333333333333</ele><time>2026-05-03T08:18:58.38Z</time></trkpt><trkpt lat="42.3653713" lon="13.5301217"><ele>1160.1666666666667</ele><time>2026-05-03T08:18:59.378Z</time></trkpt><trkpt lat="42.3654467" lon="13.5302072"><ele>1161.0</ele><time>2026-05-03T08:19:00.377Z</time></trkpt><trkpt lat="42.3655178" lon="13.5302967"><ele>1162.3333333333333</ele><time>2026-05-03T08:19:01.389Z</time></trkpt><trkpt lat="42.3655769" lon="13.5303911"><ele>1163.6666666666667</ele><time>2026-05-03T08:19:02.366Z</time></trkpt><trkpt lat="42.3656145" lon="13.5304993"><ele>1165.0</ele><time>2026-05-03T08:19:03.365Z</time></trkpt><trkpt lat="42.3656354" lon="13.5306105"><ele>1166.3333333333335</ele><time>2026-05-03T08:19:04.369Z</time></trkpt><trkpt lat="42.3656393" lon="13.5307282"><ele>1167.6666666666667</ele><time>2026-05-03T08:19:05.378Z</time></trkpt><trkpt lat="42.3656432" lon="13.530848"><ele>1169.0</ele><time>2026-05-03T08:19:06.377Z</time></trkpt><trkpt lat="42.36566" lon="13.5309626"><ele>1169.8</ele><time>2026-05-03T08:19:07.376Z</time></trkpt><trkpt lat="42.3656902" lon="13.531075"><ele>1170.6000000000001</ele><time>2026-05-03T08:19:08.374Z</time></trkpt><trkpt lat="42.365723" lon="13.5311827"><ele>1171.4</ele><time>2026-05-03T08:19:09.369Z</time></trkpt><trkpt lat="42.3657663" lon="13.5312933"><ele>1172.2</ele><time>2026-05-03T08:19:10.363Z</time></trkpt><trkpt lat="42.3658234" lon="13.5314056"><ele>1173.0</ele><time>2026-05-03T08:19:11.365Z</time></trkpt><trkpt lat="42.3658827" lon="13.5315159"><ele>1173.8333333333333</ele><time>2026-05-03T08:19:12.363Z</time></trkpt><trkpt lat="42.3659364" lon="13.5316233"><ele>1174.6666666666667</ele><time>2026-05-03T08:19:13.365Z</time></trkpt><trkpt lat="42.3659752" lon="13.5317458"><ele>1175.5</ele><time>2026-05-03T08:19:14.368Z</time></trkpt><trkpt lat="42.3660039" lon="13.5318604"><ele>1176.3333333333335</ele><time>2026-05-03T08:19:15.36Z</time></trkpt><trkpt lat="42.3660279" lon="13.5319644"><ele>1177.1666666666667</ele><time>2026-05-03T08:19:16.366Z</time></trkpt><trkpt lat="42.3660415" lon="13.5320658"><ele>1178.0</ele><time>2026-05-03T08:19:17.367Z</time></trkpt><trkpt lat="42.3660454" lon="13.5321633"><ele>1178.1666666666667</ele><time>2026-05-03T08:19:18.368Z</time></trkpt><trkpt lat="42.3660426" lon="13.5322742"><ele>1178.3333333333335</ele><time>2026-05-03T08:19:19.365Z</time></trkpt><trkpt lat="42.3660327" lon="13.5323821"><ele>1178.5</ele><time>2026-05-03T08:19:20.366Z</time></trkpt><trkpt lat="42.3660115" lon="13.5324725"><ele>1178.6666666666667</ele><time>2026-05-03T08:19:21.365Z</time></trkpt><trkpt lat="42.36597" lon="13.5325496"><ele>1178.8333333333333</ele><time>2026-05-03T08:19:22.383Z</time></trkpt><trkpt lat="42.3659152" lon="13.5326173"><ele>1179.0</ele><time>2026-05-03T08:19:23.366Z</time></trkpt><trkpt lat="42.3658513" lon="13.5326994"><ele>1179.0</ele><time>2026-05-03T08:19:24.371Z</time></trkpt><trkpt lat="42.3657758" lon="13.5327889"><ele>1179.0</ele><time>2026-05-03T08:19:25.371Z</time></trkpt><trkpt lat="42.3657077" lon="13.5328637"><ele>1179.0</ele><time>2026-05-03T08:19:26.366Z</time></trkpt><trkpt lat="42.3656285" lon="13.5329255"><ele>1179.0</ele><time>2026-05-03T08:19:27.365Z</time></trkpt><trkpt lat="42.3655419" lon="13.5329958"><ele>1179.0</ele><time>2026-05-03T08:19:28.364Z</time></trkpt><trkpt lat="42.365447" lon="13.5330528"><ele>1183.8</ele><time>2026-05-03T08:19:29.367Z</time></trkpt><trkpt lat="42.3653567" lon="13.533122"><ele>1188.6000000000001</ele><time>2026-05-03T08:19:30.367Z</time></trkpt><trkpt lat="42.3652703" lon="13.5332046"><ele>1193.4</ele><time>2026-05-03T08:19:31.381Z</time></trkpt><trkpt lat="42.3651963" lon="13.5332923"><ele>1198.2</ele><time>2026-05-03T08:19:32.361Z</time></trkpt><trkpt lat="42.3651446" lon="13.5333942"><ele>1203.0</ele><time>2026-05-03T08:19:33.362Z</time></trkpt><trkpt lat="42.3651057" lon="13.5334934"><ele>1203.0</ele><time>2026-05-03T08:19:34.368Z</time></trkpt><trkpt lat="42.3650672" lon="13.5336028"><ele>1203.0</ele><time>2026-05-03T08:19:35.366Z</time></trkpt><trkpt lat="42.3650371" lon="13.533735"><ele>1203.0</ele><time>2026-05-03T08:19:36.365Z</time></trkpt><trkpt lat="42.3650246" lon="13.5338742"><ele>1203.0</ele><time>2026-05-03T08:19:37.368Z</time></trkpt><trkpt lat="42.3650227" lon="13.5340125"><ele>1203.0</ele><time>2026-05-03T08:19:38.369Z</time></trkpt><trkpt lat="42.365024" lon="13.5341522"><ele>1204.0</ele><time>2026-05-03T08:19:39.362Z</time></trkpt><trkpt lat="42.3650055" lon="13.534289"><ele>1205.0</ele><time>2026-05-03T08:19:40.371Z</time></trkpt><trkpt lat="42.3649859" lon="13.5344334"><ele>1206.0</ele><time>2026-05-03T08:19:41.374Z</time></trkpt><trkpt lat="42.3649789" lon="13.534581"><ele>1207.0</ele><time>2026-05-03T08:19:42.372Z</time></trkpt><trkpt lat="42.3649762" lon="13.534726"><ele>1208.0</ele><time>2026-05-03T08:19:43.372Z</time></trkpt><trkpt lat="42.3649697" lon="13.5348793"><ele>1209.0</ele><time>2026-05-03T08:19:44.372Z</time></trkpt><trkpt lat="42.3649704" lon="13.5350247"><ele>1210.0</ele><time>2026-05-03T08:19:45.372Z</time></trkpt><trkpt lat="42.3649678" lon="13.5351731"><ele>1211.0</ele><time>2026-05-03T08:19:46.372Z</time></trkpt><trkpt lat="42.3649495" lon="13.5353164"><ele>1212.0</ele><time>2026-05-03T08:19:47.373Z</time></trkpt><trkpt lat="42.3649173" lon="13.5354589"><ele>1213.0</ele><time>2026-05-03T08:19:48.373Z</time></trkpt><trkpt lat="42.3648888" lon="13.5356064"><ele>1213.25</ele><time>2026-05-03T08:19:49.372Z</time></trkpt><trkpt lat="42.3648569" lon="13.5357558"><ele>1213.5</ele><time>2026-05-03T08:19:50.37Z</time></trkpt><trkpt lat="42.3648271" lon="13.5359032"><ele>1213.75</ele><time>2026-05-03T08:19:51.37Z</time></trkpt><trkpt lat="42.364792" lon="13.5360505"><ele>1214.0</ele><time>2026-05-03T08:19:52.367Z</time></trkpt><trkpt lat="42.3647571" lon="13.5361983"><ele>1214.4</ele><time>2026-05-03T08:19:53.388Z</time></trkpt><trkpt lat="42.364716" lon="13.5363394"><ele>1214.8000000000002</ele><time>2026-05-03T08:19:54.369Z</time></trkpt><trkpt lat="42.3646888" lon="13.5364906"><ele>1215.1999999999998</ele><time>2026-05-03T08:19:55.371Z</time></trkpt><trkpt lat="42.3646764" lon="13.536636"><ele>1215.6</ele><time>2026-05-03T08:19:56.37Z</time></trkpt><trkpt lat="42.3646592" lon="13.53677"><ele>1216.0</ele><time>2026-05-03T08:19:57.369Z</time></trkpt><trkpt lat="42.3646248" lon="13.5368934"><ele>1216.0</ele><time>2026-05-03T08:19:58.37Z</time></trkpt><trkpt lat="42.3645733" lon="13.537009"><ele>1216.0</ele><time>2026-05-03T08:19:59.377Z</time></trkpt><trkpt lat="42.3645173" lon="13.5371318"><ele>1216.0</ele><time>2026-05-03T08:20:00.372Z</time></trkpt><trkpt lat="42.3644529" lon="13.5372498"><ele>1216.0</ele><time>2026-05-03T08:20:01.387Z</time></trkpt><trkpt lat="42.3643808" lon="13.5373793"><ele>1216.0</ele><time>2026-05-03T08:20:02.374Z</time></trkpt><trkpt lat="42.3643066" lon="13.5374968"><ele>1216.75</ele><time>2026-05-03T08:20:03.375Z</time></trkpt><trkpt lat="42.3642355" lon="13.5376184"><ele>1217.5</ele><time>2026-05-03T08:20:04.373Z</time></trkpt><trkpt lat="42.3641604" lon="13.5377532"><ele>1218.25</ele><time>2026-05-03T08:20:05.373Z</time></trkpt><trkpt lat="42.3640931" lon="13.5378948"><ele>1219.0</ele><time>2026-05-03T08:20:06.372Z</time></trkpt><trkpt lat="42.3640316" lon="13.5380432"><ele>1220.25</ele><time>2026-05-03T08:20:07.373Z</time></trkpt><trkpt lat="42.3639606" lon="13.5381846"><ele>1221.5</ele><time>2026-05-03T08:20:08.369Z</time></trkpt><trkpt lat="42.3638786" lon="13.5382991"><ele>1222.75</ele><time>2026-05-03T08:20:09.361Z</time></trkpt><trkpt lat="42.3637904" lon="13.5383903"><ele>1224.0</ele><time>2026-05-03T08:20:10.369Z</time></trkpt><trkpt lat="42.3636889" lon="13.5384906"><ele>1224.0</ele><time>2026-05-03T08:20:11.371Z</time></trkpt><trkpt lat="42.363593" lon="13.5386051"><ele>1224.0</ele><time>2026-05-03T08:20:12.373Z</time></trkpt><trkpt lat="42.363493" lon="13.5387203"><ele>1224.0</ele><time>2026-05-03T08:20:13.374Z</time></trkpt><trkpt lat="42.363396" lon="13.5388349"><ele>1224.0</ele><time>2026-05-03T08:20:14.372Z</time></trkpt><trkpt lat="42.3633035" lon="13.5389677"><ele>1225.0</ele><time>2026-05-03T08:20:15.374Z</time></trkpt><trkpt lat="42.3632172" lon="13.5391045"><ele>1226.0</ele><time>2026-05-03T08:20:16.374Z</time></trkpt><trkpt lat="42.3631277" lon="13.5392374"><ele>1227.0</ele><time>2026-05-03T08:20:17.375Z</time></trkpt><trkpt lat="42.3630369" lon="13.539362"><ele>1228.0</ele><time>2026-05-03T08:20:18.377Z</time></trkpt><trkpt lat="42.3629436" lon="13.5394987"><ele>1227.5</ele><time>2026-05-03T08:20:19.375Z</time></trkpt><trkpt lat="42.3628443" lon="13.5396321"><ele>1227.0</ele><time>2026-05-03T08:20:20.376Z</time></trkpt><trkpt lat="42.3627564" lon="13.5397549"><ele>1226.5</ele><time>2026-05-03T08:20:21.372Z</time></trkpt><trkpt lat="42.3626726" lon="13.5398708"><ele>1226.0</ele><time>2026-05-03T08:20:22.376Z</time></trkpt><trkpt lat="42.3625949" lon="13.5399812"><ele>1226.0</ele><time>2026-05-03T08:20:23.377Z</time></trkpt><trkpt lat="42.3625272" lon="13.5401104"><ele>1226.0</ele><time>2026-05-03T08:20:24.391Z</time></trkpt><trkpt lat="42.3624749" lon="13.5402626"><ele>1226.0</ele><time>2026-05-03T08:20:25.376Z</time></trkpt><trkpt lat="42.3624308" lon="13.5404116"><ele>1226.0</ele><time>2026-05-03T08:20:26.378Z</time></trkpt><trkpt lat="42.3623861" lon="13.5405676"><ele>1227.0</ele><time>2026-05-03T08:20:27.377Z</time></trkpt><trkpt lat="42.362344" lon="13.540725"><ele>1228.0</ele><time>2026-05-03T08:20:28.374Z</time></trkpt><trkpt lat="42.3623099" lon="13.5408851"><ele>1229.0</ele><time>2026-05-03T08:20:29.376Z</time></trkpt><trkpt lat="42.3622726" lon="13.5410431"><ele>1230.0</ele><time>2026-05-03T08:20:30.381Z</time></trkpt><trkpt lat="42.362226" lon="13.5411983"><ele>1230.0</ele><time>2026-05-03T08:20:31.39Z</time></trkpt><trkpt lat="42.3621747" lon="13.541357"><ele>1230.0</ele><time>2026-05-03T08:20:32.376Z</time></trkpt><trkpt lat="42.3621288" lon="13.5415213"><ele>1230.0</ele><time>2026-05-03T08:20:33.379Z</time></trkpt><trkpt lat="42.3620785" lon="13.5416908"><ele>1230.0</ele><time>2026-05-03T08:20:34.38Z</time></trkpt><trkpt lat="42.36203" lon="13.5418634"><ele>1230.0</ele><time>2026-05-03T08:20:35.379Z</time></trkpt><trkpt lat="42.3619877" lon="13.5420399"><ele>1230.0</ele><time>2026-05-03T08:20:36.379Z</time></trkpt><trkpt lat="42.361943" lon="13.5422132"><ele>1230.0</ele><time>2026-05-03T08:20:37.379Z</time></trkpt><trkpt lat="42.3619034" lon="13.5423744"><ele>1230.0</ele><time>2026-05-03T08:20:38.378Z</time></trkpt><trkpt lat="42.36185" lon="13.5425221"><ele>1230.0</ele><time>2026-05-03T08:20:39.377Z</time></trkpt><trkpt lat="42.3618047" lon="13.5426599"><ele>1230.0</ele><time>2026-05-03T08:20:40.379Z</time></trkpt><trkpt lat="42.3617766" lon="13.5428115"><ele>1230.0</ele><time>2026-05-03T08:20:41.368Z</time></trkpt><trkpt lat="42.361771" lon="13.5429755"><ele>1230.0</ele><time>2026-05-03T08:20:42.366Z</time></trkpt><trkpt lat="42.3617834" lon="13.5431518"><ele>1230.0</ele><time>2026-05-03T08:20:43.378Z</time></trkpt><trkpt lat="42.3617902" lon="13.543331"><ele>1230.0</ele><time>2026-05-03T08:20:44.379Z</time></trkpt><trkpt lat="42.3617798" lon="13.5435107"><ele>1230.0</ele><time>2026-05-03T08:20:45.377Z</time></trkpt><trkpt lat="42.3617609" lon="13.5436754"><ele>1230.0</ele><time>2026-05-03T08:20:46.373Z</time></trkpt><trkpt lat="42.3617224" lon="13.5438299"><ele>1230.75</ele><time>2026-05-03T08:20:47.379Z</time></trkpt><trkpt lat="42.3616736" lon="13.5439818"><ele>1231.5</ele><time>2026-05-03T08:20:48.382Z</time></trkpt><trkpt lat="42.3616267" lon="13.544138"><ele>1232.25</ele><time>2026-05-03T08:20:49.376Z</time></trkpt><trkpt lat="42.3615986" lon="13.5443096"><ele>1233.0</ele><time>2026-05-03T08:20:50.384Z</time></trkpt><trkpt lat="42.3615706" lon="13.5444781"><ele>1233.6</ele><time>2026-05-03T08:20:51.378Z</time></trkpt><trkpt lat="42.3615428" lon="13.5446239"><ele>1234.1999999999998</ele><time>2026-05-03T08:20:52.386Z</time></trkpt><trkpt lat="42.3615233" lon="13.5447649"><ele>1234.8</ele><time>2026-05-03T08:20:53.383Z</time></trkpt><trkpt lat="42.3615172" lon="13.544893"><ele>1235.3999999999999</ele><time>2026-05-03T08:20:54.377Z</time></trkpt><trkpt lat="42.3615228" lon="13.545027"><ele>1236.0</ele><time>2026-05-03T08:20:55.402Z</time></trkpt><trkpt lat="42.3615314" lon="13.5451627"><ele>1236.0</ele><time>2026-05-03T08:20:56.383Z</time></trkpt><trkpt lat="42.3615508" lon="13.545285"><ele>1236.0</ele><time>2026-05-03T08:20:57.383Z</time></trkpt><trkpt lat="42.3615601" lon="13.5453932"><ele>1236.0</ele><time>2026-05-03T08:20:58.381Z</time></trkpt><trkpt lat="42.3615593" lon="13.5455008"><ele>1236.0</ele><time>2026-05-03T08:20:59.385Z</time></trkpt><trkpt lat="42.3615414" lon="13.5456201"><ele>1236.0</ele><time>2026-05-03T08:21:00.382Z</time></trkpt><trkpt lat="42.3615158" lon="13.5457324"><ele>1236.0</ele><time>2026-05-03T08:21:01.396Z</time></trkpt><trkpt lat="42.3615029" lon="13.5458421"><ele>1235.8333333333333</ele><time>2026-05-03T08:21:02.381Z</time></trkpt><trkpt lat="42.3615146" lon="13.545948"><ele>1235.6666666666667</ele><time>2026-05-03T08:21:03.379Z</time></trkpt><trkpt lat="42.3615415" lon="13.5460591"><ele>1235.5</ele><time>2026-05-03T08:21:04.38Z</time></trkpt><trkpt lat="42.3615691" lon="13.5461544"><ele>1235.3333333333335</ele><time>2026-05-03T08:21:05.385Z</time></trkpt><trkpt lat="42.361587" lon="13.5462566"><ele>1235.1666666666667</ele><time>2026-05-03T08:21:06.387Z</time></trkpt><trkpt lat="42.3615997" lon="13.5463591"><ele>1235.0</ele><time>2026-05-03T08:21:07.374Z</time></trkpt><trkpt lat="42.3615894" lon="13.5464498"><ele>1234.8333333333335</ele><time>2026-05-03T08:21:08.373Z</time></trkpt><trkpt lat="42.3615613" lon="13.5465382"><ele>1234.6666666666667</ele><time>2026-05-03T08:21:09.384Z</time></trkpt><trkpt lat="42.3615346" lon="13.5466227"><ele>1234.5</ele><time>2026-05-03T08:21:10.385Z</time></trkpt><trkpt lat="42.3615072" lon="13.5467081"><ele>1234.3333333333333</ele><time>2026-05-03T08:21:11.375Z</time></trkpt><trkpt lat="42.3614586" lon="13.5467988"><ele>1234.1666666666665</ele><time>2026-05-03T08:21:12.369Z</time></trkpt><trkpt lat="42.3613936" lon="13.5469003"><ele>1234.0</ele><time>2026-05-03T08:21:13.384Z</time></trkpt><trkpt lat="42.3613324" lon="13.5469929"><ele>1232.2</ele><time>2026-05-03T08:21:14.377Z</time></trkpt><trkpt lat="42.3612857" lon="13.5470861"><ele>1230.4</ele><time>2026-05-03T08:21:15.374Z</time></trkpt><trkpt lat="42.361251" lon="13.5472036"><ele>1228.6</ele><time>2026-05-03T08:21:16.378Z</time></trkpt><trkpt lat="42.3612227" lon="13.5473261"><ele>1226.8</ele><time>2026-05-03T08:21:17.374Z</time></trkpt><trkpt lat="42.3611721" lon="13.5474495"><ele>1225.0</ele><time>2026-05-03T08:21:18.378Z</time></trkpt><trkpt lat="42.3611114" lon="13.5475654"><ele>1225.0</ele><time>2026-05-03T08:21:19.376Z</time></trkpt><trkpt lat="42.36106" lon="13.5476636"><ele>1225.0</ele><time>2026-05-03T08:21:20.376Z</time></trkpt><trkpt lat="42.3610148" lon="13.5477615"><ele>1225.0</ele><time>2026-05-03T08:21:21.377Z</time></trkpt><trkpt lat="42.3609764" lon="13.5478578"><ele>1225.0</ele><time>2026-05-03T08:21:22.375Z</time></trkpt><trkpt lat="42.3609363" lon="13.5479405"><ele>1225.0</ele><time>2026-05-03T08:21:23.372Z</time></trkpt><trkpt lat="42.3608755" lon="13.5480253"><ele>1225.0</ele><time>2026-05-03T08:21:24.37Z</time></trkpt><trkpt lat="42.3608011" lon="13.5481029"><ele>1225.0</ele><time>2026-05-03T08:21:25.374Z</time></trkpt><trkpt lat="42.3607447" lon="13.548195"><ele>1225.0</ele><time>2026-05-03T08:21:26.378Z</time></trkpt><trkpt lat="42.3606885" lon="13.5483097"><ele>1225.0</ele><time>2026-05-03T08:21:27.356Z</time></trkpt><trkpt lat="42.3606438" lon="13.5484458"><ele>1225.0</ele><time>2026-05-03T08:21:28.371Z</time></trkpt><trkpt lat="42.3606029" lon="13.5485932"><ele>1225.0</ele><time>2026-05-03T08:21:29.369Z</time></trkpt><trkpt lat="42.3605681" lon="13.5487567"><ele>1223.75</ele><time>2026-05-03T08:21:30.374Z</time></trkpt><trkpt lat="42.3605419" lon="13.5489314"><ele>1222.5</ele><time>2026-05-03T08:21:31.385Z</time></trkpt><trkpt lat="42.360523" lon="13.5490899"><ele>1221.25</ele><time>2026-05-03T08:21:32.371Z</time></trkpt><trkpt lat="42.3605028" lon="13.5492327"><ele>1220.0</ele><time>2026-05-03T08:21:33.372Z</time></trkpt><trkpt lat="42.3604815" lon="13.5493619"><ele>1219.6</ele><time>2026-05-03T08:21:34.37Z</time></trkpt><trkpt lat="42.3604523" lon="13.5494839"><ele>1219.2</ele><time>2026-05-03T08:21:35.37Z</time></trkpt><trkpt lat="42.3604169" lon="13.549608"><ele>1218.8</ele><time>2026-05-03T08:21:36.37Z</time></trkpt><trkpt lat="42.3603875" lon="13.5497383"><ele>1218.4</ele><time>2026-05-03T08:21:37.368Z</time></trkpt><trkpt lat="42.3603652" lon="13.5498926"><ele>1218.0</ele><time>2026-05-03T08:21:38.37Z</time></trkpt><trkpt lat="42.3603421" lon="13.5500641"><ele>1217.25</ele><time>2026-05-03T08:21:39.374Z</time></trkpt><trkpt lat="42.3603153" lon="13.5502393"><ele>1216.5</ele><time>2026-05-03T08:21:40.375Z</time></trkpt><trkpt lat="42.3602833" lon="13.5504056"><ele>1215.75</ele><time>2026-05-03T08:21:41.375Z</time></trkpt><trkpt lat="42.3602556" lon="13.5505606"><ele>1215.0</ele><time>2026-05-03T08:21:42.374Z</time></trkpt><trkpt lat="42.3602285" lon="13.5507209"><ele>1214.6</ele><time>2026-05-03T08:21:43.373Z</time></trkpt><trkpt lat="42.3601974" lon="13.5508623"><ele>1214.2</ele><time>2026-05-03T08:21:44.374Z</time></trkpt><trkpt lat="42.3601664" lon="13.5509951"><ele>1213.8</ele><time>2026-05-03T08:21:45.374Z</time></trkpt><trkpt lat="42.3601381" lon="13.5511314"><ele>1213.4</ele><time>2026-05-03T08:21:46.374Z</time></trkpt><trkpt lat="42.3601061" lon="13.5512841"><ele>1213.0</ele><time>2026-05-03T08:21:47.378Z</time></trkpt><trkpt lat="42.3600759" lon="13.5514398"><ele>1212.75</ele><time>2026-05-03T08:21:48.375Z</time></trkpt><trkpt lat="42.3600405" lon="13.5515909"><ele>1212.5</ele><time>2026-05-03T08:21:49.375Z</time></trkpt><trkpt lat="42.3600067" lon="13.5517389"><ele>1212.25</ele><time>2026-05-03T08:21:50.374Z</time></trkpt><trkpt lat="42.3599576" lon="13.5518719"><ele>1212.0</ele><time>2026-05-03T08:21:51.375Z</time></trkpt><trkpt lat="42.3599118" lon="13.5520057"><ele>1211.75</ele><time>2026-05-03T08:21:52.373Z</time></trkpt><trkpt lat="42.3598743" lon="13.5521437"><ele>1211.5</ele><time>2026-05-03T08:21:53.377Z</time></trkpt><trkpt lat="42.3598334" lon="13.5522786"><ele>1211.25</ele><time>2026-05-03T08:21:54.371Z</time></trkpt><trkpt lat="42.3597714" lon="13.5524061"><ele>1211.0</ele><time>2026-05-03T08:21:55.374Z</time></trkpt><trkpt lat="42.3596954" lon="13.5525414"><ele>1211.0</ele><time>2026-05-03T08:21:56.378Z</time></trkpt><trkpt lat="42.3596144" lon="13.5526832"><ele>1211.0</ele><time>2026-05-03T08:21:57.39Z</time></trkpt><trkpt lat="42.3595363" lon="13.552826"><ele>1211.0</ele><time>2026-05-03T08:21:58.375Z</time></trkpt><trkpt lat="42.3594646" lon="13.5529699"><ele>1211.0</ele><time>2026-05-03T08:21:59.376Z</time></trkpt><trkpt lat="42.3593968" lon="13.5531285"><ele>1211.0</ele><time>2026-05-03T08:22:00.376Z</time></trkpt><trkpt lat="42.3593361" lon="13.5532981"><ele>1211.0</ele><time>2026-05-03T08:22:01.387Z</time></trkpt><trkpt lat="42.3592852" lon="13.5534785"><ele>1211.0</ele><time>2026-05-03T08:22:02.376Z</time></trkpt><trkpt lat="42.3592417" lon="13.5536654"><ele>1211.0</ele><time>2026-05-03T08:22:03.373Z</time></trkpt><trkpt lat="42.3591965" lon="13.5538215"><ele>1211.25</ele><time>2026-05-03T08:22:04.371Z</time></trkpt><trkpt lat="42.3591522" lon="13.5539472"><ele>1211.5</ele><time>2026-05-03T08:22:05.374Z</time></trkpt><trkpt lat="42.3590988" lon="13.5540747"><ele>1211.75</ele><time>2026-05-03T08:22:06.374Z</time></trkpt><trkpt lat="42.3590337" lon="13.5542121"><ele>1212.0</ele><time>2026-05-03T08:22:07.374Z</time></trkpt><trkpt lat="42.3589732" lon="13.554355"><ele>1212.0</ele><time>2026-05-03T08:22:08.375Z</time></trkpt><trkpt lat="42.3589114" lon="13.5544992"><ele>1212.0</ele><time>2026-05-03T08:22:09.375Z</time></trkpt><trkpt lat="42.3588477" lon="13.5546419"><ele>1212.0</ele><time>2026-05-03T08:22:10.384Z</time></trkpt><trkpt lat="42.3587927" lon="13.5547752"><ele>1212.0</ele><time>2026-05-03T08:22:11.376Z</time></trkpt><trkpt lat="42.3587418" lon="13.5549042"><ele>1213.25</ele><time>2026-05-03T08:22:12.38Z</time></trkpt><trkpt lat="42.3586967" lon="13.5550445"><ele>1214.5</ele><time>2026-05-03T08:22:13.376Z</time></trkpt><trkpt lat="42.3586549" lon="13.5551872"><ele>1215.75</ele><time>2026-05-03T08:22:14.376Z</time></trkpt><trkpt lat="42.3586079" lon="13.5553379"><ele>1217.0</ele><time>2026-05-03T08:22:15.379Z</time></trkpt><trkpt lat="42.3585611" lon="13.5554859"><ele>1217.0</ele><time>2026-05-03T08:22:16.375Z</time></trkpt><trkpt lat="42.3585222" lon="13.5556259"><ele>1217.0</ele><time>2026-05-03T08:22:17.375Z</time></trkpt><trkpt lat="42.3584843" lon="13.5557548"><ele>1217.0</ele><time>2026-05-03T08:22:18.376Z</time></trkpt><trkpt lat="42.3584465" lon="13.5558804"><ele>1217.0</ele><time>2026-05-03T08:22:19.374Z</time></trkpt><trkpt lat="42.3584191" lon="13.5560116"><ele>1217.0</ele><time>2026-05-03T08:22:20.399Z</time></trkpt><trkpt lat="42.3584109" lon="13.5561542"><ele>1215.8</ele><time>2026-05-03T08:22:21.463Z</time></trkpt><trkpt lat="42.3584168" lon="13.5563073"><ele>1214.6</ele><time>2026-05-03T08:22:22.455Z</time></trkpt><trkpt lat="42.35843" lon="13.5564526"><ele>1213.3999999999999</ele><time>2026-05-03T08:22:23.461Z</time></trkpt><trkpt lat="42.3584468" lon="13.5565845"><ele>1212.2</ele><time>2026-05-03T08:22:24.445Z</time></trkpt><trkpt lat="42.3584611" lon="13.556703"><ele>1211.0</ele><time>2026-05-03T08:22:25.442Z</time></trkpt><trkpt lat="42.3584765" lon="13.5568219"><ele>1211.0</ele><time>2026-05-03T08:22:26.442Z</time></trkpt><trkpt lat="42.358501" lon="13.5569532"><ele>1211.0</ele><time>2026-05-03T08:22:27.436Z</time></trkpt><trkpt lat="42.3585375" lon="13.5570742"><ele>1211.0</ele><time>2026-05-03T08:22:28.471Z</time></trkpt><trkpt lat="42.3585927" lon="13.5571814"><ele>1211.0</ele><time>2026-05-03T08:22:29.463Z</time></trkpt><trkpt lat="42.358716" lon="13.5574192"><ele>1211.0</ele><time>2026-05-03T08:22:31.367Z</time></trkpt><trkpt lat="42.3587666" lon="13.5575421"><ele>1211.0</ele><time>2026-05-03T08:22:32.355Z</time></trkpt><trkpt lat="42.3588058" lon="13.5576676"><ele>1211.0</ele><time>2026-05-03T08:22:33.355Z</time></trkpt><trkpt lat="42.3588275" lon="13.5578046"><ele>1211.0</ele><time>2026-05-03T08:22:34.367Z</time></trkpt><trkpt lat="42.358836" lon="13.5579392"><ele>1211.0</ele><time>2026-05-03T08:22:35.369Z</time></trkpt><trkpt lat="42.3588289" lon="13.5580778"><ele>1210.75</ele><time>2026-05-03T08:22:36.37Z</time></trkpt><trkpt lat="42.3588227" lon="13.5582108"><ele>1210.5</ele><time>2026-05-03T08:22:37.374Z</time></trkpt><trkpt lat="42.3588339" lon="13.5583583"><ele>1210.25</ele><time>2026-05-03T08:22:38.365Z</time></trkpt><trkpt lat="42.3588681" lon="13.5585119"><ele>1210.0</ele><time>2026-05-03T08:22:39.365Z</time></trkpt><trkpt lat="42.3589041" lon="13.5586825"><ele>1208.4</ele><time>2026-05-03T08:22:40.376Z</time></trkpt><trkpt lat="42.3589394" lon="13.5588527"><ele>1206.8</ele><time>2026-05-03T08:22:41.372Z</time></trkpt><trkpt lat="42.3589707" lon="13.5589954"><ele>1205.2</ele><time>2026-05-03T08:22:42.373Z</time></trkpt><trkpt lat="42.3589945" lon="13.5591363"><ele>1203.6</ele><time>2026-05-03T08:22:43.374Z</time></trkpt><trkpt lat="42.3590188" lon="13.5592628"><ele>1202.0</ele><time>2026-05-03T08:22:44.374Z</time></trkpt><trkpt lat="42.3590346" lon="13.55938"><ele>1202.0</ele><time>2026-05-03T08:22:45.376Z</time></trkpt><trkpt lat="42.3590364" lon="13.5595114"><ele>1202.0</ele><time>2026-05-03T08:22:46.366Z</time></trkpt><trkpt lat="42.3590204" lon="13.5596596"><ele>1202.0</ele><time>2026-05-03T08:22:47.372Z</time></trkpt><trkpt lat="42.3589925" lon="13.5598095"><ele>1202.0</ele><time>2026-05-03T08:22:48.376Z</time></trkpt><trkpt lat="42.3589663" lon="13.5599675"><ele>1202.0</ele><time>2026-05-03T08:22:49.373Z</time></trkpt><trkpt lat="42.3589475" lon="13.5601314"><ele>1202.0</ele><time>2026-05-03T08:22:50.373Z</time></trkpt><trkpt lat="42.3589352" lon="13.5603053"><ele>1202.0</ele><time>2026-05-03T08:22:51.375Z</time></trkpt><trkpt lat="42.3589212" lon="13.5604879"><ele>1202.0</ele><time>2026-05-03T08:22:52.373Z</time></trkpt><trkpt lat="42.3589136" lon="13.5606716"><ele>1202.0</ele><time>2026-05-03T08:22:53.372Z</time></trkpt><trkpt lat="42.3589099" lon="13.5608433"><ele>1201.75</ele><time>2026-05-03T08:22:54.372Z</time></trkpt><trkpt lat="42.3589126" lon="13.5609979"><ele>1201.5</ele><time>2026-05-03T08:22:55.374Z</time></trkpt><trkpt lat="42.3589136" lon="13.5611668"><ele>1201.25</ele><time>2026-05-03T08:22:56.374Z</time></trkpt><trkpt lat="42.3589074" lon="13.56135"><ele>1201.0</ele><time>2026-05-03T08:22:57.375Z</time></trkpt><trkpt lat="42.3589066" lon="13.5615315"><ele>1200.3999999999999</ele><time>2026-05-03T08:22:58.373Z</time></trkpt><trkpt lat="42.3589017" lon="13.5616971"><ele>1199.8</ele><time>2026-05-03T08:22:59.389Z</time></trkpt><trkpt lat="42.3588935" lon="13.5618431"><ele>1199.1999999999998</ele><time>2026-05-03T08:23:00.374Z</time></trkpt><trkpt lat="42.3588901" lon="13.5619759"><ele>1198.6</ele><time>2026-05-03T08:23:01.385Z</time></trkpt><trkpt lat="42.358888" lon="13.5621104"><ele>1198.0</ele><time>2026-05-03T08:23:02.373Z</time></trkpt><trkpt lat="42.3588807" lon="13.5622542"><ele>1198.0</ele><time>2026-05-03T08:23:03.374Z</time></trkpt><trkpt lat="42.3588779" lon="13.5624133"><ele>1198.0</ele><time>2026-05-03T08:23:04.376Z</time></trkpt><trkpt lat="42.3588797" lon="13.5625677"><ele>1198.0</ele><time>2026-05-03T08:23:05.373Z</time></trkpt><trkpt lat="42.3588892" lon="13.5627276"><ele>1198.0</ele><time>2026-05-03T08:23:06.373Z</time></trkpt><trkpt lat="42.3588965" lon="13.5628861"><ele>1196.0</ele><time>2026-05-03T08:23:07.372Z</time></trkpt><trkpt lat="42.3589128" lon="13.5630447"><ele>1194.0</ele><time>2026-05-03T08:23:08.374Z</time></trkpt><trkpt lat="42.3589403" lon="13.563203"><ele>1192.0</ele><time>2026-05-03T08:23:09.374Z</time></trkpt><trkpt lat="42.3589701" lon="13.5633637"><ele>1190.0</ele><time>2026-05-03T08:23:10.372Z</time></trkpt><trkpt lat="42.3589946" lon="13.5635105"><ele>1190.0</ele><time>2026-05-03T08:23:11.371Z</time></trkpt><trkpt lat="42.3590066" lon="13.5636495"><ele>1190.0</ele><time>2026-05-03T08:23:12.371Z</time></trkpt><trkpt lat="42.3590091" lon="13.5637713"><ele>1190.0</ele><time>2026-05-03T08:23:13.365Z</time></trkpt><trkpt lat="42.3590014" lon="13.5638882"><ele>1190.0</ele><time>2026-05-03T08:23:14.374Z</time></trkpt><trkpt lat="42.3589937" lon="13.5640207"><ele>1190.0</ele><time>2026-05-03T08:23:15.368Z</time></trkpt><trkpt lat="42.3589922" lon="13.5641715"><ele>1190.6</ele><time>2026-05-03T08:23:16.371Z</time></trkpt><trkpt lat="42.3589995" lon="13.5643191"><ele>1191.2</ele><time>2026-05-03T08:23:17.373Z</time></trkpt><trkpt lat="42.3590115" lon="13.5644534"><ele>1191.8</ele><time>2026-05-03T08:23:18.372Z</time></trkpt><trkpt lat="42.3590124" lon="13.5645742"><ele>1192.4</ele><time>2026-05-03T08:23:19.366Z</time></trkpt><trkpt lat="42.3589987" lon="13.5646923"><ele>1193.0</ele><time>2026-05-03T08:23:20.368Z</time></trkpt><trkpt lat="42.3589737" lon="13.5648119"><ele>1193.0</ele><time>2026-05-03T08:23:21.366Z</time></trkpt><trkpt lat="42.3589351" lon="13.5649307"><ele>1193.0</ele><time>2026-05-03T08:23:22.369Z</time></trkpt><trkpt lat="42.3588933" lon="13.5650607"><ele>1193.0</ele><time>2026-05-03T08:23:23.371Z</time></trkpt><trkpt lat="42.3588634" lon="13.5652051"><ele>1193.0</ele><time>2026-05-03T08:23:24.37Z</time></trkpt><trkpt lat="42.3588446" lon="13.5653427"><ele>1193.0</ele><time>2026-05-03T08:23:25.37Z</time></trkpt><trkpt lat="42.3588291" lon="13.5654677"><ele>1192.7142857142856</ele><time>2026-05-03T08:23:26.369Z</time></trkpt><trkpt lat="42.3588182" lon="13.5655833"><ele>1192.4285714285713</ele><time>2026-05-03T08:23:27.37Z</time></trkpt><trkpt lat="42.3588131" lon="13.5656929"><ele>1192.142857142857</ele><time>2026-05-03T08:23:28.369Z</time></trkpt><trkpt lat="42.3588064" lon="13.5657869"><ele>1191.8571428571427</ele><time>2026-05-03T08:23:29.37Z</time></trkpt><trkpt lat="42.3587995" lon="13.5658763"><ele>1191.5714285714284</ele><time>2026-05-03T08:23:30.399Z</time></trkpt><trkpt lat="42.3587997" lon="13.5659631"><ele>1191.2857142857142</ele><time>2026-05-03T08:23:31.379Z</time></trkpt><trkpt lat="42.358802" lon="13.5660497"><ele>1191.0</ele><time>2026-05-03T08:23:32.371Z</time></trkpt><trkpt lat="42.3588104" lon="13.5662212"><ele>1191.0</ele><time>2026-05-03T08:23:34.366Z</time></trkpt><trkpt lat="42.3588132" lon="13.5663152"><ele>1191.0</ele><time>2026-05-03T08:23:35.367Z</time></trkpt><trkpt lat="42.358818" lon="13.5664126"><ele>1191.0</ele><time>2026-05-03T08:23:36.364Z</time></trkpt><trkpt lat="42.358821" lon="13.5665147"><ele>1191.0</ele><time>2026-05-03T08:23:37.361Z</time></trkpt><trkpt lat="42.3588249" lon="13.5666352"><ele>1191.0</ele><time>2026-05-03T08:23:38.368Z</time></trkpt><trkpt lat="42.3588266" lon="13.5667647"><ele>1191.0</ele><time>2026-05-03T08:23:39.365Z</time></trkpt><trkpt lat="42.3588257" lon="13.5669094"><ele>1191.3999999999999</ele><time>2026-05-03T08:23:40.364Z</time></trkpt><trkpt lat="42.3588248" lon="13.5670526"><ele>1191.8</ele><time>2026-05-03T08:23:41.368Z</time></trkpt><trkpt lat="42.3588238" lon="13.5671993"><ele>1192.1999999999998</ele><time>2026-05-03T08:23:42.367Z</time></trkpt><trkpt lat="42.3588201" lon="13.5673521"><ele>1192.6</ele><time>2026-05-03T08:23:43.369Z</time></trkpt><trkpt lat="42.3588168" lon="13.5675124"><ele>1193.0</ele><time>2026-05-03T08:23:44.368Z</time></trkpt><trkpt lat="42.3588087" lon="13.5676756"><ele>1193.0</ele><time>2026-05-03T08:23:45.371Z</time></trkpt><trkpt lat="42.3588033" lon="13.5678327"><ele>1193.0</ele><time>2026-05-03T08:23:46.369Z</time></trkpt><trkpt lat="42.3587942" lon="13.5679828"><ele>1193.0</ele><time>2026-05-03T08:23:47.369Z</time></trkpt><trkpt lat="42.3587789" lon="13.5681244"><ele>1193.0</ele><time>2026-05-03T08:23:48.372Z</time></trkpt><trkpt lat="42.3587636" lon="13.5682542"><ele>1193.0</ele><time>2026-05-03T08:23:49.373Z</time></trkpt><trkpt lat="42.3587407" lon="13.5683965"><ele>1192.6</ele><time>2026-05-03T08:23:50.371Z</time></trkpt><trkpt lat="42.3587112" lon="13.5685343"><ele>1192.1999999999998</ele><time>2026-05-03T08:23:51.369Z</time></trkpt><trkpt lat="42.3586829" lon="13.5686679"><ele>1191.8</ele><time>2026-05-03T08:23:52.366Z</time></trkpt><trkpt lat="42.3586534" lon="13.5688063"><ele>1191.3999999999999</ele><time>2026-05-03T08:23:53.367Z</time></trkpt><trkpt lat="42.3586276" lon="13.5689445"><ele>1191.0</ele><time>2026-05-03T08:23:54.366Z</time></trkpt><trkpt lat="42.3585898" lon="13.5690843"><ele>1191.75</ele><time>2026-05-03T08:23:55.363Z</time></trkpt><trkpt lat="42.3585365" lon="13.5692065"><ele>1192.5</ele><time>2026-05-03T08:23:56.357Z</time></trkpt><trkpt lat="42.3584659" lon="13.5693256"><ele>1193.25</ele><time>2026-05-03T08:23:57.363Z</time></trkpt><trkpt lat="42.3583863" lon="13.5694454"><ele>1194.0</ele><time>2026-05-03T08:23:58.362Z</time></trkpt><trkpt lat="42.358302" lon="13.5695697"><ele>1194.0</ele><time>2026-05-03T08:23:59.362Z</time></trkpt><trkpt lat="42.3582148" lon="13.5696983"><ele>1194.0</ele><time>2026-05-03T08:24:00.375Z</time></trkpt><trkpt lat="42.3581339" lon="13.5698181"><ele>1194.0</ele><time>2026-05-03T08:24:01.371Z</time></trkpt><trkpt lat="42.358056" lon="13.5699385"><ele>1194.0</ele><time>2026-05-03T08:24:02.359Z</time></trkpt><trkpt lat="42.357983" lon="13.5700601"><ele>1193.75</ele><time>2026-05-03T08:24:03.36Z</time></trkpt><trkpt lat="42.3579143" lon="13.5701895"><ele>1193.5</ele><time>2026-05-03T08:24:04.36Z</time></trkpt><trkpt lat="42.3578398" lon="13.5703181"><ele>1193.25</ele><time>2026-05-03T08:24:05.355Z</time></trkpt><trkpt lat="42.3577616" lon="13.5704456"><ele>1193.0</ele><time>2026-05-03T08:24:06.353Z</time></trkpt><trkpt lat="42.3576902" lon="13.5705939"><ele>1192.5</ele><time>2026-05-03T08:24:07.352Z</time></trkpt><trkpt lat="42.3576284" lon="13.570752"><ele>1192.0</ele><time>2026-05-03T08:24:08.349Z</time></trkpt><trkpt lat="42.3575677" lon="13.5709145"><ele>1191.5</ele><time>2026-05-03T08:24:09.35Z</time></trkpt><trkpt lat="42.3574978" lon="13.5710664"><ele>1191.0</ele><time>2026-05-03T08:24:10.348Z</time></trkpt><trkpt lat="42.3574387" lon="13.5712055"><ele>1191.0</ele><time>2026-05-03T08:24:11.35Z</time></trkpt><trkpt lat="42.3573685" lon="13.5713293"><ele>1191.0</ele><time>2026-05-03T08:24:12.351Z</time></trkpt><trkpt lat="42.3573009" lon="13.5714388"><ele>1191.0</ele><time>2026-05-03T08:24:13.357Z</time></trkpt><trkpt lat="42.3572295" lon="13.5715434"><ele>1191.0</ele><time>2026-05-03T08:24:14.358Z</time></trkpt><trkpt lat="42.3571652" lon="13.5716501"><ele>1191.0</ele><time>2026-05-03T08:24:15.357Z</time></trkpt><trkpt lat="42.3571" lon="13.5717769"><ele>1190.0</ele><time>2026-05-03T08:24:16.357Z</time></trkpt><trkpt lat="42.3570348" lon="13.5719039"><ele>1189.0</ele><time>2026-05-03T08:24:17.356Z</time></trkpt><trkpt lat="42.3569706" lon="13.5720248"><ele>1188.0</ele><time>2026-05-03T08:24:18.353Z</time></trkpt><trkpt lat="42.3569145" lon="13.5721411"><ele>1187.0</ele><time>2026-05-03T08:24:19.358Z</time></trkpt><trkpt lat="42.3568481" lon="13.5722343"><ele>1186.0</ele><time>2026-05-03T08:24:20.358Z</time></trkpt><trkpt lat="42.356776" lon="13.5723248"><ele>1186.0</ele><time>2026-05-03T08:24:21.361Z</time></trkpt><trkpt lat="42.3567084" lon="13.5723964"><ele>1186.0</ele><time>2026-05-03T08:24:22.375Z</time></trkpt><trkpt lat="42.3566402" lon="13.5724564"><ele>1186.0</ele><time>2026-05-03T08:24:23.367Z</time></trkpt><trkpt lat="42.356566" lon="13.572496"><ele>1186.0</ele><time>2026-05-03T08:24:24.371Z</time></trkpt><trkpt lat="42.3564778" lon="13.5725118"><ele>1186.0</ele><time>2026-05-03T08:24:25.369Z</time></trkpt><trkpt lat="42.3563753" lon="13.5725116"><ele>1186.0</ele><time>2026-05-03T08:24:26.374Z</time></trkpt><trkpt lat="42.3562768" lon="13.5724806"><ele>1185.2</ele><time>2026-05-03T08:24:27.442Z</time></trkpt><trkpt lat="42.3561642" lon="13.5724424"><ele>1184.3999999999999</ele><time>2026-05-03T08:24:28.443Z</time></trkpt><trkpt lat="42.3560591" lon="13.5724231"><ele>1183.6</ele><time>2026-05-03T08:24:29.445Z</time></trkpt><trkpt lat="42.3559635" lon="13.5724121"><ele>1182.8</ele><time>2026-05-03T08:24:30.442Z</time></trkpt><trkpt lat="42.3558793" lon="13.5724485"><ele>1182.0</ele><time>2026-05-03T08:24:31.476Z</time></trkpt><trkpt lat="42.355718" lon="13.5724686"><ele>1182.0</ele><time>2026-05-03T08:24:33.359Z</time></trkpt><trkpt lat="42.355636" lon="13.5725009"><ele>1182.0</ele><time>2026-05-03T08:24:34.359Z</time></trkpt><trkpt lat="42.355558" lon="13.572538"><ele>1182.0</ele><time>2026-05-03T08:24:35.357Z</time></trkpt><trkpt lat="42.3554819" lon="13.5725834"><ele>1182.0</ele><time>2026-05-03T08:24:36.358Z</time></trkpt><trkpt lat="42.3554143" lon="13.5726255"><ele>1182.0</ele><time>2026-05-03T08:24:37.361Z</time></trkpt><trkpt lat="42.3553472" lon="13.5726753"><ele>1182.0</ele><time>2026-05-03T08:24:38.358Z</time></trkpt><trkpt lat="42.3552801" lon="13.5727195"><ele>1181.0</ele><time>2026-05-03T08:24:39.356Z</time></trkpt><trkpt lat="42.3552161" lon="13.5727564"><ele>1180.0</ele><time>2026-05-03T08:24:40.357Z</time></trkpt><trkpt lat="42.3551431" lon="13.5727993"><ele>1179.0</ele><time>2026-05-03T08:24:41.358Z</time></trkpt><trkpt lat="42.3550596" lon="13.572843"><ele>1178.0</ele><time>2026-05-03T08:24:42.361Z</time></trkpt><trkpt lat="42.3549734" lon="13.5728971"><ele>1177.0</ele><time>2026-05-03T08:24:43.357Z</time></trkpt><trkpt lat="42.354894" lon="13.5729424"><ele>1176.0</ele><time>2026-05-03T08:24:44.359Z</time></trkpt><trkpt lat="42.354813" lon="13.5729785"><ele>1176.0</ele><time>2026-05-03T08:24:45.36Z</time></trkpt><trkpt lat="42.3547344" lon="13.5730172"><ele>1176.0</ele><time>2026-05-03T08:24:46.356Z</time></trkpt><trkpt lat="42.3546593" lon="13.5730477"><ele>1176.0</ele><time>2026-05-03T08:24:47.362Z</time></trkpt><trkpt lat="42.3545796" lon="13.5730833"><ele>1176.0</ele><time>2026-05-03T08:24:48.36Z</time></trkpt><trkpt lat="42.3544886" lon="13.5731272"><ele>1176.0</ele><time>2026-05-03T08:24:49.357Z</time></trkpt><trkpt lat="42.354407" lon="13.5731806"><ele>1176.0</ele><time>2026-05-03T08:24:50.365Z</time></trkpt><trkpt lat="42.3543284" lon="13.5732398"><ele>1175.857142857143</ele><time>2026-05-03T08:24:51.367Z</time></trkpt><trkpt lat="42.354265" lon="13.5732792"><ele>1175.7142857142858</ele><time>2026-05-03T08:24:52.366Z</time></trkpt><trkpt lat="42.354202" lon="13.5733187"><ele>1175.5714285714284</ele><time>2026-05-03T08:24:53.368Z</time></trkpt><trkpt lat="42.3541387" lon="13.5733623"><ele>1175.4285714285716</ele><time>2026-05-03T08:24:54.367Z</time></trkpt><trkpt lat="42.3540763" lon="13.5734069"><ele>1175.2857142857142</ele><time>2026-05-03T08:24:55.366Z</time></trkpt><trkpt lat="42.3540155" lon="13.573446"><ele>1175.142857142857</ele><time>2026-05-03T08:24:56.368Z</time></trkpt><trkpt lat="42.3539634" lon="13.5734962"><ele>1175.0</ele><time>2026-05-03T08:24:57.366Z</time></trkpt><trkpt lat="42.3539046" lon="13.5735458"><ele>1175.7142857142858</ele><time>2026-05-03T08:24:58.363Z</time></trkpt><trkpt lat="42.3538444" lon="13.5735926"><ele>1176.4285714285716</ele><time>2026-05-03T08:24:59.365Z</time></trkpt><trkpt lat="42.3537869" lon="13.5736336"><ele>1177.1428571428573</ele><time>2026-05-03T08:25:00.366Z</time></trkpt><trkpt lat="42.3537269" lon="13.5736756"><ele>1177.857142857143</ele><time>2026-05-03T08:25:01.375Z</time></trkpt><trkpt lat="42.3536694" lon="13.573725"><ele>1178.5714285714287</ele><time>2026-05-03T08:25:02.374Z</time></trkpt><trkpt lat="42.3536022" lon="13.5737662"><ele>1179.2857142857144</ele><time>2026-05-03T08:25:03.363Z</time></trkpt><trkpt lat="42.3535353" lon="13.5737972"><ele>1180.0</ele><time>2026-05-03T08:25:04.364Z</time></trkpt><trkpt lat="42.3534693" lon="13.5738275"><ele>1176.8</ele><time>2026-05-03T08:25:05.363Z</time></trkpt><trkpt lat="42.3533954" lon="13.5738644"><ele>1173.6</ele><time>2026-05-03T08:25:06.363Z</time></trkpt><trkpt lat="42.3533159" lon="13.5739044"><ele>1170.4</ele><time>2026-05-03T08:25:07.363Z</time></trkpt><trkpt lat="42.3532288" lon="13.5739502"><ele>1167.2</ele><time>2026-05-03T08:25:08.368Z</time></trkpt><trkpt lat="42.35314" lon="13.5740114"><ele>1164.0</ele><time>2026-05-03T08:25:09.366Z</time></trkpt><trkpt lat="42.3530483" lon="13.574071"><ele>1163.0</ele><time>2026-05-03T08:25:10.366Z</time></trkpt><trkpt lat="42.3529632" lon="13.5741365"><ele>1162.0</ele><time>2026-05-03T08:25:11.367Z</time></trkpt><trkpt lat="42.3528826" lon="13.5741879"><ele>1161.0</ele><time>2026-05-03T08:25:12.367Z</time></trkpt><trkpt lat="42.3528089" lon="13.5742277"><ele>1160.0</ele><time>2026-05-03T08:25:13.364Z</time></trkpt><trkpt lat="42.3527275" lon="13.5742537"><ele>1159.0</ele><time>2026-05-03T08:25:14.37Z</time></trkpt><trkpt lat="42.3526378" lon="13.5742483"><ele>1158.0</ele><time>2026-05-03T08:25:15.369Z</time></trkpt><trkpt lat="42.3525468" lon="13.5742359"><ele>1158.0</ele><time>2026-05-03T08:25:16.367Z</time></trkpt><trkpt lat="42.3524677" lon="13.5742095"><ele>1158.0</ele><time>2026-05-03T08:25:17.365Z</time></trkpt><trkpt lat="42.3523894" lon="13.5741605"><ele>1158.0</ele><time>2026-05-03T08:25:18.366Z</time></trkpt><trkpt lat="42.3523105" lon="13.5741025"><ele>1158.0</ele><time>2026-05-03T08:25:19.365Z</time></trkpt><trkpt lat="42.3522248" lon="13.5740367"><ele>1158.0</ele><time>2026-05-03T08:25:20.36Z</time></trkpt><trkpt lat="42.3521398" lon="13.5739579"><ele>1156.75</ele><time>2026-05-03T08:25:21.366Z</time></trkpt><trkpt lat="42.3520467" lon="13.5738766"><ele>1155.5</ele><time>2026-05-03T08:25:22.366Z</time></trkpt><trkpt lat="42.351944" lon="13.5737952"><ele>1154.25</ele><time>2026-05-03T08:25:23.368Z</time></trkpt><trkpt lat="42.3518287" lon="13.5737197"><ele>1153.0</ele><time>2026-05-03T08:25:24.359Z</time></trkpt><trkpt lat="42.35172" lon="13.5736382"><ele>1153.0</ele><time>2026-05-03T08:25:25.363Z</time></trkpt><trkpt lat="42.3516148" lon="13.5735658"><ele>1153.0</ele><time>2026-05-03T08:25:26.363Z</time></trkpt><trkpt lat="42.3515057" lon="13.573475"><ele>1153.0</ele><time>2026-05-03T08:25:27.364Z</time></trkpt><trkpt lat="42.3513995" lon="13.5733666"><ele>1153.0</ele><time>2026-05-03T08:25:28.363Z</time></trkpt><trkpt lat="42.3513081" lon="13.5732564"><ele>1152.0</ele><time>2026-05-03T08:25:29.367Z</time></trkpt><trkpt lat="42.351216" lon="13.573142"><ele>1151.0</ele><time>2026-05-03T08:25:30.36Z</time></trkpt><trkpt lat="42.3511332" lon="13.5730362"><ele>1150.0</ele><time>2026-05-03T08:25:31.377Z</time></trkpt><trkpt lat="42.3510542" lon="13.5729247"><ele>1149.0</ele><time>2026-05-03T08:25:32.365Z</time></trkpt><trkpt lat="42.3509758" lon="13.5727863"><ele>1149.0</ele><time>2026-05-03T08:25:33.379Z</time></trkpt><trkpt lat="42.350909" lon="13.5726697"><ele>1149.0</ele><time>2026-05-03T08:25:34.363Z</time></trkpt><trkpt lat="42.3508327" lon="13.5725645"><ele>1149.0</ele><time>2026-05-03T08:25:35.363Z</time></trkpt><trkpt lat="42.3507445" lon="13.572476"><ele>1149.0</ele><time>2026-05-03T08:25:36.361Z</time></trkpt><trkpt lat="42.3506467" lon="13.5724006"><ele>1149.0</ele><time>2026-05-03T08:25:37.361Z</time></trkpt><trkpt lat="42.3505365" lon="13.5723392"><ele>1147.75</ele><time>2026-05-03T08:25:38.366Z</time></trkpt><trkpt lat="42.3504232" lon="13.5722746"><ele>1146.5</ele><time>2026-05-03T08:25:39.362Z</time></trkpt><trkpt lat="42.3503166" lon="13.5721881"><ele>1145.25</ele><time>2026-05-03T08:25:40.366Z</time></trkpt><trkpt lat="42.3502081" lon="13.5720916"><ele>1144.0</ele><time>2026-05-03T08:25:41.365Z</time></trkpt><trkpt lat="42.350109" lon="13.5720026"><ele>1144.0</ele><time>2026-05-03T08:25:42.365Z</time></trkpt><trkpt lat="42.3500101" lon="13.5719187"><ele>1144.0</ele><time>2026-05-03T08:25:43.368Z</time></trkpt><trkpt lat="42.349914" lon="13.5718377"><ele>1144.0</ele><time>2026-05-03T08:25:44.368Z</time></trkpt><trkpt lat="42.3498205" lon="13.5717643"><ele>1144.0</ele><time>2026-05-03T08:25:45.368Z</time></trkpt><trkpt lat="42.3497384" lon="13.5716775"><ele>1144.0</ele><time>2026-05-03T08:25:46.368Z</time></trkpt><trkpt lat="42.3496506" lon="13.5715816"><ele>1140.5</ele><time>2026-05-03T08:25:47.364Z</time></trkpt><trkpt lat="42.3495637" lon="13.57147"><ele>1137.0</ele><time>2026-05-03T08:25:48.364Z</time></trkpt><trkpt lat="42.3494678" lon="13.5713751"><ele>1133.5</ele><time>2026-05-03T08:25:49.363Z</time></trkpt><trkpt lat="42.3493623" lon="13.5713121"><ele>1130.0</ele><time>2026-05-03T08:25:50.359Z</time></trkpt><trkpt lat="42.3492565" lon="13.5712861"><ele>1130.0</ele><time>2026-05-03T08:25:51.362Z</time></trkpt><trkpt lat="42.3491409" lon="13.5712803"><ele>1130.0</ele><time>2026-05-03T08:25:52.362Z</time></trkpt><trkpt lat="42.3490213" lon="13.5712669"><ele>1130.0</ele><time>2026-05-03T08:25:53.357Z</time></trkpt><trkpt lat="42.3489048" lon="13.5712555"><ele>1130.0</ele><time>2026-05-03T08:25:54.357Z</time></trkpt><trkpt lat="42.3487866" lon="13.5712313"><ele>1129.75</ele><time>2026-05-03T08:25:55.359Z</time></trkpt><trkpt lat="42.3486681" lon="13.5712018"><ele>1129.5</ele><time>2026-05-03T08:25:56.361Z</time></trkpt><trkpt lat="42.3485619" lon="13.5711376"><ele>1129.25</ele><time>2026-05-03T08:25:57.368Z</time></trkpt><trkpt lat="42.3484592" lon="13.5710574"><ele>1129.0</ele><time>2026-05-03T08:25:58.365Z</time></trkpt><trkpt lat="42.3483487" lon="13.5709686"><ele>1129.0</ele><time>2026-05-03T08:25:59.369Z</time></trkpt><trkpt lat="42.3482526" lon="13.5708906"><ele>1129.0</ele><time>2026-05-03T08:26:00.363Z</time></trkpt><trkpt lat="42.3481714" lon="13.5708007"><ele>1129.0</ele><time>2026-05-03T08:26:01.372Z</time></trkpt><trkpt lat="42.3480993" lon="13.5706967"><ele>1129.0</ele><time>2026-05-03T08:26:02.362Z</time></trkpt><trkpt lat="42.3480399" lon="13.5705717"><ele>1129.0</ele><time>2026-05-03T08:26:03.366Z</time></trkpt><trkpt lat="42.3479947" lon="13.5704291"><ele>1127.0</ele><time>2026-05-03T08:26:04.386Z</time></trkpt><trkpt lat="42.3479432" lon="13.5702792"><ele>1125.0</ele><time>2026-05-03T08:26:05.371Z</time></trkpt><trkpt lat="42.3478799" lon="13.5701485"><ele>1123.0</ele><time>2026-05-03T08:26:06.368Z</time></trkpt><trkpt lat="42.3478082" lon="13.570037"><ele>1121.0</ele><time>2026-05-03T08:26:07.374Z</time></trkpt><trkpt lat="42.347726" lon="13.5699328"><ele>1121.0</ele><time>2026-05-03T08:26:08.378Z</time></trkpt><trkpt lat="42.3476416" lon="13.5698394"><ele>1121.0</ele><time>2026-05-03T08:26:09.38Z</time></trkpt><trkpt lat="42.3475502" lon="13.5697584"><ele>1121.0</ele><time>2026-05-03T08:26:10.374Z</time></trkpt><trkpt lat="42.3474594" lon="13.5697086"><ele>1121.0</ele><time>2026-05-03T08:26:11.366Z</time></trkpt><trkpt lat="42.347365" lon="13.5696984"><ele>1121.0</ele><time>2026-05-03T08:26:12.376Z</time></trkpt><trkpt lat="42.3472572" lon="13.5697119"><ele>1120.5</ele><time>2026-05-03T08:26:13.361Z</time></trkpt><trkpt lat="42.3471427" lon="13.5697484"><ele>1120.0</ele><time>2026-05-03T08:26:14.362Z</time></trkpt><trkpt lat="42.3470225" lon="13.5698098"><ele>1119.5</ele><time>2026-05-03T08:26:15.367Z</time></trkpt><trkpt lat="42.3469038" lon="13.569866"><ele>1119.0</ele><time>2026-05-03T08:26:16.374Z</time></trkpt><trkpt lat="42.3467868" lon="13.5699013"><ele>1119.0</ele><time>2026-05-03T08:26:17.372Z</time></trkpt><trkpt lat="42.3466655" lon="13.5699228"><ele>1119.0</ele><time>2026-05-03T08:26:18.37Z</time></trkpt><trkpt lat="42.3465353" lon="13.5699365"><ele>1119.0</ele><time>2026-05-03T08:26:19.374Z</time></trkpt><trkpt lat="42.3464161" lon="13.5699528"><ele>1119.0</ele><time>2026-05-03T08:26:20.367Z</time></trkpt><trkpt lat="42.3463069" lon="13.5699925"><ele>1118.2</ele><time>2026-05-03T08:26:21.369Z</time></trkpt><trkpt lat="42.3462126" lon="13.5700386"><ele>1117.4</ele><time>2026-05-03T08:26:22.365Z</time></trkpt><trkpt lat="42.3461338" lon="13.5701135"><ele>1116.6</ele><time>2026-05-03T08:26:23.366Z</time></trkpt><trkpt lat="42.3460548" lon="13.570208"><ele>1115.8</ele><time>2026-05-03T08:26:24.365Z</time></trkpt><trkpt lat="42.3459742" lon="13.5703118"><ele>1115.0</ele><time>2026-05-03T08:26:25.372Z</time></trkpt><trkpt lat="42.3459045" lon="13.5704109"><ele>1115.0</ele><time>2026-05-03T08:26:26.369Z</time></trkpt><trkpt lat="42.3458396" lon="13.5705143"><ele>1115.0</ele><time>2026-05-03T08:26:27.368Z</time></trkpt><trkpt lat="42.3457889" lon="13.5706341"><ele>1115.0</ele><time>2026-05-03T08:26:28.364Z</time></trkpt><trkpt lat="42.3457531" lon="13.5707685"><ele>1115.0</ele><time>2026-05-03T08:26:29.364Z</time></trkpt><trkpt lat="42.3457242" lon="13.5709133"><ele>1115.0</ele><time>2026-05-03T08:26:30.368Z</time></trkpt><trkpt lat="42.3456949" lon="13.5710453"><ele>1115.0</ele><time>2026-05-03T08:26:31.373Z</time></trkpt><trkpt lat="42.3456452" lon="13.571156"><ele>1115.0</ele><time>2026-05-03T08:26:32.37Z</time></trkpt><trkpt lat="42.3455621" lon="13.5712477"><ele>1115.0</ele><time>2026-05-03T08:26:33.36Z</time></trkpt><trkpt lat="42.3454618" lon="13.5713441"><ele>1115.0</ele><time>2026-05-03T08:26:34.365Z</time></trkpt><trkpt lat="42.3453594" lon="13.5714354"><ele>1115.0</ele><time>2026-05-03T08:26:35.383Z</time></trkpt><trkpt lat="42.3452576" lon="13.5715373"><ele>1113.6</ele><time>2026-05-03T08:26:36.367Z</time></trkpt><trkpt lat="42.3451814" lon="13.5716456"><ele>1112.2</ele><time>2026-05-03T08:26:37.357Z</time></trkpt><trkpt lat="42.3451267" lon="13.5717531"><ele>1110.8</ele><time>2026-05-03T08:26:38.36Z</time></trkpt><trkpt lat="42.3450847" lon="13.5718706"><ele>1109.4</ele><time>2026-05-03T08:26:39.362Z</time></trkpt><trkpt lat="42.3450531" lon="13.5719723"><ele>1108.0</ele><time>2026-05-03T08:26:40.364Z</time></trkpt><trkpt lat="42.3450287" lon="13.5720752"><ele>1108.0</ele><time>2026-05-03T08:26:41.364Z</time></trkpt><trkpt lat="42.3450026" lon="13.5721819"><ele>1108.0</ele><time>2026-05-03T08:26:42.368Z</time></trkpt><trkpt lat="42.3449653" lon="13.5722813"><ele>1108.0</ele><time>2026-05-03T08:26:43.367Z</time></trkpt><trkpt lat="42.3449254" lon="13.5723816"><ele>1108.0</ele><time>2026-05-03T08:26:44.369Z</time></trkpt><trkpt lat="42.3448736" lon="13.5724629"><ele>1108.0</ele><time>2026-05-03T08:26:45.366Z</time></trkpt><trkpt lat="42.3448137" lon="13.5725402"><ele>1108.0</ele><time>2026-05-03T08:26:46.374Z</time></trkpt><trkpt lat="42.3447625" lon="13.5726144"><ele>1107.6666666666665</ele><time>2026-05-03T08:26:47.374Z</time></trkpt><trkpt lat="42.3447067" lon="13.5726871"><ele>1107.3333333333333</ele><time>2026-05-03T08:26:48.372Z</time></trkpt><trkpt lat="42.3446534" lon="13.572749"><ele>1107.0</ele><time>2026-05-03T08:26:49.372Z</time></trkpt><trkpt lat="42.3446017" lon="13.5728159"><ele>1106.6666666666667</ele><time>2026-05-03T08:26:50.373Z</time></trkpt><trkpt lat="42.3445387" lon="13.5728821"><ele>1106.3333333333335</ele><time>2026-05-03T08:26:51.374Z</time></trkpt><trkpt lat="42.3444757" lon="13.572957"><ele>1106.0</ele><time>2026-05-03T08:26:52.374Z</time></trkpt><trkpt lat="42.3444138" lon="13.5730402"><ele>1106.0</ele><time>2026-05-03T08:26:53.386Z</time></trkpt><trkpt lat="42.344345" lon="13.573125"><ele>1106.0</ele><time>2026-05-03T08:26:54.38Z</time></trkpt><trkpt lat="42.3442697" lon="13.5732085"><ele>1106.0</ele><time>2026-05-03T08:26:55.383Z</time></trkpt><trkpt lat="42.344188" lon="13.5732974"><ele>1106.0</ele><time>2026-05-03T08:26:56.385Z</time></trkpt><trkpt lat="42.3441038" lon="13.5733874"><ele>1106.0</ele><time>2026-05-03T08:26:57.389Z</time></trkpt><trkpt lat="42.3440157" lon="13.5734892"><ele>1106.0</ele><time>2026-05-03T08:26:58.384Z</time></trkpt><trkpt lat="42.343923" lon="13.5735942"><ele>1106.0</ele><time>2026-05-03T08:26:59.386Z</time></trkpt><trkpt lat="42.3438325" lon="13.5737135"><ele>1106.0</ele><time>2026-05-03T08:27:00.387Z</time></trkpt><trkpt lat="42.3437323" lon="13.5738365"><ele>1106.0</ele><time>2026-05-03T08:27:01.398Z</time></trkpt><trkpt lat="42.3436333" lon="13.5739706"><ele>1106.25</ele><time>2026-05-03T08:27:02.384Z</time></trkpt><trkpt lat="42.3435367" lon="13.574128"><ele>1106.5</ele><time>2026-05-03T08:27:03.405Z</time></trkpt><trkpt lat="42.3434503" lon="13.5742737"><ele>1106.75</ele><time>2026-05-03T08:27:04.463Z</time></trkpt><trkpt lat="42.3433666" lon="13.574412"><ele>1107.0</ele><time>2026-05-03T08:27:05.458Z</time></trkpt><trkpt lat="42.3432882" lon="13.5745474"><ele>1107.0</ele><time>2026-05-03T08:27:06.478Z</time></trkpt><trkpt lat="42.3432071" lon="13.5746582"><ele>1107.0</ele><time>2026-05-03T08:27:07.466Z</time></trkpt><trkpt lat="42.3431187" lon="13.5747664"><ele>1107.0</ele><time>2026-05-03T08:27:08.465Z</time></trkpt><trkpt lat="42.3430215" lon="13.5748739"><ele>1107.0</ele><time>2026-05-03T08:27:09.464Z</time></trkpt><trkpt lat="42.3429183" lon="13.5749752"><ele>1106.0</ele><time>2026-05-03T08:27:10.462Z</time></trkpt><trkpt lat="42.342818" lon="13.5750758"><ele>1105.0</ele><time>2026-05-03T08:27:11.464Z</time></trkpt><trkpt lat="42.3427303" lon="13.5751784"><ele>1104.0</ele><time>2026-05-03T08:27:12.465Z</time></trkpt><trkpt lat="42.3426389" lon="13.5752867"><ele>1103.0</ele><time>2026-05-03T08:27:13.465Z</time></trkpt><trkpt lat="42.3425532" lon="13.5754063"><ele>1103.0</ele><time>2026-05-03T08:27:14.464Z</time></trkpt><trkpt lat="42.3424677" lon="13.5755283"><ele>1103.0</ele><time>2026-05-03T08:27:15.462Z</time></trkpt><trkpt lat="42.3423754" lon="13.5756619"><ele>1103.0</ele><time>2026-05-03T08:27:16.466Z</time></trkpt><trkpt lat="42.3422828" lon="13.5758022"><ele>1103.0</ele><time>2026-05-03T08:27:17.466Z</time></trkpt><trkpt lat="42.3421874" lon="13.575942"><ele>1101.75</ele><time>2026-05-03T08:27:18.488Z</time></trkpt><trkpt lat="42.3420926" lon="13.57608"><ele>1100.5</ele><time>2026-05-03T08:27:19.49Z</time></trkpt><trkpt lat="42.3419975" lon="13.5762217"><ele>1099.25</ele><time>2026-05-03T08:27:20.468Z</time></trkpt><trkpt lat="42.3419023" lon="13.5763608"><ele>1098.0</ele><time>2026-05-03T08:27:21.468Z</time></trkpt><trkpt lat="42.3418061" lon="13.5765014"><ele>1098.0</ele><time>2026-05-03T08:27:22.462Z</time></trkpt><trkpt lat="42.3417111" lon="13.5766408"><ele>1098.0</ele><time>2026-05-03T08:27:23.468Z</time></trkpt><trkpt lat="42.3416138" lon="13.5767841"><ele>1098.0</ele><time>2026-05-03T08:27:24.466Z</time></trkpt><trkpt lat="42.341514" lon="13.5769276"><ele>1098.0</ele><time>2026-05-03T08:27:25.466Z</time></trkpt><trkpt lat="42.3414101" lon="13.5770776"><ele>1097.3333333333333</ele><time>2026-05-03T08:27:26.462Z</time></trkpt><trkpt lat="42.3413078" lon="13.5772258"><ele>1096.6666666666665</ele><time>2026-05-03T08:27:27.468Z</time></trkpt><trkpt lat="42.3412059" lon="13.5773811"><ele>1096.0</ele><time>2026-05-03T08:27:28.465Z</time></trkpt><trkpt lat="42.3410989" lon="13.5775354"><ele>1096.0</ele><time>2026-05-03T08:27:29.467Z</time></trkpt><trkpt lat="42.3409854" lon="13.5776948"><ele>1096.0</ele><time>2026-05-03T08:27:30.471Z</time></trkpt><trkpt lat="42.3408708" lon="13.5778576"><ele>1096.0</ele><time>2026-05-03T08:27:31.478Z</time></trkpt><trkpt lat="42.3407567" lon="13.5780183"><ele>1097.3333333333333</ele><time>2026-05-03T08:27:32.468Z</time></trkpt><trkpt lat="42.3406416" lon="13.5781787"><ele>1098.6666666666667</ele><time>2026-05-03T08:27:33.466Z</time></trkpt><trkpt lat="42.3405232" lon="13.5783382"><ele>1100.0</ele><time>2026-05-03T08:27:34.463Z</time></trkpt><trkpt lat="42.3404124" lon="13.578485"><ele>1097.3333333333335</ele><time>2026-05-03T08:27:35.466Z</time></trkpt><trkpt lat="42.3403014" lon="13.5786271"><ele>1094.6666666666667</ele><time>2026-05-03T08:27:36.463Z</time></trkpt><trkpt lat="42.3401916" lon="13.5787672"><ele>1092.0</ele><time>2026-05-03T08:27:37.481Z</time></trkpt><trkpt lat="42.3400799" lon="13.5789046"><ele>1092.0</ele><time>2026-05-03T08:27:38.464Z</time></trkpt><trkpt lat="42.3399721" lon="13.5790438"><ele>1092.0</ele><time>2026-05-03T08:27:39.466Z</time></trkpt><trkpt lat="42.3398654" lon="13.5791892"><ele>1092.0</ele><time>2026-05-03T08:27:40.466Z</time></trkpt><trkpt lat="42.3397631" lon="13.579337"><ele>1090.3333333333333</ele><time>2026-05-03T08:27:41.467Z</time></trkpt><trkpt lat="42.3396607" lon="13.5794858"><ele>1088.6666666666665</ele><time>2026-05-03T08:27:42.465Z</time></trkpt><trkpt lat="42.3395649" lon="13.5796447"><ele>1087.0</ele><time>2026-05-03T08:27:43.465Z</time></trkpt><trkpt lat="42.3394692" lon="13.5798077"><ele>1087.0</ele><time>2026-05-03T08:27:44.468Z</time></trkpt><trkpt lat="42.3393755" lon="13.5799692"><ele>1087.0</ele><time>2026-05-03T08:27:45.465Z</time></trkpt><trkpt lat="42.3392796" lon="13.5801081"><ele>1087.0</ele><time>2026-05-03T08:27:46.467Z</time></trkpt><trkpt lat="42.3391861" lon="13.5802325"><ele>1087.0</ele><time>2026-05-03T08:27:47.46Z</time></trkpt><trkpt lat="42.3390939" lon="13.5803243"><ele>1087.4</ele><time>2026-05-03T08:27:48.457Z</time></trkpt><trkpt lat="42.3390051" lon="13.5804133"><ele>1087.8000000000002</ele><time>2026-05-03T08:27:49.465Z</time></trkpt><trkpt lat="42.3389207" lon="13.5804964"><ele>1088.2</ele><time>2026-05-03T08:27:50.473Z</time></trkpt><trkpt lat="42.3388514" lon="13.5805655"><ele>1088.6000000000001</ele><time>2026-05-03T08:27:51.463Z</time></trkpt><trkpt lat="42.3387896" lon="13.5806208"><ele>1089.0</ele><time>2026-05-03T08:27:52.468Z</time></trkpt><trkpt lat="42.3386891" lon="13.5807087"><ele>1089.0</ele><time>2026-05-03T08:27:54.471Z</time></trkpt><trkpt lat="42.3385874" lon="13.5807534"><ele>1089.0</ele><time>2026-05-03T08:27:56.466Z</time></trkpt><trkpt lat="42.3385126" lon="13.5807464"><ele>1089.0</ele><time>2026-05-03T08:27:58.45Z</time></trkpt><trkpt lat="42.3384507" lon="13.5807116"><ele>1089.0</ele><time>2026-05-03T08:28:00.449Z</time></trkpt><trkpt lat="42.3383833" lon="13.5806577"><ele>1089.0</ele><time>2026-05-03T08:28:02.469Z</time></trkpt><trkpt lat="42.3383102" lon="13.5806256"><ele>1089.0</ele><time>2026-05-03T08:28:33.474Z</time></trkpt><trkpt lat="42.3382308" lon="13.5805929"><ele>1089.0</ele><time>2026-05-03T08:28:37.472Z</time></trkpt><trkpt lat="42.3383009" lon="13.5806198"><ele>1089.0</ele><time>2026-05-03T08:28:39.475Z</time></trkpt></trkseg><trkseg><trkpt lat="42.3328135" lon="13.5799617"><ele>1039.0</ele><time>2026-05-03T08:32:56.733Z</time></trkpt><trkpt lat="42.3327246" lon="13.5800158"><ele>1039.0</ele><time>2026-05-03T08:32:57.737Z</time></trkpt><trkpt lat="42.3326366" lon="13.5800686"><ele>1039.0</ele><time>2026-05-03T08:32:58.737Z</time></trkpt><trkpt lat="42.3325514" lon="13.5801173"><ele>1039.0</ele><time>2026-05-03T08:32:59.741Z</time></trkpt><trkpt lat="42.3324618" lon="13.5801651"><ele>1039.0</ele><time>2026-05-03T08:33:00.742Z</time></trkpt><trkpt lat="42.3323712" lon="13.5802144"><ele>1039.0</ele><time>2026-05-03T08:33:01.755Z</time></trkpt><trkpt lat="42.3322809" lon="13.580262"><ele>1039.0</ele><time>2026-05-03T08:33:02.751Z</time></trkpt><trkpt lat="42.332184" lon="13.5803118"><ele>1039.0</ele><time>2026-05-03T08:33:03.759Z</time></trkpt><trkpt lat="42.3321012" lon="13.5803711"><ele>1039.0</ele><time>2026-05-03T08:33:04.742Z</time></trkpt><trkpt lat="42.3320301" lon="13.5804509"><ele>1039.0</ele><time>2026-05-03T08:33:05.743Z</time></trkpt><trkpt lat="42.3319848" lon="13.5805618"><ele>1037.4</ele><time>2026-05-03T08:33:06.759Z</time></trkpt><trkpt lat="42.331958" lon="13.5806904"><ele>1035.8000000000002</ele><time>2026-05-03T08:33:07.752Z</time></trkpt><trkpt lat="42.3319401" lon="13.5808172"><ele>1034.1999999999998</ele><time>2026-05-03T08:33:08.752Z</time></trkpt><trkpt lat="42.3319538" lon="13.5809531"><ele>1032.6</ele><time>2026-05-03T08:33:09.757Z</time></trkpt><trkpt lat="42.3319726" lon="13.5810814"><ele>1031.0</ele><time>2026-05-03T08:33:10.76Z</time></trkpt><trkpt lat="42.3320042" lon="13.581188"><ele>1031.0</ele><time>2026-05-03T08:33:11.764Z</time></trkpt><trkpt lat="42.3320357" lon="13.5813025"><ele>1031.0</ele><time>2026-05-03T08:33:12.765Z</time></trkpt><trkpt lat="42.3320613" lon="13.5814136"><ele>1031.0</ele><time>2026-05-03T08:33:13.756Z</time></trkpt><trkpt lat="42.3320796" lon="13.5815282"><ele>1031.0</ele><time>2026-05-03T08:33:14.756Z</time></trkpt><trkpt lat="42.3320894" lon="13.5816486"><ele>1031.0</ele><time>2026-05-03T08:33:15.758Z</time></trkpt><trkpt lat="42.3320892" lon="13.5817658"><ele>1031.0</ele><time>2026-05-03T08:33:16.755Z</time></trkpt><trkpt lat="42.3320785" lon="13.5818731"><ele>1029.75</ele><time>2026-05-03T08:33:17.655Z</time></trkpt><trkpt lat="42.3320629" lon="13.5820935"><ele>1028.5</ele><time>2026-05-03T08:33:19.447Z</time></trkpt><trkpt lat="42.3320632" lon="13.5822054"><ele>1027.25</ele><time>2026-05-03T08:33:20.379Z</time></trkpt><trkpt lat="42.3320653" lon="13.5823393"><ele>1026.0</ele><time>2026-05-03T08:33:21.376Z</time></trkpt><trkpt lat="42.3320832" lon="13.5824845"><ele>1026.0</ele><time>2026-05-03T08:33:22.374Z</time></trkpt><trkpt lat="42.332111" lon="13.5826252"><ele>1026.0</ele><time>2026-05-03T08:33:23.375Z</time></trkpt><trkpt lat="42.3321473" lon="13.5827744"><ele>1026.0</ele><time>2026-05-03T08:33:24.376Z</time></trkpt><trkpt lat="42.3321812" lon="13.5829101"><ele>1026.0</ele><time>2026-05-03T08:33:25.432Z</time></trkpt><trkpt lat="42.3322106" lon="13.5830435"><ele>1026.0</ele><time>2026-05-03T08:33:26.375Z</time></trkpt><trkpt lat="42.3322728" lon="13.5833204"><ele>1027.0</ele><time>2026-05-03T08:33:28.376Z</time></trkpt><trkpt lat="42.3323089" lon="13.5834537"><ele>1028.0</ele><time>2026-05-03T08:33:29.37Z</time></trkpt><trkpt lat="42.3323662" lon="13.5837158"><ele>1029.0</ele><time>2026-05-03T08:33:31.373Z</time></trkpt><trkpt lat="42.3323995" lon="13.5838428"><ele>1030.0</ele><time>2026-05-03T08:33:32.369Z</time></trkpt><trkpt lat="42.3324227" lon="13.5839646"><ele>1030.0</ele><time>2026-05-03T08:33:33.377Z</time></trkpt><trkpt lat="42.3324414" lon="13.5840924"><ele>1030.0</ele><time>2026-05-03T08:33:34.38Z</time></trkpt><trkpt lat="42.3324678" lon="13.5842245"><ele>1030.0</ele><time>2026-05-03T08:33:35.377Z</time></trkpt><trkpt lat="42.332476" lon="13.5843479"><ele>1030.0</ele><time>2026-05-03T08:33:36.383Z</time></trkpt><trkpt lat="42.3324761" lon="13.5844682"><ele>1030.0</ele><time>2026-05-03T08:33:37.378Z</time></trkpt><trkpt lat="42.3324723" lon="13.5845801"><ele>1029.2</ele><time>2026-05-03T08:33:38.379Z</time></trkpt><trkpt lat="42.3324752" lon="13.5847002"><ele>1028.4</ele><time>2026-05-03T08:33:39.38Z</time></trkpt><trkpt lat="42.3324774" lon="13.5848305"><ele>1027.6</ele><time>2026-05-03T08:33:40.379Z</time></trkpt><trkpt lat="42.3324784" lon="13.58495"><ele>1026.8</ele><time>2026-05-03T08:33:41.386Z</time></trkpt><trkpt lat="42.3324784" lon="13.5850732"><ele>1026.0</ele><time>2026-05-03T08:33:42.385Z</time></trkpt><trkpt lat="42.3324832" lon="13.5851927"><ele>1026.0</ele><time>2026-05-03T08:33:43.384Z</time></trkpt><trkpt lat="42.3324783" lon="13.5853148"><ele>1026.0</ele><time>2026-05-03T08:33:44.381Z</time></trkpt><trkpt lat="42.3324704" lon="13.58544"><ele>1026.0</ele><time>2026-05-03T08:33:45.383Z</time></trkpt><trkpt lat="42.3324577" lon="13.5855648"><ele>1026.0</ele><time>2026-05-03T08:33:46.383Z</time></trkpt><trkpt lat="42.3324336" lon="13.5856799"><ele>1026.0</ele><time>2026-05-03T08:33:47.382Z</time></trkpt><trkpt lat="42.3323962" lon="13.5857835"><ele>1025.2</ele><time>2026-05-03T08:33:48.361Z</time></trkpt><trkpt lat="42.3323437" lon="13.5858915"><ele>1024.3999999999999</ele><time>2026-05-03T08:33:49.375Z</time></trkpt><trkpt lat="42.332294" lon="13.5860128"><ele>1023.6</ele><time>2026-05-03T08:33:50.39Z</time></trkpt><trkpt lat="42.3322324" lon="13.5861451"><ele>1022.8</ele><time>2026-05-03T08:33:51.399Z</time></trkpt><trkpt lat="42.3321665" lon="13.5862774"><ele>1022.0</ele><time>2026-05-03T08:33:52.391Z</time></trkpt><trkpt lat="42.3321033" lon="13.5864104"><ele>1019.5</ele><time>2026-05-03T08:33:53.393Z</time></trkpt><trkpt lat="42.3320405" lon="13.5865493"><ele>1017.0</ele><time>2026-05-03T08:33:54.39Z</time></trkpt><trkpt lat="42.3319761" lon="13.5866853"><ele>1014.5</ele><time>2026-05-03T08:33:55.416Z</time></trkpt><trkpt lat="42.331909" lon="13.5868292"><ele>1012.0</ele><time>2026-05-03T08:33:56.391Z</time></trkpt><trkpt lat="42.3318505" lon="13.5869732"><ele>1012.0</ele><time>2026-05-03T08:33:57.384Z</time></trkpt><trkpt lat="42.3317877" lon="13.5871105"><ele>1012.0</ele><time>2026-05-03T08:33:58.385Z</time></trkpt><trkpt lat="42.3317274" lon="13.5872426"><ele>1012.0</ele><time>2026-05-03T08:33:59.391Z</time></trkpt><trkpt lat="42.3316657" lon="13.5873757"><ele>1012.0</ele><time>2026-05-03T08:34:00.382Z</time></trkpt><trkpt lat="42.3316037" lon="13.5875092"><ele>1012.0</ele><time>2026-05-03T08:34:01.386Z</time></trkpt><trkpt lat="42.3315493" lon="13.5876346"><ele>1012.0</ele><time>2026-05-03T08:34:02.385Z</time></trkpt><trkpt lat="42.3314947" lon="13.5877613"><ele>1012.0</ele><time>2026-05-03T08:34:03.388Z</time></trkpt><trkpt lat="42.3314454" lon="13.5878893"><ele>1012.0</ele><time>2026-05-03T08:34:04.391Z</time></trkpt><trkpt lat="42.3313859" lon="13.5880106"><ele>1012.0</ele><time>2026-05-03T08:34:05.394Z</time></trkpt><trkpt lat="42.3313268" lon="13.5881318"><ele>1009.4000000000001</ele><time>2026-05-03T08:34:06.391Z</time></trkpt><trkpt lat="42.3312743" lon="13.5882581"><ele>1006.8000000000001</ele><time>2026-05-03T08:34:07.394Z</time></trkpt><trkpt lat="42.3312212" lon="13.5883884"><ele>1004.2</ele><time>2026-05-03T08:34:08.386Z</time></trkpt><trkpt lat="42.3311697" lon="13.5885183"><ele>1001.6</ele><time>2026-05-03T08:34:09.403Z</time></trkpt><trkpt lat="42.3311289" lon="13.5886459"><ele>999.0</ele><time>2026-05-03T08:34:10.394Z</time></trkpt><trkpt lat="42.3310969" lon="13.5887797"><ele>999.0</ele><time>2026-05-03T08:34:11.406Z</time></trkpt><trkpt lat="42.3310642" lon="13.5889129"><ele>999.0000000000001</ele><time>2026-05-03T08:34:12.392Z</time></trkpt><trkpt lat="42.3310278" lon="13.589048"><ele>999.0000000000001</ele><time>2026-05-03T08:34:13.391Z</time></trkpt><trkpt lat="42.3309911" lon="13.5891834"><ele>999.0</ele><time>2026-05-03T08:34:14.392Z</time></trkpt><trkpt lat="42.3309538" lon="13.5893129"><ele>999.0</ele><time>2026-05-03T08:34:15.393Z</time></trkpt><trkpt lat="42.3309175" lon="13.589438"><ele>999.2</ele><time>2026-05-03T08:34:16.391Z</time></trkpt><trkpt lat="42.3308769" lon="13.5895731"><ele>999.4000000000001</ele><time>2026-05-03T08:34:17.398Z</time></trkpt><trkpt lat="42.3308142" lon="13.5896909"><ele>999.6</ele><time>2026-05-03T08:34:18.391Z</time></trkpt><trkpt lat="42.3307367" lon="13.5897972"><ele>999.8</ele><time>2026-05-03T08:34:19.384Z</time></trkpt><trkpt lat="42.3306404" lon="13.5898786"><ele>1000.0</ele><time>2026-05-03T08:34:20.387Z</time></trkpt><trkpt lat="42.3305346" lon="13.5899501"><ele>998.0</ele><time>2026-05-03T08:34:21.396Z</time></trkpt><trkpt lat="42.3304257" lon="13.5900196"><ele>996.0</ele><time>2026-05-03T08:34:22.394Z</time></trkpt><trkpt lat="42.3303131" lon="13.5900716"><ele>994.0</ele><time>2026-05-03T08:34:23.398Z</time></trkpt><trkpt lat="42.3302022" lon="13.5901061"><ele>992.0</ele><time>2026-05-03T08:34:24.393Z</time></trkpt><trkpt lat="42.3300918" lon="13.5901348"><ele>992.0</ele><time>2026-05-03T08:34:25.407Z</time></trkpt><trkpt lat="42.3299886" lon="13.5901602"><ele>992.0</ele><time>2026-05-03T08:34:26.407Z</time></trkpt><trkpt lat="42.3298741" lon="13.5901838"><ele>992.0</ele><time>2026-05-03T08:34:27.392Z</time></trkpt><trkpt lat="42.3297675" lon="13.5902082"><ele>992.0</ele><time>2026-05-03T08:34:28.393Z</time></trkpt><trkpt lat="42.3296572" lon="13.5902295"><ele>992.0</ele><time>2026-05-03T08:34:29.393Z</time></trkpt><trkpt lat="42.3295519" lon="13.5902522"><ele>990.75</ele><time>2026-05-03T08:34:30.394Z</time></trkpt><trkpt lat="42.3294433" lon="13.5902872"><ele>989.5</ele><time>2026-05-03T08:34:31.386Z</time></trkpt><trkpt lat="42.3293376" lon="13.5903453"><ele>988.25</ele><time>2026-05-03T08:34:32.39Z</time></trkpt><trkpt lat="42.329237" lon="13.5904434"><ele>987.0</ele><time>2026-05-03T08:34:33.38Z</time></trkpt><trkpt lat="42.3291376" lon="13.5905494"><ele>987.0</ele><time>2026-05-03T08:34:34.393Z</time></trkpt><trkpt lat="42.3290408" lon="13.5906692"><ele>987.0</ele><time>2026-05-03T08:34:35.393Z</time></trkpt><trkpt lat="42.3289446" lon="13.5907675"><ele>987.0</ele><time>2026-05-03T08:34:36.387Z</time></trkpt><trkpt lat="42.32886" lon="13.5908755"><ele>987.0</ele><time>2026-05-03T08:34:37.392Z</time></trkpt><trkpt lat="42.3287666" lon="13.5909869"><ele>986.4000000000001</ele><time>2026-05-03T08:34:38.387Z</time></trkpt><trkpt lat="42.3286756" lon="13.5910855"><ele>985.8000000000001</ele><time>2026-05-03T08:34:39.384Z</time></trkpt><trkpt lat="42.3285892" lon="13.5911685"><ele>985.2</ele><time>2026-05-03T08:34:40.376Z</time></trkpt><trkpt lat="42.3285079" lon="13.5912186"><ele>984.6</ele><time>2026-05-03T08:34:41.385Z</time></trkpt><trkpt lat="42.3284244" lon="13.5912093"><ele>984.0</ele><time>2026-05-03T08:34:42.383Z</time></trkpt><trkpt lat="42.3283488" lon="13.5911505"><ele>982.8000000000001</ele><time>2026-05-03T08:34:43.384Z</time></trkpt><trkpt lat="42.3282871" lon="13.5910459"><ele>981.6000000000001</ele><time>2026-05-03T08:34:44.386Z</time></trkpt><trkpt lat="42.3282273" lon="13.5909181"><ele>980.4</ele><time>2026-05-03T08:34:45.38Z</time></trkpt><trkpt lat="42.328167" lon="13.5907752"><ele>979.2</ele><time>2026-05-03T08:34:46.387Z</time></trkpt><trkpt lat="42.3281148" lon="13.5906392"><ele>978.0</ele><time>2026-05-03T08:34:47.384Z</time></trkpt><trkpt lat="42.3280888" lon="13.5904983"><ele>978.0</ele><time>2026-05-03T08:34:48.374Z</time></trkpt><trkpt lat="42.3280816" lon="13.5903525"><ele>978.0</ele><time>2026-05-03T08:34:49.376Z</time></trkpt><trkpt lat="42.3280935" lon="13.5902145"><ele>978.0</ele><time>2026-05-03T08:34:50.378Z</time></trkpt><trkpt lat="42.3281219" lon="13.5900846"><ele>978.0</ele><time>2026-05-03T08:34:51.393Z</time></trkpt><trkpt lat="42.3281414" lon="13.5899632"><ele>978.0</ele><time>2026-05-03T08:34:52.391Z</time></trkpt><trkpt lat="42.3281565" lon="13.5898448"><ele>977.2</ele><time>2026-05-03T08:34:53.385Z</time></trkpt><trkpt lat="42.3281786" lon="13.5897248"><ele>976.4</ele><time>2026-05-03T08:34:54.384Z</time></trkpt><trkpt lat="42.3282195" lon="13.5896086"><ele>975.6000000000001</ele><time>2026-05-03T08:34:55.391Z</time></trkpt><trkpt lat="42.3282719" lon="13.5894957"><ele>974.8000000000001</ele><time>2026-05-03T08:34:56.383Z</time></trkpt><trkpt lat="42.3283366" lon="13.5893842"><ele>974.0</ele><time>2026-05-03T08:34:57.394Z</time></trkpt><trkpt lat="42.3284193" lon="13.5892866"><ele>974.8000000000001</ele><time>2026-05-03T08:34:58.387Z</time></trkpt><trkpt lat="42.3285121" lon="13.5892003"><ele>975.6000000000001</ele><time>2026-05-03T08:34:59.386Z</time></trkpt><trkpt lat="42.3286061" lon="13.5891303"><ele>976.4</ele><time>2026-05-03T08:35:00.376Z</time></trkpt><trkpt lat="42.328699" lon="13.5890788"><ele>977.2</ele><time>2026-05-03T08:35:01.378Z</time></trkpt><trkpt lat="42.3288174" lon="13.5890663"><ele>978.0</ele><time>2026-05-03T08:35:02.382Z</time></trkpt><trkpt lat="42.3289242" lon="13.5890725"><ele>978.0</ele><time>2026-05-03T08:35:03.384Z</time></trkpt><trkpt lat="42.3290233" lon="13.5890485"><ele>978.0</ele><time>2026-05-03T08:35:04.377Z</time></trkpt><trkpt lat="42.3290947" lon="13.5889902"><ele>978.0</ele><time>2026-05-03T08:35:05.384Z</time></trkpt><trkpt lat="42.3291212" lon="13.588892"><ele>978.0</ele><time>2026-05-03T08:35:06.391Z</time></trkpt><trkpt lat="42.3291065" lon="13.5887758"><ele>978.0</ele><time>2026-05-03T08:35:07.394Z</time></trkpt><trkpt lat="42.3290556" lon="13.5886469"><ele>977.0</ele><time>2026-05-03T08:35:08.379Z</time></trkpt><trkpt lat="42.3289879" lon="13.588526"><ele>976.0</ele><time>2026-05-03T08:35:09.382Z</time></trkpt><trkpt lat="42.3289181" lon="13.5884013"><ele>975.0</ele><time>2026-05-03T08:35:10.389Z</time></trkpt><trkpt lat="42.3288367" lon="13.5882676"><ele>974.0</ele><time>2026-05-03T08:35:11.402Z</time></trkpt><trkpt lat="42.3287584" lon="13.5881328"><ele>971.0</ele><time>2026-05-03T08:35:12.398Z</time></trkpt><trkpt lat="42.3286876" lon="13.5879963"><ele>968.0</ele><time>2026-05-03T08:35:13.396Z</time></trkpt><trkpt lat="42.3286101" lon="13.5878621"><ele>965.0</ele><time>2026-05-03T08:35:14.395Z</time></trkpt><trkpt lat="42.328538" lon="13.5877334"><ele>962.0</ele><time>2026-05-03T08:35:15.401Z</time></trkpt><trkpt lat="42.328471" lon="13.5875981"><ele>961.8</ele><time>2026-05-03T08:35:16.395Z</time></trkpt><trkpt lat="42.3284097" lon="13.5874738"><ele>961.6</ele><time>2026-05-03T08:35:17.398Z</time></trkpt><trkpt lat="42.3283375" lon="13.5873561"><ele>961.3999999999999</ele><time>2026-05-03T08:35:18.392Z</time></trkpt><trkpt lat="42.3282739" lon="13.5872641"><ele>961.1999999999999</ele><time>2026-05-03T08:35:19.409Z</time></trkpt><trkpt lat="42.3281973" lon="13.5872174"><ele>961.0</ele><time>2026-05-03T08:35:20.402Z</time></trkpt><trkpt lat="42.3281159" lon="13.5872173"><ele>958.75</ele><time>2026-05-03T08:35:21.412Z</time></trkpt><trkpt lat="42.3280332" lon="13.5872764"><ele>956.5</ele><time>2026-05-03T08:35:22.403Z</time></trkpt><trkpt lat="42.3279472" lon="13.5873726"><ele>954.25</ele><time>2026-05-03T08:35:23.402Z</time></trkpt><trkpt lat="42.3278645" lon="13.5874943"><ele>952.0</ele><time>2026-05-03T08:35:24.416Z</time></trkpt><trkpt lat="42.3277806" lon="13.5876151"><ele>952.0</ele><time>2026-05-03T08:35:25.425Z</time></trkpt><trkpt lat="42.3276875" lon="13.5877308"><ele>952.0</ele><time>2026-05-03T08:35:26.407Z</time></trkpt><trkpt lat="42.3275995" lon="13.5878344"><ele>952.0</ele><time>2026-05-03T08:35:27.416Z</time></trkpt><trkpt lat="42.3275177" lon="13.5879318"><ele>952.0</ele><time>2026-05-03T08:35:28.437Z</time></trkpt><trkpt lat="42.3274349" lon="13.5880303"><ele>952.2</ele><time>2026-05-03T08:35:29.415Z</time></trkpt><trkpt lat="42.3273573" lon="13.5881216"><ele>952.4000000000001</ele><time>2026-05-03T08:35:30.409Z</time></trkpt><trkpt lat="42.3272837" lon="13.5882154"><ele>952.5999999999999</ele><time>2026-05-03T08:35:31.408Z</time></trkpt><trkpt lat="42.3272044" lon="13.5883028"><ele>952.8</ele><time>2026-05-03T08:35:32.407Z</time></trkpt><trkpt lat="42.3271273" lon="13.588384"><ele>953.0</ele><time>2026-05-03T08:35:33.408Z</time></trkpt><trkpt lat="42.327037" lon="13.5884439"><ele>951.2</ele><time>2026-05-03T08:35:34.417Z</time></trkpt><trkpt lat="42.3269472" lon="13.5884552"><ele>949.4</ele><time>2026-05-03T08:35:35.407Z</time></trkpt><trkpt lat="42.3268472" lon="13.5884327"><ele>947.6000000000001</ele><time>2026-05-03T08:35:36.391Z</time></trkpt><trkpt lat="42.3267515" lon="13.5883757"><ele>945.8000000000001</ele><time>2026-05-03T08:35:37.397Z</time></trkpt><trkpt lat="42.3266434" lon="13.5882957"><ele>944.0</ele><time>2026-05-03T08:35:38.391Z</time></trkpt><trkpt lat="42.3265283" lon="13.5882014"><ele>944.0</ele><time>2026-05-03T08:35:39.407Z</time></trkpt><trkpt lat="42.3264053" lon="13.588105"><ele>944.0</ele><time>2026-05-03T08:35:40.406Z</time></trkpt><trkpt lat="42.3262924" lon="13.5880198"><ele>944.0</ele><time>2026-05-03T08:35:41.401Z</time></trkpt><trkpt lat="42.3261922" lon="13.5879458"><ele>944.0</ele><time>2026-05-03T08:35:42.401Z</time></trkpt><trkpt lat="42.3260938" lon="13.58785"><ele>941.75</ele><time>2026-05-03T08:35:43.399Z</time></trkpt><trkpt lat="42.3260047" lon="13.5877455"><ele>939.5</ele><time>2026-05-03T08:35:44.405Z</time></trkpt><trkpt lat="42.3259338" lon="13.5876332"><ele>937.25</ele><time>2026-05-03T08:35:45.388Z</time></trkpt><trkpt lat="42.3258865" lon="13.587495"><ele>935.0</ele><time>2026-05-03T08:35:46.393Z</time></trkpt><trkpt lat="42.325868" lon="13.5873443"><ele>935.0</ele><time>2026-05-03T08:35:47.399Z</time></trkpt><trkpt lat="42.3258698" lon="13.587174"><ele>935.0</ele><time>2026-05-03T08:35:48.407Z</time></trkpt><trkpt lat="42.325882" lon="13.5869981"><ele>935.0</ele><time>2026-05-03T08:35:49.407Z</time></trkpt><trkpt lat="42.3258947" lon="13.5868257"><ele>935.0</ele><time>2026-05-03T08:35:50.41Z</time></trkpt><trkpt lat="42.3258921" lon="13.5866767"><ele>934.8</ele><time>2026-05-03T08:35:51.396Z</time></trkpt><trkpt lat="42.3258691" lon="13.5865571"><ele>934.6</ele><time>2026-05-03T08:35:52.4Z</time></trkpt><trkpt lat="42.3258103" lon="13.5864765"><ele>934.4000000000001</ele><time>2026-05-03T08:35:53.406Z</time></trkpt><trkpt lat="42.3257236" lon="13.5864506"><ele>934.2</ele><time>2026-05-03T08:35:54.41Z</time></trkpt><trkpt lat="42.3256247" lon="13.5864743"><ele>934.0</ele><time>2026-05-03T08:35:55.419Z</time></trkpt><trkpt lat="42.325525" lon="13.586533"><ele>932.0</ele><time>2026-05-03T08:35:56.39Z</time></trkpt><trkpt lat="42.3254476" lon="13.5866387"><ele>930.0</ele><time>2026-05-03T08:35:57.39Z</time></trkpt><trkpt lat="42.325397" lon="13.5867708"><ele>928.0</ele><time>2026-05-03T08:35:58.395Z</time></trkpt><trkpt lat="42.3253585" lon="13.586931"><ele>926.0</ele><time>2026-05-03T08:35:59.429Z</time></trkpt><trkpt lat="42.325319" lon="13.5870911"><ele>925.75</ele><time>2026-05-03T08:36:00.409Z</time></trkpt><trkpt lat="42.3252766" lon="13.5872513"><ele>925.5</ele><time>2026-05-03T08:36:01.413Z</time></trkpt><trkpt lat="42.3252292" lon="13.5874029"><ele>925.25</ele><time>2026-05-03T08:36:02.495Z</time></trkpt><trkpt lat="42.3251806" lon="13.5875595"><ele>925.0</ele><time>2026-05-03T08:36:03.496Z</time></trkpt><trkpt lat="42.3251304" lon="13.5877201"><ele>925.5</ele><time>2026-05-03T08:36:04.492Z</time></trkpt><trkpt lat="42.3250796" lon="13.5878813"><ele>926.0</ele><time>2026-05-03T08:36:05.493Z</time></trkpt><trkpt lat="42.3250287" lon="13.588042"><ele>926.5</ele><time>2026-05-03T08:36:06.498Z</time></trkpt><trkpt lat="42.3249759" lon="13.5882035"><ele>927.0</ele><time>2026-05-03T08:36:07.493Z</time></trkpt><trkpt lat="42.324928" lon="13.5883559"><ele>927.0</ele><time>2026-05-03T08:36:08.5Z</time></trkpt><trkpt lat="42.3248832" lon="13.5885018"><ele>927.0</ele><time>2026-05-03T08:36:09.494Z</time></trkpt><trkpt lat="42.3248362" lon="13.5886462"><ele>927.0</ele><time>2026-05-03T08:36:10.496Z</time></trkpt><trkpt lat="42.3247873" lon="13.5887922"><ele>927.0</ele><time>2026-05-03T08:36:11.5Z</time></trkpt><trkpt lat="42.3247411" lon="13.5889302"><ele>926.2</ele><time>2026-05-03T08:36:12.494Z</time></trkpt><trkpt lat="42.3246997" lon="13.5890445"><ele>925.4000000000001</ele><time>2026-05-03T08:36:13.489Z</time></trkpt><trkpt lat="42.3246536" lon="13.5891604"><ele>924.5999999999999</ele><time>2026-05-03T08:36:14.495Z</time></trkpt><trkpt lat="42.3246055" lon="13.5892745"><ele>923.8</ele><time>2026-05-03T08:36:15.493Z</time></trkpt><trkpt lat="42.3245607" lon="13.5893822"><ele>923.0</ele><time>2026-05-03T08:36:16.477Z</time></trkpt><trkpt lat="42.3245155" lon="13.5894814"><ele>923.0000000000001</ele><time>2026-05-03T08:36:17.488Z</time></trkpt><trkpt lat="42.3244683" lon="13.5895673"><ele>923.0</ele><time>2026-05-03T08:36:18.478Z</time></trkpt><trkpt lat="42.3243646" lon="13.5896129"><ele>923.0</ele><time>2026-05-03T08:36:20.473Z</time></trkpt><trkpt lat="42.3243041" lon="13.5895851"><ele>923.0</ele><time>2026-05-03T08:36:21.461Z</time></trkpt><trkpt lat="42.3242268" lon="13.5895463"><ele>923.0000000000001</ele><time>2026-05-03T08:36:22.459Z</time></trkpt><trkpt lat="42.3241314" lon="13.5895026"><ele>923.0</ele><time>2026-05-03T08:36:23.464Z</time></trkpt><trkpt lat="42.3240289" lon="13.5894472"><ele>923.0</ele><time>2026-05-03T08:36:24.466Z</time></trkpt><trkpt lat="42.3239152" lon="13.5893787"><ele>923.0</ele><time>2026-05-03T08:36:25.504Z</time></trkpt><trkpt lat="42.3237989" lon="13.5893083"><ele>923.0</ele><time>2026-05-03T08:36:26.487Z</time></trkpt><trkpt lat="42.3236768" lon="13.5892343"><ele>923.0</ele><time>2026-05-03T08:36:27.486Z</time></trkpt><trkpt lat="42.3235484" lon="13.5891575"><ele>921.0</ele><time>2026-05-03T08:36:28.49Z</time></trkpt><trkpt lat="42.3234181" lon="13.5890819"><ele>919.0</ele><time>2026-05-03T08:36:29.493Z</time></trkpt><trkpt lat="42.3232828" lon="13.5889993"><ele>917.0</ele><time>2026-05-03T08:36:30.508Z</time></trkpt><trkpt lat="42.3230153" lon="13.5888237"><ele>915.75</ele><time>2026-05-03T08:36:32.397Z</time></trkpt><trkpt lat="42.3228833" lon="13.5887531"><ele>914.5</ele><time>2026-05-03T08:36:33.399Z</time></trkpt><trkpt lat="42.3227584" lon="13.588687"><ele>913.25</ele><time>2026-05-03T08:36:34.402Z</time></trkpt><trkpt lat="42.3226262" lon="13.5886174"><ele>912.0</ele><time>2026-05-03T08:36:35.398Z</time></trkpt><trkpt lat="42.3225055" lon="13.5885567"><ele>911.25</ele><time>2026-05-03T08:36:36.406Z</time></trkpt><trkpt lat="42.322385" lon="13.5884849"><ele>910.5</ele><time>2026-05-03T08:36:37.401Z</time></trkpt><trkpt lat="42.322253" lon="13.5884154"><ele>909.75</ele><time>2026-05-03T08:36:38.405Z</time></trkpt><trkpt lat="42.3221248" lon="13.588331"><ele>909.0</ele><time>2026-05-03T08:36:39.401Z</time></trkpt><trkpt lat="42.3219906" lon="13.5882464"><ele>907.0</ele><time>2026-05-03T08:36:40.408Z</time></trkpt><trkpt lat="42.3218543" lon="13.5881664"><ele>905.0</ele><time>2026-05-03T08:36:41.407Z</time></trkpt><trkpt lat="42.3217174" lon="13.5880878"><ele>903.0</ele><time>2026-05-03T08:36:42.407Z</time></trkpt><trkpt lat="42.3215813" lon="13.5880068"><ele>901.0</ele><time>2026-05-03T08:36:43.402Z</time></trkpt><trkpt lat="42.3214433" lon="13.587924"><ele>899.6666666666666</ele><time>2026-05-03T08:36:44.403Z</time></trkpt><trkpt lat="42.3213162" lon="13.5878494"><ele>898.3333333333333</ele><time>2026-05-03T08:36:45.414Z</time></trkpt><trkpt lat="42.3211715" lon="13.5877725"><ele>897.0</ele><time>2026-05-03T08:36:46.399Z</time></trkpt><trkpt lat="42.3210275" lon="13.5876832"><ele>897.0</ele><time>2026-05-03T08:36:47.405Z</time></trkpt><trkpt lat="42.3208884" lon="13.5875981"><ele>897.0</ele><time>2026-05-03T08:36:48.406Z</time></trkpt><trkpt lat="42.3207492" lon="13.5875194"><ele>897.0</ele><time>2026-05-03T08:36:49.403Z</time></trkpt><trkpt lat="42.3206073" lon="13.5874406"><ele>896.0</ele><time>2026-05-03T08:36:50.409Z</time></trkpt><trkpt lat="42.3204669" lon="13.5873604"><ele>895.0</ele><time>2026-05-03T08:36:51.404Z</time></trkpt><trkpt lat="42.3203356" lon="13.587277"><ele>894.0</ele><time>2026-05-03T08:36:52.403Z</time></trkpt><trkpt lat="42.3202184" lon="13.5872089"><ele>893.0</ele><time>2026-05-03T08:36:53.396Z</time></trkpt><trkpt lat="42.3201041" lon="13.5871519"><ele>893.0000000000001</ele><time>2026-05-03T08:36:54.403Z</time></trkpt><trkpt lat="42.3200058" lon="13.587108"><ele>893.0</ele><time>2026-05-03T08:36:55.412Z</time></trkpt><trkpt lat="42.3199218" lon="13.5870622"><ele>893.0</ele><time>2026-05-03T08:36:56.394Z</time></trkpt><trkpt lat="42.3198588" lon="13.5870203"><ele>893.0</ele><time>2026-05-03T08:36:57.407Z</time></trkpt><trkpt lat="42.3197947" lon="13.5869897"><ele>893.0000000000001</ele><time>2026-05-03T08:37:12.401Z</time></trkpt><trkpt lat="42.3197205" lon="13.5870483"><ele>893.0</ele><time>2026-05-03T08:37:23.41Z</time></trkpt><trkpt lat="42.3197034" lon="13.5871337"><ele>892.4</ele><time>2026-05-03T08:37:24.404Z</time></trkpt><trkpt lat="42.3197058" lon="13.5872542"><ele>891.8</ele><time>2026-05-03T08:37:25.418Z</time></trkpt><trkpt lat="42.3197151" lon="13.5873943"><ele>891.2</ele><time>2026-05-03T08:37:26.393Z</time></trkpt><trkpt lat="42.3197183" lon="13.5875525"><ele>890.6</ele><time>2026-05-03T08:37:27.395Z</time></trkpt><trkpt lat="42.3197111" lon="13.5877141"><ele>890.0</ele><time>2026-05-03T08:37:28.391Z</time></trkpt><trkpt lat="42.3196918" lon="13.5878887"><ele>890.0</ele><time>2026-05-03T08:37:29.401Z</time></trkpt><trkpt lat="42.3196545" lon="13.5880596"><ele>890.0</ele><time>2026-05-03T08:37:30.403Z</time></trkpt><trkpt lat="42.3195938" lon="13.5882223"><ele>890.0</ele><time>2026-05-03T08:37:31.393Z</time></trkpt><trkpt lat="42.3195185" lon="13.588377"><ele>890.0</ele><time>2026-05-03T08:37:32.422Z</time></trkpt><trkpt lat="42.319437" lon="13.5885437"><ele>890.0</ele><time>2026-05-03T08:37:33.406Z</time></trkpt><trkpt lat="42.3193358" lon="13.5887114"><ele>890.0</ele><time>2026-05-03T08:37:34.407Z</time></trkpt><trkpt lat="42.31924" lon="13.5888733"><ele>890.0</ele><time>2026-05-03T08:37:35.407Z</time></trkpt><trkpt lat="42.3191481" lon="13.5890401"><ele>890.0</ele><time>2026-05-03T08:37:36.406Z</time></trkpt><trkpt lat="42.3190613" lon="13.5892073"><ele>890.0</ele><time>2026-05-03T08:37:37.403Z</time></trkpt><trkpt lat="42.3189749" lon="13.58938"><ele>890.0</ele><time>2026-05-03T08:37:38.405Z</time></trkpt><trkpt lat="42.3188723" lon="13.5895589"><ele>889.0</ele><time>2026-05-03T08:37:39.41Z</time></trkpt><trkpt lat="42.3187724" lon="13.5897365"><ele>888.0</ele><time>2026-05-03T08:37:40.408Z</time></trkpt><trkpt lat="42.3186738" lon="13.5899088"><ele>887.0</ele><time>2026-05-03T08:37:41.403Z</time></trkpt><trkpt lat="42.318583" lon="13.5900839"><ele>887.0</ele><time>2026-05-03T08:37:42.4Z</time></trkpt><trkpt lat="42.3184865" lon="13.5902626"><ele>887.0</ele><time>2026-05-03T08:37:43.409Z</time></trkpt><trkpt lat="42.3183883" lon="13.590444"><ele>887.0</ele><time>2026-05-03T08:37:44.397Z</time></trkpt><trkpt lat="42.3182941" lon="13.5906349"><ele>886.0</ele><time>2026-05-03T08:37:45.4Z</time></trkpt><trkpt lat="42.318189" lon="13.5908256"><ele>885.0</ele><time>2026-05-03T08:37:46.4Z</time></trkpt><trkpt lat="42.31808" lon="13.591012"><ele>884.0</ele><time>2026-05-03T08:37:47.403Z</time></trkpt><trkpt lat="42.3179819" lon="13.5912067"><ele>882.3333333333334</ele><time>2026-05-03T08:37:48.399Z</time></trkpt><trkpt lat="42.3178725" lon="13.5913973"><ele>880.6666666666667</ele><time>2026-05-03T08:37:49.404Z</time></trkpt><trkpt lat="42.3177689" lon="13.5915995"><ele>879.0</ele><time>2026-05-03T08:37:50.403Z</time></trkpt><trkpt lat="42.3176615" lon="13.5917967"><ele>879.0</ele><time>2026-05-03T08:37:51.404Z</time></trkpt><trkpt lat="42.3175512" lon="13.592002"><ele>879.0</ele><time>2026-05-03T08:37:52.402Z</time></trkpt><trkpt lat="42.3174457" lon="13.5922023"><ele>879.0</ele><time>2026-05-03T08:37:53.406Z</time></trkpt><trkpt lat="42.3173341" lon="13.5924018"><ele>878.0</ele><time>2026-05-03T08:37:54.406Z</time></trkpt><trkpt lat="42.3172236" lon="13.5926063"><ele>877.0</ele><time>2026-05-03T08:37:55.413Z</time></trkpt><trkpt lat="42.3171098" lon="13.5928162"><ele>876.0</ele><time>2026-05-03T08:37:56.403Z</time></trkpt><trkpt lat="42.3169987" lon="13.5930243"><ele>875.0</ele><time>2026-05-03T08:37:57.406Z</time></trkpt><trkpt lat="42.3168847" lon="13.593226"><ele>874.0</ele><time>2026-05-03T08:37:58.404Z</time></trkpt><trkpt lat="42.3167731" lon="13.5934291"><ele>873.0</ele><time>2026-05-03T08:37:59.4Z</time></trkpt><trkpt lat="42.3166696" lon="13.5936372"><ele>873.0</ele><time>2026-05-03T08:38:00.399Z</time></trkpt><trkpt lat="42.3165648" lon="13.5938508"><ele>873.0</ele><time>2026-05-03T08:38:01.402Z</time></trkpt><trkpt lat="42.3164549" lon="13.5940532"><ele>873.0</ele><time>2026-05-03T08:38:02.401Z</time></trkpt><trkpt lat="42.3163387" lon="13.5942515"><ele>873.0</ele><time>2026-05-03T08:38:03.44Z</time></trkpt><trkpt lat="42.3162246" lon="13.5944469"><ele>873.0</ele><time>2026-05-03T08:38:04.402Z</time></trkpt><trkpt lat="42.3161253" lon="13.5946524"><ele>873.0</ele><time>2026-05-03T08:38:05.4Z</time></trkpt><trkpt lat="42.3160182" lon="13.5948457"><ele>872.6666666666667</ele><time>2026-05-03T08:38:06.402Z</time></trkpt><trkpt lat="42.315923" lon="13.5950502"><ele>872.3333333333334</ele><time>2026-05-03T08:38:07.407Z</time></trkpt><trkpt lat="42.315816" lon="13.5952441"><ele>872.0</ele><time>2026-05-03T08:38:08.404Z</time></trkpt><trkpt lat="42.3157062" lon="13.5954498"><ele>871.0</ele><time>2026-05-03T08:38:09.406Z</time></trkpt><trkpt lat="42.315609" lon="13.5956443"><ele>870.0</ele><time>2026-05-03T08:38:10.404Z</time></trkpt><trkpt lat="42.3155004" lon="13.5958571"><ele>869.0</ele><time>2026-05-03T08:38:11.408Z</time></trkpt><trkpt lat="42.3153913" lon="13.5960535"><ele>867.6666666666667</ele><time>2026-05-03T08:38:12.402Z</time></trkpt><trkpt lat="42.3152706" lon="13.5962579"><ele>866.3333333333333</ele><time>2026-05-03T08:38:13.408Z</time></trkpt><trkpt lat="42.3151559" lon="13.5964756"><ele>865.0</ele><time>2026-05-03T08:38:14.407Z</time></trkpt><trkpt lat="42.3150378" lon="13.5966803"><ele>865.0</ele><time>2026-05-03T08:38:15.406Z</time></trkpt><trkpt lat="42.314919" lon="13.596902"><ele>865.0</ele><time>2026-05-03T08:38:16.406Z</time></trkpt><trkpt lat="42.3148035" lon="13.5971145"><ele>865.0</ele><time>2026-05-03T08:38:17.405Z</time></trkpt><trkpt lat="42.3146871" lon="13.5973319"><ele>863.6666666666666</ele><time>2026-05-03T08:38:18.406Z</time></trkpt><trkpt lat="42.3145616" lon="13.5975537"><ele>862.3333333333333</ele><time>2026-05-03T08:38:19.408Z</time></trkpt><trkpt lat="42.3144464" lon="13.5977686"><ele>861.0</ele><time>2026-05-03T08:38:20.407Z</time></trkpt><trkpt lat="42.3143217" lon="13.5979809"><ele>860.3333333333333</ele><time>2026-05-03T08:38:21.408Z</time></trkpt><trkpt lat="42.3142068" lon="13.5982118"><ele>859.6666666666666</ele><time>2026-05-03T08:38:22.407Z</time></trkpt><trkpt lat="42.314091" lon="13.5984308"><ele>859.0</ele><time>2026-05-03T08:38:23.412Z</time></trkpt><trkpt lat="42.3139705" lon="13.5986481"><ele>857.6666666666666</ele><time>2026-05-03T08:38:24.408Z</time></trkpt><trkpt lat="42.3138565" lon="13.5988697"><ele>856.3333333333333</ele><time>2026-05-03T08:38:25.416Z</time></trkpt><trkpt lat="42.313737" lon="13.5990929"><ele>855.0</ele><time>2026-05-03T08:38:26.407Z</time></trkpt><trkpt lat="42.3136099" lon="13.5993176"><ele>855.0</ele><time>2026-05-03T08:38:27.404Z</time></trkpt><trkpt lat="42.3134968" lon="13.5995363"><ele>855.0</ele><time>2026-05-03T08:38:28.409Z</time></trkpt><trkpt lat="42.3133833" lon="13.599757"><ele>855.0</ele><time>2026-05-03T08:38:29.407Z</time></trkpt><trkpt lat="42.3132664" lon="13.5999855"><ele>855.0</ele><time>2026-05-03T08:38:30.407Z</time></trkpt><trkpt lat="42.3131461" lon="13.6002124"><ele>855.0</ele><time>2026-05-03T08:38:31.409Z</time></trkpt><trkpt lat="42.3130234" lon="13.6004357"><ele>855.0</ele><time>2026-05-03T08:38:32.407Z</time></trkpt><trkpt lat="42.3129014" lon="13.6006619"><ele>854.6666666666667</ele><time>2026-05-03T08:38:33.421Z</time></trkpt><trkpt lat="42.3127775" lon="13.6008912"><ele>854.3333333333334</ele><time>2026-05-03T08:38:34.405Z</time></trkpt><trkpt lat="42.3126562" lon="13.6011119"><ele>854.0</ele><time>2026-05-03T08:38:35.409Z</time></trkpt><trkpt lat="42.3125318" lon="13.6013332"><ele>854.0</ele><time>2026-05-03T08:38:36.407Z</time></trkpt><trkpt lat="42.3124055" lon="13.6015627"><ele>854.0</ele><time>2026-05-03T08:38:37.41Z</time></trkpt><trkpt lat="42.3122846" lon="13.6017915"><ele>854.0</ele><time>2026-05-03T08:38:38.406Z</time></trkpt><trkpt lat="42.3121587" lon="13.6020254"><ele>853.0</ele><time>2026-05-03T08:38:39.411Z</time></trkpt><trkpt lat="42.3120381" lon="13.602259"><ele>852.0</ele><time>2026-05-03T08:38:40.401Z</time></trkpt><trkpt lat="42.3119187" lon="13.6024898"><ele>851.0</ele><time>2026-05-03T08:38:41.404Z</time></trkpt><trkpt lat="42.311796" lon="13.6027212"><ele>851.3333333333334</ele><time>2026-05-03T08:38:42.406Z</time></trkpt><trkpt lat="42.3116725" lon="13.6029514"><ele>851.6666666666667</ele><time>2026-05-03T08:38:43.403Z</time></trkpt><trkpt lat="42.3115461" lon="13.6031729"><ele>852.0</ele><time>2026-05-03T08:38:44.409Z</time></trkpt><trkpt lat="42.3114231" lon="13.6033964"><ele>850.6666666666667</ele><time>2026-05-03T08:38:45.409Z</time></trkpt><trkpt lat="42.3113038" lon="13.6036225"><ele>849.3333333333334</ele><time>2026-05-03T08:38:46.405Z</time></trkpt><trkpt lat="42.3111803" lon="13.6038471"><ele>848.0</ele><time>2026-05-03T08:38:47.404Z</time></trkpt><trkpt lat="42.3110649" lon="13.6040716"><ele>848.0</ele><time>2026-05-03T08:38:48.405Z</time></trkpt><trkpt lat="42.3109458" lon="13.6042905"><ele>848.0</ele><time>2026-05-03T08:38:49.409Z</time></trkpt><trkpt lat="42.31083" lon="13.6045152"><ele>848.0</ele><time>2026-05-03T08:38:50.409Z</time></trkpt><trkpt lat="42.3107038" lon="13.6047362"><ele>848.0</ele><time>2026-05-03T08:38:51.407Z</time></trkpt><trkpt lat="42.3105829" lon="13.6049514"><ele>848.0</ele><time>2026-05-03T08:38:52.399Z</time></trkpt><trkpt lat="42.310467" lon="13.605173"><ele>848.0</ele><time>2026-05-03T08:38:53.405Z</time></trkpt><trkpt lat="42.3103505" lon="13.6053921"><ele>847.3333333333334</ele><time>2026-05-03T08:38:54.403Z</time></trkpt><trkpt lat="42.310233" lon="13.6056206"><ele>846.6666666666667</ele><time>2026-05-03T08:38:55.423Z</time></trkpt><trkpt lat="42.3101057" lon="13.6058465"><ele>846.0</ele><time>2026-05-03T08:38:56.402Z</time></trkpt><trkpt lat="42.3099812" lon="13.6060738"><ele>846.0</ele><time>2026-05-03T08:38:57.406Z</time></trkpt><trkpt lat="42.3098588" lon="13.6063033"><ele>846.0</ele><time>2026-05-03T08:38:58.405Z</time></trkpt><trkpt lat="42.3097372" lon="13.6065423"><ele>846.0</ele><time>2026-05-03T08:38:59.407Z</time></trkpt><trkpt lat="42.3096117" lon="13.6067745"><ele>845.0</ele><time>2026-05-03T08:39:00.405Z</time></trkpt><trkpt lat="42.3094819" lon="13.6070028"><ele>844.0</ele><time>2026-05-03T08:39:01.401Z</time></trkpt><trkpt lat="42.3093583" lon="13.6072353"><ele>843.0</ele><time>2026-05-03T08:39:02.407Z</time></trkpt><trkpt lat="42.3092296" lon="13.607464"><ele>843.0</ele><time>2026-05-03T08:39:03.404Z</time></trkpt><trkpt lat="42.3091038" lon="13.6076992"><ele>843.0</ele><time>2026-05-03T08:39:04.426Z</time></trkpt><trkpt lat="42.3089813" lon="13.6079312"><ele>843.0</ele><time>2026-05-03T08:39:05.408Z</time></trkpt><trkpt lat="42.308855" lon="13.6081636"><ele>843.0</ele><time>2026-05-03T08:39:06.401Z</time></trkpt><trkpt lat="42.308725" lon="13.6083971"><ele>843.0</ele><time>2026-05-03T08:39:07.406Z</time></trkpt><trkpt lat="42.3086017" lon="13.6086279"><ele>843.0</ele><time>2026-05-03T08:39:08.406Z</time></trkpt><trkpt lat="42.3084733" lon="13.6088734"><ele>843.0</ele><time>2026-05-03T08:39:09.407Z</time></trkpt><trkpt lat="42.3083513" lon="13.6091072"><ele>843.0</ele><time>2026-05-03T08:39:10.404Z</time></trkpt><trkpt lat="42.3082258" lon="13.6093329"><ele>843.0</ele><time>2026-05-03T08:39:11.408Z</time></trkpt><trkpt lat="42.308095" lon="13.6095684"><ele>842.6666666666667</ele><time>2026-05-03T08:39:12.406Z</time></trkpt><trkpt lat="42.3079756" lon="13.6098022"><ele>842.3333333333334</ele><time>2026-05-03T08:39:13.399Z</time></trkpt><trkpt lat="42.3078468" lon="13.6100308"><ele>842.0</ele><time>2026-05-03T08:39:14.403Z</time></trkpt><trkpt lat="42.3077183" lon="13.6102649"><ele>840.6666666666667</ele><time>2026-05-03T08:39:15.403Z</time></trkpt><trkpt lat="42.3075977" lon="13.6104932"><ele>839.3333333333333</ele><time>2026-05-03T08:39:16.4Z</time></trkpt><trkpt lat="42.3074738" lon="13.610723"><ele>838.0</ele><time>2026-05-03T08:39:17.398Z</time></trkpt><trkpt lat="42.3073502" lon="13.6109626"><ele>837.3333333333333</ele><time>2026-05-03T08:39:18.402Z</time></trkpt><trkpt lat="42.3072245" lon="13.6112018"><ele>836.6666666666667</ele><time>2026-05-03T08:39:19.403Z</time></trkpt><trkpt lat="42.3071004" lon="13.6114331"><ele>836.0</ele><time>2026-05-03T08:39:20.401Z</time></trkpt><trkpt lat="42.3069682" lon="13.6116626"><ele>836.0</ele><time>2026-05-03T08:39:21.403Z</time></trkpt><trkpt lat="42.3068497" lon="13.611897"><ele>836.0</ele><time>2026-05-03T08:39:22.402Z</time></trkpt><trkpt lat="42.3067208" lon="13.6121285"><ele>836.0</ele><time>2026-05-03T08:39:23.401Z</time></trkpt><trkpt lat="42.3065925" lon="13.6123564"><ele>836.0</ele><time>2026-05-03T08:39:24.4Z</time></trkpt><trkpt lat="42.3064598" lon="13.6125875"><ele>836.0</ele><time>2026-05-03T08:39:25.431Z</time></trkpt><trkpt lat="42.3063396" lon="13.6128209"><ele>836.0</ele><time>2026-05-03T08:39:26.403Z</time></trkpt><trkpt lat="42.306223" lon="13.6130507"><ele>835.3333333333334</ele><time>2026-05-03T08:39:27.403Z</time></trkpt><trkpt lat="42.3060946" lon="13.6132765"><ele>834.6666666666667</ele><time>2026-05-03T08:39:28.401Z</time></trkpt><trkpt lat="42.3059757" lon="13.6135093"><ele>834.0</ele><time>2026-05-03T08:39:29.404Z</time></trkpt><trkpt lat="42.3058506" lon="13.6137435"><ele>834.0</ele><time>2026-05-03T08:39:30.4Z</time></trkpt><trkpt lat="42.305736" lon="13.6139755"><ele>834.0</ele><time>2026-05-03T08:39:31.398Z</time></trkpt><trkpt lat="42.3056043" lon="13.6142006"><ele>834.0</ele><time>2026-05-03T08:39:32.399Z</time></trkpt><trkpt lat="42.3054783" lon="13.6144349"><ele>834.6666666666667</ele><time>2026-05-03T08:39:33.391Z</time></trkpt><trkpt lat="42.305356" lon="13.6146627"><ele>835.3333333333334</ele><time>2026-05-03T08:39:34.394Z</time></trkpt><trkpt lat="42.3052334" lon="13.6148942"><ele>836.0</ele><time>2026-05-03T08:39:35.412Z</time></trkpt><trkpt lat="42.305106" lon="13.6151139"><ele>835.3333333333334</ele><time>2026-05-03T08:39:36.397Z</time></trkpt><trkpt lat="42.3049807" lon="13.6153531"><ele>834.6666666666667</ele><time>2026-05-03T08:39:37.399Z</time></trkpt><trkpt lat="42.30485" lon="13.6155879"><ele>834.0</ele><time>2026-05-03T08:39:38.392Z</time></trkpt><trkpt lat="42.3047306" lon="13.6158205"><ele>835.0</ele><time>2026-05-03T08:39:39.399Z</time></trkpt><trkpt lat="42.3046093" lon="13.6160448"><ele>836.0</ele><time>2026-05-03T08:39:40.397Z</time></trkpt><trkpt lat="42.3044807" lon="13.6162849"><ele>837.0</ele><time>2026-05-03T08:39:41.395Z</time></trkpt><trkpt lat="42.3043643" lon="13.6165156"><ele>837.0</ele><time>2026-05-03T08:39:42.398Z</time></trkpt><trkpt lat="42.3042353" lon="13.6167453"><ele>837.0</ele><time>2026-05-03T08:39:43.396Z</time></trkpt><trkpt lat="42.3041129" lon="13.6169809"><ele>837.0</ele><time>2026-05-03T08:39:44.394Z</time></trkpt><trkpt lat="42.3039761" lon="13.6172162"><ele>836.3333333333333</ele><time>2026-05-03T08:39:45.389Z</time></trkpt><trkpt lat="42.3038435" lon="13.6174447"><ele>835.6666666666666</ele><time>2026-05-03T08:39:46.39Z</time></trkpt><trkpt lat="42.303715" lon="13.6176791"><ele>835.0</ele><time>2026-05-03T08:39:47.395Z</time></trkpt><trkpt lat="42.3035967" lon="13.6179166"><ele>833.6666666666666</ele><time>2026-05-03T08:39:48.387Z</time></trkpt><trkpt lat="42.3034731" lon="13.6181476"><ele>832.3333333333333</ele><time>2026-05-03T08:39:49.394Z</time></trkpt><trkpt lat="42.303347" lon="13.6183868"><ele>831.0</ele><time>2026-05-03T08:39:50.393Z</time></trkpt><trkpt lat="42.3032156" lon="13.6186111"><ele>830.6666666666667</ele><time>2026-05-03T08:39:51.395Z</time></trkpt><trkpt lat="42.3030933" lon="13.6188506"><ele>830.3333333333334</ele><time>2026-05-03T08:39:52.392Z</time></trkpt><trkpt lat="42.3029697" lon="13.6190893"><ele>830.0</ele><time>2026-05-03T08:39:53.396Z</time></trkpt><trkpt lat="42.3028463" lon="13.6193265"><ele>830.0</ele><time>2026-05-03T08:39:54.393Z</time></trkpt><trkpt lat="42.3027243" lon="13.6195628"><ele>830.0</ele><time>2026-05-03T08:39:55.404Z</time></trkpt><trkpt lat="42.302585" lon="13.6197988"><ele>830.0</ele><time>2026-05-03T08:39:56.39Z</time></trkpt><trkpt lat="42.3024574" lon="13.6200404"><ele>830.0</ele><time>2026-05-03T08:39:57.39Z</time></trkpt><trkpt lat="42.3023356" lon="13.6202815"><ele>830.0</ele><time>2026-05-03T08:39:58.392Z</time></trkpt><trkpt lat="42.3022027" lon="13.6205217"><ele>830.0</ele><time>2026-05-03T08:39:59.397Z</time></trkpt><trkpt lat="42.3020776" lon="13.6207565"><ele>829.6666666666667</ele><time>2026-05-03T08:40:00.393Z</time></trkpt><trkpt lat="42.3019502" lon="13.6209914"><ele>829.3333333333333</ele><time>2026-05-03T08:40:01.393Z</time></trkpt><trkpt lat="42.3018185" lon="13.6212301"><ele>829.0</ele><time>2026-05-03T08:40:02.391Z</time></trkpt><trkpt lat="42.3016847" lon="13.6214516"><ele>829.0</ele><time>2026-05-03T08:40:03.388Z</time></trkpt><trkpt lat="42.301565" lon="13.6216639"><ele>829.0</ele><time>2026-05-03T08:40:04.388Z</time></trkpt><trkpt lat="42.3014564" lon="13.6218609"><ele>829.0</ele><time>2026-05-03T08:40:05.391Z</time></trkpt><trkpt lat="42.3013586" lon="13.6220389"><ele>828.1666666666666</ele><time>2026-05-03T08:40:06.4Z</time></trkpt><trkpt lat="42.3012841" lon="13.6221708"><ele>827.3333333333333</ele><time>2026-05-03T08:40:07.405Z</time></trkpt><trkpt lat="42.3012275" lon="13.6222619"><ele>826.5</ele><time>2026-05-03T08:40:08.417Z</time></trkpt><trkpt lat="42.301181" lon="13.6223222"><ele>825.6666666666667</ele><time>2026-05-03T08:40:09.403Z</time></trkpt><trkpt lat="42.3011253" lon="13.6223925"><ele>824.8333333333334</ele><time>2026-05-03T08:40:11.412Z</time></trkpt><trkpt lat="42.3011006" lon="13.6225042"><ele>824.0</ele><time>2026-05-03T08:41:49.415Z</time></trkpt><trkpt lat="42.3010346" lon="13.6226648"><ele>824.0</ele><time>2026-05-03T08:41:51.413Z</time></trkpt><trkpt lat="42.3009698" lon="13.6227775"><ele>824.0</ele><time>2026-05-03T08:41:52.407Z</time></trkpt><trkpt lat="42.3009051" lon="13.6228991"><ele>824.0</ele><time>2026-05-03T08:41:53.488Z</time></trkpt><trkpt lat="42.3008349" lon="13.6230293"><ele>824.0</ele><time>2026-05-03T08:41:54.488Z</time></trkpt><trkpt lat="42.3007553" lon="13.6231712"><ele>823.3333333333334</ele><time>2026-05-03T08:41:55.511Z</time></trkpt><trkpt lat="42.3006675" lon="13.6233264"><ele>822.6666666666667</ele><time>2026-05-03T08:41:56.513Z</time></trkpt><trkpt lat="42.3005775" lon="13.6234908"><ele>822.0</ele><time>2026-05-03T08:41:57.502Z</time></trkpt><trkpt lat="42.3004864" lon="13.6236628"><ele>821.6666666666667</ele><time>2026-05-03T08:41:58.495Z</time></trkpt><trkpt lat="42.3003923" lon="13.623843"><ele>821.3333333333334</ele><time>2026-05-03T08:41:59.49Z</time></trkpt><trkpt lat="42.3002938" lon="13.6240268"><ele>821.0</ele><time>2026-05-03T08:42:00.491Z</time></trkpt><trkpt lat="42.3001965" lon="13.6242102"><ele>821.0</ele><time>2026-05-03T08:42:01.499Z</time></trkpt><trkpt lat="42.3001017" lon="13.6243985"><ele>821.0</ele><time>2026-05-03T08:42:02.495Z</time></trkpt><trkpt lat="42.3000066" lon="13.6245967"><ele>821.0</ele><time>2026-05-03T08:42:03.499Z</time></trkpt><trkpt lat="42.2998902" lon="13.6248064"><ele>821.0</ele><time>2026-05-03T08:42:04.494Z</time></trkpt><trkpt lat="42.2998031" lon="13.625016"><ele>821.0</ele><time>2026-05-03T08:42:05.496Z</time></trkpt><trkpt lat="42.2997146" lon="13.6252258"><ele>821.0</ele><time>2026-05-03T08:42:06.512Z</time></trkpt><trkpt lat="42.2996264" lon="13.625434"><ele>821.0</ele><time>2026-05-03T08:42:07.502Z</time></trkpt><trkpt lat="42.2995462" lon="13.6256349"><ele>821.0</ele><time>2026-05-03T08:42:08.499Z</time></trkpt><trkpt lat="42.2994773" lon="13.625831"><ele>821.0</ele><time>2026-05-03T08:42:09.491Z</time></trkpt><trkpt lat="42.2994173" lon="13.62602"><ele>820.5</ele><time>2026-05-03T08:42:10.522Z</time></trkpt><trkpt lat="42.2993615" lon="13.6261987"><ele>820.0</ele><time>2026-05-03T08:42:11.502Z</time></trkpt><trkpt lat="42.2993138" lon="13.6263724"><ele>819.5</ele><time>2026-05-03T08:42:12.504Z</time></trkpt><trkpt lat="42.2992693" lon="13.6265362"><ele>819.0</ele><time>2026-05-03T08:42:13.508Z</time></trkpt><trkpt lat="42.2992242" lon="13.6267029"><ele>819.0</ele><time>2026-05-03T08:42:14.505Z</time></trkpt><trkpt lat="42.2991768" lon="13.6268807"><ele>819.0</ele><time>2026-05-03T08:42:15.501Z</time></trkpt><trkpt lat="42.2991253" lon="13.6270695"><ele>819.0</ele><time>2026-05-03T08:42:16.516Z</time></trkpt><trkpt lat="42.2990742" lon="13.6272691"><ele>819.0</ele><time>2026-05-03T08:42:17.506Z</time></trkpt><trkpt lat="42.2990217" lon="13.6274788"><ele>818.6666666666667</ele><time>2026-05-03T08:42:18.496Z</time></trkpt><trkpt lat="42.298967" lon="13.6276964"><ele>818.3333333333334</ele><time>2026-05-03T08:42:19.5Z</time></trkpt><trkpt lat="42.2989098" lon="13.6279232"><ele>818.0</ele><time>2026-05-03T08:42:20.496Z</time></trkpt><trkpt lat="42.298853" lon="13.6281568"><ele>818.0</ele><time>2026-05-03T08:42:21.497Z</time></trkpt><trkpt lat="42.2987958" lon="13.6283935"><ele>818.0</ele><time>2026-05-03T08:42:22.495Z</time></trkpt><trkpt lat="42.298739" lon="13.6286317"><ele>818.0</ele><time>2026-05-03T08:42:23.502Z</time></trkpt><trkpt lat="42.2986824" lon="13.6288687"><ele>818.0</ele><time>2026-05-03T08:42:24.496Z</time></trkpt><trkpt lat="42.2986267" lon="13.6291009"><ele>818.0</ele><time>2026-05-03T08:42:25.528Z</time></trkpt><trkpt lat="42.2985588" lon="13.6293391"><ele>818.0</ele><time>2026-05-03T08:42:26.506Z</time></trkpt><trkpt lat="42.2984845" lon="13.629575"><ele>817.0</ele><time>2026-05-03T08:42:27.479Z</time></trkpt><trkpt lat="42.298373" lon="13.6298194"><ele>816.0</ele><time>2026-05-03T08:42:28.474Z</time></trkpt><trkpt lat="42.2982329" lon="13.6300694"><ele>815.0</ele><time>2026-05-03T08:42:29.479Z</time></trkpt><trkpt lat="42.2980846" lon="13.6303094"><ele>814.0</ele><time>2026-05-03T08:42:30.453Z</time></trkpt><trkpt lat="42.2980621" lon="13.6304421"><ele>813.0</ele><time>2026-05-03T08:42:31.383Z</time></trkpt><trkpt lat="42.2979391" lon="13.6306445"><ele>812.0</ele><time>2026-05-03T08:42:32.384Z</time></trkpt><trkpt lat="42.2978117" lon="13.630841"><ele>812.0</ele><time>2026-05-03T08:42:33.382Z</time></trkpt><trkpt lat="42.297673" lon="13.6310302"><ele>812.0</ele><time>2026-05-03T08:42:34.402Z</time></trkpt><trkpt lat="42.2975343" lon="13.6312192"><ele>812.0</ele><time>2026-05-03T08:42:35.406Z</time></trkpt><trkpt lat="42.2973942" lon="13.63142"><ele>811.0</ele><time>2026-05-03T08:42:36.4Z</time></trkpt><trkpt lat="42.2972523" lon="13.6316217"><ele>810.0</ele><time>2026-05-03T08:42:37.398Z</time></trkpt><trkpt lat="42.2971112" lon="13.631825"><ele>809.0</ele><time>2026-05-03T08:42:38.398Z</time></trkpt><trkpt lat="42.296969" lon="13.6320247"><ele>809.0</ele><time>2026-05-03T08:42:39.404Z</time></trkpt><trkpt lat="42.296822" lon="13.6322283"><ele>809.0</ele><time>2026-05-03T08:42:40.402Z</time></trkpt><trkpt lat="42.2966741" lon="13.6324343"><ele>809.0</ele><time>2026-05-03T08:42:41.445Z</time></trkpt><trkpt lat="42.2965251" lon="13.6326413"><ele>808.6666666666667</ele><time>2026-05-03T08:42:42.406Z</time></trkpt><trkpt lat="42.296376" lon="13.6328476"><ele>808.3333333333333</ele><time>2026-05-03T08:42:43.403Z</time></trkpt><trkpt lat="42.2962321" lon="13.6330527"><ele>808.0</ele><time>2026-05-03T08:42:44.4Z</time></trkpt><trkpt lat="42.2960794" lon="13.6332494"><ele>808.0</ele><time>2026-05-03T08:42:45.405Z</time></trkpt><trkpt lat="42.295929" lon="13.6334613"><ele>808.0</ele><time>2026-05-03T08:42:46.401Z</time></trkpt><trkpt lat="42.2957781" lon="13.6336607"><ele>808.0</ele><time>2026-05-03T08:42:47.402Z</time></trkpt><trkpt lat="42.2956296" lon="13.6338613"><ele>804.6666666666666</ele><time>2026-05-03T08:42:48.4Z</time></trkpt><trkpt lat="42.2954777" lon="13.6340804"><ele>801.3333333333333</ele><time>2026-05-03T08:42:49.4Z</time></trkpt><trkpt lat="42.295326" lon="13.6342824"><ele>798.0</ele><time>2026-05-03T08:42:50.398Z</time></trkpt><trkpt lat="42.2951751" lon="13.634481"><ele>796.3333333333333</ele><time>2026-05-03T08:42:51.398Z</time></trkpt><trkpt lat="42.2950165" lon="13.6346907"><ele>794.6666666666666</ele><time>2026-05-03T08:42:52.401Z</time></trkpt><trkpt lat="42.2948653" lon="13.6349065"><ele>793.0</ele><time>2026-05-03T08:42:53.403Z</time></trkpt><trkpt lat="42.2947091" lon="13.6351135"><ele>791.6666666666666</ele><time>2026-05-03T08:42:54.404Z</time></trkpt><trkpt lat="42.2945506" lon="13.6353281"><ele>790.3333333333333</ele><time>2026-05-03T08:42:55.417Z</time></trkpt><trkpt lat="42.2943969" lon="13.635528"><ele>789.0</ele><time>2026-05-03T08:42:56.405Z</time></trkpt><trkpt lat="42.294247" lon="13.6357336"><ele>789.0</ele><time>2026-05-03T08:42:57.403Z</time></trkpt><trkpt lat="42.2940913" lon="13.6359422"><ele>789.0</ele><time>2026-05-03T08:42:58.405Z</time></trkpt><trkpt lat="42.2939363" lon="13.6361555"><ele>789.0</ele><time>2026-05-03T08:42:59.406Z</time></trkpt><trkpt lat="42.293784" lon="13.6363598"><ele>788.0</ele><time>2026-05-03T08:43:00.399Z</time></trkpt><trkpt lat="42.2936349" lon="13.6365671"><ele>787.0</ele><time>2026-05-03T08:43:01.401Z</time></trkpt><trkpt lat="42.2934811" lon="13.636776"><ele>786.0</ele><time>2026-05-03T08:43:02.403Z</time></trkpt><trkpt lat="42.2933312" lon="13.6369832"><ele>786.0</ele><time>2026-05-03T08:43:03.402Z</time></trkpt><trkpt lat="42.2931888" lon="13.6371946"><ele>786.0</ele><time>2026-05-03T08:43:04.403Z</time></trkpt><trkpt lat="42.293037" lon="13.6374003"><ele>786.0</ele><time>2026-05-03T08:43:05.413Z</time></trkpt><trkpt lat="42.2928891" lon="13.6376099"><ele>784.6666666666667</ele><time>2026-05-03T08:43:06.407Z</time></trkpt><trkpt lat="42.2927406" lon="13.6378254"><ele>783.3333333333334</ele><time>2026-05-03T08:43:07.406Z</time></trkpt><trkpt lat="42.2925812" lon="13.6380336"><ele>782.0</ele><time>2026-05-03T08:43:08.408Z</time></trkpt><trkpt lat="42.2924351" lon="13.6382465"><ele>782.0</ele><time>2026-05-03T08:43:09.408Z</time></trkpt><trkpt lat="42.2922829" lon="13.6384554"><ele>782.0</ele><time>2026-05-03T08:43:10.407Z</time></trkpt><trkpt lat="42.2921317" lon="13.6386643"><ele>782.0</ele><time>2026-05-03T08:43:11.428Z</time></trkpt><trkpt lat="42.2919839" lon="13.638869"><ele>781.0</ele><time>2026-05-03T08:43:12.407Z</time></trkpt><trkpt lat="42.2918381" lon="13.6390818"><ele>780.0</ele><time>2026-05-03T08:43:13.408Z</time></trkpt><trkpt lat="42.2916942" lon="13.6392931"><ele>779.0</ele><time>2026-05-03T08:43:14.411Z</time></trkpt><trkpt lat="42.2915447" lon="13.6394968"><ele>778.6666666666667</ele><time>2026-05-03T08:43:15.41Z</time></trkpt><trkpt lat="42.291412" lon="13.639711"><ele>778.3333333333333</ele><time>2026-05-03T08:43:16.402Z</time></trkpt><trkpt lat="42.2912637" lon="13.6399215"><ele>778.0</ele><time>2026-05-03T08:43:17.407Z</time></trkpt><trkpt lat="42.291123" lon="13.6401382"><ele>778.6666666666666</ele><time>2026-05-03T08:43:18.408Z</time></trkpt><trkpt lat="42.2909698" lon="13.6403486"><ele>779.3333333333333</ele><time>2026-05-03T08:43:19.407Z</time></trkpt><trkpt lat="42.290821" lon="13.640552"><ele>780.0</ele><time>2026-05-03T08:43:20.401Z</time></trkpt><trkpt lat="42.2906702" lon="13.6407607"><ele>780.0</ele><time>2026-05-03T08:43:21.405Z</time></trkpt><trkpt lat="42.290517" lon="13.6409731"><ele>780.0</ele><time>2026-05-03T08:43:22.402Z</time></trkpt><trkpt lat="42.2903688" lon="13.6411836"><ele>780.0</ele><time>2026-05-03T08:43:23.409Z</time></trkpt><trkpt lat="42.2902211" lon="13.6413987"><ele>780.0</ele><time>2026-05-03T08:43:24.405Z</time></trkpt><trkpt lat="42.2900619" lon="13.6416093"><ele>780.0</ele><time>2026-05-03T08:43:25.425Z</time></trkpt><trkpt lat="42.2899159" lon="13.6418262"><ele>780.0</ele><time>2026-05-03T08:43:26.408Z</time></trkpt><trkpt lat="42.2897642" lon="13.6420351"><ele>779.0</ele><time>2026-05-03T08:43:27.407Z</time></trkpt><trkpt lat="42.289603" lon="13.642245"><ele>778.0</ele><time>2026-05-03T08:43:28.402Z</time></trkpt><trkpt lat="42.2894488" lon="13.6424518"><ele>777.0</ele><time>2026-05-03T08:43:29.403Z</time></trkpt><trkpt lat="42.2892964" lon="13.6426668"><ele>777.0</ele><time>2026-05-03T08:43:30.402Z</time></trkpt><trkpt lat="42.2891404" lon="13.6428731"><ele>777.0</ele><time>2026-05-03T08:43:31.403Z</time></trkpt><trkpt lat="42.288989" lon="13.643083"><ele>777.0</ele><time>2026-05-03T08:43:32.4Z</time></trkpt><trkpt lat="42.2888427" lon="13.6432901"><ele>776.3333333333333</ele><time>2026-05-03T08:43:33.401Z</time></trkpt><trkpt lat="42.28869" lon="13.6434993"><ele>775.6666666666666</ele><time>2026-05-03T08:43:34.399Z</time></trkpt><trkpt lat="42.2885309" lon="13.6437079"><ele>775.0</ele><time>2026-05-03T08:43:35.396Z</time></trkpt><trkpt lat="42.2883717" lon="13.6439162"><ele>775.0</ele><time>2026-05-03T08:43:36.401Z</time></trkpt><trkpt lat="42.2882215" lon="13.6441214"><ele>775.0</ele><time>2026-05-03T08:43:37.404Z</time></trkpt><trkpt lat="42.2880652" lon="13.6443405"><ele>775.0</ele><time>2026-05-03T08:43:38.398Z</time></trkpt><trkpt lat="42.2879125" lon="13.6445489"><ele>775.3333333333333</ele><time>2026-05-03T08:43:39.402Z</time></trkpt><trkpt lat="42.2877631" lon="13.6447664"><ele>775.6666666666667</ele><time>2026-05-03T08:43:40.399Z</time></trkpt><trkpt lat="42.287603" lon="13.6449749"><ele>776.0</ele><time>2026-05-03T08:43:41.4Z</time></trkpt><trkpt lat="42.2874559" lon="13.6451803"><ele>775.5</ele><time>2026-05-03T08:43:42.406Z</time></trkpt><trkpt lat="42.2872768" lon="13.6454293"><ele>775.0</ele><time>2026-05-03T08:43:43.394Z</time></trkpt><trkpt lat="42.2871098" lon="13.6456444"><ele>773.3333333333333</ele><time>2026-05-03T08:43:44.396Z</time></trkpt><trkpt lat="42.2869522" lon="13.6458553"><ele>771.6666666666667</ele><time>2026-05-03T08:43:45.399Z</time></trkpt><trkpt lat="42.2867916" lon="13.6460562"><ele>770.0</ele><time>2026-05-03T08:43:46.389Z</time></trkpt><trkpt lat="42.2866363" lon="13.6462632"><ele>770.0</ele><time>2026-05-03T08:43:47.393Z</time></trkpt><trkpt lat="42.2864781" lon="13.6464658"><ele>770.0</ele><time>2026-05-03T08:43:48.398Z</time></trkpt><trkpt lat="42.2863245" lon="13.646672"><ele>770.0</ele><time>2026-05-03T08:43:49.401Z</time></trkpt><trkpt lat="42.2861681" lon="13.6468805"><ele>768.0</ele><time>2026-05-03T08:43:50.4Z</time></trkpt><trkpt lat="42.2860053" lon="13.6470888"><ele>766.0</ele><time>2026-05-03T08:43:51.396Z</time></trkpt><trkpt lat="42.2858501" lon="13.6473029"><ele>764.0</ele><time>2026-05-03T08:43:52.399Z</time></trkpt><trkpt lat="42.2856946" lon="13.6475106"><ele>763.0</ele><time>2026-05-03T08:43:53.404Z</time></trkpt><trkpt lat="42.285533" lon="13.6477269"><ele>762.0</ele><time>2026-05-03T08:43:54.399Z</time></trkpt><trkpt lat="42.2853746" lon="13.6479365"><ele>761.0</ele><time>2026-05-03T08:43:55.412Z</time></trkpt><trkpt lat="42.2852079" lon="13.6481555"><ele>760.6666666666666</ele><time>2026-05-03T08:43:56.398Z</time></trkpt><trkpt lat="42.2850476" lon="13.6483698"><ele>760.3333333333334</ele><time>2026-05-03T08:43:57.401Z</time></trkpt><trkpt lat="42.2848913" lon="13.6485799"><ele>760.0</ele><time>2026-05-03T08:43:58.396Z</time></trkpt><trkpt lat="42.2847274" lon="13.6487899"><ele>760.0</ele><time>2026-05-03T08:43:59.399Z</time></trkpt><trkpt lat="42.284569" lon="13.648993"><ele>760.0</ele><time>2026-05-03T08:44:00.399Z</time></trkpt><trkpt lat="42.2844074" lon="13.6491904"><ele>760.0</ele><time>2026-05-03T08:44:01.402Z</time></trkpt><trkpt lat="42.28425" lon="13.649385"><ele>759.6666666666667</ele><time>2026-05-03T08:44:02.397Z</time></trkpt><trkpt lat="42.2840797" lon="13.6495768"><ele>759.3333333333334</ele><time>2026-05-03T08:44:03.401Z</time></trkpt><trkpt lat="42.2839179" lon="13.6497803"><ele>759.0</ele><time>2026-05-03T08:44:04.4Z</time></trkpt><trkpt lat="42.2837522" lon="13.6499784"><ele>758.0</ele><time>2026-05-03T08:44:05.403Z</time></trkpt><trkpt lat="42.2835858" lon="13.6501793"><ele>757.0</ele><time>2026-05-03T08:44:06.398Z</time></trkpt><trkpt lat="42.2834212" lon="13.6503862"><ele>756.0</ele><time>2026-05-03T08:44:07.396Z</time></trkpt><trkpt lat="42.2832609" lon="13.6505959"><ele>756.0</ele><time>2026-05-03T08:44:08.4Z</time></trkpt><trkpt lat="42.2831026" lon="13.6508025"><ele>756.0</ele><time>2026-05-03T08:44:09.399Z</time></trkpt><trkpt lat="42.282944" lon="13.6510187"><ele>756.0</ele><time>2026-05-03T08:44:10.399Z</time></trkpt><trkpt lat="42.282794" lon="13.6512324"><ele>755.6666666666666</ele><time>2026-05-03T08:44:11.4Z</time></trkpt><trkpt lat="42.2826419" lon="13.6514324"><ele>755.3333333333333</ele><time>2026-05-03T08:44:12.406Z</time></trkpt><trkpt lat="42.2824969" lon="13.6516332"><ele>755.0</ele><time>2026-05-03T08:44:13.421Z</time></trkpt><trkpt lat="42.2823527" lon="13.6518368"><ele>754.6666666666666</ele><time>2026-05-03T08:44:14.398Z</time></trkpt><trkpt lat="42.2822048" lon="13.652032"><ele>754.3333333333334</ele><time>2026-05-03T08:44:15.398Z</time></trkpt><trkpt lat="42.2820598" lon="13.6522185"><ele>754.0</ele><time>2026-05-03T08:44:16.396Z</time></trkpt><trkpt lat="42.2819096" lon="13.6524115"><ele>754.0</ele><time>2026-05-03T08:44:17.401Z</time></trkpt><trkpt lat="42.2817605" lon="13.6526082"><ele>754.0</ele><time>2026-05-03T08:44:18.399Z</time></trkpt><trkpt lat="42.2816261" lon="13.6528024"><ele>754.0</ele><time>2026-05-03T08:44:19.398Z</time></trkpt><trkpt lat="42.2814773" lon="13.6529928"><ele>752.6666666666667</ele><time>2026-05-03T08:44:20.398Z</time></trkpt><trkpt lat="42.2813384" lon="13.6531839"><ele>751.3333333333334</ele><time>2026-05-03T08:44:21.403Z</time></trkpt><trkpt lat="42.2812013" lon="13.6533754"><ele>750.0</ele><time>2026-05-03T08:44:22.393Z</time></trkpt><trkpt lat="42.2810598" lon="13.6535656"><ele>749.6666666666666</ele><time>2026-05-03T08:44:23.405Z</time></trkpt><trkpt lat="42.2809264" lon="13.6537526"><ele>749.3333333333333</ele><time>2026-05-03T08:44:24.403Z</time></trkpt><trkpt lat="42.2807848" lon="13.6539448"><ele>749.0</ele><time>2026-05-03T08:44:25.412Z</time></trkpt><trkpt lat="42.28064" lon="13.6541252"><ele>749.0</ele><time>2026-05-03T08:44:26.399Z</time></trkpt><trkpt lat="42.2804981" lon="13.6543213"><ele>749.0</ele><time>2026-05-03T08:44:27.397Z</time></trkpt><trkpt lat="42.2803691" lon="13.6545207"><ele>749.0</ele><time>2026-05-03T08:44:28.398Z</time></trkpt><trkpt lat="42.2802359" lon="13.6547211"><ele>750.3333333333333</ele><time>2026-05-03T08:44:29.402Z</time></trkpt><trkpt lat="42.2801053" lon="13.654914"><ele>751.6666666666666</ele><time>2026-05-03T08:44:30.398Z</time></trkpt><trkpt lat="42.2799714" lon="13.6551013"><ele>753.0</ele><time>2026-05-03T08:44:31.397Z</time></trkpt><trkpt lat="42.2798368" lon="13.6552759"><ele>753.0</ele><time>2026-05-03T08:44:32.4Z</time></trkpt><trkpt lat="42.2797131" lon="13.6554527"><ele>753.0</ele><time>2026-05-03T08:44:33.402Z</time></trkpt><trkpt lat="42.2795891" lon="13.6556248"><ele>753.0</ele><time>2026-05-03T08:44:34.401Z</time></trkpt><trkpt lat="42.2794684" lon="13.6557929"><ele>753.0</ele><time>2026-05-03T08:44:35.42Z</time></trkpt><trkpt lat="42.279343" lon="13.6559616"><ele>753.0</ele><time>2026-05-03T08:44:36.489Z</time></trkpt><trkpt lat="42.279216" lon="13.6561332"><ele>753.0</ele><time>2026-05-03T08:44:37.491Z</time></trkpt><trkpt lat="42.2790877" lon="13.6563046"><ele>752.0</ele><time>2026-05-03T08:44:38.486Z</time></trkpt><trkpt lat="42.2789581" lon="13.6564801"><ele>751.0</ele><time>2026-05-03T08:44:39.487Z</time></trkpt><trkpt lat="42.278828" lon="13.6566585"><ele>750.0</ele><time>2026-05-03T08:44:40.481Z</time></trkpt><trkpt lat="42.278696" lon="13.656836"><ele>751.3333333333334</ele><time>2026-05-03T08:44:41.479Z</time></trkpt><trkpt lat="42.2785621" lon="13.6570167"><ele>752.6666666666667</ele><time>2026-05-03T08:44:42.491Z</time></trkpt><trkpt lat="42.2784291" lon="13.6572003"><ele>754.0</ele><time>2026-05-03T08:44:43.478Z</time></trkpt><trkpt lat="42.2782946" lon="13.6573858"><ele>754.0</ele><time>2026-05-03T08:44:44.505Z</time></trkpt><trkpt lat="42.2781612" lon="13.6575717"><ele>754.0</ele><time>2026-05-03T08:44:45.483Z</time></trkpt><trkpt lat="42.2780272" lon="13.6577575"><ele>754.0</ele><time>2026-05-03T08:44:46.482Z</time></trkpt><trkpt lat="42.2778758" lon="13.6579289"><ele>752.0</ele><time>2026-05-03T08:44:47.483Z</time></trkpt><trkpt lat="42.2777347" lon="13.6581123"><ele>750.0</ele><time>2026-05-03T08:44:48.483Z</time></trkpt><trkpt lat="42.277598" lon="13.6582965"><ele>748.0</ele><time>2026-05-03T08:44:49.489Z</time></trkpt><trkpt lat="42.2774607" lon="13.6584778"><ele>748.0</ele><time>2026-05-03T08:44:50.486Z</time></trkpt><trkpt lat="42.2773229" lon="13.6586582"><ele>748.0</ele><time>2026-05-03T08:44:51.479Z</time></trkpt><trkpt lat="42.2771857" lon="13.6588399"><ele>748.0</ele><time>2026-05-03T08:44:52.663Z</time></trkpt><trkpt lat="42.2770476" lon="13.6590206"><ele>748.0</ele><time>2026-05-03T08:44:53.484Z</time></trkpt><trkpt lat="42.2769088" lon="13.6592055"><ele>748.0</ele><time>2026-05-03T08:44:54.487Z</time></trkpt><trkpt lat="42.2767712" lon="13.6593876"><ele>748.0</ele><time>2026-05-03T08:44:55.495Z</time></trkpt><trkpt lat="42.2766343" lon="13.6595695"><ele>746.6666666666667</ele><time>2026-05-03T08:44:56.483Z</time></trkpt><trkpt lat="42.2764961" lon="13.6597529"><ele>745.3333333333334</ele><time>2026-05-03T08:44:57.488Z</time></trkpt><trkpt lat="42.2763553" lon="13.6599305"><ele>744.0</ele><time>2026-05-03T08:44:58.484Z</time></trkpt><trkpt lat="42.2762102" lon="13.6601035"><ele>744.0</ele><time>2026-05-03T08:44:59.489Z</time></trkpt><trkpt lat="42.2760623" lon="13.6602734"><ele>744.0</ele><time>2026-05-03T08:45:00.484Z</time></trkpt><trkpt lat="42.2759125" lon="13.6604392"><ele>744.0</ele><time>2026-05-03T08:45:01.485Z</time></trkpt><trkpt lat="42.2757601" lon="13.6605983"><ele>744.3333333333334</ele><time>2026-05-03T08:45:02.489Z</time></trkpt><trkpt lat="42.2756019" lon="13.6607586"><ele>744.6666666666667</ele><time>2026-05-03T08:45:03.489Z</time></trkpt><trkpt lat="42.2754425" lon="13.6609185"><ele>745.0</ele><time>2026-05-03T08:45:04.484Z</time></trkpt><trkpt lat="42.2752827" lon="13.6610792"><ele>744.0</ele><time>2026-05-03T08:45:05.49Z</time></trkpt><trkpt lat="42.2751203" lon="13.6612427"><ele>743.0</ele><time>2026-05-03T08:45:06.483Z</time></trkpt><trkpt lat="42.2749595" lon="13.6614048"><ele>742.0</ele><time>2026-05-03T08:45:07.487Z</time></trkpt><trkpt lat="42.2747985" lon="13.6615653"><ele>742.3333333333334</ele><time>2026-05-03T08:45:08.483Z</time></trkpt><trkpt lat="42.2746325" lon="13.6617359"><ele>742.6666666666666</ele><time>2026-05-03T08:45:09.484Z</time></trkpt><trkpt lat="42.2744752" lon="13.6619004"><ele>743.0</ele><time>2026-05-03T08:45:10.48Z</time></trkpt><trkpt lat="42.2743185" lon="13.6620735"><ele>743.0</ele><time>2026-05-03T08:45:11.484Z</time></trkpt><trkpt lat="42.2741635" lon="13.6622521"><ele>743.0</ele><time>2026-05-03T08:45:12.495Z</time></trkpt><trkpt lat="42.2740098" lon="13.6624372"><ele>743.0</ele><time>2026-05-03T08:45:13.49Z</time></trkpt><trkpt lat="42.2738571" lon="13.6626282"><ele>742.6666666666666</ele><time>2026-05-03T08:45:14.489Z</time></trkpt><trkpt lat="42.273706" lon="13.6628241"><ele>742.3333333333334</ele><time>2026-05-03T08:45:15.508Z</time></trkpt><trkpt lat="42.2735595" lon="13.6630242"><ele>742.0</ele><time>2026-05-03T08:45:16.487Z</time></trkpt><trkpt lat="42.273417" lon="13.6632308"><ele>742.0</ele><time>2026-05-03T08:45:17.488Z</time></trkpt><trkpt lat="42.2732768" lon="13.6634432"><ele>742.0</ele><time>2026-05-03T08:45:18.49Z</time></trkpt><trkpt lat="42.2731382" lon="13.6636599"><ele>742.0</ele><time>2026-05-03T08:45:19.489Z</time></trkpt><trkpt lat="42.2730055" lon="13.6638812"><ele>742.0</ele><time>2026-05-03T08:45:20.487Z</time></trkpt><trkpt lat="42.272878" lon="13.6641091"><ele>742.0</ele><time>2026-05-03T08:45:21.488Z</time></trkpt><trkpt lat="42.2727519" lon="13.664339"><ele>742.0</ele><time>2026-05-03T08:45:22.486Z</time></trkpt><trkpt lat="42.2726334" lon="13.6645739"><ele>742.0</ele><time>2026-05-03T08:45:23.487Z</time></trkpt><trkpt lat="42.2725206" lon="13.6648139"><ele>742.0</ele><time>2026-05-03T08:45:24.478Z</time></trkpt><trkpt lat="42.2724116" lon="13.6650594"><ele>742.0</ele><time>2026-05-03T08:45:25.512Z</time></trkpt><trkpt lat="42.2723075" lon="13.6653054"><ele>742.6666666666667</ele><time>2026-05-03T08:45:26.485Z</time></trkpt><trkpt lat="42.272203" lon="13.6655561"><ele>743.3333333333334</ele><time>2026-05-03T08:45:27.488Z</time></trkpt><trkpt lat="42.2720976" lon="13.6658052"><ele>744.0</ele><time>2026-05-03T08:45:28.488Z</time></trkpt><trkpt lat="42.2719925" lon="13.6660554"><ele>743.0</ele><time>2026-05-03T08:45:29.488Z</time></trkpt><trkpt lat="42.2718857" lon="13.6663035"><ele>742.0</ele><time>2026-05-03T08:45:30.486Z</time></trkpt><trkpt lat="42.2717769" lon="13.6665504"><ele>741.0</ele><time>2026-05-03T08:45:31.489Z</time></trkpt><trkpt lat="42.2716669" lon="13.6667958"><ele>740.6666666666666</ele><time>2026-05-03T08:45:32.486Z</time></trkpt><trkpt lat="42.2715536" lon="13.6670384"><ele>740.3333333333333</ele><time>2026-05-03T08:45:33.488Z</time></trkpt><trkpt lat="42.2714331" lon="13.667277"><ele>740.0</ele><time>2026-05-03T08:45:34.481Z</time></trkpt><trkpt lat="42.2713107" lon="13.6675085"><ele>739.6666666666666</ele><time>2026-05-03T08:45:35.488Z</time></trkpt><trkpt lat="42.2711823" lon="13.6677388"><ele>739.3333333333334</ele><time>2026-05-03T08:45:36.478Z</time></trkpt><trkpt lat="42.2710527" lon="13.6679656"><ele>739.0</ele><time>2026-05-03T08:45:37.489Z</time></trkpt><trkpt lat="42.2709203" lon="13.6681875"><ele>739.0</ele><time>2026-05-03T08:45:38.48Z</time></trkpt><trkpt lat="42.2707831" lon="13.6684081"><ele>739.0</ele><time>2026-05-03T08:45:39.486Z</time></trkpt><trkpt lat="42.2706426" lon="13.6686233"><ele>739.0</ele><time>2026-05-03T08:45:40.476Z</time></trkpt><trkpt lat="42.2704964" lon="13.6688326"><ele>739.3333333333334</ele><time>2026-05-03T08:45:41.48Z</time></trkpt><trkpt lat="42.2703423" lon="13.6690391"><ele>739.6666666666666</ele><time>2026-05-03T08:45:42.485Z</time></trkpt><trkpt lat="42.2701836" lon="13.6692405"><ele>740.0</ele><time>2026-05-03T08:45:43.487Z</time></trkpt><trkpt lat="42.2700226" lon="13.6694367"><ele>740.3333333333333</ele><time>2026-05-03T08:45:44.488Z</time></trkpt><trkpt lat="42.2698613" lon="13.6696279"><ele>740.6666666666666</ele><time>2026-05-03T08:45:45.483Z</time></trkpt><trkpt lat="42.2696986" lon="13.6698113"><ele>741.0</ele><time>2026-05-03T08:45:46.504Z</time></trkpt><trkpt lat="42.2695308" lon="13.6699905"><ele>741.0</ele><time>2026-05-03T08:45:47.485Z</time></trkpt><trkpt lat="42.2693606" lon="13.6701645"><ele>741.0</ele><time>2026-05-03T08:45:48.488Z</time></trkpt><trkpt lat="42.269192" lon="13.6703317"><ele>741.0</ele><time>2026-05-03T08:45:49.49Z</time></trkpt><trkpt lat="42.2690202" lon="13.6704954"><ele>740.6666666666666</ele><time>2026-05-03T08:45:50.492Z</time></trkpt><trkpt lat="42.2688492" lon="13.6706563"><ele>740.3333333333333</ele><time>2026-05-03T08:45:51.491Z</time></trkpt><trkpt lat="42.2686801" lon="13.6708109"><ele>740.0</ele><time>2026-05-03T08:45:52.488Z</time></trkpt><trkpt lat="42.2685062" lon="13.6709671"><ele>740.0</ele><time>2026-05-03T08:45:53.491Z</time></trkpt><trkpt lat="42.2683352" lon="13.6711247"><ele>740.0</ele><time>2026-05-03T08:45:54.492Z</time></trkpt><trkpt lat="42.2681645" lon="13.6712856"><ele>740.0</ele><time>2026-05-03T08:45:55.503Z</time></trkpt><trkpt lat="42.2679971" lon="13.6714465"><ele>740.6666666666666</ele><time>2026-05-03T08:45:56.488Z</time></trkpt><trkpt lat="42.2678331" lon="13.671612"><ele>741.3333333333334</ele><time>2026-05-03T08:45:57.497Z</time></trkpt><trkpt lat="42.2676706" lon="13.671777"><ele>742.0</ele><time>2026-05-03T08:45:58.494Z</time></trkpt><trkpt lat="42.2675142" lon="13.6719453"><ele>742.0</ele><time>2026-05-03T08:45:59.485Z</time></trkpt><trkpt lat="42.2673628" lon="13.6721149"><ele>742.0</ele><time>2026-05-03T08:46:00.487Z</time></trkpt><trkpt lat="42.2672142" lon="13.6722927"><ele>742.0</ele><time>2026-05-03T08:46:01.486Z</time></trkpt><trkpt lat="42.2670649" lon="13.6724769"><ele>742.6666666666667</ele><time>2026-05-03T08:46:02.489Z</time></trkpt><trkpt lat="42.2669154" lon="13.6726652"><ele>743.3333333333334</ele><time>2026-05-03T08:46:03.49Z</time></trkpt><trkpt lat="42.266768" lon="13.6728556"><ele>744.0</ele><time>2026-05-03T08:46:04.494Z</time></trkpt><trkpt lat="42.2666211" lon="13.6730475"><ele>744.0</ele><time>2026-05-03T08:46:05.498Z</time></trkpt><trkpt lat="42.2664759" lon="13.6732382"><ele>744.0</ele><time>2026-05-03T08:46:06.494Z</time></trkpt><trkpt lat="42.2663327" lon="13.673425"><ele>744.0</ele><time>2026-05-03T08:46:07.495Z</time></trkpt><trkpt lat="42.2661921" lon="13.6736091"><ele>743.3333333333334</ele><time>2026-05-03T08:46:08.496Z</time></trkpt><trkpt lat="42.2660565" lon="13.6737854"><ele>742.6666666666667</ele><time>2026-05-03T08:46:09.489Z</time></trkpt><trkpt lat="42.2659278" lon="13.6739507"><ele>742.0</ele><time>2026-05-03T08:46:10.491Z</time></trkpt><trkpt lat="42.2658056" lon="13.674109"><ele>742.0</ele><time>2026-05-03T08:46:11.499Z</time></trkpt><trkpt lat="42.2656925" lon="13.674258"><ele>742.0</ele><time>2026-05-03T08:46:12.497Z</time></trkpt><trkpt lat="42.2655872" lon="13.674391"><ele>742.0</ele><time>2026-05-03T08:46:13.473Z</time></trkpt><trkpt lat="42.2654838" lon="13.6744977"><ele>742.0</ele><time>2026-05-03T08:46:14.495Z</time></trkpt><trkpt lat="42.2653766" lon="13.6745777"><ele>742.0</ele><time>2026-05-03T08:46:15.494Z</time></trkpt><trkpt lat="42.2652592" lon="13.674631"><ele>742.0</ele><time>2026-05-03T08:46:16.469Z</time></trkpt><trkpt lat="42.265136" lon="13.6746768"><ele>742.0</ele><time>2026-05-03T08:46:17.484Z</time></trkpt><trkpt lat="42.2650206" lon="13.6747395"><ele>742.0</ele><time>2026-05-03T08:46:18.473Z</time></trkpt><trkpt lat="42.264916" lon="13.6748271"><ele>742.0</ele><time>2026-05-03T08:46:19.473Z</time></trkpt><trkpt lat="42.2648237" lon="13.6749353"><ele>742.0</ele><time>2026-05-03T08:46:20.493Z</time></trkpt><trkpt lat="42.2647466" lon="13.6750641"><ele>742.0</ele><time>2026-05-03T08:46:21.491Z</time></trkpt><trkpt lat="42.2646769" lon="13.6752117"><ele>742.0</ele><time>2026-05-03T08:46:22.469Z</time></trkpt><trkpt lat="42.2646156" lon="13.6753789"><ele>742.3333333333334</ele><time>2026-05-03T08:46:23.468Z</time></trkpt><trkpt lat="42.2645582" lon="13.6755542"><ele>742.6666666666666</ele><time>2026-05-03T08:46:24.467Z</time></trkpt><trkpt lat="42.2644887" lon="13.6757388"><ele>743.0</ele><time>2026-05-03T08:46:25.476Z</time></trkpt><trkpt lat="42.2643999" lon="13.6759227"><ele>743.0</ele><time>2026-05-03T08:46:26.487Z</time></trkpt><trkpt lat="42.2642834" lon="13.6761021"><ele>743.0</ele><time>2026-05-03T08:46:27.476Z</time></trkpt><trkpt lat="42.264151" lon="13.6762961"><ele>743.0</ele><time>2026-05-03T08:46:28.456Z</time></trkpt><trkpt lat="42.2640252" lon="13.6764656"><ele>743.3333333333333</ele><time>2026-05-03T08:46:29.468Z</time></trkpt><trkpt lat="42.2638982" lon="13.6766389"><ele>743.6666666666666</ele><time>2026-05-03T08:46:30.473Z</time></trkpt><trkpt lat="42.2637671" lon="13.6768159"><ele>744.0</ele><time>2026-05-03T08:46:31.475Z</time></trkpt><trkpt lat="42.263621" lon="13.6769964"><ele>744.0</ele><time>2026-05-03T08:46:32.491Z</time></trkpt><trkpt lat="42.2634776" lon="13.6771783"><ele>744.0</ele><time>2026-05-03T08:46:33.496Z</time></trkpt><trkpt lat="42.2633277" lon="13.677366"><ele>744.0</ele><time>2026-05-03T08:46:34.491Z</time></trkpt><trkpt lat="42.2631776" lon="13.6775565"><ele>744.0</ele><time>2026-05-03T08:46:35.496Z</time></trkpt><trkpt lat="42.2630247" lon="13.6777518"><ele>744.0</ele><time>2026-05-03T08:46:36.495Z</time></trkpt><trkpt lat="42.2628682" lon="13.6779494"><ele>744.0</ele><time>2026-05-03T08:46:37.499Z</time></trkpt><trkpt lat="42.2627098" lon="13.6781489"><ele>743.6666666666666</ele><time>2026-05-03T08:46:38.502Z</time></trkpt><trkpt lat="42.26255" lon="13.678353"><ele>743.3333333333333</ele><time>2026-05-03T08:46:39.496Z</time></trkpt><trkpt lat="42.26239" lon="13.678556"><ele>743.0</ele><time>2026-05-03T08:46:40.486Z</time></trkpt><trkpt lat="42.2622318" lon="13.6787599"><ele>742.3333333333333</ele><time>2026-05-03T08:46:41.487Z</time></trkpt><trkpt lat="42.2620761" lon="13.678961"><ele>741.6666666666666</ele><time>2026-05-03T08:46:42.491Z</time></trkpt><trkpt lat="42.2619212" lon="13.6791614"><ele>741.0</ele><time>2026-05-03T08:46:43.488Z</time></trkpt><trkpt lat="42.2617693" lon="13.6793529"><ele>740.3333333333334</ele><time>2026-05-03T08:46:44.491Z</time></trkpt><trkpt lat="42.2616171" lon="13.6795464"><ele>739.6666666666667</ele><time>2026-05-03T08:46:45.491Z</time></trkpt><trkpt lat="42.2614652" lon="13.6797395"><ele>739.0</ele><time>2026-05-03T08:46:46.496Z</time></trkpt><trkpt lat="42.261314" lon="13.6799345"><ele>739.6666666666667</ele><time>2026-05-03T08:46:47.496Z</time></trkpt><trkpt lat="42.2611617" lon="13.6801308"><ele>740.3333333333334</ele><time>2026-05-03T08:46:48.515Z</time></trkpt><trkpt lat="42.2610095" lon="13.6803255"><ele>741.0</ele><time>2026-05-03T08:46:49.493Z</time></trkpt><trkpt lat="42.2608579" lon="13.6805219"><ele>741.0</ele><time>2026-05-03T08:46:50.498Z</time></trkpt><trkpt lat="42.2607073" lon="13.6807191"><ele>741.0</ele><time>2026-05-03T08:46:51.496Z</time></trkpt><trkpt lat="42.2605577" lon="13.6809153"><ele>741.0</ele><time>2026-05-03T08:46:52.492Z</time></trkpt><trkpt lat="42.2604068" lon="13.6811117"><ele>740.3333333333334</ele><time>2026-05-03T08:46:53.495Z</time></trkpt><trkpt lat="42.260256" lon="13.6813081"><ele>739.6666666666667</ele><time>2026-05-03T08:46:54.491Z</time></trkpt><trkpt lat="42.2601058" lon="13.6815035"><ele>739.0</ele><time>2026-05-03T08:46:55.507Z</time></trkpt><trkpt lat="42.2599556" lon="13.6816974"><ele>739.0</ele><time>2026-05-03T08:46:56.502Z</time></trkpt><trkpt lat="42.2598033" lon="13.6818952"><ele>739.0</ele><time>2026-05-03T08:46:57.498Z</time></trkpt><trkpt lat="42.259651" lon="13.6820912"><ele>739.0</ele><time>2026-05-03T08:46:58.503Z</time></trkpt><trkpt lat="42.2594951" lon="13.6822913"><ele>738.3333333333334</ele><time>2026-05-03T08:46:59.502Z</time></trkpt><trkpt lat="42.2593397" lon="13.6824932"><ele>737.6666666666666</ele><time>2026-05-03T08:47:00.498Z</time></trkpt><trkpt lat="42.2591871" lon="13.6826947"><ele>737.0</ele><time>2026-05-03T08:47:01.495Z</time></trkpt><trkpt lat="42.259038" lon="13.6828906"><ele>736.6666666666666</ele><time>2026-05-03T08:47:02.491Z</time></trkpt><trkpt lat="42.2588955" lon="13.683077"><ele>736.3333333333334</ele><time>2026-05-03T08:47:03.491Z</time></trkpt><trkpt lat="42.2587627" lon="13.6832552"><ele>736.0</ele><time>2026-05-03T08:47:04.495Z</time></trkpt><trkpt lat="42.2586383" lon="13.683421"><ele>736.6666666666667</ele><time>2026-05-03T08:47:05.494Z</time></trkpt><trkpt lat="42.2585348" lon="13.6836118"><ele>737.3333333333334</ele><time>2026-05-03T08:47:06.404Z</time></trkpt><trkpt lat="42.2584207" lon="13.6837532"><ele>738.0</ele><time>2026-05-03T08:47:07.404Z</time></trkpt><trkpt lat="42.2582979" lon="13.6838574"><ele>738.0</ele><time>2026-05-03T08:47:08.406Z</time></trkpt><trkpt lat="42.2581632" lon="13.6839235"><ele>738.0</ele><time>2026-05-03T08:47:09.403Z</time></trkpt><trkpt lat="42.2580307" lon="13.6839882"><ele>738.0</ele><time>2026-05-03T08:47:10.402Z</time></trkpt><trkpt lat="42.2579049" lon="13.6840607"><ele>738.0</ele><time>2026-05-03T08:47:11.394Z</time></trkpt><trkpt lat="42.2577853" lon="13.6841624"><ele>737.75</ele><time>2026-05-03T08:47:12.391Z</time></trkpt><trkpt lat="42.2576892" lon="13.6842882"><ele>737.5</ele><time>2026-05-03T08:47:13.4Z</time></trkpt><trkpt lat="42.2576091" lon="13.6844388"><ele>737.25</ele><time>2026-05-03T08:47:14.398Z</time></trkpt><trkpt lat="42.2575311" lon="13.684598"><ele>737.0</ele><time>2026-05-03T08:47:15.393Z</time></trkpt><trkpt lat="42.2574634" lon="13.6847833"><ele>736.6666666666666</ele><time>2026-05-03T08:47:16.398Z</time></trkpt><trkpt lat="42.2574108" lon="13.6849876"><ele>736.3333333333334</ele><time>2026-05-03T08:47:17.401Z</time></trkpt><trkpt lat="42.2573365" lon="13.6851731"><ele>736.0</ele><time>2026-05-03T08:47:18.386Z</time></trkpt><trkpt lat="42.2572325" lon="13.685339"><ele>734.6666666666667</ele><time>2026-05-03T08:47:19.403Z</time></trkpt><trkpt lat="42.2571127" lon="13.6855067"><ele>733.3333333333334</ele><time>2026-05-03T08:47:20.408Z</time></trkpt><trkpt lat="42.2569809" lon="13.6856581"><ele>732.0</ele><time>2026-05-03T08:47:21.406Z</time></trkpt><trkpt lat="42.2568517" lon="13.6858284"><ele>732.0</ele><time>2026-05-03T08:47:22.398Z</time></trkpt><trkpt lat="42.2567201" lon="13.686002"><ele>732.0</ele><time>2026-05-03T08:47:23.402Z</time></trkpt><trkpt lat="42.2565849" lon="13.6861828"><ele>732.0</ele><time>2026-05-03T08:47:24.4Z</time></trkpt><trkpt lat="42.2564497" lon="13.6863604"><ele>731.3333333333334</ele><time>2026-05-03T08:47:25.42Z</time></trkpt><trkpt lat="42.2563141" lon="13.6865416"><ele>730.6666666666667</ele><time>2026-05-03T08:47:26.406Z</time></trkpt><trkpt lat="42.2561702" lon="13.6867351"><ele>730.0</ele><time>2026-05-03T08:47:27.41Z</time></trkpt><trkpt lat="42.2560256" lon="13.6869154"><ele>730.3333333333334</ele><time>2026-05-03T08:47:28.407Z</time></trkpt><trkpt lat="42.2558794" lon="13.6871052"><ele>730.6666666666666</ele><time>2026-05-03T08:47:29.408Z</time></trkpt><trkpt lat="42.2557321" lon="13.6872913"><ele>731.0</ele><time>2026-05-03T08:47:30.406Z</time></trkpt><trkpt lat="42.2555848" lon="13.6874892"><ele>730.6666666666666</ele><time>2026-05-03T08:47:31.408Z</time></trkpt><trkpt lat="42.2554411" lon="13.6876855"><ele>730.3333333333334</ele><time>2026-05-03T08:47:32.407Z</time></trkpt><trkpt lat="42.2552969" lon="13.6878785"><ele>730.0</ele><time>2026-05-03T08:47:33.408Z</time></trkpt><trkpt lat="42.2551568" lon="13.6880784"><ele>730.0</ele><time>2026-05-03T08:47:34.408Z</time></trkpt><trkpt lat="42.2550067" lon="13.6882706"><ele>730.0</ele><time>2026-05-03T08:47:35.405Z</time></trkpt><trkpt lat="42.2548555" lon="13.688463"><ele>730.0</ele><time>2026-05-03T08:47:36.405Z</time></trkpt><trkpt lat="42.2547088" lon="13.6886704"><ele>730.0</ele><time>2026-05-03T08:47:37.409Z</time></trkpt><trkpt lat="42.2545576" lon="13.6888662"><ele>730.0</ele><time>2026-05-03T08:47:38.405Z</time></trkpt><trkpt lat="42.2544017" lon="13.6890718"><ele>730.0</ele><time>2026-05-03T08:47:39.409Z</time></trkpt><trkpt lat="42.2542455" lon="13.6892738"><ele>730.0</ele><time>2026-05-03T08:47:40.408Z</time></trkpt><trkpt lat="42.2541001" lon="13.6894776"><ele>730.0</ele><time>2026-05-03T08:47:41.409Z</time></trkpt><trkpt lat="42.2539429" lon="13.6896786"><ele>730.0</ele><time>2026-05-03T08:47:42.403Z</time></trkpt><trkpt lat="42.2537912" lon="13.6898893"><ele>729.3333333333334</ele><time>2026-05-03T08:47:43.403Z</time></trkpt><trkpt lat="42.2536359" lon="13.6900909"><ele>728.6666666666666</ele><time>2026-05-03T08:47:44.404Z</time></trkpt><trkpt lat="42.2534808" lon="13.690288"><ele>728.0</ele><time>2026-05-03T08:47:45.408Z</time></trkpt><trkpt lat="42.2533314" lon="13.6904917"><ele>727.3333333333333</ele><time>2026-05-03T08:47:46.405Z</time></trkpt><trkpt lat="42.253178" lon="13.6906966"><ele>726.6666666666666</ele><time>2026-05-03T08:47:47.402Z</time></trkpt><trkpt lat="42.2530231" lon="13.6909034"><ele>726.0</ele><time>2026-05-03T08:47:48.402Z</time></trkpt><trkpt lat="42.2528685" lon="13.6911075"><ele>726.0</ele><time>2026-05-03T08:47:49.405Z</time></trkpt><trkpt lat="42.2527127" lon="13.6913026"><ele>726.0</ele><time>2026-05-03T08:47:50.43Z</time></trkpt><trkpt lat="42.2525571" lon="13.6915037"><ele>726.0</ele><time>2026-05-03T08:47:51.406Z</time></trkpt><trkpt lat="42.252405" lon="13.6917063"><ele>726.3333333333334</ele><time>2026-05-03T08:47:52.404Z</time></trkpt><trkpt lat="42.2522465" lon="13.6919116"><ele>726.6666666666667</ele><time>2026-05-03T08:47:53.409Z</time></trkpt><trkpt lat="42.252097" lon="13.6921068"><ele>727.0</ele><time>2026-05-03T08:47:54.408Z</time></trkpt><trkpt lat="42.2519447" lon="13.6923099"><ele>727.0</ele><time>2026-05-03T08:47:55.416Z</time></trkpt><trkpt lat="42.2517882" lon="13.6925132"><ele>727.0</ele><time>2026-05-03T08:47:56.4Z</time></trkpt><trkpt lat="42.251635" lon="13.6927139"><ele>727.0</ele><time>2026-05-03T08:47:57.4Z</time></trkpt><trkpt lat="42.2514853" lon="13.6929173"><ele>726.0</ele><time>2026-05-03T08:47:58.406Z</time></trkpt><trkpt lat="42.251329" lon="13.6931177"><ele>725.0</ele><time>2026-05-03T08:47:59.401Z</time></trkpt><trkpt lat="42.2511756" lon="13.6933208"><ele>724.0</ele><time>2026-05-03T08:48:00.401Z</time></trkpt><trkpt lat="42.251017" lon="13.6935215"><ele>724.3333333333334</ele><time>2026-05-03T08:48:01.402Z</time></trkpt><trkpt lat="42.2508593" lon="13.6937191"><ele>724.6666666666666</ele><time>2026-05-03T08:48:02.403Z</time></trkpt><trkpt lat="42.2507148" lon="13.6939275"><ele>725.0</ele><time>2026-05-03T08:48:03.402Z</time></trkpt><trkpt lat="42.25057" lon="13.6941291"><ele>725.0</ele><time>2026-05-03T08:48:04.403Z</time></trkpt><trkpt lat="42.2504178" lon="13.6943249"><ele>725.0</ele><time>2026-05-03T08:48:05.405Z</time></trkpt><trkpt lat="42.2502708" lon="13.6945239"><ele>725.0</ele><time>2026-05-03T08:48:06.404Z</time></trkpt><trkpt lat="42.2501297" lon="13.6947227"><ele>726.0</ele><time>2026-05-03T08:48:07.404Z</time></trkpt><trkpt lat="42.2499907" lon="13.6949249"><ele>727.0</ele><time>2026-05-03T08:48:08.401Z</time></trkpt><trkpt lat="42.2498532" lon="13.6951254"><ele>728.0</ele><time>2026-05-03T08:48:09.401Z</time></trkpt><trkpt lat="42.2497264" lon="13.695327"><ele>728.0</ele><time>2026-05-03T08:48:10.404Z</time></trkpt><trkpt lat="42.2495983" lon="13.6955305"><ele>728.0</ele><time>2026-05-03T08:48:11.404Z</time></trkpt><trkpt lat="42.2494661" lon="13.695726"><ele>728.0</ele><time>2026-05-03T08:48:12.402Z</time></trkpt><trkpt lat="42.249329" lon="13.6959244"><ele>727.3333333333333</ele><time>2026-05-03T08:48:13.407Z</time></trkpt><trkpt lat="42.2491836" lon="13.696119"><ele>726.6666666666666</ele><time>2026-05-03T08:48:14.402Z</time></trkpt><trkpt lat="42.2490427" lon="13.6963045"><ele>726.0</ele><time>2026-05-03T08:48:15.402Z</time></trkpt><trkpt lat="42.2488995" lon="13.6964878"><ele>725.6666666666666</ele><time>2026-05-03T08:48:16.403Z</time></trkpt><trkpt lat="42.2487549" lon="13.6966625"><ele>725.3333333333333</ele><time>2026-05-03T08:48:17.407Z</time></trkpt><trkpt lat="42.248624" lon="13.6968297"><ele>725.0</ele><time>2026-05-03T08:48:18.403Z</time></trkpt><trkpt lat="42.2484921" lon="13.6969877"><ele>724.6666666666666</ele><time>2026-05-03T08:48:19.403Z</time></trkpt><trkpt lat="42.2483737" lon="13.6971323"><ele>724.3333333333334</ele><time>2026-05-03T08:48:20.402Z</time></trkpt><trkpt lat="42.2482597" lon="13.6972647"><ele>724.0</ele><time>2026-05-03T08:48:21.422Z</time></trkpt><trkpt lat="42.2481536" lon="13.6973921"><ele>724.75</ele><time>2026-05-03T08:48:22.397Z</time></trkpt><trkpt lat="42.2480393" lon="13.6974987"><ele>725.5</ele><time>2026-05-03T08:48:23.403Z</time></trkpt><trkpt lat="42.2479181" lon="13.6975736"><ele>726.25</ele><time>2026-05-03T08:48:24.405Z</time></trkpt><trkpt lat="42.2477942" lon="13.6976218"><ele>727.0</ele><time>2026-05-03T08:48:25.428Z</time></trkpt><trkpt lat="42.2476696" lon="13.6976635"><ele>727.0</ele><time>2026-05-03T08:48:26.404Z</time></trkpt><trkpt lat="42.2475502" lon="13.6977175"><ele>727.0</ele><time>2026-05-03T08:48:27.394Z</time></trkpt><trkpt lat="42.2474252" lon="13.6977986"><ele>727.0</ele><time>2026-05-03T08:48:28.4Z</time></trkpt><trkpt lat="42.2473192" lon="13.6979151"><ele>727.0</ele><time>2026-05-03T08:48:29.403Z</time></trkpt><trkpt lat="42.2472284" lon="13.6980458"><ele>727.0</ele><time>2026-05-03T08:48:30.401Z</time></trkpt><trkpt lat="42.2471491" lon="13.6982177"><ele>727.0</ele><time>2026-05-03T08:48:31.399Z</time></trkpt><trkpt lat="42.2470828" lon="13.6984108"><ele>727.0</ele><time>2026-05-03T08:48:32.4Z</time></trkpt><trkpt lat="42.2470335" lon="13.6985979"><ele>726.3333333333334</ele><time>2026-05-03T08:48:33.393Z</time></trkpt><trkpt lat="42.2469495" lon="13.6987764"><ele>725.6666666666666</ele><time>2026-05-03T08:48:34.384Z</time></trkpt><trkpt lat="42.246841" lon="13.6989413"><ele>725.0</ele><time>2026-05-03T08:48:35.399Z</time></trkpt><trkpt lat="42.2467087" lon="13.6990927"><ele>725.0</ele><time>2026-05-03T08:48:36.393Z</time></trkpt><trkpt lat="42.2465676" lon="13.6992392"><ele>725.0</ele><time>2026-05-03T08:48:37.399Z</time></trkpt><trkpt lat="42.2464286" lon="13.6993911"><ele>725.0</ele><time>2026-05-03T08:48:38.397Z</time></trkpt><trkpt lat="42.2462914" lon="13.6995514"><ele>724.6666666666666</ele><time>2026-05-03T08:48:39.4Z</time></trkpt><trkpt lat="42.2461541" lon="13.6997117"><ele>724.3333333333334</ele><time>2026-05-03T08:48:40.4Z</time></trkpt><trkpt lat="42.2460093" lon="13.6998763"><ele>724.0</ele><time>2026-05-03T08:48:41.402Z</time></trkpt><trkpt lat="42.2458643" lon="13.7000373"><ele>724.0</ele><time>2026-05-03T08:48:42.401Z</time></trkpt><trkpt lat="42.2457096" lon="13.7001949"><ele>724.0</ele><time>2026-05-03T08:48:43.395Z</time></trkpt><trkpt lat="42.2455616" lon="13.7003632"><ele>724.0</ele><time>2026-05-03T08:48:44.403Z</time></trkpt><trkpt lat="42.2454052" lon="13.7005233"><ele>724.3333333333334</ele><time>2026-05-03T08:48:45.401Z</time></trkpt><trkpt lat="42.2452448" lon="13.7006883"><ele>724.6666666666666</ele><time>2026-05-03T08:48:46.397Z</time></trkpt><trkpt lat="42.245081" lon="13.7008523"><ele>725.0</ele><time>2026-05-03T08:48:47.401Z</time></trkpt><trkpt lat="42.2449098" lon="13.7010156"><ele>726.0</ele><time>2026-05-03T08:48:48.399Z</time></trkpt><trkpt lat="42.2447365" lon="13.7011728"><ele>727.0</ele><time>2026-05-03T08:48:49.397Z</time></trkpt><trkpt lat="42.2445597" lon="13.7013343"><ele>728.0</ele><time>2026-05-03T08:48:50.385Z</time></trkpt><trkpt lat="42.244392" lon="13.7015029"><ele>728.0</ele><time>2026-05-03T08:48:51.382Z</time></trkpt><trkpt lat="42.2442139" lon="13.7016678"><ele>728.0</ele><time>2026-05-03T08:48:52.397Z</time></trkpt><trkpt lat="42.244032" lon="13.701826"><ele>728.0</ele><time>2026-05-03T08:48:53.38Z</time></trkpt><trkpt lat="42.2438527" lon="13.7019944"><ele>726.0</ele><time>2026-05-03T08:48:54.377Z</time></trkpt><trkpt lat="42.2436612" lon="13.7021544"><ele>724.0</ele><time>2026-05-03T08:48:55.393Z</time></trkpt><trkpt lat="42.2434667" lon="13.7023141"><ele>724.0</ele><time>2026-05-03T08:48:56.372Z</time></trkpt><trkpt lat="42.2432777" lon="13.7024667"><ele>724.0</ele><time>2026-05-03T08:48:57.377Z</time></trkpt><trkpt lat="42.2430895" lon="13.7026157"><ele>724.0</ele><time>2026-05-03T08:48:58.377Z</time></trkpt><trkpt lat="42.2429042" lon="13.702782"><ele>722.0</ele><time>2026-05-03T08:48:59.372Z</time></trkpt><trkpt lat="42.2427087" lon="13.7029337"><ele>720.0</ele><time>2026-05-03T08:49:00.378Z</time></trkpt><trkpt lat="42.2425262" lon="13.7031009"><ele>718.0</ele><time>2026-05-03T08:49:01.377Z</time></trkpt><trkpt lat="42.2423327" lon="13.7032743"><ele>714.0</ele><time>2026-05-03T08:49:02.38Z</time></trkpt><trkpt lat="42.2421495" lon="13.7034528"><ele>710.0</ele><time>2026-05-03T08:49:03.384Z</time></trkpt><trkpt lat="42.241964" lon="13.7036369"><ele>710.0</ele><time>2026-05-03T08:49:04.379Z</time></trkpt><trkpt lat="42.2417843" lon="13.7038268"><ele>710.0</ele><time>2026-05-03T08:49:05.382Z</time></trkpt><trkpt lat="42.2416125" lon="13.704034"><ele>707.5</ele><time>2026-05-03T08:49:06.378Z</time></trkpt><trkpt lat="42.2414446" lon="13.7042489"><ele>705.0</ele><time>2026-05-03T08:49:07.379Z</time></trkpt><trkpt lat="42.2412834" lon="13.7044703"><ele>704.5</ele><time>2026-05-03T08:49:08.383Z</time></trkpt><trkpt lat="42.2411145" lon="13.7046935"><ele>704.0</ele><time>2026-05-03T08:49:09.377Z</time></trkpt><trkpt lat="42.2409565" lon="13.7049219"><ele>704.0</ele><time>2026-05-03T08:49:10.377Z</time></trkpt><trkpt lat="42.240814" lon="13.7051567"><ele>704.0</ele><time>2026-05-03T08:49:11.377Z</time></trkpt><trkpt lat="42.2406749" lon="13.7053986"><ele>704.0</ele><time>2026-05-03T08:49:12.379Z</time></trkpt><trkpt lat="42.2405417" lon="13.705645"><ele>704.0</ele><time>2026-05-03T08:49:13.38Z</time></trkpt><trkpt lat="42.2404155" lon="13.705891"><ele>704.0</ele><time>2026-05-03T08:49:14.381Z</time></trkpt><trkpt lat="42.2402965" lon="13.7061403"><ele>704.6666666666666</ele><time>2026-05-03T08:49:15.385Z</time></trkpt><trkpt lat="42.2401814" lon="13.7063987"><ele>705.3333333333334</ele><time>2026-05-03T08:49:16.383Z</time></trkpt><trkpt lat="42.2400612" lon="13.7066535"><ele>706.0</ele><time>2026-05-03T08:49:17.385Z</time></trkpt><trkpt lat="42.2399585" lon="13.7069179"><ele>706.5</ele><time>2026-05-03T08:49:18.391Z</time></trkpt><trkpt lat="42.2398509" lon="13.7071846"><ele>707.0</ele><time>2026-05-03T08:49:19.394Z</time></trkpt><trkpt lat="42.2397518" lon="13.707461"><ele>707.0</ele><time>2026-05-03T08:49:20.393Z</time></trkpt><trkpt lat="42.2396579" lon="13.7077401"><ele>707.0</ele><time>2026-05-03T08:49:21.395Z</time></trkpt><trkpt lat="42.2395755" lon="13.7080241"><ele>706.0</ele><time>2026-05-03T08:49:22.394Z</time></trkpt><trkpt lat="42.2395016" lon="13.7083064"><ele>705.0</ele><time>2026-05-03T08:49:23.417Z</time></trkpt><trkpt lat="42.2394229" lon="13.7085941"><ele>704.0</ele><time>2026-05-03T08:49:24.394Z</time></trkpt><trkpt lat="42.2393505" lon="13.7088724"><ele>703.0</ele><time>2026-05-03T08:49:25.418Z</time></trkpt><trkpt lat="42.2392736" lon="13.7091573"><ele>702.0</ele><time>2026-05-03T08:49:26.397Z</time></trkpt><trkpt lat="42.2392099" lon="13.7094481"><ele>701.0</ele><time>2026-05-03T08:49:27.402Z</time></trkpt><trkpt lat="42.239139" lon="13.7097323"><ele>700.6666666666666</ele><time>2026-05-03T08:49:28.404Z</time></trkpt><trkpt lat="42.2390662" lon="13.7100142"><ele>700.3333333333334</ele><time>2026-05-03T08:49:29.404Z</time></trkpt><trkpt lat="42.2389863" lon="13.7103012"><ele>700.0</ele><time>2026-05-03T08:49:30.404Z</time></trkpt><trkpt lat="42.2389049" lon="13.7105844"><ele>700.0</ele><time>2026-05-03T08:49:31.406Z</time></trkpt><trkpt lat="42.2388287" lon="13.710877"><ele>700.0</ele><time>2026-05-03T08:49:32.397Z</time></trkpt><trkpt lat="42.2387529" lon="13.7111656"><ele>698.5</ele><time>2026-05-03T08:49:33.406Z</time></trkpt><trkpt lat="42.2386748" lon="13.7114564"><ele>697.0</ele><time>2026-05-03T08:49:34.402Z</time></trkpt><trkpt lat="42.2385929" lon="13.7117452"><ele>695.6666666666667</ele><time>2026-05-03T08:49:35.405Z</time></trkpt><trkpt lat="42.2385225" lon="13.7120364"><ele>694.3333333333334</ele><time>2026-05-03T08:49:36.398Z</time></trkpt><trkpt lat="42.238452" lon="13.712306"><ele>693.0</ele><time>2026-05-03T08:49:37.397Z</time></trkpt><trkpt lat="42.2383906" lon="13.7125657"><ele>692.0</ele><time>2026-05-03T08:49:38.415Z</time></trkpt><trkpt lat="42.2383281" lon="13.7128106"><ele>691.0</ele><time>2026-05-03T08:49:39.483Z</time></trkpt><trkpt lat="42.238266" lon="13.7130471"><ele>690.0</ele><time>2026-05-03T08:49:40.486Z</time></trkpt><trkpt lat="42.2382086" lon="13.7132681"><ele>690.0</ele><time>2026-05-03T08:49:41.493Z</time></trkpt><trkpt lat="42.2381544" lon="13.7134736"><ele>690.0</ele><time>2026-05-03T08:49:42.492Z</time></trkpt><trkpt lat="42.2381025" lon="13.7136725"><ele>690.0</ele><time>2026-05-03T08:49:43.501Z</time></trkpt><trkpt lat="42.2380485" lon="13.7138473"><ele>690.25</ele><time>2026-05-03T08:49:44.477Z</time></trkpt><trkpt lat="42.2379829" lon="13.7140165"><ele>690.5</ele><time>2026-05-03T08:49:45.487Z</time></trkpt><trkpt lat="42.2379034" lon="13.7141635"><ele>690.75</ele><time>2026-05-03T08:49:46.492Z</time></trkpt><trkpt lat="42.2378089" lon="13.7142959"><ele>691.0</ele><time>2026-05-03T08:49:47.47Z</time></trkpt><trkpt lat="42.2377131" lon="13.7144277"><ele>690.0</ele><time>2026-05-03T08:49:48.474Z</time></trkpt><trkpt lat="42.2376348" lon="13.7145742"><ele>689.0</ele><time>2026-05-03T08:49:49.467Z</time></trkpt><trkpt lat="42.237585" lon="13.7147255"><ele>688.0</ele><time>2026-05-03T08:49:50.466Z</time></trkpt><trkpt lat="42.2375489" lon="13.7148966"><ele>687.0</ele><time>2026-05-03T08:49:51.493Z</time></trkpt><trkpt lat="42.2375308" lon="13.7150824"><ele>686.6666666666666</ele><time>2026-05-03T08:49:52.488Z</time></trkpt><trkpt lat="42.2375299" lon="13.7152801"><ele>686.3333333333333</ele><time>2026-05-03T08:49:53.469Z</time></trkpt><trkpt lat="42.2375374" lon="13.7154808"><ele>686.0</ele><time>2026-05-03T08:49:54.486Z</time></trkpt><trkpt lat="42.2375168" lon="13.7159132"><ele>686.3333333333333</ele><time>2026-05-03T08:49:56.377Z</time></trkpt><trkpt lat="42.2374737" lon="13.7161429"><ele>686.6666666666666</ele><time>2026-05-03T08:49:57.401Z</time></trkpt><trkpt lat="42.2374132" lon="13.7163802"><ele>687.0</ele><time>2026-05-03T08:49:58.399Z</time></trkpt><trkpt lat="42.2373494" lon="13.7166151"><ele>686.6666666666666</ele><time>2026-05-03T08:49:59.403Z</time></trkpt><trkpt lat="42.2372758" lon="13.7168519"><ele>686.3333333333333</ele><time>2026-05-03T08:50:00.4Z</time></trkpt><trkpt lat="42.2372061" lon="13.7170926"><ele>686.0</ele><time>2026-05-03T08:50:01.399Z</time></trkpt><trkpt lat="42.2371394" lon="13.7173468"><ele>685.6666666666666</ele><time>2026-05-03T08:50:02.403Z</time></trkpt><trkpt lat="42.2370834" lon="13.717609"><ele>685.3333333333334</ele><time>2026-05-03T08:50:03.404Z</time></trkpt><trkpt lat="42.2370115" lon="13.7178662"><ele>685.0</ele><time>2026-05-03T08:50:04.398Z</time></trkpt><trkpt lat="42.236939" lon="13.7181313"><ele>685.0</ele><time>2026-05-03T08:50:05.405Z</time></trkpt><trkpt lat="42.2368771" lon="13.7183994"><ele>685.0</ele><time>2026-05-03T08:50:06.407Z</time></trkpt><trkpt lat="42.236808" lon="13.7186668"><ele>685.0</ele><time>2026-05-03T08:50:07.405Z</time></trkpt><trkpt lat="42.2367342" lon="13.7189478"><ele>684.3333333333334</ele><time>2026-05-03T08:50:08.407Z</time></trkpt><trkpt lat="42.2366575" lon="13.7192246"><ele>683.6666666666666</ele><time>2026-05-03T08:50:09.403Z</time></trkpt><trkpt lat="42.2365758" lon="13.7194984"><ele>683.0</ele><time>2026-05-03T08:50:10.406Z</time></trkpt><trkpt lat="42.2365021" lon="13.7197757"><ele>683.0</ele><time>2026-05-03T08:50:11.406Z</time></trkpt><trkpt lat="42.2364306" lon="13.7200516"><ele>683.0</ele><time>2026-05-03T08:50:12.408Z</time></trkpt><trkpt lat="42.2363591" lon="13.7203258"><ele>683.0</ele><time>2026-05-03T08:50:13.412Z</time></trkpt><trkpt lat="42.2362947" lon="13.720603"><ele>683.0</ele><time>2026-05-03T08:50:14.403Z</time></trkpt><trkpt lat="42.2362272" lon="13.7208692"><ele>683.0</ele><time>2026-05-03T08:50:15.4Z</time></trkpt><trkpt lat="42.2361656" lon="13.7211436"><ele>683.0</ele><time>2026-05-03T08:50:16.406Z</time></trkpt><trkpt lat="42.2360933" lon="13.7214257"><ele>684.0</ele><time>2026-05-03T08:50:17.409Z</time></trkpt><trkpt lat="42.2360176" lon="13.7217017"><ele>685.0</ele><time>2026-05-03T08:50:18.403Z</time></trkpt><trkpt lat="42.2359478" lon="13.7219805"><ele>686.0</ele><time>2026-05-03T08:50:19.407Z</time></trkpt><trkpt lat="42.235876" lon="13.722264"><ele>687.0</ele><time>2026-05-03T08:50:20.399Z</time></trkpt><trkpt lat="42.2358073" lon="13.7225406"><ele>688.0</ele><time>2026-05-03T08:50:21.402Z</time></trkpt><trkpt lat="42.2357331" lon="13.7228234"><ele>689.0</ele><time>2026-05-03T08:50:22.402Z</time></trkpt><trkpt lat="42.2356553" lon="13.7231044"><ele>688.0</ele><time>2026-05-03T08:50:23.401Z</time></trkpt><trkpt lat="42.2355887" lon="13.7233873"><ele>687.0</ele><time>2026-05-03T08:50:24.399Z</time></trkpt><trkpt lat="42.2355145" lon="13.7236634"><ele>686.0</ele><time>2026-05-03T08:50:25.432Z</time></trkpt><trkpt lat="42.2354521" lon="13.7239395"><ele>686.0</ele><time>2026-05-03T08:50:26.395Z</time></trkpt><trkpt lat="42.2353774" lon="13.7242074"><ele>686.0</ele><time>2026-05-03T08:50:27.401Z</time></trkpt><trkpt lat="42.2353025" lon="13.7244792"><ele>686.0</ele><time>2026-05-03T08:50:28.402Z</time></trkpt><trkpt lat="42.2352297" lon="13.7247426"><ele>686.0</ele><time>2026-05-03T08:50:29.403Z</time></trkpt><trkpt lat="42.2351623" lon="13.7250072"><ele>686.0</ele><time>2026-05-03T08:50:30.401Z</time></trkpt><trkpt lat="42.2350967" lon="13.7252805"><ele>686.0</ele><time>2026-05-03T08:50:31.404Z</time></trkpt><trkpt lat="42.2350222" lon="13.7255368"><ele>686.0</ele><time>2026-05-03T08:50:32.398Z</time></trkpt><trkpt lat="42.2349464" lon="13.7257818"><ele>686.0</ele><time>2026-05-03T08:50:33.404Z</time></trkpt><trkpt lat="42.2348878" lon="13.7260271"><ele>686.0</ele><time>2026-05-03T08:50:34.402Z</time></trkpt><trkpt lat="42.234819" lon="13.7262534"><ele>684.3333333333333</ele><time>2026-05-03T08:50:35.398Z</time></trkpt><trkpt lat="42.2347356" lon="13.7264781"><ele>682.6666666666666</ele><time>2026-05-03T08:50:36.396Z</time></trkpt><trkpt lat="42.2346385" lon="13.7266882"><ele>681.0</ele><time>2026-05-03T08:50:37.407Z</time></trkpt><trkpt lat="42.2345544" lon="13.7268991"><ele>681.0</ele><time>2026-05-03T08:50:38.401Z</time></trkpt><trkpt lat="42.2344536" lon="13.7271018"><ele>681.0</ele><time>2026-05-03T08:50:39.399Z</time></trkpt><trkpt lat="42.2343478" lon="13.7272946"><ele>681.0</ele><time>2026-05-03T08:50:40.397Z</time></trkpt><trkpt lat="42.2342471" lon="13.727481"><ele>681.0</ele><time>2026-05-03T08:50:41.395Z</time></trkpt><trkpt lat="42.2341316" lon="13.7276596"><ele>681.0</ele><time>2026-05-03T08:50:42.393Z</time></trkpt><trkpt lat="42.2340094" lon="13.727838"><ele>681.0</ele><time>2026-05-03T08:50:43.404Z</time></trkpt><trkpt lat="42.2338836" lon="13.7280112"><ele>681.0</ele><time>2026-05-03T08:50:44.396Z</time></trkpt><trkpt lat="42.2337673" lon="13.7281806"><ele>681.0</ele><time>2026-05-03T08:50:45.399Z</time></trkpt><trkpt lat="42.2336583" lon="13.7283485"><ele>681.0</ele><time>2026-05-03T08:50:46.399Z</time></trkpt><trkpt lat="42.2335481" lon="13.7285223"><ele>681.6666666666666</ele><time>2026-05-03T08:50:47.401Z</time></trkpt><trkpt lat="42.2334551" lon="13.7286991"><ele>682.3333333333333</ele><time>2026-05-03T08:50:48.401Z</time></trkpt><trkpt lat="42.2333743" lon="13.7288991"><ele>683.0</ele><time>2026-05-03T08:50:49.407Z</time></trkpt><trkpt lat="42.2333234" lon="13.7290953"><ele>683.0</ele><time>2026-05-03T08:50:50.402Z</time></trkpt><trkpt lat="42.2332747" lon="13.7293039"><ele>683.0</ele><time>2026-05-03T08:50:51.404Z</time></trkpt><trkpt lat="42.2332434" lon="13.7295199"><ele>683.0</ele><time>2026-05-03T08:50:52.394Z</time></trkpt><trkpt lat="42.2332415" lon="13.7297489"><ele>683.0</ele><time>2026-05-03T08:50:53.391Z</time></trkpt><trkpt lat="42.2332465" lon="13.7299763"><ele>683.0</ele><time>2026-05-03T08:50:54.389Z</time></trkpt><trkpt lat="42.2332688" lon="13.7301986"><ele>683.0</ele><time>2026-05-03T08:50:55.414Z</time></trkpt><trkpt lat="42.233316" lon="13.7304215"><ele>683.3333333333333</ele><time>2026-05-03T08:50:56.424Z</time></trkpt><trkpt lat="42.2333907" lon="13.7306354"><ele>683.6666666666666</ele><time>2026-05-03T08:50:57.4Z</time></trkpt><trkpt lat="42.2334769" lon="13.7308375"><ele>684.0</ele><time>2026-05-03T08:50:58.401Z</time></trkpt><trkpt lat="42.2335853" lon="13.7310321"><ele>684.0</ele><time>2026-05-03T08:50:59.404Z</time></trkpt><trkpt lat="42.2336985" lon="13.731232"><ele>684.0</ele><time>2026-05-03T08:51:00.395Z</time></trkpt><trkpt lat="42.2338067" lon="13.7314427"><ele>684.0</ele><time>2026-05-03T08:51:01.409Z</time></trkpt><trkpt lat="42.2339181" lon="13.7316517"><ele>684.3333333333334</ele><time>2026-05-03T08:51:02.406Z</time></trkpt><trkpt lat="42.2340355" lon="13.7318564"><ele>684.6666666666667</ele><time>2026-05-03T08:51:03.404Z</time></trkpt><trkpt lat="42.2341544" lon="13.7320486"><ele>685.0</ele><time>2026-05-03T08:51:04.398Z</time></trkpt><trkpt lat="42.234282" lon="13.7322525"><ele>685.3333333333334</ele><time>2026-05-03T08:51:05.401Z</time></trkpt><trkpt lat="42.2344107" lon="13.7324486"><ele>685.6666666666666</ele><time>2026-05-03T08:51:06.398Z</time></trkpt><trkpt lat="42.234547" lon="13.7326433"><ele>686.0</ele><time>2026-05-03T08:51:07.406Z</time></trkpt><trkpt lat="42.2346905" lon="13.7328421"><ele>685.3333333333333</ele><time>2026-05-03T08:51:08.4Z</time></trkpt><trkpt lat="42.2348386" lon="13.733035"><ele>684.6666666666666</ele><time>2026-05-03T08:51:09.406Z</time></trkpt><trkpt lat="42.2349858" lon="13.7332341"><ele>684.0</ele><time>2026-05-03T08:51:10.407Z</time></trkpt><trkpt lat="42.2351388" lon="13.7334266"><ele>683.6666666666666</ele><time>2026-05-03T08:51:11.406Z</time></trkpt><trkpt lat="42.2352953" lon="13.733616"><ele>683.3333333333333</ele><time>2026-05-03T08:51:12.403Z</time></trkpt><trkpt lat="42.2354588" lon="13.7337939"><ele>683.0</ele><time>2026-05-03T08:51:13.407Z</time></trkpt><trkpt lat="42.2356294" lon="13.7339838"><ele>683.0</ele><time>2026-05-03T08:51:14.407Z</time></trkpt><trkpt lat="42.2358047" lon="13.7341539"><ele>683.0</ele><time>2026-05-03T08:51:15.407Z</time></trkpt><trkpt lat="42.2359837" lon="13.7343227"><ele>683.0</ele><time>2026-05-03T08:51:16.404Z</time></trkpt><trkpt lat="42.2361666" lon="13.7344803"><ele>683.0</ele><time>2026-05-03T08:51:17.399Z</time></trkpt><trkpt lat="42.2363544" lon="13.7346427"><ele>683.0</ele><time>2026-05-03T08:51:18.405Z</time></trkpt><trkpt lat="42.2365502" lon="13.734793"><ele>683.0</ele><time>2026-05-03T08:51:19.408Z</time></trkpt><trkpt lat="42.2367407" lon="13.7349464"><ele>682.3333333333333</ele><time>2026-05-03T08:51:20.407Z</time></trkpt><trkpt lat="42.236933" lon="13.7350878"><ele>681.6666666666666</ele><time>2026-05-03T08:51:21.409Z</time></trkpt><trkpt lat="42.2371266" lon="13.735226"><ele>681.0</ele><time>2026-05-03T08:51:22.401Z</time></trkpt><trkpt lat="42.2373348" lon="13.7353505"><ele>680.3333333333334</ele><time>2026-05-03T08:51:23.404Z</time></trkpt><trkpt lat="42.2375405" lon="13.7354753"><ele>679.6666666666667</ele><time>2026-05-03T08:51:24.403Z</time></trkpt><trkpt lat="42.237742" lon="13.7355856"><ele>679.0</ele><time>2026-05-03T08:51:25.432Z</time></trkpt><trkpt lat="42.2379479" lon="13.7356969"><ele>678.3333333333334</ele><time>2026-05-03T08:51:26.405Z</time></trkpt><trkpt lat="42.2381569" lon="13.7357975"><ele>677.6666666666666</ele><time>2026-05-03T08:51:27.428Z</time></trkpt><trkpt lat="42.2383672" lon="13.7358965"><ele>677.0</ele><time>2026-05-03T08:51:28.403Z</time></trkpt><trkpt lat="42.2385753" lon="13.7359777"><ele>677.0</ele><time>2026-05-03T08:51:29.406Z</time></trkpt><trkpt lat="42.238792" lon="13.7360516"><ele>677.0</ele><time>2026-05-03T08:51:30.398Z</time></trkpt><trkpt lat="42.2390052" lon="13.7361309"><ele>677.0</ele><time>2026-05-03T08:51:31.405Z</time></trkpt><trkpt lat="42.2392227" lon="13.7361998"><ele>677.3333333333333</ele><time>2026-05-03T08:51:32.403Z</time></trkpt><trkpt lat="42.2394385" lon="13.7362704"><ele>677.6666666666666</ele><time>2026-05-03T08:51:33.403Z</time></trkpt><trkpt lat="42.2396476" lon="13.736336"><ele>678.0</ele><time>2026-05-03T08:51:34.407Z</time></trkpt><trkpt lat="42.2398645" lon="13.7363951"><ele>677.0</ele><time>2026-05-03T08:51:35.408Z</time></trkpt><trkpt lat="42.2400832" lon="13.7364557"><ele>676.0</ele><time>2026-05-03T08:51:36.408Z</time></trkpt><trkpt lat="42.2403021" lon="13.7365163"><ele>675.0</ele><time>2026-05-03T08:51:37.396Z</time></trkpt><trkpt lat="42.2405049" lon="13.7365676"><ele>675.6666666666666</ele><time>2026-05-03T08:51:38.408Z</time></trkpt><trkpt lat="42.2406961" lon="13.7366207"><ele>676.3333333333333</ele><time>2026-05-03T08:51:39.39Z</time></trkpt><trkpt lat="42.2408655" lon="13.7366675"><ele>677.0</ele><time>2026-05-03T08:51:40.398Z</time></trkpt><trkpt lat="42.2410307" lon="13.7367152"><ele>677.0</ele><time>2026-05-03T08:51:41.403Z</time></trkpt><trkpt lat="42.241205" lon="13.7367776"><ele>677.0</ele><time>2026-05-03T08:51:42.405Z</time></trkpt><trkpt lat="42.2413769" lon="13.7368342"><ele>677.0</ele><time>2026-05-03T08:51:43.406Z</time></trkpt><trkpt lat="42.2415553" lon="13.7368884"><ele>677.0</ele><time>2026-05-03T08:51:44.405Z</time></trkpt><trkpt lat="42.2417354" lon="13.7369442"><ele>677.0</ele><time>2026-05-03T08:51:45.406Z</time></trkpt><trkpt lat="42.2419206" lon="13.7369967"><ele>677.0</ele><time>2026-05-03T08:51:46.404Z</time></trkpt><trkpt lat="42.2421098" lon="13.7370518"><ele>675.6666666666666</ele><time>2026-05-03T08:51:47.409Z</time></trkpt><trkpt lat="42.2422988" lon="13.7371082"><ele>674.3333333333334</ele><time>2026-05-03T08:51:48.41Z</time></trkpt><trkpt lat="42.2424961" lon="13.7371633"><ele>673.0</ele><time>2026-05-03T08:51:49.404Z</time></trkpt><trkpt lat="42.2426949" lon="13.7372145"><ele>673.0</ele><time>2026-05-03T08:51:50.403Z</time></trkpt><trkpt lat="42.2428969" lon="13.7372691"><ele>673.0</ele><time>2026-05-03T08:51:51.405Z</time></trkpt><trkpt lat="42.2430849" lon="13.7373329"><ele>673.0</ele><time>2026-05-03T08:51:52.405Z</time></trkpt><trkpt lat="42.2432634" lon="13.7374055"><ele>673.0</ele><time>2026-05-03T08:51:53.401Z</time></trkpt><trkpt lat="42.2434364" lon="13.7374722"><ele>673.0</ele><time>2026-05-03T08:51:54.396Z</time></trkpt><trkpt lat="42.243589" lon="13.7375507"><ele>673.0</ele><time>2026-05-03T08:51:55.416Z</time></trkpt><trkpt lat="42.243734" lon="13.7376257"><ele>673.0</ele><time>2026-05-03T08:51:56.398Z</time></trkpt><trkpt lat="42.2438785" lon="13.7377065"><ele>673.0</ele><time>2026-05-03T08:51:57.422Z</time></trkpt><trkpt lat="42.2440242" lon="13.737796"><ele>673.0</ele><time>2026-05-03T08:51:58.526Z</time></trkpt><trkpt lat="42.244173" lon="13.7378885"><ele>675.6666666666667</ele><time>2026-05-03T08:51:59.49Z</time></trkpt><trkpt lat="42.2443134" lon="13.7379768"><ele>678.3333333333334</ele><time>2026-05-03T08:52:00.489Z</time></trkpt><trkpt lat="42.2444441" lon="13.7380675"><ele>681.0</ele><time>2026-05-03T08:52:01.493Z</time></trkpt><trkpt lat="42.2445781" lon="13.7381678"><ele>681.0</ele><time>2026-05-03T08:52:02.497Z</time></trkpt><trkpt lat="42.2447164" lon="13.7382742"><ele>681.0</ele><time>2026-05-03T08:52:03.489Z</time></trkpt><trkpt lat="42.244867" lon="13.7383861"><ele>681.0</ele><time>2026-05-03T08:52:04.494Z</time></trkpt><trkpt lat="42.2450211" lon="13.7384946"><ele>680.3333333333334</ele><time>2026-05-03T08:52:05.486Z</time></trkpt><trkpt lat="42.2451801" lon="13.7385959"><ele>679.6666666666667</ele><time>2026-05-03T08:52:06.487Z</time></trkpt><trkpt lat="42.2453552" lon="13.7386809"><ele>679.0</ele><time>2026-05-03T08:52:07.483Z</time></trkpt><trkpt lat="42.2455407" lon="13.738737"><ele>674.6666666666667</ele><time>2026-05-03T08:52:08.464Z</time></trkpt><trkpt lat="42.2457353" lon="13.7388129"><ele>670.3333333333334</ele><time>2026-05-03T08:52:09.469Z</time></trkpt><trkpt lat="42.2459323" lon="13.7388885"><ele>666.0</ele><time>2026-05-03T08:52:10.463Z</time></trkpt><trkpt lat="42.2461397" lon="13.7389649"><ele>666.0</ele><time>2026-05-03T08:52:11.466Z</time></trkpt><trkpt lat="42.2463515" lon="13.7390521"><ele>666.0</ele><time>2026-05-03T08:52:12.493Z</time></trkpt><trkpt lat="42.2465666" lon="13.7391414"><ele>666.0</ele><time>2026-05-03T08:52:13.484Z</time></trkpt><trkpt lat="42.2467812" lon="13.7392248"><ele>665.3333333333334</ele><time>2026-05-03T08:52:14.49Z</time></trkpt><trkpt lat="42.2469891" lon="13.7393037"><ele>664.6666666666667</ele><time>2026-05-03T08:52:15.49Z</time></trkpt><trkpt lat="42.2472065" lon="13.7393474"><ele>664.0</ele><time>2026-05-03T08:52:16.484Z</time></trkpt><trkpt lat="42.2474208" lon="13.7393802"><ele>665.3333333333334</ele><time>2026-05-03T08:52:17.481Z</time></trkpt><trkpt lat="42.247639" lon="13.7393696"><ele>666.6666666666666</ele><time>2026-05-03T08:52:18.46Z</time></trkpt><trkpt lat="42.2478657" lon="13.7393441"><ele>668.0</ele><time>2026-05-03T08:52:19.472Z</time></trkpt><trkpt lat="42.2480983" lon="13.7393157"><ele>664.5</ele><time>2026-05-03T08:52:20.473Z</time></trkpt><trkpt lat="42.248332" lon="13.7392865"><ele>661.0</ele><time>2026-05-03T08:52:21.465Z</time></trkpt><trkpt lat="42.2485687" lon="13.739262"><ele>661.0</ele><time>2026-05-03T08:52:22.483Z</time></trkpt><trkpt lat="42.2487993" lon="13.7392404"><ele>661.0</ele><time>2026-05-03T08:52:23.479Z</time></trkpt><trkpt lat="42.2490312" lon="13.7392266"><ele>658.5</ele><time>2026-05-03T08:52:24.48Z</time></trkpt><trkpt lat="42.2492644" lon="13.7392179"><ele>656.0</ele><time>2026-05-03T08:52:25.496Z</time></trkpt><trkpt lat="42.2494944" lon="13.7392113"><ele>656.0</ele><time>2026-05-03T08:52:26.486Z</time></trkpt><trkpt lat="42.2497198" lon="13.7392048"><ele>656.0</ele><time>2026-05-03T08:52:27.483Z</time></trkpt><trkpt lat="42.2499438" lon="13.7391997"><ele>656.0</ele><time>2026-05-03T08:52:28.504Z</time></trkpt><trkpt lat="42.250166" lon="13.739197"><ele>653.3333333333333</ele><time>2026-05-03T08:52:29.485Z</time></trkpt><trkpt lat="42.2503864" lon="13.7391913"><ele>650.6666666666666</ele><time>2026-05-03T08:52:30.48Z</time></trkpt><trkpt lat="42.2506076" lon="13.7391786"><ele>648.0</ele><time>2026-05-03T08:52:31.483Z</time></trkpt><trkpt lat="42.2508312" lon="13.7391577"><ele>644.5</ele><time>2026-05-03T08:52:32.482Z</time></trkpt><trkpt lat="42.2510556" lon="13.7391285"><ele>641.0</ele><time>2026-05-03T08:52:33.485Z</time></trkpt><trkpt lat="42.2512784" lon="13.7390914"><ele>637.6666666666666</ele><time>2026-05-03T08:52:34.486Z</time></trkpt><trkpt lat="42.2515014" lon="13.7390488"><ele>634.3333333333334</ele><time>2026-05-03T08:52:35.487Z</time></trkpt><trkpt lat="42.2517228" lon="13.7390023"><ele>631.0</ele><time>2026-05-03T08:52:36.484Z</time></trkpt><trkpt lat="42.2519417" lon="13.7389452"><ele>631.0</ele><time>2026-05-03T08:52:37.482Z</time></trkpt><trkpt lat="42.2521623" lon="13.7388697"><ele>631.0</ele><time>2026-05-03T08:52:38.484Z</time></trkpt><trkpt lat="42.252382" lon="13.7387815"><ele>625.0</ele><time>2026-05-03T08:52:39.473Z</time></trkpt><trkpt lat="42.2525988" lon="13.7386834"><ele>619.0</ele><time>2026-05-03T08:52:40.48Z</time></trkpt><trkpt lat="42.2528153" lon="13.7385814"><ele>623.0</ele><time>2026-05-03T08:52:41.485Z</time></trkpt><trkpt lat="42.2530289" lon="13.7384726"><ele>627.0</ele><time>2026-05-03T08:52:42.49Z</time></trkpt><trkpt lat="42.253242" lon="13.7383547"><ele>627.0</ele><time>2026-05-03T08:52:43.491Z</time></trkpt><trkpt lat="42.253448" lon="13.7382218"><ele>627.0</ele><time>2026-05-03T08:52:44.484Z</time></trkpt><trkpt lat="42.2536486" lon="13.7380775"><ele>627.0</ele><time>2026-05-03T08:52:45.491Z</time></trkpt><trkpt lat="42.2538554" lon="13.737923"><ele>627.0</ele><time>2026-05-03T08:52:46.493Z</time></trkpt><trkpt lat="42.254063" lon="13.7377629"><ele>628.0</ele><time>2026-05-03T08:52:47.488Z</time></trkpt><trkpt lat="42.2542694" lon="13.7376057"><ele>629.0</ele><time>2026-05-03T08:52:48.493Z</time></trkpt><trkpt lat="42.2544752" lon="13.7374513"><ele>629.0</ele><time>2026-05-03T08:52:49.491Z</time></trkpt><trkpt lat="42.2546819" lon="13.7372951"><ele>629.0</ele><time>2026-05-03T08:52:50.492Z</time></trkpt><trkpt lat="42.2548812" lon="13.7371327"><ele>629.5</ele><time>2026-05-03T08:52:51.487Z</time></trkpt><trkpt lat="42.2550731" lon="13.7369538"><ele>630.0</ele><time>2026-05-03T08:52:52.48Z</time></trkpt><trkpt lat="42.2552517" lon="13.7367595"><ele>630.0</ele><time>2026-05-03T08:52:53.471Z</time></trkpt><trkpt lat="42.2554218" lon="13.7365566"><ele>630.0</ele><time>2026-05-03T08:52:54.468Z</time></trkpt><trkpt lat="42.2555844" lon="13.7363424"><ele>623.5</ele><time>2026-05-03T08:52:55.477Z</time></trkpt><trkpt lat="42.2557383" lon="13.736108"><ele>617.0</ele><time>2026-05-03T08:52:56.459Z</time></trkpt><trkpt lat="42.2558853" lon="13.7358644"><ele>617.0</ele><time>2026-05-03T08:52:57.465Z</time></trkpt><trkpt lat="42.2560221" lon="13.7356052"><ele>617.0</ele><time>2026-05-03T08:52:58.478Z</time></trkpt><trkpt lat="42.2561502" lon="13.7353342"><ele>626.5</ele><time>2026-05-03T08:52:59.497Z</time></trkpt><trkpt lat="42.2562682" lon="13.7350595"><ele>636.0</ele><time>2026-05-03T08:53:00.474Z</time></trkpt><trkpt lat="42.256375" lon="13.734793"><ele>626.6666666666666</ele><time>2026-05-03T08:53:01.483Z</time></trkpt><trkpt lat="42.2564786" lon="13.7345371"><ele>617.3333333333333</ele><time>2026-05-03T08:53:02.489Z</time></trkpt><trkpt lat="42.2565867" lon="13.73429"><ele>608.0</ele><time>2026-05-03T08:53:03.48Z</time></trkpt><trkpt lat="42.2567026" lon="13.7340525"><ele>608.0</ele><time>2026-05-03T08:53:04.475Z</time></trkpt><trkpt lat="42.2568408" lon="13.7338415"><ele>608.0</ele><time>2026-05-03T08:53:05.463Z</time></trkpt><trkpt lat="42.2570004" lon="13.7336659"><ele>608.0</ele><time>2026-05-03T08:53:06.45Z</time></trkpt><trkpt lat="42.2571736" lon="13.7335185"><ele>605.0</ele><time>2026-05-03T08:53:07.461Z</time></trkpt><trkpt lat="42.2573614" lon="13.7333955"><ele>602.0</ele><time>2026-05-03T08:53:08.462Z</time></trkpt><trkpt lat="42.2575546" lon="13.7333082"><ele>599.0</ele><time>2026-05-03T08:53:09.458Z</time></trkpt><trkpt lat="42.2577481" lon="13.7332523"><ele>599.0</ele><time>2026-05-03T08:53:10.481Z</time></trkpt><trkpt lat="42.2579449" lon="13.7332297"><ele>599.0</ele><time>2026-05-03T08:53:11.477Z</time></trkpt><trkpt lat="42.2581477" lon="13.7332352"><ele>599.0</ele><time>2026-05-03T08:53:12.46Z</time></trkpt><trkpt lat="42.2583411" lon="13.7332723"><ele>597.0</ele><time>2026-05-03T08:53:13.462Z</time></trkpt><trkpt lat="42.2585303" lon="13.7333477"><ele>595.0</ele><time>2026-05-03T08:53:14.458Z</time></trkpt><trkpt lat="42.2587114" lon="13.7334579"><ele>593.0</ele><time>2026-05-03T08:53:15.468Z</time></trkpt><trkpt lat="42.2588821" lon="13.7336021"><ele>592.6666666666666</ele><time>2026-05-03T08:53:16.492Z</time></trkpt><trkpt lat="42.2590418" lon="13.7337773"><ele>592.3333333333334</ele><time>2026-05-03T08:53:17.488Z</time></trkpt><trkpt lat="42.2591888" lon="13.7339738"><ele>592.0</ele><time>2026-05-03T08:53:18.473Z</time></trkpt><trkpt lat="42.2593192" lon="13.7341935"><ele>589.3333333333334</ele><time>2026-05-03T08:53:19.471Z</time></trkpt><trkpt lat="42.2594281" lon="13.7344369"><ele>586.6666666666666</ele><time>2026-05-03T08:53:20.471Z</time></trkpt><trkpt lat="42.2595184" lon="13.7346993"><ele>584.0</ele><time>2026-05-03T08:53:21.468Z</time></trkpt><trkpt lat="42.2595955" lon="13.7349682"><ele>585.3333333333333</ele><time>2026-05-03T08:53:22.492Z</time></trkpt><trkpt lat="42.2596639" lon="13.7352259"><ele>586.6666666666666</ele><time>2026-05-03T08:53:23.5Z</time></trkpt><trkpt lat="42.2597375" lon="13.7354821"><ele>588.0</ele><time>2026-05-03T08:53:24.496Z</time></trkpt><trkpt lat="42.2598269" lon="13.7357242"><ele>588.0</ele><time>2026-05-03T08:53:25.5Z</time></trkpt><trkpt lat="42.2599271" lon="13.735965"><ele>588.0</ele><time>2026-05-03T08:53:26.488Z</time></trkpt><trkpt lat="42.2600416" lon="13.7362039"><ele>588.0</ele><time>2026-05-03T08:53:27.472Z</time></trkpt><trkpt lat="42.2601728" lon="13.73644"><ele>587.3333333333334</ele><time>2026-05-03T08:53:28.464Z</time></trkpt><trkpt lat="42.2603169" lon="13.7366675"><ele>586.6666666666667</ele><time>2026-05-03T08:53:29.464Z</time></trkpt><trkpt lat="42.2604723" lon="13.736886"><ele>586.0</ele><time>2026-05-03T08:53:30.479Z</time></trkpt><trkpt lat="42.2606491" lon="13.737081"><ele>585.0</ele><time>2026-05-03T08:53:31.484Z</time></trkpt><trkpt lat="42.2608223" lon="13.7372612"><ele>584.0</ele><time>2026-05-03T08:53:32.485Z</time></trkpt><trkpt lat="42.2610067" lon="13.7374193"><ele>583.0</ele><time>2026-05-03T08:53:33.478Z</time></trkpt><trkpt lat="42.2612004" lon="13.7375651"><ele>583.0</ele><time>2026-05-03T08:53:34.466Z</time></trkpt><trkpt lat="42.2613998" lon="13.7376913"><ele>583.0</ele><time>2026-05-03T08:53:35.464Z</time></trkpt><trkpt lat="42.2616055" lon="13.7377998"><ele>583.0</ele><time>2026-05-03T08:53:36.466Z</time></trkpt><trkpt lat="42.261818" lon="13.7378883"><ele>574.3333333333334</ele><time>2026-05-03T08:53:37.467Z</time></trkpt><trkpt lat="42.2620355" lon="13.7379552"><ele>565.6666666666666</ele><time>2026-05-03T08:53:38.486Z</time></trkpt><trkpt lat="42.2622569" lon="13.7380029"><ele>557.0</ele><time>2026-05-03T08:53:39.484Z</time></trkpt><trkpt lat="42.2624829" lon="13.7380336"><ele>557.0</ele><time>2026-05-03T08:53:40.468Z</time></trkpt><trkpt lat="42.2627105" lon="13.7380489"><ele>557.0</ele><time>2026-05-03T08:53:41.473Z</time></trkpt><trkpt lat="42.2629386" lon="13.7380587"><ele>558.5</ele><time>2026-05-03T08:53:42.466Z</time></trkpt><trkpt lat="42.2631661" lon="13.7380685"><ele>560.0</ele><time>2026-05-03T08:53:43.474Z</time></trkpt><trkpt lat="42.2633961" lon="13.7380773"><ele>560.0</ele><time>2026-05-03T08:53:44.489Z</time></trkpt><trkpt lat="42.2636274" lon="13.738086"><ele>560.0</ele><time>2026-05-03T08:53:45.498Z</time></trkpt><trkpt lat="42.2638595" lon="13.7380938"><ele>558.0</ele><time>2026-05-03T08:53:46.497Z</time></trkpt><trkpt lat="42.2640874" lon="13.7381027"><ele>556.0</ele><time>2026-05-03T08:53:47.495Z</time></trkpt><trkpt lat="42.2643155" lon="13.7381101"><ele>556.0</ele><time>2026-05-03T08:53:48.487Z</time></trkpt><trkpt lat="42.2645407" lon="13.7381175"><ele>556.0</ele><time>2026-05-03T08:53:49.494Z</time></trkpt><trkpt lat="42.2647657" lon="13.738125"><ele>554.0</ele><time>2026-05-03T08:53:50.495Z</time></trkpt><trkpt lat="42.2649922" lon="13.7381299"><ele>552.0</ele><time>2026-05-03T08:53:51.496Z</time></trkpt><trkpt lat="42.2652178" lon="13.7381335"><ele>552.0</ele><time>2026-05-03T08:53:52.49Z</time></trkpt><trkpt lat="42.2654415" lon="13.7381375"><ele>552.0</ele><time>2026-05-03T08:53:53.491Z</time></trkpt><trkpt lat="42.2656626" lon="13.7381416"><ele>552.0</ele><time>2026-05-03T08:53:54.492Z</time></trkpt><trkpt lat="42.2658863" lon="13.738146"><ele>551.0</ele><time>2026-05-03T08:53:55.504Z</time></trkpt><trkpt lat="42.2661113" lon="13.7381573"><ele>550.0</ele><time>2026-05-03T08:53:56.494Z</time></trkpt><trkpt lat="42.2663366" lon="13.7381686"><ele>548.5</ele><time>2026-05-03T08:53:57.494Z</time></trkpt><trkpt lat="42.2665623" lon="13.7381777"><ele>547.0</ele><time>2026-05-03T08:53:58.496Z</time></trkpt><trkpt lat="42.266789" lon="13.7381858"><ele>547.0</ele><time>2026-05-03T08:53:59.504Z</time></trkpt><trkpt lat="42.2670164" lon="13.7381954"><ele>547.0</ele><time>2026-05-03T08:54:00.504Z</time></trkpt><trkpt lat="42.2672475" lon="13.7382023"><ele>545.0</ele><time>2026-05-03T08:54:01.521Z</time></trkpt><trkpt lat="42.2674792" lon="13.7382082"><ele>543.0</ele><time>2026-05-03T08:54:02.5Z</time></trkpt><trkpt lat="42.2677114" lon="13.7382143"><ele>543.0</ele><time>2026-05-03T08:54:03.499Z</time></trkpt><trkpt lat="42.2679452" lon="13.738218"><ele>543.0</ele><time>2026-05-03T08:54:04.499Z</time></trkpt><trkpt lat="42.2681798" lon="13.7382285"><ele>540.5</ele><time>2026-05-03T08:54:05.499Z</time></trkpt><trkpt lat="42.2684168" lon="13.7382431"><ele>538.0</ele><time>2026-05-03T08:54:06.49Z</time></trkpt><trkpt lat="42.268653" lon="13.7382575"><ele>538.0</ele><time>2026-05-03T08:54:07.493Z</time></trkpt><trkpt lat="42.2688875" lon="13.738272"><ele>538.0</ele><time>2026-05-03T08:54:08.488Z</time></trkpt><trkpt lat="42.2691152" lon="13.7382872"><ele>538.6666666666667</ele><time>2026-05-03T08:54:09.499Z</time></trkpt><trkpt lat="42.2693389" lon="13.7382994"><ele>539.3333333333334</ele><time>2026-05-03T08:54:10.49Z</time></trkpt><trkpt lat="42.2695509" lon="13.7383095"><ele>540.0</ele><time>2026-05-03T08:54:11.49Z</time></trkpt><trkpt lat="42.2697514" lon="13.7383066"><ele>539.6666666666666</ele><time>2026-05-03T08:54:12.482Z</time></trkpt><trkpt lat="42.2699554" lon="13.738275"><ele>539.3333333333333</ele><time>2026-05-03T08:54:13.482Z</time></trkpt><trkpt lat="42.2701687" lon="13.7382296"><ele>539.0</ele><time>2026-05-03T08:54:14.482Z</time></trkpt><trkpt lat="42.2703656" lon="13.7381472"><ele>539.0</ele><time>2026-05-03T08:54:15.465Z</time></trkpt><trkpt lat="42.2705611" lon="13.738048"><ele>539.0</ele><time>2026-05-03T08:54:16.463Z</time></trkpt><trkpt lat="42.2707483" lon="13.7379175"><ele>539.0</ele><time>2026-05-03T08:54:17.469Z</time></trkpt><trkpt lat="42.2709253" lon="13.7377645"><ele>540.0</ele><time>2026-05-03T08:54:18.466Z</time></trkpt><trkpt lat="42.2710976" lon="13.7375977"><ele>541.0</ele><time>2026-05-03T08:54:19.49Z</time></trkpt><trkpt lat="42.2712586" lon="13.7374115"><ele>542.0</ele><time>2026-05-03T08:54:20.485Z</time></trkpt><trkpt lat="42.2714207" lon="13.7372142"><ele>538.6666666666666</ele><time>2026-05-03T08:54:21.478Z</time></trkpt><trkpt lat="42.2715831" lon="13.7370199"><ele>535.3333333333334</ele><time>2026-05-03T08:54:22.475Z</time></trkpt><trkpt lat="42.2717487" lon="13.7368365"><ele>532.0</ele><time>2026-05-03T08:54:23.467Z</time></trkpt><trkpt lat="42.2719145" lon="13.7366552"><ele>532.0</ele><time>2026-05-03T08:54:24.468Z</time></trkpt><trkpt lat="42.272104" lon="13.736503"><ele>532.0</ele><time>2026-05-03T08:54:25.5Z</time></trkpt><trkpt lat="42.2722982" lon="13.7363783"><ele>532.0</ele><time>2026-05-03T08:54:26.482Z</time></trkpt><trkpt lat="42.2725007" lon="13.7362844"><ele>528.0</ele><time>2026-05-03T08:54:27.463Z</time></trkpt><trkpt lat="42.2727141" lon="13.736193"><ele>524.0</ele><time>2026-05-03T08:54:28.472Z</time></trkpt><trkpt lat="42.2729251" lon="13.7361054"><ele>520.0</ele><time>2026-05-03T08:54:29.477Z</time></trkpt><trkpt lat="42.2731221" lon="13.736013"><ele>520.0</ele><time>2026-05-03T08:54:30.465Z</time></trkpt><trkpt lat="42.2733123" lon="13.7359043"><ele>520.0</ele><time>2026-05-03T08:54:31.484Z</time></trkpt><trkpt lat="42.2734893" lon="13.7357617"><ele>520.0</ele><time>2026-05-03T08:54:32.502Z</time></trkpt><trkpt lat="42.2736582" lon="13.7356017"><ele>520.0</ele><time>2026-05-03T08:54:33.48Z</time></trkpt><trkpt lat="42.273817" lon="13.7354301"><ele>520.0</ele><time>2026-05-03T08:54:34.456Z</time></trkpt><trkpt lat="42.2739558" lon="13.7352276"><ele>520.0</ele><time>2026-05-03T08:54:35.466Z</time></trkpt><trkpt lat="42.2740847" lon="13.7350084"><ele>521.0</ele><time>2026-05-03T08:54:36.454Z</time></trkpt><trkpt lat="42.274202" lon="13.7347763"><ele>522.0</ele><time>2026-05-03T08:54:37.451Z</time></trkpt><trkpt lat="42.274309" lon="13.7345277"><ele>523.0</ele><time>2026-05-03T08:54:38.464Z</time></trkpt><trkpt lat="42.2744036" lon="13.7342639"><ele>525.6666666666667</ele><time>2026-05-03T08:54:39.463Z</time></trkpt><trkpt lat="42.2744872" lon="13.7339828"><ele>528.3333333333334</ele><time>2026-05-03T08:54:40.444Z</time></trkpt><trkpt lat="42.2745602" lon="13.7336983"><ele>531.0</ele><time>2026-05-03T08:54:41.449Z</time></trkpt><trkpt lat="42.2746136" lon="13.7333959"><ele>531.0</ele><time>2026-05-03T08:54:42.449Z</time></trkpt><trkpt lat="42.2746511" lon="13.7330892"><ele>531.0</ele><time>2026-05-03T08:54:43.463Z</time></trkpt><trkpt lat="42.2746803" lon="13.7327841"><ele>527.5</ele><time>2026-05-03T08:54:44.495Z</time></trkpt><trkpt lat="42.2747028" lon="13.7324777"><ele>524.0</ele><time>2026-05-03T08:54:45.499Z</time></trkpt><trkpt lat="42.2747319" lon="13.7321772"><ele>522.5</ele><time>2026-05-03T08:54:46.492Z</time></trkpt><trkpt lat="42.2747689" lon="13.7318765"><ele>521.0</ele><time>2026-05-03T08:54:47.502Z</time></trkpt><trkpt lat="42.2748187" lon="13.7315634"><ele>513.0</ele><time>2026-05-03T08:54:48.503Z</time></trkpt><trkpt lat="42.2748735" lon="13.7312669"><ele>505.0</ele><time>2026-05-03T08:54:49.488Z</time></trkpt><trkpt lat="42.2749424" lon="13.7309731"><ele>505.0</ele><time>2026-05-03T08:54:50.484Z</time></trkpt><trkpt lat="42.2750249" lon="13.7306854"><ele>505.0</ele><time>2026-05-03T08:54:51.487Z</time></trkpt><trkpt lat="42.2751226" lon="13.7304045"><ele>508.0</ele><time>2026-05-03T08:54:52.495Z</time></trkpt><trkpt lat="42.2752332" lon="13.7301263"><ele>511.0</ele><time>2026-05-03T08:54:53.491Z</time></trkpt><trkpt lat="42.2753542" lon="13.7298535"><ele>511.0</ele><time>2026-05-03T08:54:54.5Z</time></trkpt><trkpt lat="42.2754769" lon="13.7295859"><ele>511.0</ele><time>2026-05-03T08:54:55.511Z</time></trkpt><trkpt lat="42.2756006" lon="13.7293201"><ele>502.0</ele><time>2026-05-03T08:54:56.497Z</time></trkpt><trkpt lat="42.2757245" lon="13.7290561"><ele>493.0</ele><time>2026-05-03T08:54:57.504Z</time></trkpt><trkpt lat="42.2758496" lon="13.728802"><ele>496.0</ele><time>2026-05-03T08:54:58.493Z</time></trkpt><trkpt lat="42.2759819" lon="13.7285582"><ele>499.0</ele><time>2026-05-03T08:54:59.492Z</time></trkpt><trkpt lat="42.2761267" lon="13.7283404"><ele>502.0</ele><time>2026-05-03T08:55:00.489Z</time></trkpt><trkpt lat="42.2762825" lon="13.7281431"><ele>499.6666666666667</ele><time>2026-05-03T08:55:01.49Z</time></trkpt><trkpt lat="42.2764514" lon="13.7279647"><ele>497.33333333333337</ele><time>2026-05-03T08:55:02.479Z</time></trkpt><trkpt lat="42.2766353" lon="13.727813"><ele>495.0</ele><time>2026-05-03T08:55:03.492Z</time></trkpt><trkpt lat="42.2768214" lon="13.727685"><ele>495.0</ele><time>2026-05-03T08:55:04.478Z</time></trkpt><trkpt lat="42.2770207" lon="13.7275855"><ele>495.0</ele><time>2026-05-03T08:55:05.476Z</time></trkpt><trkpt lat="42.2772277" lon="13.7275013"><ele>495.0</ele><time>2026-05-03T08:55:06.474Z</time></trkpt><trkpt lat="42.2774449" lon="13.7274478"><ele>493.0</ele><time>2026-05-03T08:55:07.494Z</time></trkpt><trkpt lat="42.2776576" lon="13.727413"><ele>491.0</ele><time>2026-05-03T08:55:08.493Z</time></trkpt><trkpt lat="42.2778681" lon="13.7274021"><ele>489.0</ele><time>2026-05-03T08:55:09.476Z</time></trkpt><trkpt lat="42.2780799" lon="13.7274169"><ele>487.66666666666663</ele><time>2026-05-03T08:55:10.472Z</time></trkpt><trkpt lat="42.2782849" lon="13.727462"><ele>486.3333333333333</ele><time>2026-05-03T08:55:11.473Z</time></trkpt><trkpt lat="42.2784881" lon="13.7275232"><ele>485.0</ele><time>2026-05-03T08:55:12.475Z</time></trkpt><trkpt lat="42.2786899" lon="13.7276171"><ele>485.0</ele><time>2026-05-03T08:55:13.477Z</time></trkpt><trkpt lat="42.2788896" lon="13.727723"><ele>485.0</ele><time>2026-05-03T08:55:14.489Z</time></trkpt><trkpt lat="42.2790882" lon="13.7278416"><ele>485.0</ele><time>2026-05-03T08:55:15.476Z</time></trkpt><trkpt lat="42.2792855" lon="13.7279698"><ele>482.66666666666663</ele><time>2026-05-03T08:55:16.478Z</time></trkpt><trkpt lat="42.2794836" lon="13.7280989"><ele>480.33333333333337</ele><time>2026-05-03T08:55:17.48Z</time></trkpt><trkpt lat="42.2796819" lon="13.7282255"><ele>478.0</ele><time>2026-05-03T08:55:18.483Z</time></trkpt><trkpt lat="42.2798811" lon="13.7283443"><ele>478.0</ele><time>2026-05-03T08:55:19.507Z</time></trkpt><trkpt lat="42.2800803" lon="13.7284586"><ele>478.0</ele><time>2026-05-03T08:55:20.503Z</time></trkpt><trkpt lat="42.2802827" lon="13.7285651"><ele>478.0</ele><time>2026-05-03T08:55:21.499Z</time></trkpt><trkpt lat="42.2804898" lon="13.7286339"><ele>472.6666666666667</ele><time>2026-05-03T08:55:22.491Z</time></trkpt><trkpt lat="42.2807073" lon="13.7286648"><ele>467.33333333333337</ele><time>2026-05-03T08:55:23.478Z</time></trkpt><trkpt lat="42.2809308" lon="13.7286678"><ele>462.0</ele><time>2026-05-03T08:55:24.471Z</time></trkpt><trkpt lat="42.2811579" lon="13.7286625"><ele>462.0</ele><time>2026-05-03T08:55:25.5Z</time></trkpt><trkpt lat="42.2813878" lon="13.7286602"><ele>462.0</ele><time>2026-05-03T08:55:26.483Z</time></trkpt><trkpt lat="42.2816147" lon="13.7286674"><ele>461.5</ele><time>2026-05-03T08:55:27.498Z</time></trkpt><trkpt lat="42.281844" lon="13.7286746"><ele>461.0</ele><time>2026-05-03T08:55:28.511Z</time></trkpt><trkpt lat="42.2820751" lon="13.7286849"><ele>458.5</ele><time>2026-05-03T08:55:29.506Z</time></trkpt><trkpt lat="42.2823029" lon="13.728694"><ele>456.0</ele><time>2026-05-03T08:55:30.51Z</time></trkpt><trkpt lat="42.2825322" lon="13.7287052"><ele>456.0</ele><time>2026-05-03T08:55:31.501Z</time></trkpt><trkpt lat="42.2827513" lon="13.7287167"><ele>456.0</ele><time>2026-05-03T08:55:32.51Z</time></trkpt><trkpt lat="42.2829619" lon="13.7287257"><ele>456.0</ele><time>2026-05-03T08:55:33.504Z</time></trkpt><trkpt lat="42.2831619" lon="13.7287351"><ele>454.66666666666663</ele><time>2026-05-03T08:55:34.531Z</time></trkpt><trkpt lat="42.2833579" lon="13.7287449"><ele>453.3333333333333</ele><time>2026-05-03T08:55:35.505Z</time></trkpt><trkpt lat="42.2835535" lon="13.728756"><ele>452.0</ele><time>2026-05-03T08:55:36.512Z</time></trkpt><trkpt lat="42.2837512" lon="13.7287771"><ele>451.66666666666663</ele><time>2026-05-03T08:55:37.501Z</time></trkpt><trkpt lat="42.2839469" lon="13.7288155"><ele>451.33333333333337</ele><time>2026-05-03T08:55:38.496Z</time></trkpt><trkpt lat="42.2841425" lon="13.7288758"><ele>451.0</ele><time>2026-05-03T08:55:39.49Z</time></trkpt><trkpt lat="42.2843316" lon="13.7289597"><ele>451.0</ele><time>2026-05-03T08:55:40.479Z</time></trkpt><trkpt lat="42.2845263" lon="13.7290755"><ele>451.0</ele><time>2026-05-03T08:55:41.482Z</time></trkpt><trkpt lat="42.2847137" lon="13.7292133"><ele>451.0</ele><time>2026-05-03T08:55:42.482Z</time></trkpt><trkpt lat="42.2848864" lon="13.729378"><ele>450.0</ele><time>2026-05-03T08:55:43.472Z</time></trkpt><trkpt lat="42.2850486" lon="13.72957"><ele>449.0</ele><time>2026-05-03T08:55:44.49Z</time></trkpt><trkpt lat="42.285196" lon="13.7297723"><ele>448.0</ele><time>2026-05-03T08:55:45.49Z</time></trkpt><trkpt lat="42.2853304" lon="13.7299889"><ele>448.0</ele><time>2026-05-03T08:55:46.48Z</time></trkpt><trkpt lat="42.2854434" lon="13.7302216"><ele>448.0</ele><time>2026-05-03T08:55:47.474Z</time></trkpt><trkpt lat="42.2855434" lon="13.730453"><ele>448.0</ele><time>2026-05-03T08:55:48.485Z</time></trkpt><trkpt lat="42.2856179" lon="13.7306874"><ele>444.33333333333337</ele><time>2026-05-03T08:55:49.476Z</time></trkpt><trkpt lat="42.2856784" lon="13.7309248"><ele>440.66666666666663</ele><time>2026-05-03T08:55:50.496Z</time></trkpt><trkpt lat="42.2857191" lon="13.7311747"><ele>437.0</ele><time>2026-05-03T08:55:51.494Z</time></trkpt><trkpt lat="42.2857461" lon="13.7314322"><ele>436.0</ele><time>2026-05-03T08:55:52.481Z</time></trkpt><trkpt lat="42.285757" lon="13.7317039"><ele>435.0</ele><time>2026-05-03T08:55:53.482Z</time></trkpt><trkpt lat="42.2857634" lon="13.731986"><ele>434.0</ele><time>2026-05-03T08:55:54.488Z</time></trkpt><trkpt lat="42.2857696" lon="13.7322741"><ele>433.3333333333333</ele><time>2026-05-03T08:55:55.503Z</time></trkpt><trkpt lat="42.2857765" lon="13.7325668"><ele>432.66666666666663</ele><time>2026-05-03T08:55:56.51Z</time></trkpt><trkpt lat="42.2857867" lon="13.7328621"><ele>432.0</ele><time>2026-05-03T08:55:57.511Z</time></trkpt><trkpt lat="42.2857919" lon="13.7331586"><ele>431.66666666666663</ele><time>2026-05-03T08:55:58.505Z</time></trkpt><trkpt lat="42.2857943" lon="13.7334542"><ele>431.3333333333333</ele><time>2026-05-03T08:55:59.502Z</time></trkpt><trkpt lat="42.2857975" lon="13.733752"><ele>431.0</ele><time>2026-05-03T08:56:00.51Z</time></trkpt><trkpt lat="42.2858043" lon="13.734052"><ele>430.3333333333333</ele><time>2026-05-03T08:56:01.514Z</time></trkpt><trkpt lat="42.2858096" lon="13.7343509"><ele>429.66666666666663</ele><time>2026-05-03T08:56:02.514Z</time></trkpt><trkpt lat="42.2858134" lon="13.7346503"><ele>429.0</ele><time>2026-05-03T08:56:03.508Z</time></trkpt><trkpt lat="42.2858158" lon="13.7349508"><ele>427.0</ele><time>2026-05-03T08:56:04.514Z</time></trkpt><trkpt lat="42.2858185" lon="13.735252"><ele>425.0</ele><time>2026-05-03T08:56:05.53Z</time></trkpt><trkpt lat="42.2858214" lon="13.7355509"><ele>423.0</ele><time>2026-05-03T08:56:06.512Z</time></trkpt><trkpt lat="42.2858252" lon="13.735847"><ele>421.66666666666663</ele><time>2026-05-03T08:56:07.501Z</time></trkpt><trkpt lat="42.2858301" lon="13.7361274"><ele>420.3333333333333</ele><time>2026-05-03T08:56:08.491Z</time></trkpt><trkpt lat="42.2858348" lon="13.7364011"><ele>419.0</ele><time>2026-05-03T08:56:09.509Z</time></trkpt><trkpt lat="42.285837" lon="13.7366523"><ele>418.3333333333333</ele><time>2026-05-03T08:56:10.495Z</time></trkpt><trkpt lat="42.2858409" lon="13.7368948"><ele>417.66666666666663</ele><time>2026-05-03T08:56:11.512Z</time></trkpt><trkpt lat="42.2858452" lon="13.7371412"><ele>417.0</ele><time>2026-05-03T08:56:12.508Z</time></trkpt><trkpt lat="42.2858492" lon="13.7373746"><ele>417.0</ele><time>2026-05-03T08:56:13.515Z</time></trkpt><trkpt lat="42.2858525" lon="13.7376066"><ele>417.0</ele><time>2026-05-03T08:56:14.51Z</time></trkpt><trkpt lat="42.2858545" lon="13.7378392"><ele>417.0</ele><time>2026-05-03T08:56:15.501Z</time></trkpt><trkpt lat="42.2858547" lon="13.738076"><ele>416.33333333333337</ele><time>2026-05-03T08:56:16.511Z</time></trkpt><trkpt lat="42.2858557" lon="13.738315"><ele>415.6666666666667</ele><time>2026-05-03T08:56:17.507Z</time></trkpt><trkpt lat="42.2858563" lon="13.7385523"><ele>415.0</ele><time>2026-05-03T08:56:18.503Z</time></trkpt><trkpt lat="42.2858581" lon="13.7387923"><ele>414.33333333333337</ele><time>2026-05-03T08:56:19.501Z</time></trkpt><trkpt lat="42.2858636" lon="13.7390234"><ele>413.66666666666663</ele><time>2026-05-03T08:56:20.506Z</time></trkpt><trkpt lat="42.2858698" lon="13.7392521"><ele>413.0</ele><time>2026-05-03T08:56:21.507Z</time></trkpt><trkpt lat="42.285877" lon="13.7394851"><ele>412.66666666666663</ele><time>2026-05-03T08:56:22.516Z</time></trkpt><trkpt lat="42.2858861" lon="13.7397216"><ele>412.33333333333337</ele><time>2026-05-03T08:56:23.515Z</time></trkpt><trkpt lat="42.2858931" lon="13.7399566"><ele>412.0</ele><time>2026-05-03T08:56:24.516Z</time></trkpt><trkpt lat="42.2859" lon="13.7401919"><ele>411.0</ele><time>2026-05-03T08:56:25.516Z</time></trkpt><trkpt lat="42.2859077" lon="13.7404306"><ele>410.0</ele><time>2026-05-03T08:56:26.506Z</time></trkpt><trkpt lat="42.2859139" lon="13.7406706"><ele>409.0</ele><time>2026-05-03T08:56:27.511Z</time></trkpt><trkpt lat="42.285919" lon="13.7409148"><ele>408.33333333333337</ele><time>2026-05-03T08:56:28.513Z</time></trkpt><trkpt lat="42.2859237" lon="13.7411602"><ele>407.66666666666663</ele><time>2026-05-03T08:56:29.503Z</time></trkpt><trkpt lat="42.2859293" lon="13.7414005"><ele>407.0</ele><time>2026-05-03T08:56:30.514Z</time></trkpt><trkpt lat="42.285934" lon="13.7416431"><ele>406.3333333333333</ele><time>2026-05-03T08:56:31.507Z</time></trkpt><trkpt lat="42.2859368" lon="13.7418877"><ele>405.66666666666663</ele><time>2026-05-03T08:56:32.51Z</time></trkpt><trkpt lat="42.2859407" lon="13.7421334"><ele>405.0</ele><time>2026-05-03T08:56:33.508Z</time></trkpt><trkpt lat="42.2859457" lon="13.7423793"><ele>405.0</ele><time>2026-05-03T08:56:34.513Z</time></trkpt><trkpt lat="42.2859502" lon="13.7426254"><ele>405.0</ele><time>2026-05-03T08:56:35.514Z</time></trkpt><trkpt lat="42.2859527" lon="13.7428722"><ele>405.0</ele><time>2026-05-03T08:56:36.549Z</time></trkpt><trkpt lat="42.2859545" lon="13.7431187"><ele>404.33333333333337</ele><time>2026-05-03T08:56:37.51Z</time></trkpt><trkpt lat="42.2859584" lon="13.7433646"><ele>403.6666666666667</ele><time>2026-05-03T08:56:38.512Z</time></trkpt><trkpt lat="42.285966" lon="13.7436086"><ele>403.0</ele><time>2026-05-03T08:56:39.51Z</time></trkpt><trkpt lat="42.285973" lon="13.7438518"><ele>402.33333333333337</ele><time>2026-05-03T08:56:40.514Z</time></trkpt><trkpt lat="42.2859801" lon="13.7440946"><ele>401.66666666666663</ele><time>2026-05-03T08:56:41.516Z</time></trkpt><trkpt lat="42.2859862" lon="13.7443392"><ele>401.0</ele><time>2026-05-03T08:56:42.511Z</time></trkpt><trkpt lat="42.2859919" lon="13.7445841"><ele>400.66666666666663</ele><time>2026-05-03T08:56:43.509Z</time></trkpt><trkpt lat="42.2859991" lon="13.744828"><ele>400.33333333333337</ele><time>2026-05-03T08:56:44.515Z</time></trkpt><trkpt lat="42.2860091" lon="13.7450744"><ele>400.0</ele><time>2026-05-03T08:56:45.517Z</time></trkpt><trkpt lat="42.2860143" lon="13.7453219"><ele>399.6666666666667</ele><time>2026-05-03T08:56:46.511Z</time></trkpt><trkpt lat="42.2860204" lon="13.7455577"><ele>399.33333333333337</ele><time>2026-05-03T08:56:47.508Z</time></trkpt><trkpt lat="42.2860264" lon="13.7457929"><ele>399.0</ele><time>2026-05-03T08:56:48.51Z</time></trkpt><trkpt lat="42.2860317" lon="13.7460308"><ele>398.0</ele><time>2026-05-03T08:56:49.516Z</time></trkpt><trkpt lat="42.2860378" lon="13.7462694"><ele>397.0</ele><time>2026-05-03T08:56:50.507Z</time></trkpt><trkpt lat="42.2860394" lon="13.7465121"><ele>396.0</ele><time>2026-05-03T08:56:51.504Z</time></trkpt><trkpt lat="42.2860412" lon="13.7467571"><ele>395.33333333333337</ele><time>2026-05-03T08:56:52.515Z</time></trkpt><trkpt lat="42.2860439" lon="13.7470043"><ele>394.6666666666667</ele><time>2026-05-03T08:56:53.506Z</time></trkpt><trkpt lat="42.2860471" lon="13.7472553"><ele>394.0</ele><time>2026-05-03T08:56:54.518Z</time></trkpt><trkpt lat="42.2860489" lon="13.7475085"><ele>393.6666666666667</ele><time>2026-05-03T08:56:55.528Z</time></trkpt><trkpt lat="42.2860502" lon="13.747769"><ele>393.33333333333337</ele><time>2026-05-03T08:56:56.512Z</time></trkpt><trkpt lat="42.2860528" lon="13.7480214"><ele>393.0</ele><time>2026-05-03T08:56:57.513Z</time></trkpt><trkpt lat="42.2860581" lon="13.7482689"><ele>393.0</ele><time>2026-05-03T08:56:58.507Z</time></trkpt><trkpt lat="42.286067" lon="13.748519"><ele>393.0</ele><time>2026-05-03T08:56:59.511Z</time></trkpt><trkpt lat="42.286077" lon="13.7487801"><ele>393.0</ele><time>2026-05-03T08:57:00.509Z</time></trkpt><trkpt lat="42.2860868" lon="13.7490489"><ele>392.66666666666663</ele><time>2026-05-03T08:57:01.507Z</time></trkpt><trkpt lat="42.2861001" lon="13.7493191"><ele>392.3333333333333</ele><time>2026-05-03T08:57:02.49Z</time></trkpt><trkpt lat="42.2861071" lon="13.7495825"><ele>392.0</ele><time>2026-05-03T08:57:03.49Z</time></trkpt><trkpt lat="42.2861133" lon="13.7498485"><ele>391.3333333333333</ele><time>2026-05-03T08:57:04.487Z</time></trkpt><trkpt lat="42.2861195" lon="13.7501168"><ele>390.66666666666663</ele><time>2026-05-03T08:57:05.489Z</time></trkpt><trkpt lat="42.2861272" lon="13.7503848"><ele>390.0</ele><time>2026-05-03T08:57:06.531Z</time></trkpt><trkpt lat="42.2861329" lon="13.7506543"><ele>388.66666666666663</ele><time>2026-05-03T08:57:07.51Z</time></trkpt><trkpt lat="42.2861382" lon="13.7509238"><ele>387.3333333333333</ele><time>2026-05-03T08:57:08.503Z</time></trkpt><trkpt lat="42.2861446" lon="13.7511918"><ele>386.0</ele><time>2026-05-03T08:57:09.512Z</time></trkpt><trkpt lat="42.2861512" lon="13.751459"><ele>384.66666666666663</ele><time>2026-05-03T08:57:10.515Z</time></trkpt><trkpt lat="42.2861568" lon="13.7517328"><ele>383.3333333333333</ele><time>2026-05-03T08:57:11.513Z</time></trkpt><trkpt lat="42.2861613" lon="13.7520059"><ele>382.0</ele><time>2026-05-03T08:57:12.512Z</time></trkpt><trkpt lat="42.2861678" lon="13.7522802"><ele>382.0</ele><time>2026-05-03T08:57:13.507Z</time></trkpt><trkpt lat="42.2861746" lon="13.7525599"><ele>382.0</ele><time>2026-05-03T08:57:14.506Z</time></trkpt><trkpt lat="42.2861806" lon="13.7528411"><ele>382.0</ele><time>2026-05-03T08:57:15.512Z</time></trkpt><trkpt lat="42.2861868" lon="13.7531227"><ele>381.3333333333333</ele><time>2026-05-03T08:57:16.507Z</time></trkpt><trkpt lat="42.2861916" lon="13.7534044"><ele>380.6666666666667</ele><time>2026-05-03T08:57:17.506Z</time></trkpt><trkpt lat="42.286196" lon="13.7536864"><ele>380.0</ele><time>2026-05-03T08:57:18.507Z</time></trkpt><trkpt lat="42.286199" lon="13.7539699"><ele>379.33333333333337</ele><time>2026-05-03T08:57:19.51Z</time></trkpt><trkpt lat="42.2862019" lon="13.7542474"><ele>378.6666666666667</ele><time>2026-05-03T08:57:20.504Z</time></trkpt><trkpt lat="42.2862052" lon="13.7545273"><ele>378.0</ele><time>2026-05-03T08:57:21.507Z</time></trkpt><trkpt lat="42.2862109" lon="13.7548087"><ele>378.0</ele><time>2026-05-03T08:57:22.505Z</time></trkpt><trkpt lat="42.2862171" lon="13.7550901"><ele>378.0</ele><time>2026-05-03T08:57:23.505Z</time></trkpt><trkpt lat="42.2862239" lon="13.7553715"><ele>378.0</ele><time>2026-05-03T08:57:24.512Z</time></trkpt><trkpt lat="42.2862309" lon="13.7556541"><ele>378.0</ele><time>2026-05-03T08:57:25.539Z</time></trkpt><trkpt lat="42.2862374" lon="13.7559343"><ele>378.0</ele><time>2026-05-03T08:57:26.509Z</time></trkpt><trkpt lat="42.2862435" lon="13.7562116"><ele>378.0</ele><time>2026-05-03T08:57:27.51Z</time></trkpt><trkpt lat="42.286252" lon="13.756489"><ele>378.0</ele><time>2026-05-03T08:57:28.512Z</time></trkpt><trkpt lat="42.2862562" lon="13.7567657"><ele>378.0</ele><time>2026-05-03T08:57:29.509Z</time></trkpt><trkpt lat="42.2862609" lon="13.7570438"><ele>378.0</ele><time>2026-05-03T08:57:30.513Z</time></trkpt><trkpt lat="42.2862674" lon="13.7573192"><ele>378.0</ele><time>2026-05-03T08:57:31.512Z</time></trkpt><trkpt lat="42.2862715" lon="13.7575956"><ele>378.0</ele><time>2026-05-03T08:57:32.513Z</time></trkpt><trkpt lat="42.2862763" lon="13.7578701"><ele>378.0</ele><time>2026-05-03T08:57:33.506Z</time></trkpt><trkpt lat="42.2862784" lon="13.7581429"><ele>378.0</ele><time>2026-05-03T08:57:34.507Z</time></trkpt><trkpt lat="42.286271" lon="13.7584141"><ele>378.0</ele><time>2026-05-03T08:57:35.499Z</time></trkpt><trkpt lat="42.2862552" lon="13.7586859"><ele>378.0</ele><time>2026-05-03T08:57:36.501Z</time></trkpt><trkpt lat="42.2862275" lon="13.7589563"><ele>378.0</ele><time>2026-05-03T08:57:37.521Z</time></trkpt><trkpt lat="42.2861888" lon="13.7592242"><ele>378.0</ele><time>2026-05-03T08:57:38.502Z</time></trkpt><trkpt lat="42.286139" lon="13.7594928"><ele>378.0</ele><time>2026-05-03T08:57:39.497Z</time></trkpt><trkpt lat="42.2860792" lon="13.7597588"><ele>378.0</ele><time>2026-05-03T08:57:40.503Z</time></trkpt><trkpt lat="42.2860061" lon="13.7600242"><ele>378.0</ele><time>2026-05-03T08:57:41.412Z</time></trkpt><trkpt lat="42.2859195" lon="13.7602624"><ele>378.0</ele><time>2026-05-03T08:57:42.407Z</time></trkpt><trkpt lat="42.2858379" lon="13.7604953"><ele>378.6666666666667</ele><time>2026-05-03T08:57:43.408Z</time></trkpt><trkpt lat="42.2857582" lon="13.7607064"><ele>379.33333333333337</ele><time>2026-05-03T08:57:44.404Z</time></trkpt><trkpt lat="42.2856754" lon="13.7609029"><ele>380.0</ele><time>2026-05-03T08:57:45.405Z</time></trkpt><trkpt lat="42.2855905" lon="13.7610876"><ele>380.5</ele><time>2026-05-03T08:57:46.429Z</time></trkpt><trkpt lat="42.2855068" lon="13.7612548"><ele>381.0</ele><time>2026-05-03T08:57:47.507Z</time></trkpt><trkpt lat="42.2854277" lon="13.761405"><ele>381.5</ele><time>2026-05-03T08:57:48.505Z</time></trkpt><trkpt lat="42.2853526" lon="13.7615461"><ele>382.0</ele><time>2026-05-03T08:57:49.507Z</time></trkpt><trkpt lat="42.285279" lon="13.7616848"><ele>382.0</ele><time>2026-05-03T08:57:50.509Z</time></trkpt><trkpt lat="42.2852021" lon="13.761827"><ele>382.0</ele><time>2026-05-03T08:57:51.501Z</time></trkpt><trkpt lat="42.2851205" lon="13.7619745"><ele>382.0</ele><time>2026-05-03T08:57:52.491Z</time></trkpt><trkpt lat="42.2850468" lon="13.7620956"><ele>382.0</ele><time>2026-05-03T08:57:53.482Z</time></trkpt><trkpt lat="42.2849772" lon="13.7621883"><ele>382.20000000000005</ele><time>2026-05-03T08:57:54.491Z</time></trkpt><trkpt lat="42.2849003" lon="13.7622837"><ele>382.4</ele><time>2026-05-03T08:57:55.441Z</time></trkpt><trkpt lat="42.2848542" lon="13.7623465"><ele>382.6</ele><time>2026-05-03T08:57:56.4Z</time></trkpt><trkpt lat="42.284807" lon="13.7624608"><ele>382.79999999999995</ele><time>2026-05-03T08:57:58.405Z</time></trkpt><trkpt lat="42.2847229" lon="13.7626072"><ele>383.0</ele><time>2026-05-03T08:58:00.391Z</time></trkpt><trkpt lat="42.2846433" lon="13.7626883"><ele>383.5</ele><time>2026-05-03T08:58:01.398Z</time></trkpt><trkpt lat="42.2845491" lon="13.7627702"><ele>384.0</ele><time>2026-05-03T08:58:02.401Z</time></trkpt><trkpt lat="42.2844482" lon="13.7628608"><ele>384.5</ele><time>2026-05-03T08:58:03.407Z</time></trkpt><trkpt lat="42.284344" lon="13.7629459"><ele>385.0</ele><time>2026-05-03T08:58:04.412Z</time></trkpt><trkpt lat="42.2842441" lon="13.7630385"><ele>385.0</ele><time>2026-05-03T08:58:05.409Z</time></trkpt><trkpt lat="42.2841452" lon="13.76311"><ele>385.0</ele><time>2026-05-03T08:58:06.403Z</time></trkpt><trkpt lat="42.2840535" lon="13.7631585"><ele>385.0</ele><time>2026-05-03T08:58:07.395Z</time></trkpt><trkpt lat="42.283972" lon="13.7631689"><ele>385.0</ele><time>2026-05-03T08:58:08.419Z</time></trkpt><trkpt lat="42.2838711" lon="13.7632187"><ele>385.0</ele><time>2026-05-03T08:58:10.4Z</time></trkpt><trkpt lat="42.2838323" lon="13.7633169"><ele>385.33333333333337</ele><time>2026-05-03T08:58:12.408Z</time></trkpt><trkpt lat="42.2837454" lon="13.7634679"><ele>385.6666666666667</ele><time>2026-05-03T08:58:14.397Z</time></trkpt><trkpt lat="42.2836969" lon="13.7635465"><ele>386.0</ele><time>2026-05-03T08:58:15.393Z</time></trkpt><trkpt lat="42.2836612" lon="13.7636208"><ele>386.33333333333337</ele><time>2026-05-03T08:58:16.386Z</time></trkpt><trkpt lat="42.2836379" lon="13.7637234"><ele>386.6666666666667</ele><time>2026-05-03T08:58:18.4Z</time></trkpt><trkpt lat="42.283683" lon="13.763794"><ele>387.0</ele><time>2026-05-03T08:58:20.394Z</time></trkpt><trkpt lat="42.283746" lon="13.7638176"><ele>387.0</ele><time>2026-05-03T08:58:21.405Z</time></trkpt><trkpt lat="42.2838345" lon="13.7638235"><ele>387.0</ele><time>2026-05-03T08:58:22.396Z</time></trkpt><trkpt lat="42.2839333" lon="13.7638235"><ele>387.0</ele><time>2026-05-03T08:58:23.412Z</time></trkpt><trkpt lat="42.2840381" lon="13.7638236"><ele>387.0</ele><time>2026-05-03T08:58:24.412Z</time></trkpt><trkpt lat="42.284148" lon="13.763834"><ele>387.0</ele><time>2026-05-03T08:58:25.423Z</time></trkpt><trkpt lat="42.2842619" lon="13.7638499"><ele>387.0</ele><time>2026-05-03T08:58:26.416Z</time></trkpt><trkpt lat="42.284383" lon="13.7638644"><ele>387.0</ele><time>2026-05-03T08:58:27.415Z</time></trkpt><trkpt lat="42.284511" lon="13.7638766"><ele>387.0</ele><time>2026-05-03T08:58:28.412Z</time></trkpt><trkpt lat="42.2846348" lon="13.7638625"><ele>387.0</ele><time>2026-05-03T08:58:29.4Z</time></trkpt><trkpt lat="42.2847531" lon="13.7638164"><ele>386.75</ele><time>2026-05-03T08:58:30.392Z</time></trkpt><trkpt lat="42.2848641" lon="13.7637334"><ele>386.5</ele><time>2026-05-03T08:58:31.391Z</time></trkpt><trkpt lat="42.284958" lon="13.763608"><ele>386.25</ele><time>2026-05-03T08:58:32.398Z</time></trkpt><trkpt lat="42.2850454" lon="13.7634583"><ele>386.0</ele><time>2026-05-03T08:58:33.396Z</time></trkpt><trkpt lat="42.2851351" lon="13.7632974"><ele>386.0</ele><time>2026-05-03T08:58:34.409Z</time></trkpt><trkpt lat="42.2852353" lon="13.7631379"><ele>386.0</ele><time>2026-05-03T08:58:35.413Z</time></trkpt><trkpt lat="42.2853343" lon="13.7629663"><ele>386.0</ele><time>2026-05-03T08:58:36.415Z</time></trkpt><trkpt lat="42.2854384" lon="13.7628022"><ele>385.0</ele><time>2026-05-03T08:58:37.414Z</time></trkpt><trkpt lat="42.2855472" lon="13.7626315"><ele>384.0</ele><time>2026-05-03T08:58:38.411Z</time></trkpt><trkpt lat="42.2856593" lon="13.7624696"><ele>383.0</ele><time>2026-05-03T08:58:39.425Z</time></trkpt><trkpt lat="42.285774" lon="13.7623074"><ele>383.33333333333337</ele><time>2026-05-03T08:58:40.407Z</time></trkpt><trkpt lat="42.2858919" lon="13.7621489"><ele>383.6666666666667</ele><time>2026-05-03T08:58:41.41Z</time></trkpt><trkpt lat="42.2860034" lon="13.7619782"><ele>384.0</ele><time>2026-05-03T08:58:42.407Z</time></trkpt><trkpt lat="42.2861132" lon="13.7618089"><ele>384.0</ele><time>2026-05-03T08:58:43.406Z</time></trkpt><trkpt lat="42.2862383" lon="13.7616357"><ele>384.0</ele><time>2026-05-03T08:58:44.407Z</time></trkpt><trkpt lat="42.286357" lon="13.7614594"><ele>384.0</ele><time>2026-05-03T08:58:45.409Z</time></trkpt><trkpt lat="42.2864796" lon="13.7612897"><ele>384.33333333333337</ele><time>2026-05-03T08:58:46.407Z</time></trkpt><trkpt lat="42.2866056" lon="13.7611163"><ele>384.6666666666667</ele><time>2026-05-03T08:58:47.409Z</time></trkpt><trkpt lat="42.286725" lon="13.7609462"><ele>385.0</ele><time>2026-05-03T08:58:48.411Z</time></trkpt><trkpt lat="42.2868381" lon="13.7607698"><ele>385.0</ele><time>2026-05-03T08:58:49.413Z</time></trkpt><trkpt lat="42.2869504" lon="13.7606086"><ele>385.0</ele><time>2026-05-03T08:58:50.412Z</time></trkpt><trkpt lat="42.2870732" lon="13.7604646"><ele>385.0</ele><time>2026-05-03T08:58:51.411Z</time></trkpt><trkpt lat="42.2872108" lon="13.760332"><ele>384.6666666666667</ele><time>2026-05-03T08:58:52.405Z</time></trkpt><trkpt lat="42.287354" lon="13.76021"><ele>384.33333333333337</ele><time>2026-05-03T08:58:53.405Z</time></trkpt><trkpt lat="42.287511" lon="13.760104"><ele>384.0</ele><time>2026-05-03T08:58:54.396Z</time></trkpt><trkpt lat="42.2876747" lon="13.7599909"><ele>384.0</ele><time>2026-05-03T08:58:55.41Z</time></trkpt><trkpt lat="42.2878155" lon="13.759869"><ele>384.0</ele><time>2026-05-03T08:58:56.387Z</time></trkpt><trkpt lat="42.2879496" lon="13.7597149"><ele>384.0</ele><time>2026-05-03T08:58:57.389Z</time></trkpt><trkpt lat="42.2880706" lon="13.7595358"><ele>383.3333333333333</ele><time>2026-05-03T08:58:58.39Z</time></trkpt><trkpt lat="42.2881918" lon="13.7593557"><ele>382.66666666666663</ele><time>2026-05-03T08:58:59.403Z</time></trkpt><trkpt lat="42.2883223" lon="13.759189"><ele>382.0</ele><time>2026-05-03T08:59:00.396Z</time></trkpt><trkpt lat="42.2884728" lon="13.7590464"><ele>382.0</ele><time>2026-05-03T08:59:01.4Z</time></trkpt><trkpt lat="42.2886237" lon="13.7589006"><ele>382.0</ele><time>2026-05-03T08:59:02.411Z</time></trkpt><trkpt lat="42.2887922" lon="13.758756"><ele>382.0</ele><time>2026-05-03T08:59:03.407Z</time></trkpt><trkpt lat="42.2889474" lon="13.7585932"><ele>382.3333333333333</ele><time>2026-05-03T08:59:04.413Z</time></trkpt><trkpt lat="42.2891033" lon="13.7584365"><ele>382.6666666666667</ele><time>2026-05-03T08:59:05.411Z</time></trkpt><trkpt lat="42.2892742" lon="13.7582789"><ele>383.0</ele><time>2026-05-03T08:59:06.412Z</time></trkpt><trkpt lat="42.2894431" lon="13.7581355"><ele>383.0</ele><time>2026-05-03T08:59:07.405Z</time></trkpt><trkpt lat="42.2896182" lon="13.7579914"><ele>383.0</ele><time>2026-05-03T08:59:08.414Z</time></trkpt><trkpt lat="42.2897966" lon="13.757859"><ele>383.0</ele><time>2026-05-03T08:59:09.411Z</time></trkpt><trkpt lat="42.2899753" lon="13.7577211"><ele>381.33333333333337</ele><time>2026-05-03T08:59:10.441Z</time></trkpt><trkpt lat="42.2901513" lon="13.7576004"><ele>379.6666666666667</ele><time>2026-05-03T08:59:11.416Z</time></trkpt><trkpt lat="42.2903236" lon="13.7574661"><ele>378.0</ele><time>2026-05-03T08:59:12.416Z</time></trkpt><trkpt lat="42.290482" lon="13.7573218"><ele>378.0</ele><time>2026-05-03T08:59:13.418Z</time></trkpt><trkpt lat="42.2906388" lon="13.7571746"><ele>378.0</ele><time>2026-05-03T08:59:14.412Z</time></trkpt><trkpt lat="42.2907962" lon="13.7570291"><ele>378.0</ele><time>2026-05-03T08:59:15.418Z</time></trkpt><trkpt lat="42.290945" lon="13.7569003"><ele>377.6666666666667</ele><time>2026-05-03T08:59:16.419Z</time></trkpt><trkpt lat="42.2911082" lon="13.7567837"><ele>377.33333333333337</ele><time>2026-05-03T08:59:17.41Z</time></trkpt><trkpt lat="42.2912811" lon="13.7566762"><ele>377.0</ele><time>2026-05-03T08:59:18.415Z</time></trkpt><trkpt lat="42.291444" lon="13.756572"><ele>379.0</ele><time>2026-05-03T08:59:19.416Z</time></trkpt><trkpt lat="42.2916095" lon="13.7564786"><ele>381.0</ele><time>2026-05-03T08:59:20.432Z</time></trkpt><trkpt lat="42.2917591" lon="13.7563783"><ele>383.0</ele><time>2026-05-03T08:59:21.413Z</time></trkpt><trkpt lat="42.2918793" lon="13.756263"><ele>383.0</ele><time>2026-05-03T08:59:22.407Z</time></trkpt><trkpt lat="42.2919624" lon="13.7561292"><ele>383.0</ele><time>2026-05-03T08:59:23.418Z</time></trkpt><trkpt lat="42.2920092" lon="13.7559835"><ele>383.0</ele><time>2026-05-03T08:59:24.409Z</time></trkpt><trkpt lat="42.2920503" lon="13.7558031"><ele>383.0</ele><time>2026-05-03T08:59:25.415Z</time></trkpt><trkpt lat="42.2920892" lon="13.7556145"><ele>381.6666666666667</ele><time>2026-05-03T08:59:26.408Z</time></trkpt><trkpt lat="42.2921508" lon="13.7554187"><ele>380.3333333333333</ele><time>2026-05-03T08:59:27.392Z</time></trkpt><trkpt lat="42.2922423" lon="13.7552571"><ele>379.0</ele><time>2026-05-03T08:59:28.404Z</time></trkpt><trkpt lat="42.2923596" lon="13.7551047"><ele>379.0</ele><time>2026-05-03T08:59:29.406Z</time></trkpt><trkpt lat="42.2924628" lon="13.7549819"><ele>379.0</ele><time>2026-05-03T08:59:30.402Z</time></trkpt><trkpt lat="42.2925823" lon="13.7548807"><ele>379.0</ele><time>2026-05-03T08:59:31.394Z</time></trkpt><trkpt lat="42.292716" lon="13.7548088"><ele>379.0</ele><time>2026-05-03T08:59:32.412Z</time></trkpt><trkpt lat="42.2928539" lon="13.7548043"><ele>379.0</ele><time>2026-05-03T08:59:33.412Z</time></trkpt><trkpt lat="42.2929752" lon="13.7548379"><ele>379.0</ele><time>2026-05-03T08:59:34.415Z</time></trkpt><trkpt lat="42.2930978" lon="13.7549185"><ele>379.0</ele><time>2026-05-03T08:59:35.406Z</time></trkpt><trkpt lat="42.2932439" lon="13.7550189"><ele>379.0</ele><time>2026-05-03T08:59:36.42Z</time></trkpt><trkpt lat="42.2933909" lon="13.7550939"><ele>379.66666666666663</ele><time>2026-05-03T08:59:37.414Z</time></trkpt><trkpt lat="42.2935323" lon="13.7551758"><ele>380.3333333333333</ele><time>2026-05-03T08:59:38.414Z</time></trkpt><trkpt lat="42.2936734" lon="13.7552514"><ele>381.0</ele><time>2026-05-03T08:59:39.411Z</time></trkpt><trkpt lat="42.2938133" lon="13.7553296"><ele>380.5</ele><time>2026-05-03T08:59:40.411Z</time></trkpt><trkpt lat="42.2939466" lon="13.7553886"><ele>380.0</ele><time>2026-05-03T08:59:41.421Z</time></trkpt><trkpt lat="42.2940697" lon="13.7554175"><ele>379.5</ele><time>2026-05-03T08:59:42.392Z</time></trkpt><trkpt lat="42.2942112" lon="13.7554149"><ele>379.0</ele><time>2026-05-03T08:59:43.41Z</time></trkpt><trkpt lat="42.2943647" lon="13.7553644"><ele>379.0</ele><time>2026-05-03T08:59:44.4Z</time></trkpt><trkpt lat="42.2945085" lon="13.7553119"><ele>379.0</ele><time>2026-05-03T08:59:45.408Z</time></trkpt><trkpt lat="42.2946519" lon="13.755271"><ele>379.0</ele><time>2026-05-03T08:59:46.412Z</time></trkpt><trkpt lat="42.2947901" lon="13.7552413"><ele>379.0</ele><time>2026-05-03T08:59:47.403Z</time></trkpt><trkpt lat="42.2949322" lon="13.755248"><ele>376.0</ele><time>2026-05-03T08:59:48.399Z</time></trkpt><trkpt lat="42.2950817" lon="13.755286"><ele>373.0</ele><time>2026-05-03T08:59:49.405Z</time></trkpt><trkpt lat="42.2952384" lon="13.7553437"><ele>370.0</ele><time>2026-05-03T08:59:50.413Z</time></trkpt><trkpt lat="42.2954083" lon="13.7554022"><ele>370.0</ele><time>2026-05-03T08:59:51.44Z</time></trkpt><trkpt lat="42.2955793" lon="13.7554556"><ele>370.0</ele><time>2026-05-03T08:59:52.514Z</time></trkpt><trkpt lat="42.2957548" lon="13.7555091"><ele>370.0</ele><time>2026-05-03T08:59:53.512Z</time></trkpt><trkpt lat="42.2959315" lon="13.7555628"><ele>370.0</ele><time>2026-05-03T08:59:54.509Z</time></trkpt><trkpt lat="42.2961122" lon="13.7556132"><ele>370.0</ele><time>2026-05-03T08:59:55.501Z</time></trkpt><trkpt lat="42.2962963" lon="13.7556685"><ele>370.0</ele><time>2026-05-03T08:59:56.493Z</time></trkpt><trkpt lat="42.2964857" lon="13.7557286"><ele>370.0</ele><time>2026-05-03T08:59:57.492Z</time></trkpt><trkpt lat="42.2966713" lon="13.7557904"><ele>370.0</ele><time>2026-05-03T08:59:58.495Z</time></trkpt><trkpt lat="42.2968575" lon="13.755851"><ele>370.0</ele><time>2026-05-03T08:59:59.501Z</time></trkpt><trkpt lat="42.297039" lon="13.7559026"><ele>370.0</ele><time>2026-05-03T09:00:00.497Z</time></trkpt><trkpt lat="42.297212" lon="13.7559381"><ele>370.0</ele><time>2026-05-03T09:00:01.482Z</time></trkpt><trkpt lat="42.2973891" lon="13.7559446"><ele>370.0</ele><time>2026-05-03T09:00:02.471Z</time></trkpt><trkpt lat="42.2975674" lon="13.7559396"><ele>369.3333333333333</ele><time>2026-05-03T09:00:03.468Z</time></trkpt><trkpt lat="42.2977519" lon="13.7559273"><ele>368.6666666666667</ele><time>2026-05-03T09:00:04.479Z</time></trkpt><trkpt lat="42.2979381" lon="13.7559208"><ele>368.0</ele><time>2026-05-03T09:00:05.469Z</time></trkpt><trkpt lat="42.2981208" lon="13.7559148"><ele>368.0</ele><time>2026-05-03T09:00:06.497Z</time></trkpt><trkpt lat="42.2983065" lon="13.7559085"><ele>368.0</ele><time>2026-05-03T09:00:07.507Z</time></trkpt><trkpt lat="42.2984997" lon="13.7559051"><ele>368.0</ele><time>2026-05-03T09:00:08.495Z</time></trkpt><trkpt lat="42.2986922" lon="13.7559015"><ele>368.0</ele><time>2026-05-03T09:00:09.479Z</time></trkpt><trkpt lat="42.2988834" lon="13.7558981"><ele>368.0</ele><time>2026-05-03T09:00:10.495Z</time></trkpt><trkpt lat="42.2990725" lon="13.7558965"><ele>368.0</ele><time>2026-05-03T09:00:11.487Z</time></trkpt><trkpt lat="42.2992622" lon="13.7558919"><ele>368.33333333333337</ele><time>2026-05-03T09:00:12.498Z</time></trkpt><trkpt lat="42.2994491" lon="13.7558856"><ele>368.6666666666667</ele><time>2026-05-03T09:00:13.505Z</time></trkpt><trkpt lat="42.2996339" lon="13.7558813"><ele>369.0</ele><time>2026-05-03T09:00:14.509Z</time></trkpt><trkpt lat="42.2998167" lon="13.7558816"><ele>369.0</ele><time>2026-05-03T09:00:15.515Z</time></trkpt><trkpt lat="42.2999979" lon="13.7558783"><ele>369.0</ele><time>2026-05-03T09:00:16.517Z</time></trkpt><trkpt lat="42.3001805" lon="13.7558667"><ele>369.0</ele><time>2026-05-03T09:00:17.511Z</time></trkpt><trkpt lat="42.3003561" lon="13.7558462"><ele>369.0</ele><time>2026-05-03T09:00:18.507Z</time></trkpt><trkpt lat="42.300522" lon="13.7558233"><ele>369.0</ele><time>2026-05-03T09:00:19.512Z</time></trkpt><trkpt lat="42.3006919" lon="13.7557949"><ele>369.0</ele><time>2026-05-03T09:00:20.521Z</time></trkpt><trkpt lat="42.3008653" lon="13.7557609"><ele>369.0</ele><time>2026-05-03T09:00:21.514Z</time></trkpt><trkpt lat="42.3010365" lon="13.7557261"><ele>369.0</ele><time>2026-05-03T09:00:22.511Z</time></trkpt><trkpt lat="42.3012047" lon="13.7556855"><ele>369.0</ele><time>2026-05-03T09:00:23.508Z</time></trkpt><trkpt lat="42.3013748" lon="13.7556342"><ele>368.6666666666667</ele><time>2026-05-03T09:00:24.51Z</time></trkpt><trkpt lat="42.3015516" lon="13.755576"><ele>368.33333333333337</ele><time>2026-05-03T09:00:25.507Z</time></trkpt><trkpt lat="42.3017267" lon="13.755496"><ele>368.0</ele><time>2026-05-03T09:00:26.5Z</time></trkpt><trkpt lat="42.3018994" lon="13.755405"><ele>368.0</ele><time>2026-05-03T09:00:27.506Z</time></trkpt><trkpt lat="42.3020768" lon="13.755309"><ele>368.0</ele><time>2026-05-03T09:00:28.503Z</time></trkpt><trkpt lat="42.3022157" lon="13.755211"><ele>368.0</ele><time>2026-05-03T09:00:29.502Z</time></trkpt><trkpt lat="42.3023466" lon="13.7551278"><ele>369.0</ele><time>2026-05-03T09:00:30.515Z</time></trkpt><trkpt lat="42.3024717" lon="13.7550603"><ele>370.0</ele><time>2026-05-03T09:00:31.5Z</time></trkpt><trkpt lat="42.3026066" lon="13.7549764"><ele>371.0</ele><time>2026-05-03T09:00:32.498Z</time></trkpt><trkpt lat="42.3027603" lon="13.7549019"><ele>372.0</ele><time>2026-05-03T09:00:33.505Z</time></trkpt><trkpt lat="42.302921" lon="13.7548114"><ele>371.6666666666667</ele><time>2026-05-03T09:00:34.502Z</time></trkpt><trkpt lat="42.3030959" lon="13.7547237"><ele>371.33333333333337</ele><time>2026-05-03T09:00:35.501Z</time></trkpt><trkpt lat="42.3033377" lon="13.7546"><ele>371.0</ele><time>2026-05-03T09:00:36.501Z</time></trkpt><trkpt lat="42.3034574" lon="13.7545344"><ele>371.0</ele><time>2026-05-03T09:00:37.506Z</time></trkpt><trkpt lat="42.3036115" lon="13.7544633"><ele>371.0</ele><time>2026-05-03T09:00:38.507Z</time></trkpt><trkpt lat="42.3037808" lon="13.7543856"><ele>371.0</ele><time>2026-05-03T09:00:39.508Z</time></trkpt><trkpt lat="42.3039585" lon="13.7542952"><ele>372.0</ele><time>2026-05-03T09:00:40.504Z</time></trkpt><trkpt lat="42.304139" lon="13.7541991"><ele>373.0</ele><time>2026-05-03T09:00:41.501Z</time></trkpt><trkpt lat="42.3043275" lon="13.7540994"><ele>374.0</ele><time>2026-05-03T09:00:42.511Z</time></trkpt><trkpt lat="42.304512" lon="13.7539924"><ele>374.0</ele><time>2026-05-03T09:00:43.524Z</time></trkpt><trkpt lat="42.3046953" lon="13.753887"><ele>374.0</ele><time>2026-05-03T09:00:44.51Z</time></trkpt><trkpt lat="42.3048739" lon="13.7537709"><ele>374.0</ele><time>2026-05-03T09:00:45.509Z</time></trkpt><trkpt lat="42.3050551" lon="13.7536567"><ele>374.33333333333337</ele><time>2026-05-03T09:00:46.516Z</time></trkpt><trkpt lat="42.3052325" lon="13.7535451"><ele>374.6666666666667</ele><time>2026-05-03T09:00:47.506Z</time></trkpt><trkpt lat="42.3054112" lon="13.7534326"><ele>375.0</ele><time>2026-05-03T09:00:48.513Z</time></trkpt><trkpt lat="42.3055889" lon="13.7533238"><ele>375.6666666666667</ele><time>2026-05-03T09:00:49.508Z</time></trkpt><trkpt lat="42.305766" lon="13.7532123"><ele>376.33333333333337</ele><time>2026-05-03T09:00:50.504Z</time></trkpt><trkpt lat="42.3059365" lon="13.7531057"><ele>377.0</ele><time>2026-05-03T09:00:51.496Z</time></trkpt><trkpt lat="42.3060994" lon="13.7530023"><ele>377.0</ele><time>2026-05-03T09:00:52.509Z</time></trkpt><trkpt lat="42.3063019" lon="13.7528768"><ele>377.0</ele><time>2026-05-03T09:00:53.494Z</time></trkpt><trkpt lat="42.3065518" lon="13.7527294"><ele>380.0</ele><time>2026-05-03T09:00:54.427Z</time></trkpt><trkpt lat="42.306722" lon="13.7526985"><ele>383.0</ele><time>2026-05-03T09:00:55.498Z</time></trkpt><trkpt lat="42.3068967" lon="13.752675"><ele>386.0</ele><time>2026-05-03T09:00:56.503Z</time></trkpt><trkpt lat="42.3070764" lon="13.7526605"><ele>386.66666666666663</ele><time>2026-05-03T09:00:57.513Z</time></trkpt><trkpt lat="42.3072564" lon="13.75265"><ele>387.33333333333337</ele><time>2026-05-03T09:00:58.51Z</time></trkpt><trkpt lat="42.3074368" lon="13.752641"><ele>388.0</ele><time>2026-05-03T09:00:59.509Z</time></trkpt><trkpt lat="42.3076205" lon="13.7526328"><ele>388.0</ele><time>2026-05-03T09:01:00.513Z</time></trkpt><trkpt lat="42.3078037" lon="13.752628"><ele>388.0</ele><time>2026-05-03T09:01:01.508Z</time></trkpt><trkpt lat="42.3079866" lon="13.7526269"><ele>388.0</ele><time>2026-05-03T09:01:02.507Z</time></trkpt><trkpt lat="42.308172" lon="13.7526226"><ele>390.0</ele><time>2026-05-03T09:01:03.506Z</time></trkpt><trkpt lat="42.3083592" lon="13.7526181"><ele>392.0</ele><time>2026-05-03T09:01:04.507Z</time></trkpt><trkpt lat="42.3085462" lon="13.7526139"><ele>394.0</ele><time>2026-05-03T09:01:05.509Z</time></trkpt><trkpt lat="42.3087395" lon="13.7526326"><ele>395.33333333333337</ele><time>2026-05-03T09:01:06.505Z</time></trkpt><trkpt lat="42.3089278" lon="13.7526375"><ele>396.66666666666663</ele><time>2026-05-03T09:01:07.509Z</time></trkpt><trkpt lat="42.3091186" lon="13.752632"><ele>398.0</ele><time>2026-05-03T09:01:08.503Z</time></trkpt><trkpt lat="42.3093092" lon="13.7526165"><ele>398.0</ele><time>2026-05-03T09:01:09.505Z</time></trkpt><trkpt lat="42.309499" lon="13.7525955"><ele>398.0</ele><time>2026-05-03T09:01:10.505Z</time></trkpt><trkpt lat="42.309689" lon="13.7525709"><ele>398.0</ele><time>2026-05-03T09:01:11.497Z</time></trkpt><trkpt lat="42.3098704" lon="13.7525419"><ele>399.3333333333333</ele><time>2026-05-03T09:01:12.494Z</time></trkpt><trkpt lat="42.310049" lon="13.7525141"><ele>400.66666666666663</ele><time>2026-05-03T09:01:13.498Z</time></trkpt><trkpt lat="42.3102249" lon="13.752484"><ele>402.0</ele><time>2026-05-03T09:01:14.517Z</time></trkpt><trkpt lat="42.3103927" lon="13.7524362"><ele>402.0</ele><time>2026-05-03T09:01:15.477Z</time></trkpt><trkpt lat="42.3105564" lon="13.7523602"><ele>402.0</ele><time>2026-05-03T09:01:16.48Z</time></trkpt><trkpt lat="42.3107179" lon="13.7522646"><ele>402.0</ele><time>2026-05-03T09:01:17.484Z</time></trkpt><trkpt lat="42.3108777" lon="13.7521461"><ele>401.33333333333337</ele><time>2026-05-03T09:01:18.476Z</time></trkpt><trkpt lat="42.3110351" lon="13.7520198"><ele>400.6666666666667</ele><time>2026-05-03T09:01:19.473Z</time></trkpt><trkpt lat="42.3111821" lon="13.7518793"><ele>400.0</ele><time>2026-05-03T09:01:20.474Z</time></trkpt><trkpt lat="42.3113312" lon="13.7517281"><ele>402.33333333333337</ele><time>2026-05-03T09:01:21.484Z</time></trkpt><trkpt lat="42.3114752" lon="13.7515672"><ele>404.66666666666663</ele><time>2026-05-03T09:01:22.499Z</time></trkpt><trkpt lat="42.311615" lon="13.7514031"><ele>407.0</ele><time>2026-05-03T09:01:23.501Z</time></trkpt><trkpt lat="42.3117557" lon="13.7512386"><ele>407.0</ele><time>2026-05-03T09:01:24.496Z</time></trkpt><trkpt lat="42.3118945" lon="13.7510752"><ele>407.0</ele><time>2026-05-03T09:01:25.506Z</time></trkpt><trkpt lat="42.3120367" lon="13.7509291"><ele>407.0</ele><time>2026-05-03T09:01:26.491Z</time></trkpt><trkpt lat="42.3121756" lon="13.7508079"><ele>408.0</ele><time>2026-05-03T09:01:27.504Z</time></trkpt><trkpt lat="42.3123216" lon="13.7507137"><ele>409.0</ele><time>2026-05-03T09:01:28.464Z</time></trkpt><trkpt lat="42.3124719" lon="13.7506281"><ele>410.0</ele><time>2026-05-03T09:01:29.478Z</time></trkpt><trkpt lat="42.3126233" lon="13.7505624"><ele>410.0</ele><time>2026-05-03T09:01:30.468Z</time></trkpt><trkpt lat="42.3127737" lon="13.7505043"><ele>410.0</ele><time>2026-05-03T09:01:31.475Z</time></trkpt><trkpt lat="42.3129291" lon="13.7504468"><ele>410.0</ele><time>2026-05-03T09:01:32.492Z</time></trkpt><trkpt lat="42.3130755" lon="13.7503976"><ele>411.0</ele><time>2026-05-03T09:01:33.496Z</time></trkpt><trkpt lat="42.3132316" lon="13.7503743"><ele>412.0</ele><time>2026-05-03T09:01:34.484Z</time></trkpt><trkpt lat="42.313395" lon="13.7503723"><ele>413.0</ele><time>2026-05-03T09:01:35.474Z</time></trkpt><trkpt lat="42.3135613" lon="13.7503723"><ele>413.0</ele><time>2026-05-03T09:01:36.471Z</time></trkpt><trkpt lat="42.3137337" lon="13.7503765"><ele>413.0</ele><time>2026-05-03T09:01:37.477Z</time></trkpt><trkpt lat="42.3139078" lon="13.7503808"><ele>413.0</ele><time>2026-05-03T09:01:38.471Z</time></trkpt><trkpt lat="42.3140813" lon="13.7503899"><ele>414.66666666666663</ele><time>2026-05-03T09:01:39.496Z</time></trkpt><trkpt lat="42.3142514" lon="13.7503983"><ele>416.33333333333337</ele><time>2026-05-03T09:01:40.491Z</time></trkpt><trkpt lat="42.3144174" lon="13.7504068"><ele>418.0</ele><time>2026-05-03T09:01:41.498Z</time></trkpt><trkpt lat="42.3145839" lon="13.7504141"><ele>419.75</ele><time>2026-05-03T09:01:42.496Z</time></trkpt><trkpt lat="42.3147418" lon="13.7504246"><ele>421.5</ele><time>2026-05-03T09:01:43.486Z</time></trkpt><trkpt lat="42.3148865" lon="13.7504352"><ele>423.25</ele><time>2026-05-03T09:01:44.497Z</time></trkpt><trkpt lat="42.3150211" lon="13.7504442"><ele>425.0</ele><time>2026-05-03T09:01:45.469Z</time></trkpt><trkpt lat="42.3151427" lon="13.7504467"><ele>425.0</ele><time>2026-05-03T09:01:46.499Z</time></trkpt><trkpt lat="42.3152663" lon="13.7504623"><ele>425.0</ele><time>2026-05-03T09:01:47.483Z</time></trkpt><trkpt lat="42.3153933" lon="13.7504985"><ele>425.0</ele><time>2026-05-03T09:01:48.485Z</time></trkpt><trkpt lat="42.3155231" lon="13.7505398"><ele>425.0</ele><time>2026-05-03T09:01:49.471Z</time></trkpt><trkpt lat="42.3156601" lon="13.7505874"><ele>427.0</ele><time>2026-05-03T09:01:50.462Z</time></trkpt><trkpt lat="42.3157966" lon="13.7506422"><ele>429.0</ele><time>2026-05-03T09:01:51.465Z</time></trkpt><trkpt lat="42.3159375" lon="13.750686"><ele>431.0</ele><time>2026-05-03T09:01:52.469Z</time></trkpt><trkpt lat="42.3160826" lon="13.7507427"><ele>433.0</ele><time>2026-05-03T09:01:53.49Z</time></trkpt><trkpt lat="42.3162318" lon="13.7508034"><ele>433.0</ele><time>2026-05-03T09:01:54.489Z</time></trkpt><trkpt lat="42.3163835" lon="13.7508654"><ele>433.0</ele><time>2026-05-03T09:01:55.493Z</time></trkpt><trkpt lat="42.3165371" lon="13.7509287"><ele>433.0</ele><time>2026-05-03T09:01:56.494Z</time></trkpt><trkpt lat="42.3166929" lon="13.750992"><ele>432.0</ele><time>2026-05-03T09:01:57.497Z</time></trkpt><trkpt lat="42.3168547" lon="13.7510659"><ele>431.0</ele><time>2026-05-03T09:01:58.484Z</time></trkpt><trkpt lat="42.3170133" lon="13.7511511"><ele>430.0</ele><time>2026-05-03T09:01:59.484Z</time></trkpt><trkpt lat="42.3171692" lon="13.751247"><ele>432.33333333333337</ele><time>2026-05-03T09:02:00.493Z</time></trkpt><trkpt lat="42.3173249" lon="13.7513441"><ele>434.66666666666663</ele><time>2026-05-03T09:02:01.486Z</time></trkpt><trkpt lat="42.3174759" lon="13.7514342"><ele>437.0</ele><time>2026-05-03T09:02:02.485Z</time></trkpt><trkpt lat="42.3176148" lon="13.7515162"><ele>437.0</ele><time>2026-05-03T09:02:03.481Z</time></trkpt><trkpt lat="42.3177477" lon="13.7515522"><ele>437.0</ele><time>2026-05-03T09:02:04.488Z</time></trkpt><trkpt lat="42.3178782" lon="13.7515479"><ele>437.0</ele><time>2026-05-03T09:02:05.464Z</time></trkpt><trkpt lat="42.3180126" lon="13.7515022"><ele>437.0</ele><time>2026-05-03T09:02:06.464Z</time></trkpt><trkpt lat="42.3181436" lon="13.7514259"><ele>438.0</ele><time>2026-05-03T09:02:07.458Z</time></trkpt><trkpt lat="42.3182878" lon="13.7513725"><ele>439.0</ele><time>2026-05-03T09:02:08.374Z</time></trkpt><trkpt lat="42.3184376" lon="13.7512949"><ele>440.0</ele><time>2026-05-03T09:02:09.378Z</time></trkpt><trkpt lat="42.3185851" lon="13.7512583"><ele>440.0</ele><time>2026-05-03T09:02:10.395Z</time></trkpt><trkpt lat="42.3187433" lon="13.7512326"><ele>440.0</ele><time>2026-05-03T09:02:11.398Z</time></trkpt><trkpt lat="42.3188946" lon="13.7512083"><ele>440.0</ele><time>2026-05-03T09:02:12.394Z</time></trkpt><trkpt lat="42.319045" lon="13.7512055"><ele>441.5</ele><time>2026-05-03T09:02:13.397Z</time></trkpt><trkpt lat="42.3191742" lon="13.7512285"><ele>443.0</ele><time>2026-05-03T09:02:14.39Z</time></trkpt><trkpt lat="42.319298" lon="13.7512858"><ele>444.5</ele><time>2026-05-03T09:02:15.411Z</time></trkpt><trkpt lat="42.3194306" lon="13.7513985"><ele>446.0</ele><time>2026-05-03T09:02:16.394Z</time></trkpt><trkpt lat="42.3195446" lon="13.7515184"><ele>446.0</ele><time>2026-05-03T09:02:17.389Z</time></trkpt><trkpt lat="42.31966" lon="13.7516418"><ele>446.0</ele><time>2026-05-03T09:02:18.395Z</time></trkpt><trkpt lat="42.319788" lon="13.7517509"><ele>446.0</ele><time>2026-05-03T09:02:19.397Z</time></trkpt><trkpt lat="42.3199131" lon="13.7518679"><ele>446.3333333333333</ele><time>2026-05-03T09:02:20.399Z</time></trkpt><trkpt lat="42.3200407" lon="13.7519816"><ele>446.66666666666663</ele><time>2026-05-03T09:02:21.396Z</time></trkpt><trkpt lat="42.3201676" lon="13.75211"><ele>447.0</ele><time>2026-05-03T09:02:22.397Z</time></trkpt><trkpt lat="42.3202996" lon="13.7522231"><ele>447.0</ele><time>2026-05-03T09:02:23.396Z</time></trkpt><trkpt lat="42.3204383" lon="13.7523365"><ele>447.0</ele><time>2026-05-03T09:02:24.395Z</time></trkpt><trkpt lat="42.3205752" lon="13.7524475"><ele>447.0</ele><time>2026-05-03T09:02:25.397Z</time></trkpt><trkpt lat="42.320719" lon="13.7525562"><ele>449.0</ele><time>2026-05-03T09:02:26.398Z</time></trkpt><trkpt lat="42.3208539" lon="13.75266"><ele>451.0</ele><time>2026-05-03T09:02:27.402Z</time></trkpt><trkpt lat="42.3209916" lon="13.7527629"><ele>453.0</ele><time>2026-05-03T09:02:28.401Z</time></trkpt><trkpt lat="42.3211228" lon="13.752861"><ele>453.0</ele><time>2026-05-03T09:02:29.392Z</time></trkpt><trkpt lat="42.3212378" lon="13.7529694"><ele>453.0</ele><time>2026-05-03T09:02:30.395Z</time></trkpt><trkpt lat="42.3213458" lon="13.7530911"><ele>453.0</ele><time>2026-05-03T09:02:31.377Z</time></trkpt><trkpt lat="42.3214311" lon="13.7532321"><ele>453.0</ele><time>2026-05-03T09:02:32.398Z</time></trkpt><trkpt lat="42.321485" lon="13.7534"><ele>454.5</ele><time>2026-05-03T09:02:33.393Z</time></trkpt><trkpt lat="42.321549" lon="13.7535632"><ele>456.0</ele><time>2026-05-03T09:02:34.389Z</time></trkpt><trkpt lat="42.3216331" lon="13.7537042"><ele>457.5</ele><time>2026-05-03T09:02:35.388Z</time></trkpt><trkpt lat="42.3217423" lon="13.7538175"><ele>459.0</ele><time>2026-05-03T09:02:36.399Z</time></trkpt><trkpt lat="42.3218697" lon="13.7539208"><ele>459.0</ele><time>2026-05-03T09:02:37.399Z</time></trkpt><trkpt lat="42.3219967" lon="13.7540402"><ele>459.0</ele><time>2026-05-03T09:02:38.394Z</time></trkpt><trkpt lat="42.3221246" lon="13.7541545"><ele>459.0</ele><time>2026-05-03T09:02:39.401Z</time></trkpt><trkpt lat="42.3222623" lon="13.7542715"><ele>460.0</ele><time>2026-05-03T09:02:40.4Z</time></trkpt><trkpt lat="42.3224036" lon="13.754384"><ele>461.0</ele><time>2026-05-03T09:02:41.4Z</time></trkpt><trkpt lat="42.3225424" lon="13.7544999"><ele>462.0</ele><time>2026-05-03T09:02:42.404Z</time></trkpt><trkpt lat="42.3226734" lon="13.7546115"><ele>462.0</ele><time>2026-05-03T09:02:43.399Z</time></trkpt><trkpt lat="42.3228099" lon="13.7547217"><ele>462.0</ele><time>2026-05-03T09:02:44.399Z</time></trkpt><trkpt lat="42.3229537" lon="13.7548242"><ele>462.0</ele><time>2026-05-03T09:02:45.401Z</time></trkpt><trkpt lat="42.3230869" lon="13.7549221"><ele>462.33333333333337</ele><time>2026-05-03T09:02:46.414Z</time></trkpt><trkpt lat="42.3232166" lon="13.7550337"><ele>462.6666666666667</ele><time>2026-05-03T09:02:47.403Z</time></trkpt><trkpt lat="42.3233455" lon="13.7551375"><ele>463.0</ele><time>2026-05-03T09:02:48.395Z</time></trkpt><trkpt lat="42.3234812" lon="13.7552394"><ele>463.0</ele><time>2026-05-03T09:02:49.399Z</time></trkpt><trkpt lat="42.3236106" lon="13.7553232"><ele>463.0</ele><time>2026-05-03T09:02:50.398Z</time></trkpt><trkpt lat="42.3237493" lon="13.7553923"><ele>463.0</ele><time>2026-05-03T09:02:51.395Z</time></trkpt><trkpt lat="42.3238779" lon="13.7554341"><ele>463.0</ele><time>2026-05-03T09:02:52.4Z</time></trkpt><trkpt lat="42.324013" lon="13.7554076"><ele>465.25</ele><time>2026-05-03T09:02:53.389Z</time></trkpt><trkpt lat="42.3241403" lon="13.7553668"><ele>467.5</ele><time>2026-05-03T09:02:54.402Z</time></trkpt><trkpt lat="42.3242869" lon="13.7553437"><ele>469.75</ele><time>2026-05-03T09:02:55.397Z</time></trkpt><trkpt lat="42.3244297" lon="13.7553352"><ele>472.0</ele><time>2026-05-03T09:02:56.388Z</time></trkpt><trkpt lat="42.3245699" lon="13.7553623"><ele>472.0</ele><time>2026-05-03T09:02:57.4Z</time></trkpt><trkpt lat="42.3247239" lon="13.7554094"><ele>472.0</ele><time>2026-05-03T09:02:58.387Z</time></trkpt><trkpt lat="42.3248581" lon="13.7554544"><ele>472.0</ele><time>2026-05-03T09:02:59.377Z</time></trkpt><trkpt lat="42.3249774" lon="13.7554854"><ele>472.0</ele><time>2026-05-03T09:03:00.39Z</time></trkpt><trkpt lat="42.325086" lon="13.7555093"><ele>473.40000000000003</ele><time>2026-05-03T09:03:01.396Z</time></trkpt><trkpt lat="42.3251883" lon="13.7555584"><ele>474.80000000000007</ele><time>2026-05-03T09:03:02.389Z</time></trkpt><trkpt lat="42.3252539" lon="13.7556291"><ele>476.2</ele><time>2026-05-03T09:03:03.398Z</time></trkpt><trkpt lat="42.3253067" lon="13.7557359"><ele>477.6</ele><time>2026-05-03T09:03:04.381Z</time></trkpt><trkpt lat="42.3253076" lon="13.7558783"><ele>479.0</ele><time>2026-05-03T09:03:05.395Z</time></trkpt><trkpt lat="42.3253141" lon="13.7560357"><ele>478.79999999999995</ele><time>2026-05-03T09:03:06.399Z</time></trkpt><trkpt lat="42.3253266" lon="13.7562022"><ele>478.59999999999997</ele><time>2026-05-03T09:03:07.395Z</time></trkpt><trkpt lat="42.3253225" lon="13.7563536"><ele>478.4</ele><time>2026-05-03T09:03:08.395Z</time></trkpt><trkpt lat="42.3253031" lon="13.7564884"><ele>478.2</ele><time>2026-05-03T09:03:09.394Z</time></trkpt><trkpt lat="42.3252631" lon="13.75662"><ele>478.0</ele><time>2026-05-03T09:03:10.399Z</time></trkpt><trkpt lat="42.3251913" lon="13.7567341"><ele>478.0</ele><time>2026-05-03T09:03:11.384Z</time></trkpt><trkpt lat="42.3250958" lon="13.7568234"><ele>477.99999999999994</ele><time>2026-05-03T09:03:12.392Z</time></trkpt><trkpt lat="42.3250062" lon="13.7569016"><ele>477.99999999999994</ele><time>2026-05-03T09:03:13.394Z</time></trkpt><trkpt lat="42.3249277" lon="13.7569966"><ele>478.0</ele><time>2026-05-03T09:03:14.388Z</time></trkpt><trkpt lat="42.3248696" lon="13.7571291"><ele>478.0</ele><time>2026-05-03T09:03:15.383Z</time></trkpt><trkpt lat="42.324836" lon="13.7572938"><ele>480.5</ele><time>2026-05-03T09:03:16.388Z</time></trkpt><trkpt lat="42.3248264" lon="13.7574613"><ele>483.0</ele><time>2026-05-03T09:03:17.401Z</time></trkpt><trkpt lat="42.3248375" lon="13.7576257"><ele>485.5</ele><time>2026-05-03T09:03:18.394Z</time></trkpt><trkpt lat="42.3248481" lon="13.757784"><ele>488.0</ele><time>2026-05-03T09:03:19.396Z</time></trkpt><trkpt lat="42.3248638" lon="13.7579461"><ele>488.75</ele><time>2026-05-03T09:03:20.396Z</time></trkpt><trkpt lat="42.3248868" lon="13.7581078"><ele>489.5</ele><time>2026-05-03T09:03:21.387Z</time></trkpt><trkpt lat="42.3249105" lon="13.7582708"><ele>490.25</ele><time>2026-05-03T09:03:22.393Z</time></trkpt><trkpt lat="42.3249379" lon="13.7584318"><ele>491.0</ele><time>2026-05-03T09:03:23.388Z</time></trkpt><trkpt lat="42.3249638" lon="13.7585915"><ele>491.0</ele><time>2026-05-03T09:03:24.4Z</time></trkpt><trkpt lat="42.3249875" lon="13.7587387"><ele>491.0</ele><time>2026-05-03T09:03:25.408Z</time></trkpt><trkpt lat="42.3250079" lon="13.7588712"><ele>491.0</ele><time>2026-05-03T09:03:26.399Z</time></trkpt><trkpt lat="42.3250063" lon="13.7589985"><ele>491.0</ele><time>2026-05-03T09:03:27.401Z</time></trkpt><trkpt lat="42.3249884" lon="13.7591153"><ele>491.0</ele><time>2026-05-03T09:03:28.397Z</time></trkpt><trkpt lat="42.324962" lon="13.7592146"><ele>490.99999999999994</ele><time>2026-05-03T09:03:29.405Z</time></trkpt><trkpt lat="42.3249479" lon="13.7593129"><ele>491.0</ele><time>2026-05-03T09:03:30.406Z</time></trkpt><trkpt lat="42.3249546" lon="13.7594016"><ele>491.0</ele><time>2026-05-03T09:03:31.406Z</time></trkpt><trkpt lat="42.3249914" lon="13.7595405"><ele>491.0</ele><time>2026-05-03T09:03:33.394Z</time></trkpt><trkpt lat="42.3250478" lon="13.7596198"><ele>490.99999999999994</ele><time>2026-05-03T09:03:35.39Z</time></trkpt><trkpt lat="42.3250114" lon="13.7597041"><ele>491.0</ele><time>2026-05-03T09:03:41.398Z</time></trkpt><trkpt lat="42.324941" lon="13.7596641"><ele>495.0</ele><time>2026-05-03T09:03:44.399Z</time></trkpt><trkpt lat="42.3248973" lon="13.7597352"><ele>495.0</ele><time>2026-05-03T09:03:49.399Z</time></trkpt><trkpt lat="42.3249437" lon="13.7598409"><ele>495.0</ele><time>2026-05-03T09:03:52.401Z</time></trkpt><trkpt lat="42.3250166" lon="13.7598514"><ele>495.0</ele><time>2026-05-03T09:03:59.406Z</time></trkpt></trkseg><trkseg><trkpt lat="42.5217438" lon="14.1533679"><ele>0.0</ele><time>2026-05-03T11:10:18.462Z</time></trkpt><trkpt lat="42.521835" lon="14.1536057"><ele>0.0</ele><time>2026-05-03T11:10:21.466Z</time></trkpt><trkpt lat="42.5218951" lon="14.1536424"><ele>0.0</ele><time>2026-05-03T11:10:23.456Z</time></trkpt><trkpt lat="42.5219709" lon="14.1536413"><ele>0.0</ele><time>2026-05-03T11:10:25.466Z</time></trkpt><trkpt lat="42.5220718" lon="14.1535491"><ele>0.3333333333333333</ele><time>2026-05-03T11:10:27.361Z</time></trkpt><trkpt lat="42.5221231" lon="14.1534968"><ele>0.6666666666666666</ele><time>2026-05-03T11:10:28.356Z</time></trkpt><trkpt lat="42.5222113" lon="14.153427"><ele>1.0</ele><time>2026-05-03T11:10:30.352Z</time></trkpt><trkpt lat="42.5222793" lon="14.1533569"><ele>1.3333333333333333</ele><time>2026-05-03T11:10:32.368Z</time></trkpt><trkpt lat="42.5223204" lon="14.1532586"><ele>1.6666666666666665</ele><time>2026-05-03T11:10:34.362Z</time></trkpt><trkpt lat="42.5223057" lon="14.1531721"><ele>2.0</ele><time>2026-05-03T11:10:36.368Z</time></trkpt><trkpt lat="42.522373" lon="14.1530447"><ele>1.9999999999999998</ele><time>2026-05-03T11:10:39.367Z</time></trkpt><trkpt lat="42.5223865" lon="14.1529302"><ele>2.0</ele><time>2026-05-03T11:10:41.367Z</time></trkpt><trkpt lat="42.5223555" lon="14.1528529"><ele>2.0</ele><time>2026-05-03T11:10:42.358Z</time></trkpt><trkpt lat="42.522314" lon="14.1527797"><ele>2.0</ele><time>2026-05-03T11:10:43.356Z</time></trkpt><trkpt lat="42.5222705" lon="14.1527024"><ele>1.9999999999999998</ele><time>2026-05-03T11:10:44.358Z</time></trkpt><trkpt lat="42.5222049" lon="14.1525815"><ele>2.0</ele><time>2026-05-03T11:10:46.362Z</time></trkpt><trkpt lat="42.5221682" lon="14.1525053"><ele>2.0</ele><time>2026-05-03T11:10:48.364Z</time></trkpt><trkpt lat="42.5221681" lon="14.1524176"><ele>2.0</ele><time>2026-05-03T11:10:52.373Z</time></trkpt><trkpt lat="42.5222463" lon="14.1524057"><ele>2.0</ele><time>2026-05-03T11:11:08.374Z</time></trkpt><trkpt lat="42.5222861" lon="14.1524897"><ele>2.0</ele><time>2026-05-03T11:11:11.371Z</time></trkpt></trkseg></trk></gpx>